<?xml version="1.0" encoding="UTF-8" standalone="no" ?>
<gpx xmlns="http://www.topografix.com/GPX/1/1" xmlns:xsi="http://www.w3.org/2001/XMLSchema-instance" xsi:schemaLocation="http://www.topografix.com/GPX/1/1 http://www.topografix.com/GPX/1/1/gpx.xsd" version="1.1" creator="VisuGPX - https://www.visugpx.com">
  <metadata>
    <name>brest-quimper 1-4</name>
    <desc><![CDATA[raid dans le 29 de brest à quimper]]></desc>
  </metadata>
  <trk>
    <name><![CDATA[brest-quimper 1-4_1]]></name>
    <cmt><![CDATA[Brest-Logonna par les anses
pleine mer et soleil
le top]]></cmt>
    <trkseg>
      <trkpt lat="48.39694" lon="-4.43358">
        <ele>11.746517181397</ele>
        <time>2011-05-05T14:57:46Z</time>
      </trkpt>
      <trkpt lat="48.39702" lon="-4.43322">
        <ele>12.203999519348</ele>
        <time>2011-05-05T14:57:53Z</time>
      </trkpt>
      <trkpt lat="48.39717" lon="-4.43267">
        <ele>13.374833106995</ele>
        <time>2011-05-05T14:58:01Z</time>
      </trkpt>
      <trkpt lat="48.39729" lon="-4.43211">
        <ele>12.631408691406</ele>
        <time>2011-05-05T14:58:09Z</time>
      </trkpt>
      <trkpt lat="48.39741" lon="-4.43154">
        <ele>11.053285598755</ele>
        <time>2011-05-05T14:58:17Z</time>
      </trkpt>
      <trkpt lat="48.39755" lon="-4.43078">
        <ele>9.7013063430786</ele>
        <time>2011-05-05T14:58:28Z</time>
      </trkpt>
      <trkpt lat="48.39764" lon="-4.43019">
        <ele>9.4016437530518</ele>
        <time>2011-05-05T14:58:37Z</time>
      </trkpt>
      <trkpt lat="48.39768" lon="-4.42959">
        <ele>8.8447980880737</ele>
        <time>2011-05-05T14:58:46Z</time>
      </trkpt>
      <trkpt lat="48.39773" lon="-4.42885">
        <ele>8.4367418289185</ele>
        <time>2011-05-05T14:58:56Z</time>
      </trkpt>
      <trkpt lat="48.39777" lon="-4.42817">
        <ele>8.0522174835205</ele>
        <time>2011-05-05T14:59:04Z</time>
      </trkpt>
      <trkpt lat="48.39782" lon="-4.42746">
        <ele>6.9482731819153</ele>
        <time>2011-05-05T14:59:12Z</time>
      </trkpt>
      <trkpt lat="48.39785" lon="-4.42672">
        <ele>6.8469839096069</ele>
        <time>2011-05-05T14:59:20Z</time>
      </trkpt>
      <trkpt lat="48.39786" lon="-4.42663">
        <ele>6.8255090713501</ele>
        <time>2011-05-05T14:59:21Z</time>
      </trkpt>
      <trkpt lat="48.39783" lon="-4.42593">
        <ele>5.6482524871826</ele>
        <time>2011-05-05T14:59:28Z</time>
      </trkpt>
      <trkpt lat="48.39779" lon="-4.42492">
        <ele>4.5276503562927</ele>
        <time>2011-05-05T14:59:37Z</time>
      </trkpt>
      <trkpt lat="48.39772" lon="-4.42458">
        <ele>3.3578057289123</ele>
        <time>2011-05-05T14:59:40Z</time>
      </trkpt>
      <trkpt lat="48.39761" lon="-4.42429">
        <ele>2.1171493530273</ele>
        <time>2011-05-05T14:59:43Z</time>
      </trkpt>
      <trkpt lat="48.39748" lon="-4.42376">
        <ele>2.4105122089386</ele>
        <time>2011-05-05T14:59:49Z</time>
      </trkpt>
      <trkpt lat="48.39732" lon="-4.42319">
        <ele>3.2901558876038</ele>
        <time>2011-05-05T14:59:56Z</time>
      </trkpt>
      <trkpt lat="48.39711" lon="-4.42238">
        <ele>2.7503476142883</ele>
        <time>2011-05-05T15:00:05Z</time>
      </trkpt>
      <trkpt lat="48.39688" lon="-4.42162">
        <ele>2.0626075267792</ele>
        <time>2011-05-05T15:00:14Z</time>
      </trkpt>
      <trkpt lat="48.39663" lon="-4.42083">
        <ele>0.95062255859375</ele>
        <time>2011-05-05T15:00:24Z</time>
      </trkpt>
      <trkpt lat="48.3964" lon="-4.42023">
        <ele>1.8933758735657</ele>
        <time>2011-05-05T15:00:33Z</time>
      </trkpt>
      <trkpt lat="48.39631" lon="-4.41997">
        <ele>2.2360465526581</ele>
        <time>2011-05-05T15:00:37Z</time>
      </trkpt>
      <trkpt lat="48.39611" lon="-4.41946">
        <ele>2.9626569747925</ele>
        <time>2011-05-05T15:00:45Z</time>
      </trkpt>
      <trkpt lat="48.39584" lon="-4.41888">
        <ele>3.3955993652344</ele>
        <time>2011-05-05T15:00:54Z</time>
      </trkpt>
      <trkpt lat="48.39568" lon="-4.41849">
        <ele>4.4154491424561</ele>
        <time>2011-05-05T15:01:00Z</time>
      </trkpt>
      <trkpt lat="48.39554" lon="-4.41783">
        <ele>6.0374312400818</ele>
        <time>2011-05-05T15:01:10Z</time>
      </trkpt>
      <trkpt lat="48.39547" lon="-4.4173">
        <ele>8.2195205688477</ele>
        <time>2011-05-05T15:01:19Z</time>
      </trkpt>
      <trkpt lat="48.39544" lon="-4.41691">
        <ele>11.182395935059</ele>
        <time>2011-05-05T15:01:26Z</time>
      </trkpt>
      <trkpt lat="48.39539" lon="-4.4163">
        <ele>15.249402999878</ele>
        <time>2011-05-05T15:01:37Z</time>
      </trkpt>
      <trkpt lat="48.39537" lon="-4.41591">
        <ele>17.764797210693</ele>
        <time>2011-05-05T15:01:45Z</time>
      </trkpt>
      <trkpt lat="48.39535" lon="-4.41558">
        <ele>19.535444259644</ele>
        <time>2011-05-05T15:01:52Z</time>
      </trkpt>
      <trkpt lat="48.39527" lon="-4.41515">
        <ele>21.518217086792</ele>
        <time>2011-05-05T15:02:01Z</time>
      </trkpt>
      <trkpt lat="48.39521" lon="-4.41483">
        <ele>22.926197052002</ele>
        <time>2011-05-05T15:02:08Z</time>
      </trkpt>
      <trkpt lat="48.39516" lon="-4.41448">
        <ele>24.177013397217</ele>
        <time>2011-05-05T15:02:15Z</time>
      </trkpt>
      <trkpt lat="48.39511" lon="-4.41406">
        <ele>25.283493041992</ele>
        <time>2011-05-05T15:02:23Z</time>
      </trkpt>
      <trkpt lat="48.39513" lon="-4.41365">
        <ele>25.397129058838</ele>
        <time>2011-05-05T15:02:30Z</time>
      </trkpt>
      <trkpt lat="48.39511" lon="-4.41312">
        <ele>26.382884979248</ele>
        <time>2011-05-05T15:02:39Z</time>
      </trkpt>
      <trkpt lat="48.39514" lon="-4.41263">
        <ele>28.611471176148</ele>
        <time>2011-05-05T15:02:47Z</time>
      </trkpt>
      <trkpt lat="48.39511" lon="-4.41217">
        <ele>29.883951187134</ele>
        <time>2011-05-05T15:02:55Z</time>
      </trkpt>
      <trkpt lat="48.395" lon="-4.41205">
        <ele>30.082109451294</ele>
        <time>2011-05-05T15:02:59Z</time>
      </trkpt>
      <trkpt lat="48.39475" lon="-4.4119">
        <ele>29.753526687622</ele>
        <time>2011-05-05T15:03:06Z</time>
      </trkpt>
      <trkpt lat="48.39452" lon="-4.41174">
        <ele>29.62061882019</ele>
        <time>2011-05-05T15:03:12Z</time>
      </trkpt>
      <trkpt lat="48.39417" lon="-4.41136">
        <ele>29.722017288208</ele>
        <time>2011-05-05T15:03:21Z</time>
      </trkpt>
      <trkpt lat="48.39391" lon="-4.41106">
        <ele>29.613552093506</ele>
        <time>2011-05-05T15:03:28Z</time>
      </trkpt>
      <trkpt lat="48.39388" lon="-4.41102">
        <ele>29.631875991821</ele>
        <time>2011-05-05T15:03:29Z</time>
      </trkpt>
      <trkpt lat="48.39349" lon="-4.41071">
        <ele>29.888206481934</ele>
        <time>2011-05-05T15:03:39Z</time>
      </trkpt>
      <trkpt lat="48.39329" lon="-4.41051">
        <ele>30.246421813965</ele>
        <time>2011-05-05T15:03:45Z</time>
      </trkpt>
      <trkpt lat="48.39314" lon="-4.41036">
        <ele>30.042188644409</ele>
        <time>2011-05-05T15:03:51Z</time>
      </trkpt>
      <trkpt lat="48.39307" lon="-4.41029">
        <ele>29.932815551758</ele>
        <time>2011-05-05T15:03:57Z</time>
      </trkpt>
      <trkpt lat="48.39298" lon="-4.41017">
        <ele>29.943449020386</ele>
        <time>2011-05-05T15:04:03Z</time>
      </trkpt>
      <trkpt lat="48.39294" lon="-4.41013">
        <ele>29.929546356201</ele>
        <time>2011-05-05T15:04:05Z</time>
      </trkpt>
      <trkpt lat="48.39284" lon="-4.4099">
        <ele>30.329538345337</ele>
        <time>2011-05-05T15:04:12Z</time>
      </trkpt>
      <trkpt lat="48.39273" lon="-4.40973">
        <ele>30.321321487427</ele>
        <time>2011-05-05T15:04:17Z</time>
      </trkpt>
      <trkpt lat="48.39257" lon="-4.40953">
        <ele>30.468555450439</ele>
        <time>2011-05-05T15:04:22Z</time>
      </trkpt>
      <trkpt lat="48.39241" lon="-4.40932">
        <ele>30.078687667847</ele>
        <time>2011-05-05T15:04:27Z</time>
      </trkpt>
      <trkpt lat="48.39241" lon="-4.40912">
        <ele>30.819835662842</ele>
        <time>2011-05-05T15:04:31Z</time>
      </trkpt>
      <trkpt lat="48.39243" lon="-4.40907">
        <ele>30.974452972412</ele>
        <time>2011-05-05T15:04:32Z</time>
      </trkpt>
      <trkpt lat="48.39251" lon="-4.40882">
        <ele>31.616130828857</ele>
        <time>2011-05-05T15:04:38Z</time>
      </trkpt>
      <trkpt lat="48.39259" lon="-4.40865">
        <ele>31.627834320068</ele>
        <time>2011-05-05T15:04:42Z</time>
      </trkpt>
      <trkpt lat="48.39256" lon="-4.40849">
        <ele>31.363607406616</ele>
        <time>2011-05-05T15:04:46Z</time>
      </trkpt>
      <trkpt lat="48.39235" lon="-4.40824">
        <ele>29.158372879028</ele>
        <time>2011-05-05T15:04:52Z</time>
      </trkpt>
      <trkpt lat="48.39226" lon="-4.40812">
        <ele>27.937009811401</ele>
        <time>2011-05-05T15:04:55Z</time>
      </trkpt>
      <trkpt lat="48.39216" lon="-4.408">
        <ele>26.674880981445</ele>
        <time>2011-05-05T15:04:58Z</time>
      </trkpt>
      <trkpt lat="48.39197" lon="-4.40771">
        <ele>24.27939414978</ele>
        <time>2011-05-05T15:05:03Z</time>
      </trkpt>
      <trkpt lat="48.39192" lon="-4.40757">
        <ele>23.557739257812</ele>
        <time>2011-05-05T15:05:05Z</time>
      </trkpt>
      <trkpt lat="48.3918" lon="-4.40718">
        <ele>22.329372406006</ele>
        <time>2011-05-05T15:05:10Z</time>
      </trkpt>
      <trkpt lat="48.39153" lon="-4.4066">
        <ele>20.195903778076</ele>
        <time>2011-05-05T15:05:18Z</time>
      </trkpt>
      <trkpt lat="48.39147" lon="-4.40646">
        <ele>19.224931716919</ele>
        <time>2011-05-05T15:05:20Z</time>
      </trkpt>
      <trkpt lat="48.39141" lon="-4.4061">
        <ele>17.826772689819</ele>
        <time>2011-05-05T15:05:25Z</time>
      </trkpt>
      <trkpt lat="48.39146" lon="-4.40599">
        <ele>18.093227386475</ele>
        <time>2011-05-05T15:05:28Z</time>
      </trkpt>
      <trkpt lat="48.39146" lon="-4.40588">
        <ele>17.905025482178</ele>
        <time>2011-05-05T15:05:30Z</time>
      </trkpt>
      <trkpt lat="48.39143" lon="-4.40555">
        <ele>17.619577407837</ele>
        <time>2011-05-05T15:05:34Z</time>
      </trkpt>
      <trkpt lat="48.39133" lon="-4.4053">
        <ele>17.052164077759</ele>
        <time>2011-05-05T15:05:39Z</time>
      </trkpt>
      <trkpt lat="48.3913" lon="-4.40524">
        <ele>16.917169570923</ele>
        <time>2011-05-05T15:05:41Z</time>
      </trkpt>
      <trkpt lat="48.39124" lon="-4.40498">
        <ele>17.040832519531</ele>
        <time>2011-05-05T15:05:47Z</time>
      </trkpt>
      <trkpt lat="48.3912" lon="-4.40476">
        <ele>17.922027587891</ele>
        <time>2011-05-05T15:05:52Z</time>
      </trkpt>
      <trkpt lat="48.39113" lon="-4.40447">
        <ele>18.988616943359</ele>
        <time>2011-05-05T15:05:58Z</time>
      </trkpt>
      <trkpt lat="48.39108" lon="-4.40425">
        <ele>19.789703369141</ele>
        <time>2011-05-05T15:06:04Z</time>
      </trkpt>
      <trkpt lat="48.39107" lon="-4.40407">
        <ele>20.485542297363</ele>
        <time>2011-05-05T15:06:09Z</time>
      </trkpt>
      <trkpt lat="48.39106" lon="-4.40391">
        <ele>21.022270202637</ele>
        <time>2011-05-05T15:06:14Z</time>
      </trkpt>
      <trkpt lat="48.39108" lon="-4.40384">
        <ele>21.343276977539</ele>
        <time>2011-05-05T15:06:16Z</time>
      </trkpt>
      <trkpt lat="48.39115" lon="-4.40363">
        <ele>22.448204040527</ele>
        <time>2011-05-05T15:06:22Z</time>
      </trkpt>
      <trkpt lat="48.39119" lon="-4.40357">
        <ele>22.845314025879</ele>
        <time>2011-05-05T15:06:25Z</time>
      </trkpt>
      <trkpt lat="48.39125" lon="-4.40347">
        <ele>23.524520874023</ele>
        <time>2011-05-05T15:06:29Z</time>
      </trkpt>
      <trkpt lat="48.39127" lon="-4.40319">
        <ele>24.337608337402</ele>
        <time>2011-05-05T15:06:36Z</time>
      </trkpt>
      <trkpt lat="48.39123" lon="-4.40305">
        <ele>24.431341171265</ele>
        <time>2011-05-05T15:06:40Z</time>
      </trkpt>
      <trkpt lat="48.39111" lon="-4.40288">
        <ele>24.427677154541</ele>
        <time>2011-05-05T15:06:46Z</time>
      </trkpt>
      <trkpt lat="48.39091" lon="-4.40269">
        <ele>24.462535858154</ele>
        <time>2011-05-05T15:06:54Z</time>
      </trkpt>
      <trkpt lat="48.39069" lon="-4.40251">
        <ele>21.7668800354</ele>
        <time>2011-05-05T15:07:02Z</time>
      </trkpt>
      <trkpt lat="48.39046" lon="-4.40234">
        <ele>16.995473861694</ele>
        <time>2011-05-05T15:07:09Z</time>
      </trkpt>
      <trkpt lat="48.39025" lon="-4.40215">
        <ele>12.680598258972</ele>
        <time>2011-05-05T15:07:16Z</time>
      </trkpt>
      <trkpt lat="48.38999" lon="-4.40194">
        <ele>8.2652082443237</ele>
        <time>2011-05-05T15:07:24Z</time>
      </trkpt>
      <trkpt lat="48.38977" lon="-4.40175">
        <ele>6.3369517326355</ele>
        <time>2011-05-05T15:07:31Z</time>
      </trkpt>
      <trkpt lat="48.38954" lon="-4.40156">
        <ele>4.1085333824158</ele>
        <time>2011-05-05T15:07:38Z</time>
      </trkpt>
      <trkpt lat="48.38926" lon="-4.40132">
        <ele>1.0903544425964</ele>
        <time>2011-05-05T15:07:46Z</time>
      </trkpt>
      <trkpt lat="48.38902" lon="-4.4011">
        <time>2011-05-05T15:07:53Z</time>
      </trkpt>
      <trkpt lat="48.38872" lon="-4.40086">
        <time>2011-05-05T15:08:01Z</time>
      </trkpt>
      <trkpt lat="48.38837" lon="-4.40058">
        <time>2011-05-05T15:08:10Z</time>
      </trkpt>
      <trkpt lat="48.38804" lon="-4.40031">
        <time>2011-05-05T15:08:18Z</time>
      </trkpt>
      <trkpt lat="48.38756" lon="-4.39992">
        <time>2011-05-05T15:08:29Z</time>
      </trkpt>
      <trkpt lat="48.38712" lon="-4.39955">
        <time>2011-05-05T15:08:39Z</time>
      </trkpt>
      <trkpt lat="48.38667" lon="-4.39918">
        <time>2011-05-05T15:08:49Z</time>
      </trkpt>
      <trkpt lat="48.38633" lon="-4.3989">
        <time>2011-05-05T15:08:57Z</time>
      </trkpt>
      <trkpt lat="48.38591" lon="-4.39857">
        <time>2011-05-05T15:09:06Z</time>
      </trkpt>
      <trkpt lat="48.38551" lon="-4.39822">
        <ele>0.79339796304703</ele>
        <time>2011-05-05T15:09:15Z</time>
      </trkpt>
      <trkpt lat="48.38505" lon="-4.39785">
        <ele>5.276566028595</ele>
        <time>2011-05-05T15:09:25Z</time>
      </trkpt>
      <trkpt lat="48.3847" lon="-4.39758">
        <ele>13.516049385071</ele>
        <time>2011-05-05T15:09:33Z</time>
      </trkpt>
      <trkpt lat="48.38439" lon="-4.39732">
        <ele>21.474979400635</ele>
        <time>2011-05-05T15:09:40Z</time>
      </trkpt>
      <trkpt lat="48.38406" lon="-4.397">
        <ele>28.649963378906</ele>
        <time>2011-05-05T15:09:48Z</time>
      </trkpt>
      <trkpt lat="48.38383" lon="-4.39662">
        <ele>34.111968994141</ele>
        <time>2011-05-05T15:09:55Z</time>
      </trkpt>
      <trkpt lat="48.38365" lon="-4.39618">
        <ele>40.587631225586</ele>
        <time>2011-05-05T15:10:03Z</time>
      </trkpt>
      <trkpt lat="48.38363" lon="-4.39614">
        <ele>41.237129211426</ele>
        <time>2011-05-05T15:10:04Z</time>
      </trkpt>
      <trkpt lat="48.38354" lon="-4.3958">
        <ele>45.709896087646</ele>
        <time>2011-05-05T15:10:12Z</time>
      </trkpt>
      <trkpt lat="48.38346" lon="-4.39556">
        <ele>47.60958480835</ele>
        <time>2011-05-05T15:10:18Z</time>
      </trkpt>
      <trkpt lat="48.38347" lon="-4.39536">
        <ele>48.339199066162</ele>
        <time>2011-05-05T15:10:23Z</time>
      </trkpt>
      <trkpt lat="48.38359" lon="-4.39514">
        <ele>48.197895050049</ele>
        <time>2011-05-05T15:10:29Z</time>
      </trkpt>
      <trkpt lat="48.38361" lon="-4.3951">
        <ele>48.238464355469</ele>
        <time>2011-05-05T15:10:30Z</time>
      </trkpt>
      <trkpt lat="48.38358" lon="-4.39495">
        <ele>48.991214752197</ele>
        <time>2011-05-05T15:10:34Z</time>
      </trkpt>
      <trkpt lat="48.38356" lon="-4.39493">
        <ele>49.253952026367</ele>
        <time>2011-05-05T15:10:35Z</time>
      </trkpt>
      <trkpt lat="48.38342" lon="-4.39475">
        <ele>50.823261260986</ele>
        <time>2011-05-05T15:10:41Z</time>
      </trkpt>
      <trkpt lat="48.38339" lon="-4.39451">
        <ele>51.607166290283</ele>
        <time>2011-05-05T15:10:46Z</time>
      </trkpt>
      <trkpt lat="48.38342" lon="-4.39419">
        <ele>52.057205200195</ele>
        <time>2011-05-05T15:10:52Z</time>
      </trkpt>
      <trkpt lat="48.38342" lon="-4.39375">
        <ele>52.96000289917</ele>
        <time>2011-05-05T15:11:01Z</time>
      </trkpt>
      <trkpt lat="48.3834" lon="-4.39358">
        <ele>53.51558303833</ele>
        <time>2011-05-05T15:11:06Z</time>
      </trkpt>
      <trkpt lat="48.38331" lon="-4.39353">
        <ele>54.738662719727</ele>
        <time>2011-05-05T15:11:12Z</time>
      </trkpt>
      <trkpt lat="48.38321" lon="-4.39349">
        <ele>55.989414215088</ele>
        <time>2011-05-05T15:11:19Z</time>
      </trkpt>
      <trkpt lat="48.38309" lon="-4.39345">
        <ele>57.243732452393</ele>
        <time>2011-05-05T15:11:25Z</time>
      </trkpt>
      <trkpt lat="48.38296" lon="-4.39339">
        <ele>58.878227233887</ele>
        <time>2011-05-05T15:11:32Z</time>
      </trkpt>
      <trkpt lat="48.38287" lon="-4.39331">
        <ele>59.985988616943</ele>
        <time>2011-05-05T15:11:38Z</time>
      </trkpt>
      <trkpt lat="48.38278" lon="-4.39325">
        <ele>61.050270080566</ele>
        <time>2011-05-05T15:11:44Z</time>
      </trkpt>
      <trkpt lat="48.38263" lon="-4.39314">
        <ele>62.960521697998</ele>
        <time>2011-05-05T15:11:52Z</time>
      </trkpt>
      <trkpt lat="48.38253" lon="-4.39306">
        <ele>64.304382324219</ele>
        <time>2011-05-05T15:11:58Z</time>
      </trkpt>
      <trkpt lat="48.38252" lon="-4.39303">
        <ele>64.444244384766</ele>
        <time>2011-05-05T15:11:59Z</time>
      </trkpt>
      <trkpt lat="48.38253" lon="-4.39291">
        <ele>64.58519744873</ele>
        <time>2011-05-05T15:12:03Z</time>
      </trkpt>
      <trkpt lat="48.38256" lon="-4.39266">
        <ele>64.772972106934</ele>
        <time>2011-05-05T15:12:09Z</time>
      </trkpt>
      <trkpt lat="48.38262" lon="-4.39247">
        <ele>64.268707275391</ele>
        <time>2011-05-05T15:12:14Z</time>
      </trkpt>
      <trkpt lat="48.38263" lon="-4.39242">
        <ele>64.140747070312</ele>
        <time>2011-05-05T15:12:15Z</time>
      </trkpt>
      <trkpt lat="48.38259" lon="-4.39224">
        <ele>64.87020111084</ele>
        <time>2011-05-05T15:12:20Z</time>
      </trkpt>
      <trkpt lat="48.38247" lon="-4.39204">
        <ele>66.097229003906</ele>
        <time>2011-05-05T15:12:26Z</time>
      </trkpt>
      <trkpt lat="48.38239" lon="-4.39192">
        <ele>66.385620117188</ele>
        <time>2011-05-05T15:12:31Z</time>
      </trkpt>
      <trkpt lat="48.38232" lon="-4.39177">
        <ele>66.6328125</ele>
        <time>2011-05-05T15:12:37Z</time>
      </trkpt>
      <trkpt lat="48.38224" lon="-4.39165">
        <ele>67.006362915039</ele>
        <time>2011-05-05T15:12:42Z</time>
      </trkpt>
      <trkpt lat="48.38216" lon="-4.3915">
        <ele>67.851409912109</ele>
        <time>2011-05-05T15:12:48Z</time>
      </trkpt>
      <trkpt lat="48.38209" lon="-4.39133">
        <ele>68.892875671387</ele>
        <time>2011-05-05T15:12:54Z</time>
      </trkpt>
      <trkpt lat="48.38203" lon="-4.3912">
        <ele>69.75611114502</ele>
        <time>2011-05-05T15:12:59Z</time>
      </trkpt>
      <trkpt lat="48.38198" lon="-4.39104">
        <ele>70.772155761719</ele>
        <time>2011-05-05T15:13:05Z</time>
      </trkpt>
      <trkpt lat="48.38194" lon="-4.39096">
        <ele>71.404609680176</ele>
        <time>2011-05-05T15:13:08Z</time>
      </trkpt>
      <trkpt lat="48.38189" lon="-4.39084">
        <ele>72.354675292969</ele>
        <time>2011-05-05T15:13:15Z</time>
      </trkpt>
      <trkpt lat="48.38181" lon="-4.39071">
        <ele>73.708526611328</ele>
        <time>2011-05-05T15:13:22Z</time>
      </trkpt>
      <trkpt lat="48.38179" lon="-4.39069">
        <ele>73.941413879395</ele>
        <time>2011-05-05T15:13:23Z</time>
      </trkpt>
      <trkpt lat="48.38168" lon="-4.39058">
        <ele>75.378791809082</ele>
        <time>2011-05-05T15:13:31Z</time>
      </trkpt>
      <trkpt lat="48.38166" lon="-4.39056">
        <ele>75.75602722168</ele>
        <time>2011-05-05T15:13:33Z</time>
      </trkpt>
      <trkpt lat="48.38157" lon="-4.39049">
        <ele>77.422630310059</ele>
        <time>2011-05-05T15:13:38Z</time>
      </trkpt>
      <trkpt lat="48.38157" lon="-4.39048">
        <ele>77.582542419434</ele>
        <time>2011-05-05T15:13:39Z</time>
      </trkpt>
      <trkpt lat="48.38154" lon="-4.39046">
        <ele>78.10285949707</ele>
        <time>2011-05-05T15:13:41Z</time>
      </trkpt>
      <trkpt lat="48.38145" lon="-4.39042">
        <ele>79.419189453125</ele>
        <time>2011-05-05T15:13:47Z</time>
      </trkpt>
      <trkpt lat="48.38137" lon="-4.39039">
        <ele>80.688591003418</ele>
        <time>2011-05-05T15:13:52Z</time>
      </trkpt>
      <trkpt lat="48.38123" lon="-4.39035">
        <ele>82.606666564941</ele>
        <time>2011-05-05T15:14:00Z</time>
      </trkpt>
      <trkpt lat="48.38113" lon="-4.39036">
        <ele>83.800788879395</ele>
        <time>2011-05-05T15:14:06Z</time>
      </trkpt>
      <trkpt lat="48.38105" lon="-4.39037">
        <ele>84.915374755859</ele>
        <time>2011-05-05T15:14:11Z</time>
      </trkpt>
      <trkpt lat="48.38094" lon="-4.39042">
        <ele>86.54313659668</ele>
        <time>2011-05-05T15:14:18Z</time>
      </trkpt>
      <trkpt lat="48.38092" lon="-4.39041">
        <ele>86.787673950195</ele>
        <time>2011-05-05T15:14:19Z</time>
      </trkpt>
      <trkpt lat="48.38081" lon="-4.39042">
        <ele>88.199890136719</ele>
        <time>2011-05-05T15:14:26Z</time>
      </trkpt>
      <trkpt lat="48.38078" lon="-4.39045">
        <ele>88.591278076172</ele>
        <time>2011-05-05T15:14:30Z</time>
      </trkpt>
      <trkpt lat="48.38073" lon="-4.39051">
        <ele>89.314544677734</ele>
        <time>2011-05-05T15:14:38Z</time>
      </trkpt>
      <trkpt lat="48.38066" lon="-4.39057">
        <ele>90.168273925781</ele>
        <time>2011-05-05T15:14:44Z</time>
      </trkpt>
      <trkpt lat="48.38054" lon="-4.39064">
        <ele>91.507232666016</ele>
        <time>2011-05-05T15:14:50Z</time>
      </trkpt>
      <trkpt lat="48.38035" lon="-4.39069">
        <ele>93.349731445312</ele>
        <time>2011-05-05T15:14:59Z</time>
      </trkpt>
      <trkpt lat="48.38026" lon="-4.3907">
        <ele>94.16455078125</ele>
        <time>2011-05-05T15:15:05Z</time>
      </trkpt>
      <trkpt lat="48.38018" lon="-4.39073">
        <ele>95.041168212891</ele>
        <time>2011-05-05T15:15:11Z</time>
      </trkpt>
      <trkpt lat="48.38007" lon="-4.39078">
        <ele>96.180999755859</ele>
        <time>2011-05-05T15:15:17Z</time>
      </trkpt>
      <trkpt lat="48.38004" lon="-4.39079">
        <ele>96.421325683594</ele>
        <time>2011-05-05T15:15:19Z</time>
      </trkpt>
      <trkpt lat="48.37994" lon="-4.39079">
        <ele>96.79451751709</ele>
        <time>2011-05-05T15:15:25Z</time>
      </trkpt>
      <trkpt lat="48.37993" lon="-4.39079">
        <ele>96.809608459473</ele>
        <time>2011-05-05T15:15:26Z</time>
      </trkpt>
      <trkpt lat="48.37991" lon="-4.39083">
        <ele>96.972129821777</ele>
        <time>2011-05-05T15:15:37Z</time>
      </trkpt>
      <trkpt lat="48.37989" lon="-4.39084">
        <ele>97.040412902832</ele>
        <time>2011-05-05T15:15:49Z</time>
      </trkpt>
      <trkpt lat="48.37994" lon="-4.39083">
        <ele>96.964820861816</ele>
        <time>2011-05-05T15:17:18Z</time>
      </trkpt>
      <trkpt lat="48.3799" lon="-4.39085">
        <ele>97.101539611816</ele>
        <time>2011-05-05T15:17:32Z</time>
      </trkpt>
      <trkpt lat="48.37988" lon="-4.39091">
        <ele>97.384895324707</ele>
        <time>2011-05-05T15:17:38Z</time>
      </trkpt>
      <trkpt lat="48.37978" lon="-4.39099">
        <ele>97.822509765625</ele>
        <time>2011-05-05T15:17:44Z</time>
      </trkpt>
      <trkpt lat="48.37978" lon="-4.39099">
        <ele>97.79077911377</ele>
        <time>2011-05-05T15:17:44Z</time>
      </trkpt>
      <trkpt lat="48.37984" lon="-4.39079">
        <ele>96.803520202637</ele>
        <time>2011-05-04T09:26:37Z</time>
      </trkpt>
      <trkpt lat="48.37983" lon="-4.39079">
        <ele>96.819854736328</ele>
        <time>2011-05-04T09:26:37Z</time>
      </trkpt>
      <trkpt lat="48.37976" lon="-4.39098">
        <ele>97.754974365234</ele>
        <time>2011-05-04T09:26:43Z</time>
      </trkpt>
      <trkpt lat="48.37965" lon="-4.39116">
        <ele>98.754692077637</ele>
        <time>2011-05-04T09:26:50Z</time>
      </trkpt>
      <trkpt lat="48.37955" lon="-4.39121">
        <ele>99.031776428223</ele>
        <time>2011-05-04T09:26:53Z</time>
      </trkpt>
      <trkpt lat="48.37951" lon="-4.39123">
        <ele>99.169303894043</ele>
        <time>2011-05-04T09:26:55Z</time>
      </trkpt>
      <trkpt lat="48.37946" lon="-4.39141">
        <ele>100.19760894775</ele>
        <time>2011-05-04T09:27:00Z</time>
      </trkpt>
      <trkpt lat="48.37952" lon="-4.39149">
        <ele>100.60278320312</ele>
        <time>2011-05-04T09:27:04Z</time>
      </trkpt>
      <trkpt lat="48.37963" lon="-4.39165">
        <ele>101.34733581543</ele>
        <time>2011-05-04T09:27:10Z</time>
      </trkpt>
      <trkpt lat="48.37965" lon="-4.39164">
        <ele>101.29964447022</ele>
        <time>2011-05-04T09:27:11Z</time>
      </trkpt>
      <trkpt lat="48.3796" lon="-4.3916">
        <ele>101.12519836426</ele>
        <time>2011-05-04T09:27:13Z</time>
      </trkpt>
      <trkpt lat="48.37947" lon="-4.39145">
        <ele>100.41287231445</ele>
        <time>2011-05-04T09:27:19Z</time>
      </trkpt>
      <trkpt lat="48.37946" lon="-4.39133">
        <ele>99.793281555176</ele>
        <time>2011-05-04T09:27:23Z</time>
      </trkpt>
      <trkpt lat="48.37967" lon="-4.39118">
        <ele>98.831245422363</ele>
        <time>2011-05-04T09:27:32Z</time>
      </trkpt>
      <trkpt lat="48.37974" lon="-4.39109">
        <ele>98.311172485352</ele>
        <time>2011-05-04T09:27:36Z</time>
      </trkpt>
      <trkpt lat="48.37965" lon="-4.39088">
        <ele>97.23543548584</ele>
        <time>2011-05-04T09:27:42Z</time>
      </trkpt>
      <trkpt lat="48.37947" lon="-4.39072">
        <ele>96.631164550781</ele>
        <time>2011-05-04T09:27:51Z</time>
      </trkpt>
      <trkpt lat="48.37932" lon="-4.39057">
        <ele>96.250625610352</ele>
        <time>2011-05-04T09:27:58Z</time>
      </trkpt>
      <trkpt lat="48.37904" lon="-4.39019">
        <ele>95.580902099609</ele>
        <time>2011-05-04T09:28:13Z</time>
      </trkpt>
      <trkpt lat="48.3788" lon="-4.38976">
        <ele>95.123832702637</ele>
        <time>2011-05-04T09:28:28Z</time>
      </trkpt>
      <trkpt lat="48.37857" lon="-4.38939">
        <ele>95.296615600586</ele>
        <time>2011-05-04T09:28:41Z</time>
      </trkpt>
      <trkpt lat="48.3785" lon="-4.3893">
        <ele>95.470123291016</ele>
        <time>2011-05-04T09:28:45Z</time>
      </trkpt>
      <trkpt lat="48.37824" lon="-4.38901">
        <ele>95.877296447754</ele>
        <time>2011-05-04T09:28:58Z</time>
      </trkpt>
      <trkpt lat="48.37804" lon="-4.38881">
        <ele>96.029190063477</ele>
        <time>2011-05-04T09:29:07Z</time>
      </trkpt>
      <trkpt lat="48.3778" lon="-4.38855">
        <ele>96.686401367188</ele>
        <time>2011-05-04T09:29:19Z</time>
      </trkpt>
      <trkpt lat="48.37766" lon="-4.38837">
        <ele>97.356986999512</ele>
        <time>2011-05-04T09:29:27Z</time>
      </trkpt>
      <trkpt lat="48.37756" lon="-4.38822">
        <ele>98.060012817383</ele>
        <time>2011-05-04T09:29:32Z</time>
      </trkpt>
      <trkpt lat="48.37745" lon="-4.38813">
        <ele>98.637260437012</ele>
        <time>2011-05-04T09:29:37Z</time>
      </trkpt>
      <trkpt lat="48.37746" lon="-4.38813">
        <ele>98.626876831055</ele>
        <time>2011-05-04T09:29:37Z</time>
      </trkpt>
      <trkpt lat="48.37744" lon="-4.38812">
        <ele>98.675910949707</ele>
        <time>2011-05-04T09:29:38Z</time>
      </trkpt>
      <trkpt lat="48.37741" lon="-4.3881">
        <ele>98.801216125488</ele>
        <time>2011-05-04T09:29:39Z</time>
      </trkpt>
      <trkpt lat="48.37738" lon="-4.38813">
        <ele>98.861671447754</ele>
        <time>2011-05-04T09:29:41Z</time>
      </trkpt>
      <trkpt lat="48.37733" lon="-4.38814">
        <ele>98.971557617188</ele>
        <time>2011-05-04T09:29:43Z</time>
      </trkpt>
      <trkpt lat="48.37732" lon="-4.38814">
        <ele>99.016120910645</ele>
        <time>2011-05-04T09:29:43Z</time>
      </trkpt>
      <trkpt lat="48.37721" lon="-4.38819">
        <ele>99.262069702148</ele>
        <time>2011-05-04T09:29:48Z</time>
      </trkpt>
      <trkpt lat="48.37708" lon="-4.38829">
        <ele>99.555564880371</ele>
        <time>2011-05-04T09:29:53Z</time>
      </trkpt>
      <trkpt lat="48.37683" lon="-4.38848">
        <ele>100.05232238769</ele>
        <time>2011-05-04T09:30:05Z</time>
      </trkpt>
      <trkpt lat="48.37677" lon="-4.38853">
        <ele>100.18049621582</ele>
        <time>2011-05-04T09:30:08Z</time>
      </trkpt>
      <trkpt lat="48.37667" lon="-4.3886">
        <ele>100.36589050293</ele>
        <time>2011-05-04T09:30:12Z</time>
      </trkpt>
      <trkpt lat="48.37651" lon="-4.38857">
        <ele>100.86109161377</ele>
        <time>2011-05-04T09:30:18Z</time>
      </trkpt>
      <trkpt lat="48.37632" lon="-4.3883">
        <ele>101.79438018799</ele>
        <time>2011-05-04T09:30:29Z</time>
      </trkpt>
      <trkpt lat="48.37625" lon="-4.38821">
        <ele>101.84415435791</ele>
        <time>2011-05-04T09:30:32Z</time>
      </trkpt>
      <trkpt lat="48.37615" lon="-4.3881">
        <ele>101.8902053833</ele>
        <time>2011-05-04T09:30:37Z</time>
      </trkpt>
      <trkpt lat="48.37608" lon="-4.38809">
        <ele>102.00025939941</ele>
        <time>2011-05-04T09:30:40Z</time>
      </trkpt>
      <trkpt lat="48.37598" lon="-4.38826">
        <ele>102.50080108643</ele>
        <time>2011-05-04T09:30:46Z</time>
      </trkpt>
      <trkpt lat="48.37592" lon="-4.38833">
        <ele>102.77214050293</ele>
        <time>2011-05-04T09:30:49Z</time>
      </trkpt>
      <trkpt lat="48.37589" lon="-4.38838">
        <ele>102.81826019287</ele>
        <time>2011-05-04T09:30:51Z</time>
      </trkpt>
      <trkpt lat="48.37579" lon="-4.38849">
        <ele>102.7908706665</ele>
        <time>2011-05-04T09:30:56Z</time>
      </trkpt>
      <trkpt lat="48.37571" lon="-4.38849">
        <ele>102.74941253662</ele>
        <time>2011-05-04T09:30:59Z</time>
      </trkpt>
      <trkpt lat="48.37568" lon="-4.38854">
        <ele>102.70303344727</ele>
        <time>2011-05-04T09:31:01Z</time>
      </trkpt>
      <trkpt lat="48.37553" lon="-4.38875">
        <ele>102.67988586426</ele>
        <time>2011-05-04T09:31:09Z</time>
      </trkpt>
      <trkpt lat="48.37545" lon="-4.3889">
        <ele>102.8035736084</ele>
        <time>2011-05-04T09:31:14Z</time>
      </trkpt>
      <trkpt lat="48.37542" lon="-4.38911">
        <ele>102.967918396</ele>
        <time>2011-05-04T09:31:20Z</time>
      </trkpt>
      <trkpt lat="48.37534" lon="-4.38926">
        <ele>103.02625274658</ele>
        <time>2011-05-04T09:31:25Z</time>
      </trkpt>
      <trkpt lat="48.37521" lon="-4.38935">
        <ele>103.20525360107</ele>
        <time>2011-05-04T09:31:31Z</time>
      </trkpt>
      <trkpt lat="48.37517" lon="-4.38936">
        <ele>103.30345916748</ele>
        <time>2011-05-04T09:31:32Z</time>
      </trkpt>
      <trkpt lat="48.37513" lon="-4.3894">
        <ele>103.35536193848</ele>
        <time>2011-05-04T09:31:34Z</time>
      </trkpt>
      <trkpt lat="48.37509" lon="-4.38953">
        <ele>103.29866790772</ele>
        <time>2011-05-04T09:31:38Z</time>
      </trkpt>
      <trkpt lat="48.37507" lon="-4.38964">
        <ele>103.22121429443</ele>
        <time>2011-05-04T09:31:41Z</time>
      </trkpt>
      <trkpt lat="48.37505" lon="-4.38965">
        <ele>103.27603149414</ele>
        <time>2011-05-04T09:31:42Z</time>
      </trkpt>
      <trkpt lat="48.37503" lon="-4.38966">
        <ele>103.31204223633</ele>
        <time>2011-05-04T09:31:43Z</time>
      </trkpt>
      <trkpt lat="48.37502" lon="-4.38968">
        <ele>103.31285095215</ele>
        <time>2011-05-04T09:31:43Z</time>
      </trkpt>
      <trkpt lat="48.37503" lon="-4.38971">
        <ele>103.26485443115</ele>
        <time>2011-05-04T09:31:44Z</time>
      </trkpt>
      <trkpt lat="48.37504" lon="-4.38976">
        <ele>103.15081787109</ele>
        <time>2011-05-04T09:31:46Z</time>
      </trkpt>
      <trkpt lat="48.37505" lon="-4.38977">
        <ele>103.12210083008</ele>
        <time>2011-05-04T09:31:46Z</time>
      </trkpt>
      <trkpt lat="48.3751" lon="-4.38991">
        <ele>102.76862335205</ele>
        <time>2011-05-04T09:31:50Z</time>
      </trkpt>
      <trkpt lat="48.37511" lon="-4.38995">
        <ele>102.65196990967</ele>
        <time>2011-05-04T09:31:51Z</time>
      </trkpt>
      <trkpt lat="48.37517" lon="-4.39003">
        <ele>102.26575469971</ele>
        <time>2011-05-04T09:31:55Z</time>
      </trkpt>
      <trkpt lat="48.37524" lon="-4.39015">
        <ele>101.64753723144</ele>
        <time>2011-05-04T09:31:59Z</time>
      </trkpt>
      <trkpt lat="48.37526" lon="-4.39026">
        <ele>101.21273040772</ele>
        <time>2011-05-04T09:32:02Z</time>
      </trkpt>
      <trkpt lat="48.37531" lon="-4.39046">
        <ele>100.43106842041</ele>
        <time>2011-05-04T09:32:08Z</time>
      </trkpt>
      <trkpt lat="48.37532" lon="-4.39051">
        <ele>100.24250793457</ele>
        <time>2011-05-04T09:32:09Z</time>
      </trkpt>
      <trkpt lat="48.37531" lon="-4.39068">
        <ele>99.723701477051</ele>
        <time>2011-05-04T09:32:14Z</time>
      </trkpt>
      <trkpt lat="48.37538" lon="-4.39093">
        <ele>99.043556213379</ele>
        <time>2011-05-04T09:32:21Z</time>
      </trkpt>
      <trkpt lat="48.37543" lon="-4.39114">
        <ele>98.776588439941</ele>
        <time>2011-05-04T09:32:27Z</time>
      </trkpt>
      <trkpt lat="48.37545" lon="-4.39118">
        <ele>98.706924438477</ele>
        <time>2011-05-04T09:32:28Z</time>
      </trkpt>
      <trkpt lat="48.37551" lon="-4.39126">
        <ele>98.449645996094</ele>
        <time>2011-05-04T09:32:31Z</time>
      </trkpt>
      <trkpt lat="48.37558" lon="-4.39135">
        <ele>98.189559936523</ele>
        <time>2011-05-04T09:32:35Z</time>
      </trkpt>
      <trkpt lat="48.37561" lon="-4.3914">
        <ele>98.037651062012</ele>
        <time>2011-05-04T09:32:37Z</time>
      </trkpt>
      <trkpt lat="48.37562" lon="-4.39141">
        <ele>97.98762512207</ele>
        <time>2011-05-04T09:32:37Z</time>
      </trkpt>
      <trkpt lat="48.3756" lon="-4.39139">
        <ele>98.08390045166</ele>
        <time>2011-05-04T09:32:38Z</time>
      </trkpt>
      <trkpt lat="48.37557" lon="-4.39133">
        <ele>98.220016479492</ele>
        <time>2011-05-04T09:32:40Z</time>
      </trkpt>
      <trkpt lat="48.37554" lon="-4.39128">
        <ele>98.350288391113</ele>
        <time>2011-05-04T09:32:42Z</time>
      </trkpt>
      <trkpt lat="48.37548" lon="-4.39121">
        <ele>98.575119018555</ele>
        <time>2011-05-04T09:32:45Z</time>
      </trkpt>
      <trkpt lat="48.37548" lon="-4.39119">
        <ele>98.609344482422</ele>
        <time>2011-05-04T09:32:46Z</time>
      </trkpt>
      <trkpt lat="48.37542" lon="-4.39111">
        <ele>98.837593078613</ele>
        <time>2011-05-04T09:32:49Z</time>
      </trkpt>
      <trkpt lat="48.3754" lon="-4.39107">
        <ele>98.912437438965</ele>
        <time>2011-05-04T09:32:50Z</time>
      </trkpt>
      <trkpt lat="48.37536" lon="-4.39102">
        <ele>99.031188964844</ele>
        <time>2011-05-04T09:32:52Z</time>
      </trkpt>
      <trkpt lat="48.37535" lon="-4.39099">
        <ele>99.066932678223</ele>
        <time>2011-05-04T09:32:53Z</time>
      </trkpt>
      <trkpt lat="48.37536" lon="-4.39094">
        <ele>99.075729370117</ele>
        <time>2011-05-04T09:32:54Z</time>
      </trkpt>
      <trkpt lat="48.37537" lon="-4.39088">
        <ele>99.089302062988</ele>
        <time>2011-05-04T09:32:56Z</time>
      </trkpt>
      <trkpt lat="48.37534" lon="-4.39079">
        <ele>99.319030761719</ele>
        <time>2011-05-04T09:32:59Z</time>
      </trkpt>
      <trkpt lat="48.37529" lon="-4.39069">
        <ele>99.735748291016</ele>
        <time>2011-05-04T09:33:02Z</time>
      </trkpt>
      <trkpt lat="48.37528" lon="-4.39061">
        <ele>100.05303955078</ele>
        <time>2011-05-04T09:33:04Z</time>
      </trkpt>
      <trkpt lat="48.37529" lon="-4.39054">
        <ele>100.23747253418</ele>
        <time>2011-05-04T09:33:06Z</time>
      </trkpt>
      <trkpt lat="48.37529" lon="-4.39043">
        <ele>100.60535430908</ele>
        <time>2011-05-04T09:33:09Z</time>
      </trkpt>
      <trkpt lat="48.37527" lon="-4.39037">
        <ele>100.82996368408</ele>
        <time>2011-05-04T09:33:11Z</time>
      </trkpt>
      <trkpt lat="48.37523" lon="-4.39029">
        <ele>101.22863006592</ele>
        <time>2011-05-04T09:33:13Z</time>
      </trkpt>
      <trkpt lat="48.37522" lon="-4.39024">
        <ele>101.41833496094</ele>
        <time>2011-05-04T09:33:15Z</time>
      </trkpt>
      <trkpt lat="48.3752" lon="-4.39016">
        <ele>101.76005554199</ele>
        <time>2011-05-04T09:33:17Z</time>
      </trkpt>
      <trkpt lat="48.37521" lon="-4.39008">
        <ele>101.99108886719</ele>
        <time>2011-05-04T09:33:19Z</time>
      </trkpt>
      <trkpt lat="48.37517" lon="-4.39002">
        <ele>102.29933166504</ele>
        <time>2011-05-04T09:33:21Z</time>
      </trkpt>
      <trkpt lat="48.37513" lon="-4.38997">
        <ele>102.57360076904</ele>
        <time>2011-05-04T09:33:23Z</time>
      </trkpt>
      <trkpt lat="48.37511" lon="-4.38989">
        <ele>102.73917388916</ele>
        <time>2011-05-04T09:33:26Z</time>
      </trkpt>
      <trkpt lat="48.37505" lon="-4.38985">
        <ele>103.00335693359</ele>
        <time>2011-05-04T09:33:28Z</time>
      </trkpt>
      <trkpt lat="48.37505" lon="-4.38982">
        <ele>103.04898834228</ele>
        <time>2011-05-04T09:33:29Z</time>
      </trkpt>
      <trkpt lat="48.37502" lon="-4.38972">
        <ele>103.26640319824</ele>
        <time>2011-05-04T09:33:32Z</time>
      </trkpt>
      <trkpt lat="48.375" lon="-4.38969">
        <ele>103.35719299316</ele>
        <time>2011-05-04T09:33:33Z</time>
      </trkpt>
      <trkpt lat="48.37498" lon="-4.38963">
        <ele>103.37705993652</ele>
        <time>2011-05-04T09:33:35Z</time>
      </trkpt>
      <trkpt lat="48.375" lon="-4.38962">
        <ele>103.44858551025</ele>
        <time>2011-05-04T09:33:36Z</time>
      </trkpt>
      <trkpt lat="48.37503" lon="-4.38964">
        <ele>103.33695220947</ele>
        <time>2011-05-04T09:33:37Z</time>
      </trkpt>
      <trkpt lat="48.37503" lon="-4.38965">
        <ele>103.32746124268</ele>
        <time>2011-05-04T09:33:37Z</time>
      </trkpt>
      <trkpt lat="48.37503" lon="-4.38965">
        <ele>103.34162139893</ele>
        <time>2011-05-04T09:33:38Z</time>
      </trkpt>
      <trkpt lat="48.37501" lon="-4.38967">
        <ele>103.35514831543</ele>
        <time>2011-05-04T09:33:39Z</time>
      </trkpt>
      <trkpt lat="48.37501" lon="-4.38973">
        <ele>103.28901672363</ele>
        <time>2011-05-04T09:33:40Z</time>
      </trkpt>
      <trkpt lat="48.37503" lon="-4.3898">
        <ele>103.12680053711</ele>
        <time>2011-05-04T09:33:42Z</time>
      </trkpt>
      <trkpt lat="48.37508" lon="-4.38992">
        <ele>102.81401824951</ele>
        <time>2011-05-04T09:33:46Z</time>
      </trkpt>
      <trkpt lat="48.37517" lon="-4.39005">
        <ele>102.21845245361</ele>
        <time>2011-05-04T09:33:51Z</time>
      </trkpt>
      <trkpt lat="48.37527" lon="-4.39021">
        <ele>101.35069274902</ele>
        <time>2011-05-04T09:33:57Z</time>
      </trkpt>
      <trkpt lat="48.37528" lon="-4.39033">
        <ele>100.95760345459</ele>
        <time>2011-05-04T09:34:00Z</time>
      </trkpt>
      <trkpt lat="48.37531" lon="-4.39043">
        <ele>100.549949646</ele>
        <time>2011-05-04T09:34:03Z</time>
      </trkpt>
      <trkpt lat="48.37536" lon="-4.39064">
        <ele>99.740661621094</ele>
        <time>2011-05-04T09:34:09Z</time>
      </trkpt>
      <trkpt lat="48.37535" lon="-4.39081">
        <ele>99.226928710938</ele>
        <time>2011-05-04T09:34:13Z</time>
      </trkpt>
      <trkpt lat="48.37543" lon="-4.39101">
        <ele>98.855316162109</ele>
        <time>2011-05-04T09:34:19Z</time>
      </trkpt>
      <trkpt lat="48.37546" lon="-4.39118">
        <ele>98.659866333008</ele>
        <time>2011-05-04T09:34:24Z</time>
      </trkpt>
      <trkpt lat="48.37556" lon="-4.39133">
        <ele>98.243362426758</ele>
        <time>2011-05-04T09:34:30Z</time>
      </trkpt>
      <trkpt lat="48.37567" lon="-4.39143">
        <ele>97.820678710938</ele>
        <time>2011-05-04T09:34:35Z</time>
      </trkpt>
      <trkpt lat="48.37575" lon="-4.39159">
        <ele>97.391792297363</ele>
        <time>2011-05-04T09:34:40Z</time>
      </trkpt>
      <trkpt lat="48.37577" lon="-4.39163">
        <ele>97.271209716797</ele>
        <time>2011-05-04T09:34:41Z</time>
      </trkpt>
      <trkpt lat="48.37583" lon="-4.39173">
        <ele>96.870651245117</ele>
        <time>2011-05-04T09:34:45Z</time>
      </trkpt>
      <trkpt lat="48.37592" lon="-4.39189">
        <ele>96.259750366211</ele>
        <time>2011-05-04T09:34:51Z</time>
      </trkpt>
      <trkpt lat="48.376" lon="-4.39202">
        <ele>95.753921508789</ele>
        <time>2011-05-04T09:34:55Z</time>
      </trkpt>
      <trkpt lat="48.37611" lon="-4.3922">
        <ele>95.058120727539</ele>
        <time>2011-05-04T09:35:02Z</time>
      </trkpt>
      <trkpt lat="48.37622" lon="-4.39236">
        <ele>94.410385131836</ele>
        <time>2011-05-04T09:35:08Z</time>
      </trkpt>
      <trkpt lat="48.37632" lon="-4.39249">
        <ele>93.856491088867</ele>
        <time>2011-05-04T09:35:13Z</time>
      </trkpt>
      <trkpt lat="48.37637" lon="-4.39264">
        <ele>93.283935546875</ele>
        <time>2011-05-04T09:35:17Z</time>
      </trkpt>
      <trkpt lat="48.37639" lon="-4.39281">
        <ele>92.665199279785</ele>
        <time>2011-05-04T09:35:22Z</time>
      </trkpt>
      <trkpt lat="48.37646" lon="-4.39323">
        <ele>91.076545715332</ele>
        <time>2011-05-04T09:35:34Z</time>
      </trkpt>
      <trkpt lat="48.37656" lon="-4.39339">
        <ele>90.237182617188</ele>
        <time>2011-05-04T09:35:40Z</time>
      </trkpt>
      <trkpt lat="48.37677" lon="-4.39357">
        <ele>89.725196838379</ele>
        <time>2011-05-04T09:35:49Z</time>
      </trkpt>
      <trkpt lat="48.3768" lon="-4.39376">
        <ele>89.275886535645</ele>
        <time>2011-05-04T09:35:54Z</time>
      </trkpt>
      <trkpt lat="48.37669" lon="-4.39394">
        <ele>88.591781616211</ele>
        <time>2011-05-04T09:36:01Z</time>
      </trkpt>
      <trkpt lat="48.37651" lon="-4.39421">
        <ele>88.71607208252</ele>
        <time>2011-05-04T09:36:11Z</time>
      </trkpt>
      <trkpt lat="48.37627" lon="-4.39447">
        <ele>89.541191101074</ele>
        <time>2011-05-04T09:36:23Z</time>
      </trkpt>
      <trkpt lat="48.37603" lon="-4.39475">
        <ele>90.373748779297</ele>
        <time>2011-05-04T09:36:35Z</time>
      </trkpt>
      <trkpt lat="48.3758" lon="-4.39489">
        <ele>91.296440124512</ele>
        <time>2011-05-04T09:36:44Z</time>
      </trkpt>
      <trkpt lat="48.3757" lon="-4.39494">
        <ele>91.83911895752</ele>
        <time>2011-05-04T09:36:49Z</time>
      </trkpt>
      <trkpt lat="48.37565" lon="-4.39496">
        <ele>92.137359619141</ele>
        <time>2011-05-04T09:36:51Z</time>
      </trkpt>
      <trkpt lat="48.37543" lon="-4.39512">
        <ele>93.272323608398</ele>
        <time>2011-05-04T09:37:01Z</time>
      </trkpt>
      <trkpt lat="48.37535" lon="-4.39519">
        <ele>93.647117614746</ele>
        <time>2011-05-04T09:37:04Z</time>
      </trkpt>
      <trkpt lat="48.37502" lon="-4.39546">
        <ele>95.336837768555</ele>
        <time>2011-05-04T09:37:19Z</time>
      </trkpt>
      <trkpt lat="48.37487" lon="-4.39563">
        <ele>95.638214111328</ele>
        <time>2011-05-04T09:37:27Z</time>
      </trkpt>
      <trkpt lat="48.37479" lon="-4.39582">
        <ele>95.752182006836</ele>
        <time>2011-05-04T09:37:33Z</time>
      </trkpt>
      <trkpt lat="48.37472" lon="-4.39612">
        <ele>95.774543762207</ele>
        <time>2011-05-04T09:37:41Z</time>
      </trkpt>
      <trkpt lat="48.37471" lon="-4.39618">
        <ele>95.757423400879</ele>
        <time>2011-05-04T09:37:43Z</time>
      </trkpt>
      <trkpt lat="48.37454" lon="-4.39613">
        <ele>96.489265441895</ele>
        <time>2011-05-04T09:37:50Z</time>
      </trkpt>
      <trkpt lat="48.37437" lon="-4.39586">
        <ele>97.24430847168</ele>
        <time>2011-05-04T09:38:00Z</time>
      </trkpt>
      <trkpt lat="48.37425" lon="-4.39556">
        <ele>97.432235717773</ele>
        <time>2011-05-04T09:38:09Z</time>
      </trkpt>
      <trkpt lat="48.37395" lon="-4.39477">
        <ele>97.231575012207</ele>
        <time>2011-05-04T09:38:33Z</time>
      </trkpt>
      <trkpt lat="48.37392" lon="-4.39462">
        <ele>97.141738891602</ele>
        <time>2011-05-04T09:38:38Z</time>
      </trkpt>
      <trkpt lat="48.37373" lon="-4.3941">
        <ele>96.996002197266</ele>
        <time>2011-05-04T09:38:53Z</time>
      </trkpt>
      <trkpt lat="48.37346" lon="-4.39369">
        <ele>97.221008300781</ele>
        <time>2011-05-04T09:39:09Z</time>
      </trkpt>
      <trkpt lat="48.37336" lon="-4.3936">
        <ele>97.282684326172</ele>
        <time>2011-05-04T09:39:13Z</time>
      </trkpt>
      <trkpt lat="48.37266" lon="-4.39309">
        <ele>96.713447570801</ele>
        <time>2011-05-04T09:39:44Z</time>
      </trkpt>
      <trkpt lat="48.37247" lon="-4.39284">
        <ele>96.424781799316</ele>
        <time>2011-05-04T09:39:54Z</time>
      </trkpt>
      <trkpt lat="48.37229" lon="-4.39255">
        <ele>96.295104980469</ele>
        <time>2011-05-04T09:40:05Z</time>
      </trkpt>
      <trkpt lat="48.37207" lon="-4.39218">
        <ele>96.89737701416</ele>
        <time>2011-05-04T09:40:18Z</time>
      </trkpt>
      <trkpt lat="48.37191" lon="-4.39181">
        <ele>97.538818359375</ele>
        <time>2011-05-04T09:40:30Z</time>
      </trkpt>
      <trkpt lat="48.37189" lon="-4.39177">
        <ele>97.598899841309</ele>
        <time>2011-05-04T09:40:31Z</time>
      </trkpt>
      <trkpt lat="48.37183" lon="-4.39173">
        <ele>97.724784851074</ele>
        <time>2011-05-04T09:40:34Z</time>
      </trkpt>
      <trkpt lat="48.37176" lon="-4.39189">
        <ele>97.624649047852</ele>
        <time>2011-05-04T09:40:39Z</time>
      </trkpt>
      <trkpt lat="48.37167" lon="-4.39222">
        <ele>97.332824707031</ele>
        <time>2011-05-04T09:40:48Z</time>
      </trkpt>
      <trkpt lat="48.37156" lon="-4.39263">
        <ele>97.205322265625</ele>
        <time>2011-05-04T09:41:00Z</time>
      </trkpt>
      <trkpt lat="48.37142" lon="-4.39316">
        <ele>96.886405944824</ele>
        <time>2011-05-04T09:41:16Z</time>
      </trkpt>
      <trkpt lat="48.37136" lon="-4.39381">
        <ele>96.424530029297</ele>
        <time>2011-05-04T09:41:33Z</time>
      </trkpt>
      <trkpt lat="48.37133" lon="-4.39436">
        <ele>96.51927947998</ele>
        <time>2011-05-04T09:41:47Z</time>
      </trkpt>
      <trkpt lat="48.37127" lon="-4.39498">
        <ele>97.480781555176</ele>
        <time>2011-05-04T09:42:04Z</time>
      </trkpt>
      <trkpt lat="48.37125" lon="-4.39512">
        <ele>97.349716186523</ele>
        <time>2011-05-04T09:42:08Z</time>
      </trkpt>
      <trkpt lat="48.3712" lon="-4.39557">
        <ele>96.762634277344</ele>
        <time>2011-05-04T09:42:20Z</time>
      </trkpt>
      <trkpt lat="48.37116" lon="-4.39593">
        <ele>96.390319824219</ele>
        <time>2011-05-04T09:42:30Z</time>
      </trkpt>
      <trkpt lat="48.37116" lon="-4.39628">
        <ele>96.394897460938</ele>
        <time>2011-05-04T09:42:39Z</time>
      </trkpt>
      <trkpt lat="48.37125" lon="-4.39654">
        <ele>96.504760742188</ele>
        <time>2011-05-04T09:42:47Z</time>
      </trkpt>
      <trkpt lat="48.37138" lon="-4.39681">
        <ele>96.715240478516</ele>
        <time>2011-05-04T09:42:56Z</time>
      </trkpt>
      <trkpt lat="48.37141" lon="-4.3969">
        <ele>96.773544311523</ele>
        <time>2011-05-04T09:42:58Z</time>
      </trkpt>
      <trkpt lat="48.37144" lon="-4.39701">
        <ele>96.843788146973</ele>
        <time>2011-05-04T09:43:02Z</time>
      </trkpt>
      <trkpt lat="48.37148" lon="-4.39711">
        <ele>96.892219543457</ele>
        <time>2011-05-04T09:43:05Z</time>
      </trkpt>
      <trkpt lat="48.37148" lon="-4.39715">
        <ele>96.907745361328</ele>
        <time>2011-05-04T09:43:06Z</time>
      </trkpt>
      <trkpt lat="48.37149" lon="-4.39721">
        <ele>96.926940917969</ele>
        <time>2011-05-04T09:43:07Z</time>
      </trkpt>
      <trkpt lat="48.37148" lon="-4.39724">
        <ele>96.929023742676</ele>
        <time>2011-05-04T09:43:08Z</time>
      </trkpt>
      <trkpt lat="48.37142" lon="-4.39732">
        <ele>96.93717956543</ele>
        <time>2011-05-04T09:43:12Z</time>
      </trkpt>
      <trkpt lat="48.37127" lon="-4.39737">
        <ele>96.924072265625</ele>
        <time>2011-05-04T09:43:18Z</time>
      </trkpt>
      <trkpt lat="48.37116" lon="-4.39738">
        <ele>96.912117004395</ele>
        <time>2011-05-04T09:43:22Z</time>
      </trkpt>
      <trkpt lat="48.37099" lon="-4.39738">
        <ele>96.885124206543</ele>
        <time>2011-05-04T09:43:29Z</time>
      </trkpt>
      <trkpt lat="48.3709" lon="-4.39742">
        <ele>96.908348083496</ele>
        <time>2011-05-04T09:43:33Z</time>
      </trkpt>
      <trkpt lat="48.37078" lon="-4.39743">
        <ele>96.861312866211</ele>
        <time>2011-05-04T09:43:38Z</time>
      </trkpt>
      <trkpt lat="48.37067" lon="-4.39727">
        <ele>96.636863708496</ele>
        <time>2011-05-04T09:43:44Z</time>
      </trkpt>
      <trkpt lat="48.37052" lon="-4.39708">
        <ele>96.498832702637</ele>
        <time>2011-05-04T09:43:51Z</time>
      </trkpt>
      <trkpt lat="48.37035" lon="-4.39684">
        <ele>96.549842834473</ele>
        <time>2011-05-04T09:44:01Z</time>
      </trkpt>
      <trkpt lat="48.37022" lon="-4.39667">
        <ele>96.731544494629</ele>
        <time>2011-05-04T09:44:08Z</time>
      </trkpt>
      <trkpt lat="48.37012" lon="-4.39656">
        <ele>96.963233947754</ele>
        <time>2011-05-04T09:44:13Z</time>
      </trkpt>
      <trkpt lat="48.37009" lon="-4.3965">
        <ele>97.063079833984</ele>
        <time>2011-05-04T09:44:14Z</time>
      </trkpt>
      <trkpt lat="48.36998" lon="-4.3965">
        <ele>97.209930419922</ele>
        <time>2011-05-04T09:44:19Z</time>
      </trkpt>
      <trkpt lat="48.36992" lon="-4.39657">
        <ele>97.205940246582</ele>
        <time>2011-05-04T09:44:22Z</time>
      </trkpt>
      <trkpt lat="48.36967" lon="-4.39681">
        <ele>97.287734985352</ele>
        <time>2011-05-04T09:44:34Z</time>
      </trkpt>
      <trkpt lat="48.36956" lon="-4.39687">
        <ele>97.418891906738</ele>
        <time>2011-05-04T09:44:39Z</time>
      </trkpt>
      <trkpt lat="48.36933" lon="-4.39673">
        <ele>97.788040161133</ele>
        <time>2011-05-04T09:44:48Z</time>
      </trkpt>
      <trkpt lat="48.36921" lon="-4.39664">
        <ele>97.950439453125</ele>
        <time>2011-05-04T09:44:54Z</time>
      </trkpt>
      <trkpt lat="48.36913" lon="-4.39658">
        <ele>97.901008605957</ele>
        <time>2011-05-04T09:44:57Z</time>
      </trkpt>
      <trkpt lat="48.36895" lon="-4.39645">
        <ele>97.33235168457</ele>
        <time>2011-05-04T09:45:06Z</time>
      </trkpt>
      <trkpt lat="48.36877" lon="-4.3963">
        <ele>96.635902404785</ele>
        <time>2011-05-04T09:45:14Z</time>
      </trkpt>
      <trkpt lat="48.36856" lon="-4.39614">
        <ele>95.63207244873</ele>
        <time>2011-05-04T09:45:23Z</time>
      </trkpt>
      <trkpt lat="48.36853" lon="-4.39612">
        <ele>95.472595214844</ele>
        <time>2011-05-04T09:45:24Z</time>
      </trkpt>
      <trkpt lat="48.3684" lon="-4.39601">
        <ele>94.730834960938</ele>
        <time>2011-05-04T09:45:30Z</time>
      </trkpt>
      <trkpt lat="48.36832" lon="-4.3959">
        <ele>94.121139526367</ele>
        <time>2011-05-04T09:45:35Z</time>
      </trkpt>
      <trkpt lat="48.36823" lon="-4.39572">
        <ele>93.332885742188</ele>
        <time>2011-05-04T09:45:41Z</time>
      </trkpt>
      <trkpt lat="48.36813" lon="-4.39562">
        <ele>92.690849304199</ele>
        <time>2011-05-04T09:45:45Z</time>
      </trkpt>
      <trkpt lat="48.3681" lon="-4.39535">
        <ele>91.857063293457</ele>
        <time>2011-05-04T09:45:53Z</time>
      </trkpt>
      <trkpt lat="48.36811" lon="-4.39531">
        <ele>91.75904083252</ele>
        <time>2011-05-04T09:45:54Z</time>
      </trkpt>
      <trkpt lat="48.36806" lon="-4.39518">
        <ele>91.189659118652</ele>
        <time>2011-05-04T09:45:58Z</time>
      </trkpt>
      <trkpt lat="48.36795" lon="-4.39516">
        <ele>90.606201171875</ele>
        <time>2011-05-04T09:46:02Z</time>
      </trkpt>
      <trkpt lat="48.36764" lon="-4.39501">
        <ele>88.710861206055</ele>
        <time>2011-05-04T09:46:15Z</time>
      </trkpt>
      <trkpt lat="48.3676" lon="-4.39498">
        <ele>88.474868774414</ele>
        <time>2011-05-04T09:46:17Z</time>
      </trkpt>
      <trkpt lat="48.36731" lon="-4.39461">
        <ele>87.759208679199</ele>
        <time>2011-05-04T09:46:32Z</time>
      </trkpt>
      <trkpt lat="48.36714" lon="-4.39446">
        <ele>87.698867797852</ele>
        <time>2011-05-04T09:46:40Z</time>
      </trkpt>
      <trkpt lat="48.36685" lon="-4.39437">
        <ele>87.61937713623</ele>
        <time>2011-05-04T09:46:52Z</time>
      </trkpt>
      <trkpt lat="48.36661" lon="-4.39434">
        <ele>87.276138305664</ele>
        <time>2011-05-04T09:47:02Z</time>
      </trkpt>
      <trkpt lat="48.36639" lon="-4.39446">
        <ele>85.989730834961</ele>
        <time>2011-05-04T09:47:11Z</time>
      </trkpt>
      <trkpt lat="48.36612" lon="-4.39479">
        <ele>84.693939208984</ele>
        <time>2011-05-04T09:47:25Z</time>
      </trkpt>
      <trkpt lat="48.36596" lon="-4.39492">
        <ele>84.242141723633</ele>
        <time>2011-05-04T09:47:32Z</time>
      </trkpt>
      <trkpt lat="48.36571" lon="-4.39494">
        <ele>83.335975646973</ele>
        <time>2011-05-04T09:47:42Z</time>
      </trkpt>
      <trkpt lat="48.36554" lon="-4.39499">
        <ele>82.554916381836</ele>
        <time>2011-05-04T09:47:49Z</time>
      </trkpt>
      <trkpt lat="48.36538" lon="-4.39509">
        <ele>82.103660583496</ele>
        <time>2011-05-04T09:47:56Z</time>
      </trkpt>
      <trkpt lat="48.36519" lon="-4.39528">
        <ele>81.645362854004</ele>
        <time>2011-05-04T09:48:05Z</time>
      </trkpt>
      <trkpt lat="48.36514" lon="-4.39532">
        <ele>81.510292053223</ele>
        <time>2011-05-04T09:48:08Z</time>
      </trkpt>
      <trkpt lat="48.36503" lon="-4.39541">
        <ele>81.169364929199</ele>
        <time>2011-05-04T09:48:13Z</time>
      </trkpt>
      <trkpt lat="48.36478" lon="-4.39562">
        <ele>79.994560241699</ele>
        <time>2011-05-04T09:48:24Z</time>
      </trkpt>
      <trkpt lat="48.36467" lon="-4.3957">
        <ele>79.34741973877</ele>
        <time>2011-05-04T09:48:29Z</time>
      </trkpt>
      <trkpt lat="48.36459" lon="-4.39577">
        <ele>78.923561096191</ele>
        <time>2011-05-04T09:48:33Z</time>
      </trkpt>
      <trkpt lat="48.36457" lon="-4.39578">
        <ele>78.841606140137</ele>
        <time>2011-05-04T09:48:33Z</time>
      </trkpt>
      <trkpt lat="48.36457" lon="-4.39578">
        <ele>78.813575744629</ele>
        <time>2011-05-04T09:48:33Z</time>
      </trkpt>
      <trkpt lat="48.36457" lon="-4.39578">
        <ele>78.805931091309</ele>
        <time>2011-05-04T09:48:34Z</time>
      </trkpt>
      <trkpt lat="48.36457" lon="-4.39577">
        <ele>78.804229736328</ele>
        <time>2011-05-04T09:48:34Z</time>
      </trkpt>
      <trkpt lat="48.36457" lon="-4.39577">
        <ele>78.769462585449</ele>
        <time>2011-05-04T09:48:34Z</time>
      </trkpt>
      <trkpt lat="48.36455" lon="-4.39578">
        <ele>78.645538330078</ele>
        <time>2011-05-04T09:48:35Z</time>
      </trkpt>
      <trkpt lat="48.36454" lon="-4.39576">
        <ele>78.536804199219</ele>
        <time>2011-05-04T09:48:35Z</time>
      </trkpt>
      <trkpt lat="48.36453" lon="-4.39575">
        <ele>78.498207092285</ele>
        <time>2011-05-04T09:48:35Z</time>
      </trkpt>
      <trkpt lat="48.36452" lon="-4.39576">
        <ele>78.458045959473</ele>
        <time>2011-05-04T09:48:36Z</time>
      </trkpt>
      <trkpt lat="48.36451" lon="-4.39577">
        <ele>78.394630432129</ele>
        <time>2011-05-04T09:48:36Z</time>
      </trkpt>
      <trkpt lat="48.36443" lon="-4.39586">
        <ele>77.986549377441</ele>
        <time>2011-05-04T09:48:40Z</time>
      </trkpt>
      <trkpt lat="48.36437" lon="-4.39589">
        <ele>77.766227722168</ele>
        <time>2011-05-04T09:48:43Z</time>
      </trkpt>
      <trkpt lat="48.36432" lon="-4.39587">
        <ele>77.327186584473</ele>
        <time>2011-05-04T09:48:45Z</time>
      </trkpt>
      <trkpt lat="48.36428" lon="-4.39583">
        <ele>76.84546661377</ele>
        <time>2011-05-04T09:48:47Z</time>
      </trkpt>
      <trkpt lat="48.36418" lon="-4.39566">
        <ele>75.896301269531</ele>
        <time>2011-05-04T09:48:53Z</time>
      </trkpt>
      <trkpt lat="48.36409" lon="-4.39558">
        <ele>75.578231811523</ele>
        <time>2011-05-04T09:48:57Z</time>
      </trkpt>
      <trkpt lat="48.36395" lon="-4.39549">
        <ele>75.209777832031</ele>
        <time>2011-05-04T09:49:03Z</time>
      </trkpt>
      <trkpt lat="48.36379" lon="-4.39542">
        <ele>74.818778991699</ele>
        <time>2011-05-04T09:49:10Z</time>
      </trkpt>
      <trkpt lat="48.36373" lon="-4.39543">
        <ele>74.740135192871</ele>
        <time>2011-05-04T09:49:12Z</time>
      </trkpt>
      <trkpt lat="48.36357" lon="-4.39542">
        <ele>74.444923400879</ele>
        <time>2011-05-04T09:49:19Z</time>
      </trkpt>
      <trkpt lat="48.36345" lon="-4.39544">
        <ele>74.262840270996</ele>
        <time>2011-05-04T09:49:24Z</time>
      </trkpt>
      <trkpt lat="48.36329" lon="-4.39543">
        <ele>73.849098205566</ele>
        <time>2011-05-04T09:49:30Z</time>
      </trkpt>
      <trkpt lat="48.36314" lon="-4.3954">
        <ele>73.162292480469</ele>
        <time>2011-05-04T09:49:36Z</time>
      </trkpt>
      <trkpt lat="48.36291" lon="-4.39537">
        <ele>72.14608001709</ele>
        <time>2011-05-04T09:49:45Z</time>
      </trkpt>
      <trkpt lat="48.36279" lon="-4.39535">
        <ele>71.620765686035</ele>
        <time>2011-05-04T09:49:50Z</time>
      </trkpt>
      <trkpt lat="48.36258" lon="-4.39531">
        <ele>70.694847106934</ele>
        <time>2011-05-04T09:49:59Z</time>
      </trkpt>
      <trkpt lat="48.3624" lon="-4.39526">
        <ele>69.85383605957</ele>
        <time>2011-05-04T09:50:06Z</time>
      </trkpt>
      <trkpt lat="48.36237" lon="-4.39525">
        <ele>69.694763183594</ele>
        <time>2011-05-04T09:50:07Z</time>
      </trkpt>
      <trkpt lat="48.36219" lon="-4.39523">
        <ele>68.802124023438</ele>
        <time>2011-05-04T09:50:14Z</time>
      </trkpt>
      <trkpt lat="48.36203" lon="-4.39521">
        <ele>67.991310119629</ele>
        <time>2011-05-04T09:50:21Z</time>
      </trkpt>
      <trkpt lat="48.36184" lon="-4.39519">
        <ele>67.054611206055</ele>
        <time>2011-05-04T09:50:28Z</time>
      </trkpt>
      <trkpt lat="48.36164" lon="-4.39516">
        <ele>66.182334899902</ele>
        <time>2011-05-04T09:50:36Z</time>
      </trkpt>
      <trkpt lat="48.36145" lon="-4.39516">
        <ele>66.044799804688</ele>
        <time>2011-05-04T09:50:44Z</time>
      </trkpt>
      <trkpt lat="48.36129" lon="-4.39516">
        <ele>65.93595123291</ele>
        <time>2011-05-04T09:50:50Z</time>
      </trkpt>
      <trkpt lat="48.36124" lon="-4.39514">
        <ele>65.912826538086</ele>
        <time>2011-05-04T09:50:52Z</time>
      </trkpt>
      <trkpt lat="48.36106" lon="-4.39509">
        <ele>65.876564025879</ele>
        <time>2011-05-04T09:51:00Z</time>
      </trkpt>
      <trkpt lat="48.361" lon="-4.39503">
        <ele>65.955177307129</ele>
        <time>2011-05-04T09:51:03Z</time>
      </trkpt>
      <trkpt lat="48.36093" lon="-4.39493">
        <ele>66.156829833984</ele>
        <time>2011-05-04T09:51:06Z</time>
      </trkpt>
      <trkpt lat="48.36081" lon="-4.39476">
        <ele>66.660606384277</ele>
        <time>2011-05-04T09:51:13Z</time>
      </trkpt>
      <trkpt lat="48.36076" lon="-4.39472">
        <ele>66.922569274902</ele>
        <time>2011-05-04T09:51:15Z</time>
      </trkpt>
      <trkpt lat="48.36043" lon="-4.39449">
        <ele>68.389823913574</ele>
        <time>2011-05-04T09:51:30Z</time>
      </trkpt>
      <trkpt lat="48.36015" lon="-4.39428">
        <ele>69.496315002441</ele>
        <time>2011-05-04T09:51:43Z</time>
      </trkpt>
      <trkpt lat="48.35991" lon="-4.39403">
        <ele>71.253860473633</ele>
        <time>2011-05-04T09:51:54Z</time>
      </trkpt>
      <trkpt lat="48.35981" lon="-4.39401">
        <ele>72.201431274414</ele>
        <time>2011-05-04T09:51:58Z</time>
      </trkpt>
      <trkpt lat="48.35974" lon="-4.39411">
        <ele>72.385681152344</ele>
        <time>2011-05-04T09:52:02Z</time>
      </trkpt>
      <trkpt lat="48.35972" lon="-4.39418">
        <ele>72.318336486816</ele>
        <time>2011-05-04T09:52:04Z</time>
      </trkpt>
      <trkpt lat="48.35955" lon="-4.39455">
        <ele>73.098968505859</ele>
        <time>2011-05-04T09:52:16Z</time>
      </trkpt>
      <trkpt lat="48.35948" lon="-4.39467">
        <ele>73.381530761719</ele>
        <time>2011-05-04T09:52:20Z</time>
      </trkpt>
      <trkpt lat="48.35936" lon="-4.39489">
        <ele>73.836555480957</ele>
        <time>2011-05-04T09:52:28Z</time>
      </trkpt>
      <trkpt lat="48.35927" lon="-4.39508">
        <ele>74.082656860352</ele>
        <time>2011-05-04T09:52:34Z</time>
      </trkpt>
      <trkpt lat="48.35911" lon="-4.3955">
        <ele>74.089309692383</ele>
        <time>2011-05-04T09:52:47Z</time>
      </trkpt>
      <trkpt lat="48.35901" lon="-4.39584">
        <ele>73.738304138184</ele>
        <time>2011-05-04T09:52:57Z</time>
      </trkpt>
      <trkpt lat="48.35899" lon="-4.39598">
        <ele>73.83039855957</ele>
        <time>2011-05-04T09:53:01Z</time>
      </trkpt>
      <trkpt lat="48.35892" lon="-4.39616">
        <ele>74.063369750977</ele>
        <time>2011-05-04T09:53:06Z</time>
      </trkpt>
      <trkpt lat="48.35879" lon="-4.39651">
        <ele>74.44799041748</ele>
        <time>2011-05-04T09:53:17Z</time>
      </trkpt>
      <trkpt lat="48.35865" lon="-4.39682">
        <ele>74.360572814941</ele>
        <time>2011-05-04T09:53:27Z</time>
      </trkpt>
      <trkpt lat="48.35849" lon="-4.39723">
        <ele>73.858856201172</ele>
        <time>2011-05-04T09:53:39Z</time>
      </trkpt>
      <trkpt lat="48.35844" lon="-4.3974">
        <ele>73.641487121582</ele>
        <time>2011-05-04T09:53:44Z</time>
      </trkpt>
      <trkpt lat="48.35842" lon="-4.39746">
        <ele>73.571899414062</ele>
        <time>2011-05-04T09:53:46Z</time>
      </trkpt>
      <trkpt lat="48.35831" lon="-4.39779">
        <ele>72.360618591309</ele>
        <time>2011-05-04T09:53:56Z</time>
      </trkpt>
      <trkpt lat="48.35822" lon="-4.39801">
        <ele>71.550186157227</ele>
        <time>2011-05-04T09:54:03Z</time>
      </trkpt>
      <trkpt lat="48.35816" lon="-4.39815">
        <ele>71.019737243652</ele>
        <time>2011-05-04T09:54:07Z</time>
      </trkpt>
      <trkpt lat="48.35817" lon="-4.39826">
        <ele>70.383834838867</ele>
        <time>2011-05-04T09:54:10Z</time>
      </trkpt>
      <trkpt lat="48.35818" lon="-4.39848">
        <ele>69.347885131836</ele>
        <time>2011-05-04T09:54:16Z</time>
      </trkpt>
      <trkpt lat="48.35814" lon="-4.39884">
        <ele>68.331649780273</ele>
        <time>2011-05-04T09:54:26Z</time>
      </trkpt>
      <trkpt lat="48.35809" lon="-4.3992">
        <ele>67.442947387695</ele>
        <time>2011-05-04T09:54:35Z</time>
      </trkpt>
      <trkpt lat="48.35807" lon="-4.39944">
        <ele>67.391151428223</ele>
        <time>2011-05-04T09:54:42Z</time>
      </trkpt>
      <trkpt lat="48.35804" lon="-4.39949">
        <ele>67.490905761719</ele>
        <time>2011-05-04T09:54:44Z</time>
      </trkpt>
      <trkpt lat="48.35783" lon="-4.39956">
        <ele>68.430374145508</ele>
        <time>2011-05-04T09:54:52Z</time>
      </trkpt>
      <trkpt lat="48.3578" lon="-4.39963">
        <ele>68.489669799805</ele>
        <time>2011-05-04T09:54:54Z</time>
      </trkpt>
      <trkpt lat="48.35769" lon="-4.39986">
        <ele>68.557647705078</ele>
        <time>2011-05-04T09:55:02Z</time>
      </trkpt>
      <trkpt lat="48.3576" lon="-4.40007">
        <ele>68.628921508789</ele>
        <time>2011-05-04T09:55:09Z</time>
      </trkpt>
      <trkpt lat="48.35746" lon="-4.40037">
        <ele>69.319702148438</ele>
        <time>2011-05-04T09:55:18Z</time>
      </trkpt>
      <trkpt lat="48.35738" lon="-4.40054">
        <ele>69.900993347168</ele>
        <time>2011-05-04T09:55:24Z</time>
      </trkpt>
      <trkpt lat="48.35728" lon="-4.40072">
        <ele>70.424659729004</ele>
        <time>2011-05-04T09:55:30Z</time>
      </trkpt>
      <trkpt lat="48.35718" lon="-4.40089">
        <ele>70.598365783691</ele>
        <time>2011-05-04T09:55:36Z</time>
      </trkpt>
      <trkpt lat="48.35718" lon="-4.4009">
        <ele>70.38353729248</ele>
        <time>2011-05-04T09:55:36Z</time>
      </trkpt>
      <trkpt lat="48.35703" lon="-4.40109">
        <ele>70.38353729248</ele>
        <time>2011-05-04T09:55:44Z</time>
      </trkpt>
      <trkpt lat="48.35701" lon="-4.40112">
        <ele>70.16870880127</ele>
        <time>2011-05-04T09:55:45Z</time>
      </trkpt>
      <trkpt lat="48.35694" lon="-4.40122">
        <ele>69.902908325195</ele>
        <time>2011-05-04T09:55:49Z</time>
      </trkpt>
      <trkpt lat="48.3568" lon="-4.40122">
        <ele>70.552146911621</ele>
        <time>2011-05-04T09:55:55Z</time>
      </trkpt>
      <trkpt lat="48.35678" lon="-4.40123">
        <ele>70.60481262207</ele>
        <time>2011-05-04T09:55:56Z</time>
      </trkpt>
      <trkpt lat="48.35678" lon="-4.40126">
        <ele>70.398078918457</ele>
        <time>2011-05-04T09:55:56Z</time>
      </trkpt>
      <trkpt lat="48.35675" lon="-4.40122">
        <ele>70.792167663574</ele>
        <time>2011-05-04T09:55:58Z</time>
      </trkpt>
      <trkpt lat="48.35677" lon="-4.40123">
        <ele>70.613471984863</ele>
        <time>2011-05-04T09:55:59Z</time>
      </trkpt>
      <trkpt lat="48.35675" lon="-4.40128">
        <ele>70.368118286133</ele>
        <time>2011-05-04T09:56:00Z</time>
      </trkpt>
      <trkpt lat="48.35675" lon="-4.40136">
        <ele>69.865684509277</ele>
        <time>2011-05-04T09:56:02Z</time>
      </trkpt>
      <trkpt lat="48.35673" lon="-4.40157">
        <ele>68.415878295898</ele>
        <time>2011-05-04T09:56:08Z</time>
      </trkpt>
      <trkpt lat="48.35673" lon="-4.40164">
        <ele>67.964401245117</ele>
        <time>2011-05-04T09:56:10Z</time>
      </trkpt>
      <trkpt lat="48.35674" lon="-4.40181">
        <ele>67.153427124023</ele>
        <time>2011-05-04T09:56:14Z</time>
      </trkpt>
      <trkpt lat="48.35671" lon="-4.40196">
        <ele>66.717483520508</ele>
        <time>2011-05-04T09:56:19Z</time>
      </trkpt>
      <trkpt lat="48.3567" lon="-4.40209">
        <ele>66.287132263184</ele>
        <time>2011-05-04T09:56:22Z</time>
      </trkpt>
      <trkpt lat="48.35668" lon="-4.40226">
        <ele>65.758270263672</ele>
        <time>2011-05-04T09:56:27Z</time>
      </trkpt>
      <trkpt lat="48.35663" lon="-4.40247">
        <ele>65.78458404541</ele>
        <time>2011-05-04T09:56:33Z</time>
      </trkpt>
      <trkpt lat="48.35657" lon="-4.40268">
        <ele>66.300010681152</ele>
        <time>2011-05-04T09:56:39Z</time>
      </trkpt>
      <trkpt lat="48.35652" lon="-4.40285">
        <ele>66.693298339844</ele>
        <time>2011-05-04T09:56:44Z</time>
      </trkpt>
      <trkpt lat="48.35647" lon="-4.40302">
        <ele>67.014694213867</ele>
        <time>2011-05-04T09:56:49Z</time>
      </trkpt>
      <trkpt lat="48.35639" lon="-4.40332">
        <ele>67.385932922363</ele>
        <time>2011-05-04T09:56:57Z</time>
      </trkpt>
      <trkpt lat="48.35632" lon="-4.40351">
        <ele>67.495986938477</ele>
        <time>2011-05-04T09:57:03Z</time>
      </trkpt>
      <trkpt lat="48.35624" lon="-4.40374">
        <ele>67.484214782715</ele>
        <time>2011-05-04T09:57:10Z</time>
      </trkpt>
      <trkpt lat="48.35621" lon="-4.40403">
        <ele>66.268203735352</ele>
        <time>2011-05-04T09:57:18Z</time>
      </trkpt>
      <trkpt lat="48.35621" lon="-4.4042">
        <ele>65.329856872559</ele>
        <time>2011-05-04T09:57:22Z</time>
      </trkpt>
      <trkpt lat="48.35622" lon="-4.40422">
        <ele>65.128959655762</ele>
        <time>2011-05-04T09:57:23Z</time>
      </trkpt>
      <trkpt lat="48.35627" lon="-4.4045">
        <ele>63.416126251221</ele>
        <time>2011-05-04T09:57:30Z</time>
      </trkpt>
      <trkpt lat="48.35632" lon="-4.40472">
        <ele>61.769828796387</ele>
        <time>2011-05-04T09:57:37Z</time>
      </trkpt>
      <trkpt lat="48.35635" lon="-4.40495">
        <ele>60.455657958984</ele>
        <time>2011-05-04T09:57:43Z</time>
      </trkpt>
      <trkpt lat="48.35633" lon="-4.40515">
        <ele>59.780414581299</ele>
        <time>2011-05-04T09:57:48Z</time>
      </trkpt>
      <trkpt lat="48.35627" lon="-4.4054">
        <ele>59.534183502197</ele>
        <time>2011-05-04T09:57:55Z</time>
      </trkpt>
      <trkpt lat="48.35625" lon="-4.40561">
        <ele>58.967227935791</ele>
        <time>2011-05-04T09:58:01Z</time>
      </trkpt>
      <trkpt lat="48.35624" lon="-4.40567">
        <ele>58.805934906006</ele>
        <time>2011-05-04T09:58:03Z</time>
      </trkpt>
      <trkpt lat="48.35624" lon="-4.40585">
        <ele>57.97891998291</ele>
        <time>2011-05-04T09:58:07Z</time>
      </trkpt>
      <trkpt lat="48.35633" lon="-4.40609">
        <ele>55.707359313965</ele>
        <time>2011-05-04T09:58:15Z</time>
      </trkpt>
      <trkpt lat="48.35635" lon="-4.40617">
        <ele>55.062141418457</ele>
        <time>2011-05-04T09:58:17Z</time>
      </trkpt>
      <trkpt lat="48.35642" lon="-4.40633">
        <ele>53.739227294922</ele>
        <time>2011-05-04T09:58:22Z</time>
      </trkpt>
      <trkpt lat="48.35646" lon="-4.40643">
        <ele>53.017826080322</ele>
        <time>2011-05-04T09:58:25Z</time>
      </trkpt>
      <trkpt lat="48.35658" lon="-4.40667">
        <ele>51.439037322998</ele>
        <time>2011-05-04T09:58:33Z</time>
      </trkpt>
      <trkpt lat="48.35671" lon="-4.40693">
        <ele>51</ele>
        <time>2011-05-04T09:58:42Z</time>
      </trkpt>
      <trkpt lat="48.35688" lon="-4.40723">
        <ele>51</ele>
        <time>2011-05-04T09:58:52Z</time>
      </trkpt>
      <trkpt lat="48.35698" lon="-4.40746">
        <ele>51</ele>
        <time>2011-05-04T09:59:00Z</time>
      </trkpt>
      <trkpt lat="48.35711" lon="-4.40762">
        <ele>50.939498901367</ele>
        <time>2011-05-04T09:59:06Z</time>
      </trkpt>
      <trkpt lat="48.35725" lon="-4.40778">
        <ele>51.033473968506</ele>
        <time>2011-05-04T09:59:13Z</time>
      </trkpt>
      <trkpt lat="48.35749" lon="-4.40808">
        <ele>51.659038543701</ele>
        <time>2011-05-04T09:59:26Z</time>
      </trkpt>
      <trkpt lat="48.35757" lon="-4.40823">
        <ele>52.451366424561</ele>
        <time>2011-05-04T09:59:31Z</time>
      </trkpt>
      <trkpt lat="48.3577" lon="-4.40854">
        <ele>54.048069000244</ele>
        <time>2011-05-04T09:59:41Z</time>
      </trkpt>
      <trkpt lat="48.35775" lon="-4.40887">
        <ele>55.131130218506</ele>
        <time>2011-05-04T09:59:50Z</time>
      </trkpt>
      <trkpt lat="48.3577" lon="-4.40932">
        <ele>55.249156951904</ele>
        <time>2011-05-04T10:00:02Z</time>
      </trkpt>
      <trkpt lat="48.35767" lon="-4.40957">
        <ele>54.97639465332</ele>
        <time>2011-05-04T10:00:09Z</time>
      </trkpt>
      <trkpt lat="48.35758" lon="-4.41003">
        <ele>54.120941162109</ele>
        <time>2011-05-04T10:00:21Z</time>
      </trkpt>
      <trkpt lat="48.35751" lon="-4.41025">
        <ele>54.317657470703</ele>
        <time>2011-05-04T10:00:28Z</time>
      </trkpt>
      <trkpt lat="48.35734" lon="-4.4107">
        <ele>55.641048431396</ele>
        <time>2011-05-04T10:00:42Z</time>
      </trkpt>
      <trkpt lat="48.35729" lon="-4.41083">
        <ele>55.987533569336</ele>
        <time>2011-05-04T10:00:46Z</time>
      </trkpt>
      <trkpt lat="48.35724" lon="-4.41094">
        <ele>55.909225463867</ele>
        <time>2011-05-04T10:00:49Z</time>
      </trkpt>
      <trkpt lat="48.35706" lon="-4.41128">
        <ele>55.707748413086</ele>
        <time>2011-05-04T10:01:01Z</time>
      </trkpt>
      <trkpt lat="48.35697" lon="-4.41149">
        <ele>55.733352661133</ele>
        <time>2011-05-04T10:01:07Z</time>
      </trkpt>
      <trkpt lat="48.35694" lon="-4.41153">
        <ele>55.708614349365</ele>
        <time>2011-05-04T10:01:09Z</time>
      </trkpt>
      <trkpt lat="48.3567" lon="-4.41201">
        <ele>55.542705535889</ele>
        <time>2011-05-04T10:01:25Z</time>
      </trkpt>
      <trkpt lat="48.35659" lon="-4.4123">
        <ele>55.255306243896</ele>
        <time>2011-05-04T10:01:34Z</time>
      </trkpt>
      <trkpt lat="48.3565" lon="-4.41246">
        <ele>54.755958557129</ele>
        <time>2011-05-04T10:01:39Z</time>
      </trkpt>
      <trkpt lat="48.3563" lon="-4.41241">
        <ele>53.329494476318</ele>
        <time>2011-05-04T10:01:47Z</time>
      </trkpt>
      <trkpt lat="48.35624" lon="-4.41231">
        <ele>52.812927246094</ele>
        <time>2011-05-04T10:01:51Z</time>
      </trkpt>
      <trkpt lat="48.35624" lon="-4.41229">
        <ele>52.776554107666</ele>
        <time>2011-05-04T10:01:52Z</time>
      </trkpt>
      <trkpt lat="48.3562" lon="-4.41231">
        <ele>52.572498321533</ele>
        <time>2011-05-04T10:01:53Z</time>
      </trkpt>
      <trkpt lat="48.35624" lon="-4.41232">
        <ele>52.788982391357</ele>
        <time>2011-05-04T10:01:54Z</time>
      </trkpt>
      <trkpt lat="48.35622" lon="-4.41229">
        <ele>52.641452789307</ele>
        <time>2011-05-04T10:01:55Z</time>
      </trkpt>
      <trkpt lat="48.35619" lon="-4.41234">
        <ele>52.485725402832</ele>
        <time>2011-05-04T10:01:57Z</time>
      </trkpt>
      <trkpt lat="48.35618" lon="-4.41224">
        <ele>52.382461547852</ele>
        <time>2011-05-04T10:02:00Z</time>
      </trkpt>
      <trkpt lat="48.3562" lon="-4.41222">
        <ele>52.501388549805</ele>
        <time>2011-05-04T10:02:01Z</time>
      </trkpt>
      <trkpt lat="48.35626" lon="-4.41207">
        <ele>52.795352935791</ele>
        <time>2011-05-04T10:02:05Z</time>
      </trkpt>
      <trkpt lat="48.35629" lon="-4.4119">
        <ele>52.865184783936</ele>
        <time>2011-05-04T10:02:10Z</time>
      </trkpt>
      <trkpt lat="48.35627" lon="-4.41176">
        <ele>52.679092407227</ele>
        <time>2011-05-04T10:02:14Z</time>
      </trkpt>
      <trkpt lat="48.35621" lon="-4.41168">
        <ele>52.260135650635</ele>
        <time>2011-05-04T10:02:17Z</time>
      </trkpt>
      <trkpt lat="48.35602" lon="-4.4115">
        <ele>50.716354370117</ele>
        <time>2011-05-04T10:02:26Z</time>
      </trkpt>
      <trkpt lat="48.35584" lon="-4.41137">
        <ele>49.317886352539</ele>
        <time>2011-05-04T10:02:34Z</time>
      </trkpt>
      <trkpt lat="48.35571" lon="-4.41126">
        <ele>48.271244049072</ele>
        <time>2011-05-04T10:02:40Z</time>
      </trkpt>
      <trkpt lat="48.35559" lon="-4.41111">
        <ele>47.301704406738</ele>
        <time>2011-05-04T10:02:46Z</time>
      </trkpt>
      <trkpt lat="48.35545" lon="-4.41092">
        <ele>46.256507873535</ele>
        <time>2011-05-04T10:02:54Z</time>
      </trkpt>
      <trkpt lat="48.35527" lon="-4.41076">
        <ele>45.359703063965</ele>
        <time>2011-05-04T10:03:02Z</time>
      </trkpt>
      <trkpt lat="48.35525" lon="-4.41074">
        <ele>45.283679962158</ele>
        <time>2011-05-04T10:03:03Z</time>
      </trkpt>
      <trkpt lat="48.35516" lon="-4.41064">
        <ele>45.052581787109</ele>
        <time>2011-05-04T10:03:07Z</time>
      </trkpt>
      <trkpt lat="48.35498" lon="-4.41059">
        <ele>44.581298828125</ele>
        <time>2011-05-04T10:03:15Z</time>
      </trkpt>
      <trkpt lat="48.35489" lon="-4.41068">
        <ele>44.363861083984</ele>
        <time>2011-05-04T10:03:19Z</time>
      </trkpt>
      <trkpt lat="48.35474" lon="-4.41088">
        <ele>43.966079711914</ele>
        <time>2011-05-04T10:03:27Z</time>
      </trkpt>
      <trkpt lat="48.35459" lon="-4.41097">
        <ele>43.840808868408</ele>
        <time>2011-05-04T10:03:34Z</time>
      </trkpt>
      <trkpt lat="48.35447" lon="-4.41098">
        <ele>43.776378631592</ele>
        <time>2011-05-04T10:03:38Z</time>
      </trkpt>
      <trkpt lat="48.35433" lon="-4.41106">
        <ele>43.561698913574</ele>
        <time>2011-05-04T10:03:44Z</time>
      </trkpt>
      <trkpt lat="48.35413" lon="-4.41127">
        <ele>43.081390380859</ele>
        <time>2011-05-04T10:03:54Z</time>
      </trkpt>
      <trkpt lat="48.35411" lon="-4.41142">
        <ele>42.813629150391</ele>
        <time>2011-05-04T10:03:58Z</time>
      </trkpt>
      <trkpt lat="48.35405" lon="-4.4116">
        <ele>42.688991546631</ele>
        <time>2011-05-04T10:04:04Z</time>
      </trkpt>
      <trkpt lat="48.35392" lon="-4.41177">
        <ele>43.145622253418</ele>
        <time>2011-05-04T10:04:10Z</time>
      </trkpt>
      <trkpt lat="48.3538" lon="-4.41191">
        <ele>43.532157897949</ele>
        <time>2011-05-04T10:04:16Z</time>
      </trkpt>
      <trkpt lat="48.35365" lon="-4.41206">
        <ele>43.771816253662</ele>
        <time>2011-05-04T10:04:24Z</time>
      </trkpt>
      <trkpt lat="48.35352" lon="-4.41229">
        <ele>43.537979125977</ele>
        <time>2011-05-04T10:04:31Z</time>
      </trkpt>
      <trkpt lat="48.35342" lon="-4.41246">
        <ele>43.120002746582</ele>
        <time>2011-05-04T10:04:38Z</time>
      </trkpt>
      <trkpt lat="48.35328" lon="-4.41266">
        <ele>42.359642028809</ele>
        <time>2011-05-04T10:04:45Z</time>
      </trkpt>
      <trkpt lat="48.35317" lon="-4.41283">
        <ele>41.619209289551</ele>
        <time>2011-05-04T10:04:52Z</time>
      </trkpt>
      <trkpt lat="48.35303" lon="-4.41302">
        <ele>40.756324768066</ele>
        <time>2011-05-04T10:04:59Z</time>
      </trkpt>
      <trkpt lat="48.35295" lon="-4.41321">
        <ele>39.992431640625</ele>
        <time>2011-05-04T10:05:05Z</time>
      </trkpt>
      <trkpt lat="48.35294" lon="-4.41345">
        <ele>39.388381958008</ele>
        <time>2011-05-04T10:05:12Z</time>
      </trkpt>
      <trkpt lat="48.35292" lon="-4.41367">
        <ele>39.103424072266</ele>
        <time>2011-05-04T10:05:18Z</time>
      </trkpt>
      <trkpt lat="48.35286" lon="-4.41387">
        <ele>38.787567138672</ele>
        <time>2011-05-04T10:05:23Z</time>
      </trkpt>
      <trkpt lat="48.35282" lon="-4.41416">
        <ele>38.387596130371</ele>
        <time>2011-05-04T10:05:31Z</time>
      </trkpt>
      <trkpt lat="48.35272" lon="-4.41438">
        <ele>37.87813949585</ele>
        <time>2011-05-04T10:05:38Z</time>
      </trkpt>
      <trkpt lat="48.35253" lon="-4.4146">
        <ele>37.030582427979</ele>
        <time>2011-05-04T10:05:48Z</time>
      </trkpt>
      <trkpt lat="48.3525" lon="-4.41464">
        <ele>36.881935119629</ele>
        <time>2011-05-04T10:05:49Z</time>
      </trkpt>
      <trkpt lat="48.35236" lon="-4.41463">
        <ele>36.798278808594</ele>
        <time>2011-05-04T10:05:55Z</time>
      </trkpt>
      <trkpt lat="48.35226" lon="-4.41453">
        <ele>37.015731811523</ele>
        <time>2011-05-04T10:06:00Z</time>
      </trkpt>
      <trkpt lat="48.35221" lon="-4.41447">
        <ele>37.138164520264</ele>
        <time>2011-05-04T10:06:03Z</time>
      </trkpt>
      <trkpt lat="48.35175" lon="-4.41414">
        <ele>38.066837310791</ele>
        <time>2011-05-04T10:06:23Z</time>
      </trkpt>
      <trkpt lat="48.35128" lon="-4.41385">
        <ele>39.861392974854</ele>
        <time>2011-05-04T10:06:43Z</time>
      </trkpt>
      <trkpt lat="48.3508" lon="-4.41362">
        <ele>42.029903411865</ele>
        <time>2011-05-04T10:07:03Z</time>
      </trkpt>
      <trkpt lat="48.35073" lon="-4.41357">
        <ele>42.295261383057</ele>
        <time>2011-05-04T10:07:06Z</time>
      </trkpt>
      <trkpt lat="48.35032" lon="-4.41326">
        <ele>43.667366027832</ele>
        <time>2011-05-04T10:07:25Z</time>
      </trkpt>
      <trkpt lat="48.34995" lon="-4.41294">
        <ele>44.827793121338</ele>
        <time>2011-05-04T10:07:42Z</time>
      </trkpt>
      <trkpt lat="48.34962" lon="-4.41268">
        <ele>47.41389465332</ele>
        <time>2011-05-04T10:07:57Z</time>
      </trkpt>
      <trkpt lat="48.34958" lon="-4.41265">
        <ele>47.781658172607</ele>
        <time>2011-05-04T10:07:59Z</time>
      </trkpt>
      <trkpt lat="48.34941" lon="-4.41274">
        <ele>48.774841308594</ele>
        <time>2011-05-04T10:08:06Z</time>
      </trkpt>
      <trkpt lat="48.34924" lon="-4.41307">
        <ele>49.159122467041</ele>
        <time>2011-05-04T10:08:17Z</time>
      </trkpt>
      <trkpt lat="48.34909" lon="-4.41347">
        <ele>48.779243469238</ele>
        <time>2011-05-04T10:08:29Z</time>
      </trkpt>
      <trkpt lat="48.34895" lon="-4.41399">
        <ele>47.414535522461</ele>
        <time>2011-05-04T10:08:44Z</time>
      </trkpt>
      <trkpt lat="48.34892" lon="-4.41421">
        <ele>46.850818634033</ele>
        <time>2011-05-04T10:08:50Z</time>
      </trkpt>
      <trkpt lat="48.3488" lon="-4.41477">
        <ele>46.799407958984</ele>
        <time>2011-05-04T10:09:06Z</time>
      </trkpt>
      <trkpt lat="48.34873" lon="-4.4154">
        <ele>46.673065185547</ele>
        <time>2011-05-04T10:09:23Z</time>
      </trkpt>
      <trkpt lat="48.34872" lon="-4.41602">
        <ele>45.956665039062</ele>
        <time>2011-05-04T10:09:39Z</time>
      </trkpt>
      <trkpt lat="48.34877" lon="-4.41635">
        <ele>45.267730712891</ele>
        <time>2011-05-04T10:09:48Z</time>
      </trkpt>
      <trkpt lat="48.349" lon="-4.41658">
        <ele>43.277603149414</ele>
        <time>2011-05-04T10:09:59Z</time>
      </trkpt>
      <trkpt lat="48.34904" lon="-4.41661">
        <ele>42.99893951416</ele>
        <time>2011-05-04T10:10:01Z</time>
      </trkpt>
      <trkpt lat="48.34911" lon="-4.41679">
        <ele>42.831077575684</ele>
        <time>2011-05-04T10:10:07Z</time>
      </trkpt>
      <trkpt lat="48.34914" lon="-4.41712">
        <ele>43.815616607666</ele>
        <time>2011-05-04T10:10:15Z</time>
      </trkpt>
      <trkpt lat="48.34917" lon="-4.4174">
        <ele>44.64372253418</ele>
        <time>2011-05-04T10:10:23Z</time>
      </trkpt>
      <trkpt lat="48.34918" lon="-4.41774">
        <ele>45.817264556885</ele>
        <time>2011-05-04T10:10:32Z</time>
      </trkpt>
      <trkpt lat="48.34919" lon="-4.41798">
        <ele>46.622840881348</ele>
        <time>2011-05-04T10:10:38Z</time>
      </trkpt>
      <trkpt lat="48.34921" lon="-4.41811">
        <ele>46.96125793457</ele>
        <time>2011-05-04T10:10:42Z</time>
      </trkpt>
      <trkpt lat="48.34925" lon="-4.4183">
        <ele>47.35710144043</ele>
        <time>2011-05-04T10:10:47Z</time>
      </trkpt>
      <trkpt lat="48.34928" lon="-4.41853">
        <ele>47.576026916504</ele>
        <time>2011-05-04T10:10:53Z</time>
      </trkpt>
      <trkpt lat="48.34927" lon="-4.41873">
        <ele>47.934242248535</ele>
        <time>2011-05-04T10:10:59Z</time>
      </trkpt>
      <trkpt lat="48.34927" lon="-4.41877">
        <ele>47.996364593506</ele>
        <time>2011-05-04T10:11:00Z</time>
      </trkpt>
      <trkpt lat="48.34927" lon="-4.41877">
        <ele>47.988677978516</ele>
        <time>2011-05-04T10:11:00Z</time>
      </trkpt>
      <trkpt lat="48.34927" lon="-4.41878">
        <ele>47.959957122803</ele>
        <time>2011-05-04T10:11:01Z</time>
      </trkpt>
      <trkpt lat="48.34927" lon="-4.41874">
        <ele>47.931529998779</ele>
        <time>2011-05-04T10:11:02Z</time>
      </trkpt>
      <trkpt lat="48.34927" lon="-4.41873">
        <ele>47.888286590576</ele>
        <time>2011-05-04T10:11:02Z</time>
      </trkpt>
      <trkpt lat="48.34927" lon="-4.41876">
        <ele>47.950176239014</ele>
        <time>2011-05-04T10:11:03Z</time>
      </trkpt>
      <trkpt lat="48.34926" lon="-4.41877">
        <ele>48.009811401367</ele>
        <time>2011-05-04T10:11:03Z</time>
      </trkpt>
      <trkpt lat="48.34925" lon="-4.41877">
        <ele>48.098686218262</ele>
        <time>2011-05-04T10:11:04Z</time>
      </trkpt>
      <trkpt lat="48.34925" lon="-4.41876">
        <ele>48.05806350708</ele>
        <time>2011-05-04T10:11:04Z</time>
      </trkpt>
      <trkpt lat="48.34924" lon="-4.41874">
        <ele>48.074794769287</ele>
        <time>2011-05-04T10:11:05Z</time>
      </trkpt>
      <trkpt lat="48.34924" lon="-4.41873">
        <ele>48.07926940918</ele>
        <time>2011-05-04T10:11:05Z</time>
      </trkpt>
      <trkpt lat="48.34924" lon="-4.41876">
        <ele>48.102905273438</ele>
        <time>2011-05-04T10:11:06Z</time>
      </trkpt>
      <trkpt lat="48.34925" lon="-4.41876">
        <ele>48.081119537354</ele>
        <time>2011-05-04T10:11:06Z</time>
      </trkpt>
      <trkpt lat="48.34927" lon="-4.41874">
        <ele>47.954093933105</ele>
        <time>2011-05-04T10:11:07Z</time>
      </trkpt>
      <trkpt lat="48.34927" lon="-4.41873">
        <ele>47.892158508301</ele>
        <time>2011-05-04T10:11:08Z</time>
      </trkpt>
      <trkpt lat="48.34927" lon="-4.41874">
        <ele>47.906364440918</ele>
        <time>2011-05-04T10:11:08Z</time>
      </trkpt>
      <trkpt lat="48.34925" lon="-4.41873">
        <ele>48.045360565186</ele>
        <time>2011-05-04T10:11:09Z</time>
      </trkpt>
      <trkpt lat="48.34922" lon="-4.41875">
        <ele>48.192726135254</ele>
        <time>2011-05-04T10:11:10Z</time>
      </trkpt>
      <trkpt lat="48.34922" lon="-4.41878">
        <ele>48.251678466797</ele>
        <time>2011-05-04T10:11:11Z</time>
      </trkpt>
      <trkpt lat="48.34921" lon="-4.4188">
        <ele>48.309429168701</ele>
        <time>2011-05-04T10:11:12Z</time>
      </trkpt>
      <trkpt lat="48.34921" lon="-4.4188">
        <ele>48.338195800781</ele>
        <time>2011-05-04T10:11:12Z</time>
      </trkpt>
      <trkpt lat="48.3492" lon="-4.41882">
        <ele>48.422271728516</ele>
        <time>2011-05-04T10:11:12Z</time>
      </trkpt>
      <trkpt lat="48.34917" lon="-4.41909">
        <ele>48.90389251709</ele>
        <time>2011-05-04T10:11:20Z</time>
      </trkpt>
      <trkpt lat="48.34907" lon="-4.4192">
        <ele>49.360206604004</ele>
        <time>2011-05-04T10:11:25Z</time>
      </trkpt>
      <trkpt lat="48.34899" lon="-4.41919">
        <ele>49.516418457031</ele>
        <time>2011-05-04T10:11:28Z</time>
      </trkpt>
      <trkpt lat="48.34887" lon="-4.41919">
        <ele>49.799087524414</ele>
        <time>2011-05-04T10:11:33Z</time>
      </trkpt>
      <trkpt lat="48.3487" lon="-4.41921">
        <ele>50.280883789062</ele>
        <time>2011-05-04T10:11:39Z</time>
      </trkpt>
      <trkpt lat="48.34852" lon="-4.41921">
        <ele>50.711181640625</ele>
        <time>2011-05-04T10:11:47Z</time>
      </trkpt>
      <trkpt lat="48.34846" lon="-4.41921">
        <ele>50.852516174316</ele>
        <time>2011-05-04T10:11:49Z</time>
      </trkpt>
      <trkpt lat="48.34836" lon="-4.41931">
        <ele>51.433876037598</ele>
        <time>2011-05-04T10:11:54Z</time>
      </trkpt>
      <trkpt lat="48.34835" lon="-4.41947">
        <ele>52.025535583496</ele>
        <time>2011-05-04T10:11:58Z</time>
      </trkpt>
      <trkpt lat="48.34834" lon="-4.41976">
        <ele>53.131034851074</ele>
        <time>2011-05-04T10:12:06Z</time>
      </trkpt>
      <trkpt lat="48.34834" lon="-4.41982">
        <ele>53.325584411621</ele>
        <time>2011-05-04T10:12:07Z</time>
      </trkpt>
      <trkpt lat="48.3483" lon="-4.42016">
        <ele>55.017169952393</ele>
        <time>2011-05-04T10:12:17Z</time>
      </trkpt>
      <trkpt lat="48.34828" lon="-4.42043">
        <ele>56.659217834473</ele>
        <time>2011-05-04T10:12:24Z</time>
      </trkpt>
      <trkpt lat="48.34827" lon="-4.42063">
        <ele>57.816181182861</ele>
        <time>2011-05-04T10:12:29Z</time>
      </trkpt>
      <trkpt lat="48.34815" lon="-4.42091">
        <ele>59.599502563477</ele>
        <time>2011-05-04T10:12:38Z</time>
      </trkpt>
      <trkpt lat="48.34805" lon="-4.42109">
        <ele>60.720138549805</ele>
        <time>2011-05-04T10:12:44Z</time>
      </trkpt>
      <trkpt lat="48.34798" lon="-4.42135">
        <ele>62.128215789795</ele>
        <time>2011-05-04T10:12:52Z</time>
      </trkpt>
      <trkpt lat="48.34792" lon="-4.42145">
        <ele>62.337272644043</ele>
        <time>2011-05-04T10:12:55Z</time>
      </trkpt>
      <trkpt lat="48.34779" lon="-4.4218">
        <ele>62.885902404785</ele>
        <time>2011-05-04T10:13:06Z</time>
      </trkpt>
      <trkpt lat="48.34764" lon="-4.42197">
        <ele>62.306259155273</ele>
        <time>2011-05-04T10:13:13Z</time>
      </trkpt>
      <trkpt lat="48.34747" lon="-4.42214">
        <ele>61.450134277344</ele>
        <time>2011-05-04T10:13:21Z</time>
      </trkpt>
      <trkpt lat="48.34735" lon="-4.42224">
        <ele>60.602283477783</ele>
        <time>2011-05-04T10:13:27Z</time>
      </trkpt>
      <trkpt lat="48.34721" lon="-4.42244">
        <ele>59.385131835938</ele>
        <time>2011-05-04T10:13:35Z</time>
      </trkpt>
      <trkpt lat="48.3471" lon="-4.42273">
        <ele>57.869911193848</ele>
        <time>2011-05-04T10:13:44Z</time>
      </trkpt>
      <trkpt lat="48.34701" lon="-4.42288">
        <ele>56.636810302734</ele>
        <time>2011-05-04T10:13:49Z</time>
      </trkpt>
      <trkpt lat="48.34693" lon="-4.42307">
        <ele>55.447196960449</ele>
        <time>2011-05-04T10:13:55Z</time>
      </trkpt>
      <trkpt lat="48.3469" lon="-4.42329">
        <ele>54.818344116211</ele>
        <time>2011-05-04T10:14:01Z</time>
      </trkpt>
      <trkpt lat="48.34689" lon="-4.42347">
        <ele>53.755908966064</ele>
        <time>2011-05-04T10:14:06Z</time>
      </trkpt>
      <trkpt lat="48.3469" lon="-4.42364">
        <ele>52.890407562256</ele>
        <time>2011-05-04T10:14:10Z</time>
      </trkpt>
      <trkpt lat="48.34689" lon="-4.42383">
        <ele>51.555477142334</ele>
        <time>2011-05-04T10:14:15Z</time>
      </trkpt>
      <trkpt lat="48.34689" lon="-4.42398">
        <ele>50.518646240234</ele>
        <time>2011-05-04T10:14:20Z</time>
      </trkpt>
      <trkpt lat="48.3469" lon="-4.42416">
        <ele>49.601512908936</ele>
        <time>2011-05-04T10:14:24Z</time>
      </trkpt>
      <trkpt lat="48.34697" lon="-4.42431">
        <ele>49.268451690674</ele>
        <time>2011-05-04T10:14:29Z</time>
      </trkpt>
      <trkpt lat="48.34704" lon="-4.42452">
        <ele>48.372249603271</ele>
        <time>2011-05-04T10:14:35Z</time>
      </trkpt>
      <trkpt lat="48.3471" lon="-4.4247">
        <ele>47.506046295166</ele>
        <time>2011-05-04T10:14:41Z</time>
      </trkpt>
      <trkpt lat="48.34718" lon="-4.42485">
        <ele>46.908470153809</ele>
        <time>2011-05-04T10:14:46Z</time>
      </trkpt>
      <trkpt lat="48.34718" lon="-4.42488">
        <ele>46.730346679688</ele>
        <time>2011-05-04T10:14:47Z</time>
      </trkpt>
      <trkpt lat="48.3472" lon="-4.42489">
        <ele>46.774723052979</ele>
        <time>2011-05-04T10:14:47Z</time>
      </trkpt>
      <trkpt lat="48.34721" lon="-4.42488">
        <ele>46.881053924561</ele>
        <time>2011-05-04T10:14:48Z</time>
      </trkpt>
      <trkpt lat="48.34723" lon="-4.42494">
        <ele>46.573760986328</ele>
        <time>2011-05-04T10:14:49Z</time>
      </trkpt>
      <trkpt lat="48.34727" lon="-4.42496">
        <ele>46.690093994141</ele>
        <time>2011-05-04T10:14:51Z</time>
      </trkpt>
      <trkpt lat="48.34723" lon="-4.42492">
        <ele>46.701721191406</ele>
        <time>2011-05-04T10:14:53Z</time>
      </trkpt>
      <trkpt lat="48.34721" lon="-4.42494">
        <ele>46.399459838867</ele>
        <time>2011-05-04T10:14:54Z</time>
      </trkpt>
      <trkpt lat="48.34728" lon="-4.42504">
        <ele>45.692775726318</ele>
        <time>2011-05-04T10:14:58Z</time>
      </trkpt>
      <trkpt lat="48.3474" lon="-4.4251">
        <ele>45.506984710693</ele>
        <time>2011-05-04T10:15:03Z</time>
      </trkpt>
      <trkpt lat="48.34757" lon="-4.42509">
        <ele>45.393535614014</ele>
        <time>2011-05-04T10:15:10Z</time>
      </trkpt>
      <trkpt lat="48.34773" lon="-4.42502">
        <ele>44.621250152588</ele>
        <time>2011-05-04T10:15:17Z</time>
      </trkpt>
      <trkpt lat="48.34784" lon="-4.42495">
        <ele>44.212188720703</ele>
        <time>2011-05-04T10:15:21Z</time>
      </trkpt>
      <trkpt lat="48.34798" lon="-4.42486">
        <ele>43.669502258301</ele>
        <time>2011-05-04T10:15:27Z</time>
      </trkpt>
      <trkpt lat="48.3481" lon="-4.42481">
        <ele>43.120410919189</ele>
        <time>2011-05-04T10:15:32Z</time>
      </trkpt>
      <trkpt lat="48.34822" lon="-4.42472">
        <ele>43.194171905518</ele>
        <time>2011-05-04T10:15:38Z</time>
      </trkpt>
      <trkpt lat="48.34826" lon="-4.42471">
        <ele>43.006210327148</ele>
        <time>2011-05-04T10:15:40Z</time>
      </trkpt>
      <trkpt lat="48.34831" lon="-4.42466">
        <ele>43.324562072754</ele>
        <time>2011-05-04T10:15:42Z</time>
      </trkpt>
      <trkpt lat="48.34839" lon="-4.4246">
        <ele>43.493099212646</ele>
        <time>2011-05-04T10:15:45Z</time>
      </trkpt>
      <trkpt lat="48.34847" lon="-4.42452">
        <ele>43.947422027588</ele>
        <time>2011-05-04T10:15:49Z</time>
      </trkpt>
      <trkpt lat="48.34851" lon="-4.42451">
        <ele>43.697284698486</ele>
        <time>2011-05-04T10:15:51Z</time>
      </trkpt>
      <trkpt lat="48.34861" lon="-4.42448">
        <ele>42.846817016602</ele>
        <time>2011-05-04T10:15:55Z</time>
      </trkpt>
      <trkpt lat="48.34871" lon="-4.4245">
        <ele>41.427806854248</ele>
        <time>2011-05-04T10:15:59Z</time>
      </trkpt>
      <trkpt lat="48.3488" lon="-4.4245">
        <ele>40.288646697998</ele>
        <time>2011-05-04T10:16:02Z</time>
      </trkpt>
      <trkpt lat="48.3489" lon="-4.42455">
        <ele>38.530807495117</ele>
        <time>2011-05-04T10:16:06Z</time>
      </trkpt>
      <trkpt lat="48.34898" lon="-4.42456">
        <ele>37.400409698486</ele>
        <time>2011-05-04T10:16:10Z</time>
      </trkpt>
      <trkpt lat="48.349" lon="-4.42454">
        <ele>37.392280578613</ele>
        <time>2011-05-04T10:16:11Z</time>
      </trkpt>
      <trkpt lat="48.3491" lon="-4.4245">
        <ele>36.618453979492</ele>
        <time>2011-05-04T10:16:15Z</time>
      </trkpt>
      <trkpt lat="48.34919" lon="-4.42453">
        <ele>35.388294219971</ele>
        <time>2011-05-04T10:16:18Z</time>
      </trkpt>
      <trkpt lat="48.34922" lon="-4.42465">
        <ele>34.10827255249</ele>
        <time>2011-05-04T10:16:22Z</time>
      </trkpt>
      <trkpt lat="48.34926" lon="-4.42477">
        <ele>32.843967437744</ele>
        <time>2011-05-04T10:16:26Z</time>
      </trkpt>
      <trkpt lat="48.34931" lon="-4.42497">
        <ele>31.049287796021</ele>
        <time>2011-05-04T10:16:31Z</time>
      </trkpt>
      <trkpt lat="48.34929" lon="-4.42515">
        <ele>29.884868621826</ele>
        <time>2011-05-04T10:16:36Z</time>
      </trkpt>
      <trkpt lat="48.34925" lon="-4.42537">
        <ele>28.39882850647</ele>
        <time>2011-05-04T10:16:42Z</time>
      </trkpt>
      <trkpt lat="48.34925" lon="-4.4256">
        <ele>26.780450820923</ele>
        <time>2011-05-04T10:16:48Z</time>
      </trkpt>
      <trkpt lat="48.34921" lon="-4.42581">
        <ele>25.292697906494</ele>
        <time>2011-05-04T10:16:54Z</time>
      </trkpt>
      <trkpt lat="48.34916" lon="-4.42594">
        <ele>24.857271194458</ele>
        <time>2011-05-04T10:16:58Z</time>
      </trkpt>
      <trkpt lat="48.34901" lon="-4.42591">
        <ele>24.669359207153</ele>
        <time>2011-05-04T10:17:04Z</time>
      </trkpt>
      <trkpt lat="48.34896" lon="-4.4259">
        <ele>24.609836578369</ele>
        <time>2011-05-04T10:17:06Z</time>
      </trkpt>
      <trkpt lat="48.34883" lon="-4.426">
        <ele>24.156595230102</ele>
        <time>2011-05-04T10:17:12Z</time>
      </trkpt>
      <trkpt lat="48.34871" lon="-4.42609">
        <ele>23.621189117432</ele>
        <time>2011-05-04T10:17:17Z</time>
      </trkpt>
      <trkpt lat="48.34865" lon="-4.42612">
        <ele>23.412857055664</ele>
        <time>2011-05-04T10:17:20Z</time>
      </trkpt>
      <trkpt lat="48.34847" lon="-4.42611">
        <ele>23.02445602417</ele>
        <time>2011-05-04T10:17:27Z</time>
      </trkpt>
      <trkpt lat="48.3484" lon="-4.42603">
        <ele>23.182180404663</ele>
        <time>2011-05-04T10:17:31Z</time>
      </trkpt>
      <trkpt lat="48.34821" lon="-4.42592">
        <ele>24.590776443481</ele>
        <time>2011-05-04T10:17:38Z</time>
      </trkpt>
      <trkpt lat="48.3482" lon="-4.42592">
        <ele>24.724304199219</ele>
        <time>2011-05-04T10:17:39Z</time>
      </trkpt>
      <trkpt lat="48.34801" lon="-4.42595">
        <ele>26.100616455078</ele>
        <time>2011-05-04T10:17:47Z</time>
      </trkpt>
      <trkpt lat="48.34794" lon="-4.426">
        <ele>26.213096618652</ele>
        <time>2011-05-04T10:17:50Z</time>
      </trkpt>
      <trkpt lat="48.34781" lon="-4.42614">
        <ele>25.642551422119</ele>
        <time>2011-05-04T10:17:56Z</time>
      </trkpt>
      <trkpt lat="48.34765" lon="-4.42626">
        <ele>25.153760910034</ele>
        <time>2011-05-04T10:18:03Z</time>
      </trkpt>
      <trkpt lat="48.34748" lon="-4.42637">
        <ele>24.41205406189</ele>
        <time>2011-05-04T10:18:11Z</time>
      </trkpt>
      <trkpt lat="48.34745" lon="-4.4264">
        <ele>24.347574234009</ele>
        <time>2011-05-04T10:18:12Z</time>
      </trkpt>
      <trkpt lat="48.34734" lon="-4.42653">
        <ele>23.871530532837</ele>
        <time>2011-05-04T10:18:18Z</time>
      </trkpt>
      <trkpt lat="48.3472" lon="-4.42672">
        <ele>23.617227554321</ele>
        <time>2011-05-04T10:18:25Z</time>
      </trkpt>
      <trkpt lat="48.34703" lon="-4.42701">
        <ele>23.556833267212</ele>
        <time>2011-05-04T10:18:35Z</time>
      </trkpt>
      <trkpt lat="48.34694" lon="-4.42722">
        <ele>22.715482711792</ele>
        <time>2011-05-04T10:18:42Z</time>
      </trkpt>
      <trkpt lat="48.34689" lon="-4.42744">
        <ele>21.210960388184</ele>
        <time>2011-05-04T10:18:48Z</time>
      </trkpt>
      <trkpt lat="48.34682" lon="-4.4276">
        <ele>20.597890853882</ele>
        <time>2011-05-04T10:18:53Z</time>
      </trkpt>
      <trkpt lat="48.34669" lon="-4.42777">
        <ele>20.278486251831</ele>
        <time>2011-05-04T10:19:01Z</time>
      </trkpt>
      <trkpt lat="48.34657" lon="-4.42796">
        <ele>19.514984130859</ele>
        <time>2011-05-04T10:19:08Z</time>
      </trkpt>
      <trkpt lat="48.3464" lon="-4.42819">
        <ele>18.526052474976</ele>
        <time>2011-05-04T10:19:17Z</time>
      </trkpt>
      <trkpt lat="48.34627" lon="-4.42839">
        <ele>17.754531860352</ele>
        <time>2011-05-04T10:19:24Z</time>
      </trkpt>
      <trkpt lat="48.34618" lon="-4.42854">
        <ele>17.388782501221</ele>
        <time>2011-05-04T10:19:29Z</time>
      </trkpt>
      <trkpt lat="48.34627" lon="-4.42869">
        <ele>16.674932479858</ele>
        <time>2011-05-04T10:19:35Z</time>
      </trkpt>
      <trkpt lat="48.34642" lon="-4.42899">
        <ele>15.549708366394</ele>
        <time>2011-05-04T10:19:45Z</time>
      </trkpt>
      <trkpt lat="48.34649" lon="-4.42933">
        <ele>15.37317943573</ele>
        <time>2011-05-04T10:19:54Z</time>
      </trkpt>
      <trkpt lat="48.34651" lon="-4.42952">
        <ele>15.890296936035</ele>
        <time>2011-05-04T10:19:59Z</time>
      </trkpt>
      <trkpt lat="48.34659" lon="-4.42999">
        <ele>17.510288238525</ele>
        <time>2011-05-04T10:20:12Z</time>
      </trkpt>
      <trkpt lat="48.34668" lon="-4.43014">
        <ele>18.469886779785</ele>
        <time>2011-05-04T10:20:18Z</time>
      </trkpt>
      <trkpt lat="48.3468" lon="-4.4303">
        <ele>19.820671081543</ele>
        <time>2011-05-04T10:20:24Z</time>
      </trkpt>
      <trkpt lat="48.34689" lon="-4.43043">
        <ele>20.931213378906</ele>
        <time>2011-05-04T10:20:29Z</time>
      </trkpt>
      <trkpt lat="48.34701" lon="-4.43063">
        <ele>22.592212677002</ele>
        <time>2011-05-04T10:20:36Z</time>
      </trkpt>
      <trkpt lat="48.34718" lon="-4.43089">
        <ele>25.226114273071</ele>
        <time>2011-05-04T10:20:46Z</time>
      </trkpt>
      <trkpt lat="48.34731" lon="-4.43106">
        <ele>27.464242935181</ele>
        <time>2011-05-04T10:20:53Z</time>
      </trkpt>
      <trkpt lat="48.3475" lon="-4.43126">
        <ele>30.497262954712</ele>
        <time>2011-05-04T10:21:02Z</time>
      </trkpt>
      <trkpt lat="48.34793" lon="-4.43172">
        <ele>39.69543838501</ele>
        <time>2011-05-04T10:21:23Z</time>
      </trkpt>
      <trkpt lat="48.34806" lon="-4.43182">
        <ele>42.372581481934</ele>
        <time>2011-05-04T10:21:29Z</time>
      </trkpt>
      <trkpt lat="48.3483" lon="-4.43179">
        <ele>45.425086975098</ele>
        <time>2011-05-04T10:21:39Z</time>
      </trkpt>
      <trkpt lat="48.34834" lon="-4.43173">
        <ele>45.568832397461</ele>
        <time>2011-05-04T10:21:41Z</time>
      </trkpt>
      <trkpt lat="48.34861" lon="-4.4314">
        <ele>46.46310043335</ele>
        <time>2011-05-04T10:21:55Z</time>
      </trkpt>
      <trkpt lat="48.34866" lon="-4.4313">
        <ele>46.520664215088</ele>
        <time>2011-05-04T10:21:58Z</time>
      </trkpt>
      <trkpt lat="48.34881" lon="-4.43128">
        <ele>48.120548248291</ele>
        <time>2011-05-04T10:22:04Z</time>
      </trkpt>
      <trkpt lat="48.34903" lon="-4.43149">
        <ele>51.588939666748</ele>
        <time>2011-05-04T10:22:14Z</time>
      </trkpt>
      <trkpt lat="48.34922" lon="-4.43162">
        <ele>54.315658569336</ele>
        <time>2011-05-04T10:22:23Z</time>
      </trkpt>
      <trkpt lat="48.34935" lon="-4.43173">
        <ele>55.95955657959</ele>
        <time>2011-05-04T10:22:29Z</time>
      </trkpt>
      <trkpt lat="48.3495" lon="-4.4319">
        <ele>57.836441040039</ele>
        <time>2011-05-04T10:22:36Z</time>
      </trkpt>
      <trkpt lat="48.34968" lon="-4.43212">
        <ele>59.911911010742</ele>
        <time>2011-05-04T10:22:46Z</time>
      </trkpt>
      <trkpt lat="48.3498" lon="-4.43225">
        <ele>61.112678527832</ele>
        <time>2011-05-04T10:22:52Z</time>
      </trkpt>
      <trkpt lat="48.34994" lon="-4.43245">
        <ele>62.483589172363</ele>
        <time>2011-05-04T10:22:59Z</time>
      </trkpt>
      <trkpt lat="48.35012" lon="-4.43266">
        <ele>64.293083190918</ele>
        <time>2011-05-04T10:23:08Z</time>
      </trkpt>
      <trkpt lat="48.35018" lon="-4.43271">
        <ele>64.867897033691</ele>
        <time>2011-05-04T10:23:11Z</time>
      </trkpt>
      <trkpt lat="48.35035" lon="-4.43262">
        <ele>66.075065612793</ele>
        <time>2011-05-04T10:23:19Z</time>
      </trkpt>
      <trkpt lat="48.35038" lon="-4.43259">
        <ele>66.22777557373</ele>
        <time>2011-05-04T10:23:20Z</time>
      </trkpt>
      <trkpt lat="48.35061" lon="-4.4326">
        <ele>68.090789794922</ele>
        <time>2011-05-04T10:23:29Z</time>
      </trkpt>
      <trkpt lat="48.35072" lon="-4.43261">
        <ele>68.96346282959</ele>
        <time>2011-05-04T10:23:34Z</time>
      </trkpt>
      <trkpt lat="48.35102" lon="-4.43259">
        <ele>69.667587280273</ele>
        <time>2011-05-04T10:23:46Z</time>
      </trkpt>
      <trkpt lat="48.35117" lon="-4.43259">
        <ele>69.49878692627</ele>
        <time>2011-05-04T10:23:52Z</time>
      </trkpt>
      <trkpt lat="48.35126" lon="-4.43259">
        <ele>69.373474121094</ele>
        <time>2011-05-04T10:23:56Z</time>
      </trkpt>
      <trkpt lat="48.35145" lon="-4.43265">
        <ele>69.073638916016</ele>
        <time>2011-05-04T10:24:03Z</time>
      </trkpt>
      <trkpt lat="48.35162" lon="-4.43271">
        <ele>68.79955291748</ele>
        <time>2011-05-04T10:24:10Z</time>
      </trkpt>
      <trkpt lat="48.35166" lon="-4.43273">
        <ele>68.736610412598</ele>
        <time>2011-05-04T10:24:12Z</time>
      </trkpt>
      <trkpt lat="48.35182" lon="-4.43293">
        <ele>67.831748962402</ele>
        <time>2011-05-04T10:24:20Z</time>
      </trkpt>
      <trkpt lat="48.35196" lon="-4.43312">
        <ele>67.127235412598</ele>
        <time>2011-05-04T10:24:28Z</time>
      </trkpt>
      <trkpt lat="48.35213" lon="-4.43326">
        <ele>66.369819641113</ele>
        <time>2011-05-04T10:24:35Z</time>
      </trkpt>
      <trkpt lat="48.35231" lon="-4.4333">
        <ele>65.706901550293</ele>
        <time>2011-05-04T10:24:43Z</time>
      </trkpt>
      <trkpt lat="48.35244" lon="-4.43328">
        <ele>65.220802307129</ele>
        <time>2011-05-04T10:24:48Z</time>
      </trkpt>
      <trkpt lat="48.35259" lon="-4.43348">
        <ele>64.030311584473</ele>
        <time>2011-05-04T10:24:56Z</time>
      </trkpt>
      <trkpt lat="48.35263" lon="-4.43358">
        <ele>63.401195526123</ele>
        <time>2011-05-04T10:24:59Z</time>
      </trkpt>
      <trkpt lat="48.35261" lon="-4.4339">
        <ele>62.319690704346</ele>
        <time>2011-05-04T10:25:08Z</time>
      </trkpt>
      <trkpt lat="48.35253" lon="-4.43407">
        <ele>62.152946472168</ele>
        <time>2011-05-04T10:25:13Z</time>
      </trkpt>
      <trkpt lat="48.35241" lon="-4.43437">
        <ele>62.462326049805</ele>
        <time>2011-05-04T10:25:23Z</time>
      </trkpt>
      <trkpt lat="48.35228" lon="-4.43473">
        <ele>62.803520202637</ele>
        <time>2011-05-04T10:25:33Z</time>
      </trkpt>
      <trkpt lat="48.35226" lon="-4.43479">
        <ele>62.804752349854</ele>
        <time>2011-05-04T10:25:35Z</time>
      </trkpt>
      <trkpt lat="48.35223" lon="-4.43506">
        <ele>62.511779785156</ele>
        <time>2011-05-04T10:25:42Z</time>
      </trkpt>
      <trkpt lat="48.35237" lon="-4.43534">
        <ele>61.502410888672</ele>
        <time>2011-05-04T10:25:52Z</time>
      </trkpt>
      <trkpt lat="48.35249" lon="-4.43546">
        <ele>60.910751342773</ele>
        <time>2011-05-04T10:25:58Z</time>
      </trkpt>
      <trkpt lat="48.35271" lon="-4.4357">
        <ele>58.946243286133</ele>
        <time>2011-05-04T10:26:09Z</time>
      </trkpt>
      <trkpt lat="48.35296" lon="-4.43597">
        <ele>57.060096740723</ele>
        <time>2011-05-04T10:26:21Z</time>
      </trkpt>
      <trkpt lat="48.3532" lon="-4.43625">
        <ele>55.322883605957</ele>
        <time>2011-05-04T10:26:33Z</time>
      </trkpt>
      <trkpt lat="48.35325" lon="-4.43632">
        <ele>54.902313232422</ele>
        <time>2011-05-04T10:26:36Z</time>
      </trkpt>
      <trkpt lat="48.3533" lon="-4.4365">
        <ele>54.391334533691</ele>
        <time>2011-05-04T10:26:41Z</time>
      </trkpt>
      <trkpt lat="48.35328" lon="-4.43656">
        <ele>54.430244445801</ele>
        <time>2011-05-04T10:26:43Z</time>
      </trkpt>
      <trkpt lat="48.35315" lon="-4.43688">
        <ele>55.494697570801</ele>
        <time>2011-05-04T10:26:53Z</time>
      </trkpt>
      <trkpt lat="48.3529" lon="-4.43727">
        <ele>57.285152435303</ele>
        <time>2011-05-04T10:27:07Z</time>
      </trkpt>
      <trkpt lat="48.35271" lon="-4.43758">
        <ele>57.985172271729</ele>
        <time>2011-05-04T10:27:18Z</time>
      </trkpt>
      <trkpt lat="48.35263" lon="-4.43782">
        <ele>57.46475982666</ele>
        <time>2011-05-04T10:27:25Z</time>
      </trkpt>
      <trkpt lat="48.35251" lon="-4.43808">
        <ele>56.895503997803</ele>
        <time>2011-05-04T10:27:34Z</time>
      </trkpt>
      <trkpt lat="48.35241" lon="-4.43816">
        <ele>56.331214904785</ele>
        <time>2011-05-04T10:27:38Z</time>
      </trkpt>
      <trkpt lat="48.35221" lon="-4.43823">
        <ele>55.381874084473</ele>
        <time>2011-05-04T10:27:46Z</time>
      </trkpt>
      <trkpt lat="48.35212" lon="-4.43821">
        <ele>55.160530090332</ele>
        <time>2011-05-04T10:27:50Z</time>
      </trkpt>
      <trkpt lat="48.35201" lon="-4.43814">
        <ele>55.035736083984</ele>
        <time>2011-05-04T10:27:55Z</time>
      </trkpt>
      <trkpt lat="48.35168" lon="-4.43805">
        <ele>54.42041015625</ele>
        <time>2011-05-04T10:28:08Z</time>
      </trkpt>
      <trkpt lat="48.35129" lon="-4.43794">
        <ele>54.414520263672</ele>
        <time>2011-05-04T10:28:24Z</time>
      </trkpt>
      <trkpt lat="48.35117" lon="-4.43791">
        <ele>54.448852539062</ele>
        <time>2011-05-04T10:28:29Z</time>
      </trkpt>
      <trkpt lat="48.3509" lon="-4.43779">
        <ele>54.686889648438</ele>
        <time>2011-05-04T10:28:41Z</time>
      </trkpt>
      <trkpt lat="48.35065" lon="-4.43771">
        <ele>54.370700836182</ele>
        <time>2011-05-04T10:28:51Z</time>
      </trkpt>
      <trkpt lat="48.35039" lon="-4.43761">
        <ele>54.19896697998</ele>
        <time>2011-05-04T10:29:02Z</time>
      </trkpt>
      <trkpt lat="48.35019" lon="-4.43745">
        <ele>54.667655944824</ele>
        <time>2011-05-04T10:29:10Z</time>
      </trkpt>
      <trkpt lat="48.35007" lon="-4.43741">
        <ele>54.604179382324</ele>
        <time>2011-05-04T10:29:15Z</time>
      </trkpt>
      <trkpt lat="48.34972" lon="-4.43731">
        <ele>56.015209197998</ele>
        <time>2011-05-04T10:29:30Z</time>
      </trkpt>
      <trkpt lat="48.34941" lon="-4.43711">
        <ele>58.312942504883</ele>
        <time>2011-05-04T10:29:43Z</time>
      </trkpt>
      <trkpt lat="48.34929" lon="-4.43699">
        <ele>59.536933898926</ele>
        <time>2011-05-04T10:29:49Z</time>
      </trkpt>
      <trkpt lat="48.34925" lon="-4.43695">
        <ele>59.951663970947</ele>
        <time>2011-05-04T10:29:51Z</time>
      </trkpt>
      <trkpt lat="48.34895" lon="-4.43679">
        <ele>61.390277862549</ele>
        <time>2011-05-04T10:30:04Z</time>
      </trkpt>
      <trkpt lat="48.34889" lon="-4.43674">
        <ele>61.624366760254</ele>
        <time>2011-05-04T10:30:06Z</time>
      </trkpt>
      <trkpt lat="48.34868" lon="-4.43658">
        <ele>62.14563369751</ele>
        <time>2011-05-04T10:30:16Z</time>
      </trkpt>
      <trkpt lat="48.34863" lon="-4.43653">
        <ele>62.218933105469</ele>
        <time>2011-05-04T10:30:18Z</time>
      </trkpt>
      <trkpt lat="48.34846" lon="-4.43639">
        <ele>62.386989593506</ele>
        <time>2011-05-04T10:30:26Z</time>
      </trkpt>
      <trkpt lat="48.34832" lon="-4.43628">
        <ele>62.370040893555</ele>
        <time>2011-05-04T10:30:32Z</time>
      </trkpt>
      <trkpt lat="48.34819" lon="-4.43612">
        <ele>61.602714538574</ele>
        <time>2011-05-04T10:30:39Z</time>
      </trkpt>
      <trkpt lat="48.34809" lon="-4.43605">
        <ele>60.99617767334</ele>
        <time>2011-05-04T10:30:43Z</time>
      </trkpt>
      <trkpt lat="48.34802" lon="-4.43606">
        <ele>60.489204406738</ele>
        <time>2011-05-04T10:30:46Z</time>
      </trkpt>
      <trkpt lat="48.34804" lon="-4.43611">
        <ele>60.540702819824</ele>
        <time>2011-05-04T10:30:48Z</time>
      </trkpt>
      <trkpt lat="48.34802" lon="-4.43606">
        <ele>60.489776611328</ele>
        <time>2011-05-04T10:30:49Z</time>
      </trkpt>
      <trkpt lat="48.34803" lon="-4.43605">
        <ele>60.588195800781</ele>
        <time>2011-05-04T10:30:50Z</time>
      </trkpt>
      <trkpt lat="48.34803" lon="-4.43602">
        <ele>60.59334564209</ele>
        <time>2011-05-04T10:30:50Z</time>
      </trkpt>
      <trkpt lat="48.34804" lon="-4.43601">
        <ele>60.653999328613</ele>
        <time>2011-05-04T10:30:51Z</time>
      </trkpt>
      <trkpt lat="48.34803" lon="-4.43603">
        <ele>60.585906982422</ele>
        <time>2011-05-04T10:30:51Z</time>
      </trkpt>
      <trkpt lat="48.34802" lon="-4.43603">
        <ele>60.529258728027</ele>
        <time>2011-05-04T10:30:51Z</time>
      </trkpt>
      <trkpt lat="48.34802" lon="-4.43602">
        <ele>60.511520385742</ele>
        <time>2011-05-04T10:30:52Z</time>
      </trkpt>
      <trkpt lat="48.34802" lon="-4.43602">
        <ele>60.540702819824</ele>
        <time>2011-05-04T10:30:52Z</time>
      </trkpt>
      <trkpt lat="48.34803" lon="-4.43603">
        <ele>60.549285888672</ele>
        <time>2011-05-04T10:30:52Z</time>
      </trkpt>
      <trkpt lat="48.34803" lon="-4.43601">
        <ele>60.583045959473</ele>
        <time>2011-05-04T10:30:53Z</time>
      </trkpt>
      <trkpt lat="48.34802" lon="-4.43597">
        <ele>60.574462890625</ele>
        <time>2011-05-04T10:30:54Z</time>
      </trkpt>
      <trkpt lat="48.34805" lon="-4.436">
        <ele>60.748413085938</ele>
        <time>2011-05-04T10:30:56Z</time>
      </trkpt>
      <trkpt lat="48.34802" lon="-4.43597">
        <ele>60.595634460449</ele>
        <time>2011-05-04T10:30:57Z</time>
      </trkpt>
      <trkpt lat="48.34799" lon="-4.43594">
        <ele>60.414245605469</ele>
        <time>2011-05-04T10:30:59Z</time>
      </trkpt>
      <trkpt lat="48.34791" lon="-4.43592">
        <ele>59.830024719238</ele>
        <time>2011-05-04T10:31:02Z</time>
      </trkpt>
      <trkpt lat="48.34772" lon="-4.43583">
        <ele>58.617416381836</ele>
        <time>2011-05-04T10:31:10Z</time>
      </trkpt>
      <trkpt lat="48.34749" lon="-4.43556">
        <ele>56.90291595459</ele>
        <time>2011-05-04T10:31:21Z</time>
      </trkpt>
      <trkpt lat="48.3474" lon="-4.43548">
        <ele>56.101417541504</ele>
        <time>2011-05-04T10:31:26Z</time>
      </trkpt>
      <trkpt lat="48.34737" lon="-4.43551">
        <ele>55.884845733643</ele>
        <time>2011-05-04T10:31:27Z</time>
      </trkpt>
      <trkpt lat="48.34723" lon="-4.43572">
        <ele>54.913318634033</ele>
        <time>2011-05-04T10:31:35Z</time>
      </trkpt>
      <trkpt lat="48.34711" lon="-4.43588">
        <ele>54.167121887207</ele>
        <time>2011-05-04T10:31:41Z</time>
      </trkpt>
      <trkpt lat="48.34695" lon="-4.43615">
        <ele>52.938892364502</ele>
        <time>2011-05-04T10:31:51Z</time>
      </trkpt>
      <trkpt lat="48.34684" lon="-4.43631">
        <ele>52.127498626709</ele>
        <time>2011-05-04T10:31:57Z</time>
      </trkpt>
      <trkpt lat="48.34676" lon="-4.4364">
        <ele>51.594867706299</ele>
        <time>2011-05-04T10:32:01Z</time>
      </trkpt>
      <trkpt lat="48.34666" lon="-4.43648">
        <ele>50.911769866943</ele>
        <time>2011-05-04T10:32:06Z</time>
      </trkpt>
      <trkpt lat="48.34654" lon="-4.43664">
        <ele>49.944820404053</ele>
        <time>2011-05-04T10:32:12Z</time>
      </trkpt>
      <trkpt lat="48.34646" lon="-4.43681">
        <ele>49.250854492188</ele>
        <time>2011-05-04T10:32:18Z</time>
      </trkpt>
      <trkpt lat="48.34637" lon="-4.43698">
        <ele>48.513854980469</ele>
        <time>2011-05-04T10:32:23Z</time>
      </trkpt>
      <trkpt lat="48.34631" lon="-4.43712">
        <ele>47.969116210938</ele>
        <time>2011-05-04T10:32:28Z</time>
      </trkpt>
      <trkpt lat="48.34624" lon="-4.43728">
        <ele>47.392333984375</ele>
        <time>2011-05-04T10:32:33Z</time>
      </trkpt>
      <trkpt lat="48.34615" lon="-4.43749">
        <ele>46.687377929688</ele>
        <time>2011-05-04T10:32:39Z</time>
      </trkpt>
      <trkpt lat="48.34611" lon="-4.43766">
        <ele>46.078510284424</ele>
        <time>2011-05-04T10:32:44Z</time>
      </trkpt>
      <trkpt lat="48.34605" lon="-4.43786">
        <ele>45.303455352783</ele>
        <time>2011-05-04T10:32:50Z</time>
      </trkpt>
      <trkpt lat="48.34596" lon="-4.43803">
        <ele>44.350929260254</ele>
        <time>2011-05-04T10:32:56Z</time>
      </trkpt>
      <trkpt lat="48.34587" lon="-4.43812">
        <ele>43.542285919189</ele>
        <time>2011-05-04T10:33:00Z</time>
      </trkpt>
      <trkpt lat="48.34581" lon="-4.4381">
        <ele>43.004405975342</ele>
        <time>2011-05-04T10:33:03Z</time>
      </trkpt>
      <trkpt lat="48.34571" lon="-4.43806">
        <ele>41.811958312988</ele>
        <time>2011-05-04T10:33:07Z</time>
      </trkpt>
      <trkpt lat="48.34557" lon="-4.43811">
        <ele>40.21057510376</ele>
        <time>2011-05-04T10:33:12Z</time>
      </trkpt>
      <trkpt lat="48.34542" lon="-4.43819">
        <ele>38.459117889404</ele>
        <time>2011-05-04T10:33:19Z</time>
      </trkpt>
      <trkpt lat="48.3453" lon="-4.43817">
        <ele>37.094547271729</ele>
        <time>2011-05-04T10:33:24Z</time>
      </trkpt>
      <trkpt lat="48.3452" lon="-4.43794">
        <ele>35.591262817383</ele>
        <time>2011-05-04T10:33:31Z</time>
      </trkpt>
      <trkpt lat="48.34515" lon="-4.43771">
        <ele>34.573181152344</ele>
        <time>2011-05-04T10:33:38Z</time>
      </trkpt>
      <trkpt lat="48.34512" lon="-4.43742">
        <ele>33.695434570312</ele>
        <time>2011-05-04T10:33:45Z</time>
      </trkpt>
      <trkpt lat="48.3451" lon="-4.43703">
        <ele>32.950588226318</ele>
        <time>2011-05-04T10:33:56Z</time>
      </trkpt>
      <trkpt lat="48.34512" lon="-4.43678">
        <ele>32.923393249512</ele>
        <time>2011-05-04T10:34:02Z</time>
      </trkpt>
      <trkpt lat="48.34515" lon="-4.43654">
        <ele>33.158699035645</ele>
        <time>2011-05-04T10:34:09Z</time>
      </trkpt>
      <trkpt lat="48.3451" lon="-4.43641">
        <ele>32.164924621582</ele>
        <time>2011-05-04T10:34:13Z</time>
      </trkpt>
      <trkpt lat="48.34492" lon="-4.43623">
        <ele>29.566328048706</ele>
        <time>2011-05-04T10:34:21Z</time>
      </trkpt>
      <trkpt lat="48.34478" lon="-4.43609">
        <ele>27.618095397949</ele>
        <time>2011-05-04T10:34:28Z</time>
      </trkpt>
      <trkpt lat="48.34466" lon="-4.43596">
        <ele>25.804430007935</ele>
        <time>2011-05-04T10:34:34Z</time>
      </trkpt>
      <trkpt lat="48.34461" lon="-4.43591">
        <ele>25.004219055176</ele>
        <time>2011-05-04T10:34:37Z</time>
      </trkpt>
      <trkpt lat="48.34452" lon="-4.43577">
        <ele>23.54817199707</ele>
        <time>2011-05-04T10:34:42Z</time>
      </trkpt>
      <trkpt lat="48.34455" lon="-4.43551">
        <ele>23.208833694458</ele>
        <time>2011-05-04T10:34:49Z</time>
      </trkpt>
      <trkpt lat="48.3446" lon="-4.43531">
        <ele>23.504421234131</ele>
        <time>2011-05-04T10:34:54Z</time>
      </trkpt>
      <trkpt lat="48.34465" lon="-4.4352">
        <ele>23.996633529663</ele>
        <time>2011-05-04T10:34:58Z</time>
      </trkpt>
      <trkpt lat="48.3447" lon="-4.43514">
        <ele>24.541213989258</ele>
        <time>2011-05-04T10:35:00Z</time>
      </trkpt>
      <trkpt lat="48.3447" lon="-4.43504">
        <ele>24.393489837646</ele>
        <time>2011-05-04T10:35:03Z</time>
      </trkpt>
      <trkpt lat="48.34467" lon="-4.43495">
        <ele>23.484268188477</ele>
        <time>2011-05-04T10:35:06Z</time>
      </trkpt>
      <trkpt lat="48.34465" lon="-4.43491">
        <ele>22.926940917969</ele>
        <time>2011-05-04T10:35:07Z</time>
      </trkpt>
      <trkpt lat="48.3446" lon="-4.43483">
        <ele>21.621170043945</ele>
        <time>2011-05-04T10:35:10Z</time>
      </trkpt>
      <trkpt lat="48.34453" lon="-4.43474">
        <ele>19.785537719727</ele>
        <time>2011-05-04T10:35:14Z</time>
      </trkpt>
      <trkpt lat="48.34446" lon="-4.43466">
        <ele>18.12385559082</ele>
        <time>2011-05-04T10:35:17Z</time>
      </trkpt>
      <trkpt lat="48.34439" lon="-4.43453">
        <ele>16.031875610352</ele>
        <time>2011-05-04T10:35:22Z</time>
      </trkpt>
      <trkpt lat="48.34434" lon="-4.43431">
        <ele>13.786544799805</ele>
        <time>2011-05-04T10:35:28Z</time>
      </trkpt>
      <trkpt lat="48.34433" lon="-4.43422">
        <ele>12.858428955078</ele>
        <time>2011-05-04T10:35:30Z</time>
      </trkpt>
      <trkpt lat="48.34431" lon="-4.43418">
        <ele>12.388076782227</ele>
        <time>2011-05-04T10:35:31Z</time>
      </trkpt>
      <trkpt lat="48.34428" lon="-4.43403">
        <ele>11.175430297852</ele>
        <time>2011-05-04T10:35:36Z</time>
      </trkpt>
      <trkpt lat="48.34424" lon="-4.43386">
        <ele>9.9311218261719</ele>
        <time>2011-05-04T10:35:41Z</time>
      </trkpt>
      <trkpt lat="48.34423" lon="-4.43383">
        <ele>9.7341394424438</ele>
        <time>2011-05-04T10:35:41Z</time>
      </trkpt>
      <trkpt lat="48.34417" lon="-4.43385">
        <ele>8.8449077606201</ele>
        <time>2011-05-04T10:35:44Z</time>
      </trkpt>
      <trkpt lat="48.34411" lon="-4.43414">
        <ele>9.5674095153809</ele>
        <time>2011-05-04T10:35:52Z</time>
      </trkpt>
      <trkpt lat="48.34402" lon="-4.43454">
        <ele>11.284982681274</ele>
        <time>2011-05-04T10:36:03Z</time>
      </trkpt>
      <trkpt lat="48.34392" lon="-4.43494">
        <ele>12.189702987671</ele>
        <time>2011-05-04T10:36:15Z</time>
      </trkpt>
      <trkpt lat="48.34391" lon="-4.435">
        <ele>12.25662612915</ele>
        <time>2011-05-04T10:36:16Z</time>
      </trkpt>
      <trkpt lat="48.34381" lon="-4.43539">
        <ele>12.080224990845</ele>
        <time>2011-05-04T10:36:27Z</time>
      </trkpt>
      <trkpt lat="48.34367" lon="-4.43589">
        <ele>11.468647956848</ele>
        <time>2011-05-04T10:36:42Z</time>
      </trkpt>
      <trkpt lat="48.34355" lon="-4.43627">
        <ele>10.601783752441</ele>
        <time>2011-05-04T10:36:53Z</time>
      </trkpt>
      <trkpt lat="48.34333" lon="-4.43689">
        <ele>7.9793181419373</ele>
        <time>2011-05-04T10:37:12Z</time>
      </trkpt>
      <trkpt lat="48.34328" lon="-4.43714">
        <ele>7.8168354034424</ele>
        <time>2011-05-04T10:37:19Z</time>
      </trkpt>
      <trkpt lat="48.3433" lon="-4.43746">
        <ele>7.824987411499</ele>
        <time>2011-05-04T10:37:27Z</time>
      </trkpt>
      <trkpt lat="48.34332" lon="-4.43779">
        <ele>6.9094066619873</ele>
        <time>2011-05-04T10:37:36Z</time>
      </trkpt>
      <trkpt lat="48.34327" lon="-4.43802">
        <ele>5.9126543998718</ele>
        <time>2011-05-04T10:37:42Z</time>
      </trkpt>
      <trkpt lat="48.34303" lon="-4.43825">
        <ele>4.5068316459656</ele>
        <time>2011-05-04T10:37:54Z</time>
      </trkpt>
      <trkpt lat="48.34291" lon="-4.4383">
        <ele>4.073335647583</ele>
        <time>2011-05-04T10:37:59Z</time>
      </trkpt>
      <trkpt lat="48.34259" lon="-4.43844">
        <ele>2.9423356056213</ele>
        <time>2011-05-04T10:38:12Z</time>
      </trkpt>
      <trkpt lat="48.34233" lon="-4.43858">
        <ele>2.8159637451172</ele>
        <time>2011-05-04T10:38:23Z</time>
      </trkpt>
      <trkpt lat="48.34208" lon="-4.4387">
        <ele>3.1192321777344</ele>
        <time>2011-05-04T10:38:33Z</time>
      </trkpt>
      <trkpt lat="48.34193" lon="-4.43874">
        <ele>3.3755798339844</ele>
        <time>2011-05-04T10:38:40Z</time>
      </trkpt>
      <trkpt lat="48.34161" lon="-4.43876">
        <ele>4.6873769760132</ele>
        <time>2011-05-04T10:38:53Z</time>
      </trkpt>
      <trkpt lat="48.34142" lon="-4.43876">
        <ele>7.1383709907532</ele>
        <time>2011-05-04T10:39:00Z</time>
      </trkpt>
      <trkpt lat="48.34128" lon="-4.43872">
        <ele>9.037127494812</ele>
        <time>2011-05-04T10:39:06Z</time>
      </trkpt>
      <trkpt lat="48.34118" lon="-4.43878">
        <ele>10.050427436829</ele>
        <time>2011-05-04T10:39:10Z</time>
      </trkpt>
      <trkpt lat="48.34112" lon="-4.43872">
        <ele>11.038825035095</ele>
        <time>2011-05-04T10:39:13Z</time>
      </trkpt>
      <trkpt lat="48.341" lon="-4.43884">
        <ele>11.956480026245</ele>
        <time>2011-05-04T10:39:19Z</time>
      </trkpt>
      <trkpt lat="48.34098" lon="-4.4389">
        <ele>11.838183403015</ele>
        <time>2011-05-04T10:39:21Z</time>
      </trkpt>
      <trkpt lat="48.34085" lon="-4.43938">
        <ele>10.286170005798</ele>
        <time>2011-05-04T10:39:34Z</time>
      </trkpt>
      <trkpt lat="48.34079" lon="-4.43966">
        <ele>9.7610912322998</ele>
        <time>2011-05-04T10:39:42Z</time>
      </trkpt>
      <trkpt lat="48.34072" lon="-4.43995">
        <ele>9.5879611968994</ele>
        <time>2011-05-04T10:39:51Z</time>
      </trkpt>
      <trkpt lat="48.34068" lon="-4.44015">
        <ele>10.085681915283</ele>
        <time>2011-05-04T10:39:56Z</time>
      </trkpt>
      <trkpt lat="48.34058" lon="-4.44033">
        <ele>11.933173179627</ele>
        <time>2011-05-04T10:40:02Z</time>
      </trkpt>
      <trkpt lat="48.3405" lon="-4.44056">
        <ele>13.277221679688</ele>
        <time>2011-05-04T10:40:09Z</time>
      </trkpt>
      <trkpt lat="48.34045" lon="-4.44067">
        <ele>13.945576667786</ele>
        <time>2011-05-04T10:40:13Z</time>
      </trkpt>
      <trkpt lat="48.34043" lon="-4.44074">
        <ele>14.197896957398</ele>
        <time>2011-05-04T10:40:15Z</time>
      </trkpt>
      <trkpt lat="48.34027" lon="-4.44114">
        <ele>15.679233551025</ele>
        <time>2011-05-04T10:40:27Z</time>
      </trkpt>
      <trkpt lat="48.34015" lon="-4.44145">
        <ele>16.420042037964</ele>
        <time>2011-05-04T10:40:37Z</time>
      </trkpt>
      <trkpt lat="48.34006" lon="-4.4417">
        <ele>16.426469802856</ele>
        <time>2011-05-04T10:40:44Z</time>
      </trkpt>
      <trkpt lat="48.34004" lon="-4.44193">
        <ele>15.07532119751</ele>
        <time>2011-05-04T10:40:50Z</time>
      </trkpt>
      <trkpt lat="48.34004" lon="-4.44197">
        <ele>14.698746681213</ele>
        <time>2011-05-04T10:40:51Z</time>
      </trkpt>
      <trkpt lat="48.34004" lon="-4.44216">
        <ele>13.150921821594</ele>
        <time>2011-05-04T10:40:56Z</time>
      </trkpt>
      <trkpt lat="48.34003" lon="-4.44233">
        <ele>11.937682151794</ele>
        <time>2011-05-04T10:41:01Z</time>
      </trkpt>
      <trkpt lat="48.33997" lon="-4.44277">
        <ele>10.474133491516</ele>
        <time>2011-05-04T10:41:13Z</time>
      </trkpt>
      <trkpt lat="48.33987" lon="-4.44313">
        <ele>11.680214881897</ele>
        <time>2011-05-04T10:41:23Z</time>
      </trkpt>
      <trkpt lat="48.33982" lon="-4.44324">
        <ele>12.488218307495</ele>
        <time>2011-05-04T10:41:27Z</time>
      </trkpt>
      <trkpt lat="48.33974" lon="-4.44342">
        <ele>14.054570198059</ele>
        <time>2011-05-04T10:41:33Z</time>
      </trkpt>
      <trkpt lat="48.33967" lon="-4.44357">
        <ele>15.133230209351</ele>
        <time>2011-05-04T10:41:37Z</time>
      </trkpt>
      <trkpt lat="48.33953" lon="-4.44391">
        <ele>16.300914764404</ele>
        <time>2011-05-04T10:41:48Z</time>
      </trkpt>
      <trkpt lat="48.33939" lon="-4.44423">
        <ele>16.562353134155</ele>
        <time>2011-05-04T10:41:58Z</time>
      </trkpt>
      <trkpt lat="48.33936" lon="-4.44428">
        <ele>16.578746795654</ele>
        <time>2011-05-04T10:42:00Z</time>
      </trkpt>
      <trkpt lat="48.33926" lon="-4.44442">
        <ele>16.786026000977</ele>
        <time>2011-05-04T10:42:05Z</time>
      </trkpt>
      <trkpt lat="48.33908" lon="-4.44457">
        <ele>18.067598342896</ele>
        <time>2011-05-04T10:42:14Z</time>
      </trkpt>
      <trkpt lat="48.33897" lon="-4.44466">
        <ele>19.022535324097</ele>
        <time>2011-05-04T10:42:19Z</time>
      </trkpt>
      <trkpt lat="48.33868" lon="-4.44484">
        <ele>23.223043441773</ele>
        <time>2011-05-04T10:42:32Z</time>
      </trkpt>
      <trkpt lat="48.33855" lon="-4.44504">
        <ele>24.157203674316</ele>
        <time>2011-05-04T10:42:39Z</time>
      </trkpt>
      <trkpt lat="48.33848" lon="-4.4453">
        <ele>22.529222488403</ele>
        <time>2011-05-04T10:42:46Z</time>
      </trkpt>
      <trkpt lat="48.33839" lon="-4.44548">
        <ele>22.240358352661</ele>
        <time>2011-05-04T10:42:52Z</time>
      </trkpt>
      <trkpt lat="48.33813" lon="-4.44566">
        <ele>23.448554992676</ele>
        <time>2011-05-04T10:43:04Z</time>
      </trkpt>
      <trkpt lat="48.33787" lon="-4.44583">
        <ele>24.636915206909</ele>
        <time>2011-05-04T10:43:15Z</time>
      </trkpt>
      <trkpt lat="48.33766" lon="-4.44585">
        <ele>26.975019454956</ele>
        <time>2011-05-04T10:43:24Z</time>
      </trkpt>
      <trkpt lat="48.33752" lon="-4.4458">
        <ele>28.972188949585</ele>
        <time>2011-05-04T10:43:30Z</time>
      </trkpt>
      <trkpt lat="48.33745" lon="-4.44573">
        <ele>29.308227539062</ele>
        <time>2011-05-04T10:43:33Z</time>
      </trkpt>
      <trkpt lat="48.33735" lon="-4.44568">
        <ele>29.193786621094</ele>
        <time>2011-05-04T10:43:37Z</time>
      </trkpt>
      <trkpt lat="48.33723" lon="-4.44565">
        <ele>28.932861328125</ele>
        <time>2011-05-04T10:43:42Z</time>
      </trkpt>
      <trkpt lat="48.33704" lon="-4.4456">
        <ele>28.47509765625</ele>
        <time>2011-05-04T10:43:49Z</time>
      </trkpt>
      <trkpt lat="48.33677" lon="-4.44558">
        <ele>27.591613769531</ele>
        <time>2011-05-04T10:44:00Z</time>
      </trkpt>
      <trkpt lat="48.3365" lon="-4.44554">
        <ele>26.54866027832</ele>
        <time>2011-05-04T10:44:11Z</time>
      </trkpt>
      <trkpt lat="48.33623" lon="-4.44551">
        <ele>25.277454376221</ele>
        <time>2011-05-04T10:44:22Z</time>
      </trkpt>
      <trkpt lat="48.33584" lon="-4.44547">
        <ele>23.317852020264</ele>
        <time>2011-05-04T10:44:38Z</time>
      </trkpt>
      <trkpt lat="48.33551" lon="-4.44549">
        <ele>21.691932678223</ele>
        <time>2011-05-04T10:44:51Z</time>
      </trkpt>
      <trkpt lat="48.33525" lon="-4.44556">
        <ele>20.171012878418</ele>
        <time>2011-05-04T10:45:02Z</time>
      </trkpt>
      <trkpt lat="48.33512" lon="-4.44566">
        <ele>19.237174987793</ele>
        <time>2011-05-04T10:45:07Z</time>
      </trkpt>
      <trkpt lat="48.33496" lon="-4.44584">
        <ele>17.692523956299</ele>
        <time>2011-05-04T10:45:15Z</time>
      </trkpt>
      <trkpt lat="48.3348" lon="-4.4459">
        <ele>16.272947311401</ele>
        <time>2011-05-04T10:45:22Z</time>
      </trkpt>
      <trkpt lat="48.3345" lon="-4.44593">
        <ele>14.047538757324</ele>
        <time>2011-05-04T10:45:34Z</time>
      </trkpt>
      <trkpt lat="48.3342" lon="-4.44594">
        <ele>11.99694442749</ele>
        <time>2011-05-04T10:45:46Z</time>
      </trkpt>
      <trkpt lat="48.33401" lon="-4.44587">
        <ele>11.706367492676</ele>
        <time>2011-05-04T10:45:54Z</time>
      </trkpt>
      <trkpt lat="48.3338" lon="-4.44577">
        <ele>11.83718585968</ele>
        <time>2011-05-04T10:46:03Z</time>
      </trkpt>
      <trkpt lat="48.33345" lon="-4.44568">
        <ele>11.706875801086</ele>
        <time>2011-05-04T10:46:17Z</time>
      </trkpt>
      <trkpt lat="48.33311" lon="-4.44569">
        <ele>11.674829483032</ele>
        <time>2011-05-04T10:46:30Z</time>
      </trkpt>
      <trkpt lat="48.33289" lon="-4.44563">
        <ele>12.106287002563</ele>
        <time>2011-05-04T10:46:40Z</time>
      </trkpt>
      <trkpt lat="48.33258" lon="-4.44546">
        <ele>13.539536476135</ele>
        <time>2011-05-04T10:46:53Z</time>
      </trkpt>
      <trkpt lat="48.33247" lon="-4.44542">
        <ele>14.041958808899</ele>
        <time>2011-05-04T10:46:57Z</time>
      </trkpt>
      <trkpt lat="48.33228" lon="-4.44527">
        <ele>15.409157752991</ele>
        <time>2011-05-04T10:47:06Z</time>
      </trkpt>
      <trkpt lat="48.33217" lon="-4.4451">
        <ele>16.71181678772</ele>
        <time>2011-05-04T10:47:12Z</time>
      </trkpt>
      <trkpt lat="48.33207" lon="-4.44493">
        <ele>17.85693359375</ele>
        <time>2011-05-04T10:47:18Z</time>
      </trkpt>
      <trkpt lat="48.33194" lon="-4.44489">
        <ele>18.1865234375</ele>
        <time>2011-05-04T10:47:23Z</time>
      </trkpt>
      <trkpt lat="48.33179" lon="-4.44497">
        <ele>17.991973876953</ele>
        <time>2011-05-04T10:47:30Z</time>
      </trkpt>
      <trkpt lat="48.33168" lon="-4.44502">
        <ele>17.861005783081</ele>
        <time>2011-05-04T10:47:34Z</time>
      </trkpt>
      <trkpt lat="48.3316" lon="-4.44509">
        <ele>17.659997940064</ele>
        <time>2011-05-04T10:47:38Z</time>
      </trkpt>
      <trkpt lat="48.33162" lon="-4.44521">
        <ele>16.921926498413</ele>
        <time>2011-05-04T10:47:41Z</time>
      </trkpt>
      <trkpt lat="48.33165" lon="-4.44545">
        <ele>15.335050582886</ele>
        <time>2011-05-04T10:47:48Z</time>
      </trkpt>
      <trkpt lat="48.3317" lon="-4.44592">
        <ele>12.501473426819</ele>
        <time>2011-05-04T10:48:00Z</time>
      </trkpt>
      <trkpt lat="48.33171" lon="-4.44632">
        <ele>10.535893440247</ele>
        <time>2011-05-04T10:48:11Z</time>
      </trkpt>
      <trkpt lat="48.33171" lon="-4.44643">
        <ele>10.011979103088</ele>
        <time>2011-05-04T10:48:14Z</time>
      </trkpt>
      <trkpt lat="48.33171" lon="-4.4467">
        <ele>8.7464637756348</ele>
        <time>2011-05-04T10:48:21Z</time>
      </trkpt>
      <trkpt lat="48.33169" lon="-4.44715">
        <ele>7.1358342170715</ele>
        <time>2011-05-04T10:48:33Z</time>
      </trkpt>
      <trkpt lat="48.33168" lon="-4.44762">
        <ele>5.2312331199646</ele>
        <time>2011-05-04T10:48:46Z</time>
      </trkpt>
      <trkpt lat="48.3316" lon="-4.44779">
        <ele>4.3863801956177</ele>
        <time>2011-05-04T10:48:51Z</time>
      </trkpt>
      <trkpt lat="48.33149" lon="-4.44782">
        <ele>4.3520302772522</ele>
        <time>2011-05-04T10:48:56Z</time>
      </trkpt>
      <trkpt lat="48.33117" lon="-4.44792">
        <ele>4.3913698196411</ele>
        <time>2011-05-04T10:49:09Z</time>
      </trkpt>
      <trkpt lat="48.33099" lon="-4.44799">
        <ele>4.3643846511841</ele>
        <time>2011-05-04T10:49:16Z</time>
      </trkpt>
      <trkpt lat="48.33068" lon="-4.44808">
        <ele>5.6475219726562</ele>
        <time>2011-05-04T10:49:29Z</time>
      </trkpt>
      <trkpt lat="48.33053" lon="-4.44813">
        <ele>6.8834838867188</ele>
        <time>2011-05-04T10:49:35Z</time>
      </trkpt>
      <trkpt lat="48.33035" lon="-4.44824">
        <ele>8.069091796875</ele>
        <time>2011-05-04T10:49:43Z</time>
      </trkpt>
      <trkpt lat="48.33021" lon="-4.44834">
        <ele>8.9174013137817</ele>
        <time>2011-05-04T10:49:49Z</time>
      </trkpt>
      <trkpt lat="48.33001" lon="-4.44853">
        <ele>9.2220487594604</ele>
        <time>2011-05-04T10:49:58Z</time>
      </trkpt>
      <trkpt lat="48.32983" lon="-4.44862">
        <ele>10.368922233582</ele>
        <time>2011-05-04T10:50:06Z</time>
      </trkpt>
      <trkpt lat="48.32974" lon="-4.44856">
        <ele>11.77862071991</ele>
        <time>2011-05-04T10:50:10Z</time>
      </trkpt>
      <trkpt lat="48.32945" lon="-4.44834">
        <ele>15.593023300171</ele>
        <time>2011-05-04T10:50:23Z</time>
      </trkpt>
      <trkpt lat="48.32943" lon="-4.44833">
        <ele>15.846405029297</ele>
        <time>2011-05-04T10:50:24Z</time>
      </trkpt>
      <trkpt lat="48.32936" lon="-4.44835">
        <ele>16.341814041138</ele>
        <time>2011-05-04T10:50:27Z</time>
      </trkpt>
      <trkpt lat="48.32934" lon="-4.44842">
        <ele>16.283742904663</ele>
        <time>2011-05-04T10:50:29Z</time>
      </trkpt>
      <trkpt lat="48.32931" lon="-4.44865">
        <ele>16.008859634399</ele>
        <time>2011-05-04T10:50:35Z</time>
      </trkpt>
      <trkpt lat="48.32919" lon="-4.44878">
        <ele>17.237758636475</ele>
        <time>2011-05-04T10:50:41Z</time>
      </trkpt>
      <trkpt lat="48.32913" lon="-4.4488">
        <ele>17.705389022827</ele>
        <time>2011-05-04T10:50:43Z</time>
      </trkpt>
      <trkpt lat="48.32908" lon="-4.4488">
        <ele>18.126214981079</ele>
        <time>2011-05-04T10:50:46Z</time>
      </trkpt>
      <trkpt lat="48.32904" lon="-4.44876">
        <ele>18.476613998413</ele>
        <time>2011-05-04T10:50:47Z</time>
      </trkpt>
      <trkpt lat="48.32899" lon="-4.44865">
        <ele>18.985176086426</ele>
        <time>2011-05-04T10:50:51Z</time>
      </trkpt>
      <trkpt lat="48.32891" lon="-4.44842">
        <ele>20.037857055664</ele>
        <time>2011-05-04T10:50:58Z</time>
      </trkpt>
      <trkpt lat="48.32889" lon="-4.44837">
        <ele>20.276515960693</ele>
        <time>2011-05-04T10:50:59Z</time>
      </trkpt>
      <trkpt lat="48.32903" lon="-4.44813">
        <ele>20.051099777222</ele>
        <time>2011-05-04T10:51:08Z</time>
      </trkpt>
      <trkpt lat="48.32919" lon="-4.44755">
        <ele>21.591339111328</ele>
        <time>2011-05-04T10:51:25Z</time>
      </trkpt>
      <trkpt lat="48.32924" lon="-4.44733">
        <ele>22.421905517578</ele>
        <time>2011-05-04T10:51:31Z</time>
      </trkpt>
      <trkpt lat="48.3294" lon="-4.44684">
        <ele>23.996612548828</ele>
        <time>2011-05-04T10:51:46Z</time>
      </trkpt>
      <trkpt lat="48.32952" lon="-4.44649">
        <ele>24.887023925781</ele>
        <time>2011-05-04T10:51:56Z</time>
      </trkpt>
      <trkpt lat="48.32966" lon="-4.44602">
        <ele>25.978790283203</ele>
        <time>2011-05-04T10:52:10Z</time>
      </trkpt>
      <trkpt lat="48.3297" lon="-4.44547">
        <ele>27.975578308106</ele>
        <time>2011-05-04T10:52:24Z</time>
      </trkpt>
      <trkpt lat="48.32972" lon="-4.44526">
        <ele>28.694026947021</ele>
        <time>2011-05-04T10:52:30Z</time>
      </trkpt>
      <trkpt lat="48.32975" lon="-4.44494">
        <ele>29.601356506348</ele>
        <time>2011-05-04T10:52:38Z</time>
      </trkpt>
      <trkpt lat="48.3298" lon="-4.44482">
        <ele>29.563018798828</ele>
        <time>2011-05-04T10:52:42Z</time>
      </trkpt>
      <trkpt lat="48.32997" lon="-4.44448">
        <ele>29.18936920166</ele>
        <time>2011-05-04T10:52:54Z</time>
      </trkpt>
      <trkpt lat="48.33006" lon="-4.4443">
        <ele>29.091632843018</ele>
        <time>2011-05-04T10:53:00Z</time>
      </trkpt>
      <trkpt lat="48.33032" lon="-4.44385">
        <ele>30.000595092773</ele>
        <time>2011-05-04T10:53:15Z</time>
      </trkpt>
      <trkpt lat="48.33038" lon="-4.44376">
        <ele>30.189422607422</ele>
        <time>2011-05-04T10:53:19Z</time>
      </trkpt>
      <trkpt lat="48.33045" lon="-4.4437">
        <ele>30.134490966797</ele>
        <time>2011-05-04T10:53:22Z</time>
      </trkpt>
      <trkpt lat="48.33056" lon="-4.4438">
        <ele>28.599838256836</ele>
        <time>2011-05-04T10:53:27Z</time>
      </trkpt>
      <trkpt lat="48.33066" lon="-4.44403">
        <ele>26.234344482422</ele>
        <time>2011-05-04T10:53:35Z</time>
      </trkpt>
      <trkpt lat="48.33082" lon="-4.44399">
        <ele>25.355438232422</ele>
        <time>2011-05-04T10:53:41Z</time>
      </trkpt>
      <trkpt lat="48.33105" lon="-4.44382">
        <ele>25.870658874512</ele>
        <time>2011-05-04T10:53:51Z</time>
      </trkpt>
      <trkpt lat="48.33126" lon="-4.44376">
        <ele>25.648326873779</ele>
        <time>2011-05-04T10:54:00Z</time>
      </trkpt>
      <trkpt lat="48.33147" lon="-4.44374">
        <ele>25.14554977417</ele>
        <time>2011-05-04T10:54:08Z</time>
      </trkpt>
      <trkpt lat="48.3315" lon="-4.44375">
        <ele>24.974241256714</ele>
        <time>2011-05-04T10:54:10Z</time>
      </trkpt>
      <trkpt lat="48.33158" lon="-4.44376">
        <ele>24.655361175537</ele>
        <time>2011-05-04T10:54:13Z</time>
      </trkpt>
      <trkpt lat="48.33171" lon="-4.44346">
        <ele>26.211700439453</ele>
        <time>2011-05-04T10:54:22Z</time>
      </trkpt>
      <trkpt lat="48.33194" lon="-4.44309">
        <ele>28.354942321777</ele>
        <time>2011-05-04T10:54:36Z</time>
      </trkpt>
      <trkpt lat="48.33211" lon="-4.44265">
        <ele>31.408548355102</ele>
        <time>2011-05-04T10:54:49Z</time>
      </trkpt>
      <trkpt lat="48.33215" lon="-4.44226">
        <ele>34.832649230957</ele>
        <time>2011-05-04T10:55:00Z</time>
      </trkpt>
      <trkpt lat="48.33225" lon="-4.4417">
        <ele>39.566612243652</ele>
        <time>2011-05-04T10:55:15Z</time>
      </trkpt>
      <trkpt lat="48.33242" lon="-4.44139">
        <ele>41.28258895874</ele>
        <time>2011-05-04T10:55:26Z</time>
      </trkpt>
      <trkpt lat="48.33268" lon="-4.441">
        <ele>44.507984161377</ele>
        <time>2011-05-04T10:55:41Z</time>
      </trkpt>
      <trkpt lat="48.33289" lon="-4.44057">
        <ele>48.188079833984</ele>
        <time>2011-05-04T10:55:55Z</time>
      </trkpt>
      <trkpt lat="48.333" lon="-4.44038">
        <ele>49.604698181152</ele>
        <time>2011-05-04T10:56:02Z</time>
      </trkpt>
      <trkpt lat="48.33327" lon="-4.44024">
        <ele>50.763736724854</ele>
        <time>2011-05-04T10:56:13Z</time>
      </trkpt>
      <trkpt lat="48.33349" lon="-4.44021">
        <ele>51.309295654297</ele>
        <time>2011-05-04T10:56:22Z</time>
      </trkpt>
      <trkpt lat="48.33371" lon="-4.44008">
        <ele>52.45979309082</ele>
        <time>2011-05-04T10:56:31Z</time>
      </trkpt>
      <trkpt lat="48.33397" lon="-4.43982">
        <ele>54.477474212646</ele>
        <time>2011-05-04T10:56:44Z</time>
      </trkpt>
      <trkpt lat="48.33408" lon="-4.43968">
        <ele>55.434257507324</ele>
        <time>2011-05-04T10:56:50Z</time>
      </trkpt>
      <trkpt lat="48.33448" lon="-4.43917">
        <ele>57.983123779297</ele>
        <time>2011-05-04T10:57:10Z</time>
      </trkpt>
      <trkpt lat="48.33466" lon="-4.43903">
        <ele>58.92546081543</ele>
        <time>2011-05-04T10:57:19Z</time>
      </trkpt>
      <trkpt lat="48.33493" lon="-4.4389">
        <ele>59.871074676514</ele>
        <time>2011-05-04T10:57:30Z</time>
      </trkpt>
      <trkpt lat="48.33508" lon="-4.43885">
        <ele>60.134006500244</ele>
        <time>2011-05-04T10:57:36Z</time>
      </trkpt>
      <trkpt lat="48.33514" lon="-4.43882">
        <ele>60.202285766602</ele>
        <time>2011-05-04T10:57:39Z</time>
      </trkpt>
      <trkpt lat="48.33535" lon="-4.43867">
        <ele>60.962097167969</ele>
        <time>2011-05-04T10:57:48Z</time>
      </trkpt>
      <trkpt lat="48.33544" lon="-4.43854">
        <ele>61.852798461914</ele>
        <time>2011-05-04T10:57:53Z</time>
      </trkpt>
      <trkpt lat="48.33568" lon="-4.4382">
        <ele>63.824005126953</ele>
        <time>2011-05-04T10:58:06Z</time>
      </trkpt>
      <trkpt lat="48.33595" lon="-4.43785">
        <ele>64.651161193848</ele>
        <time>2011-05-04T10:58:20Z</time>
      </trkpt>
      <trkpt lat="48.33607" lon="-4.43762">
        <ele>65.189636230469</ele>
        <time>2011-05-04T10:58:28Z</time>
      </trkpt>
      <trkpt lat="48.33615" lon="-4.43741">
        <ele>65.899063110352</ele>
        <time>2011-05-04T10:58:35Z</time>
      </trkpt>
      <trkpt lat="48.33643" lon="-4.43678">
        <ele>68.605834960938</ele>
        <time>2011-05-04T10:58:55Z</time>
      </trkpt>
      <trkpt lat="48.33649" lon="-4.43665">
        <ele>69.255157470703</ele>
        <time>2011-05-04T10:58:59Z</time>
      </trkpt>
      <trkpt lat="48.33662" lon="-4.4364">
        <ele>69.703765869141</ele>
        <time>2011-05-04T10:59:08Z</time>
      </trkpt>
      <trkpt lat="48.33674" lon="-4.43637">
        <ele>69.397766113281</ele>
        <time>2011-05-04T10:59:12Z</time>
      </trkpt>
      <trkpt lat="48.33693" lon="-4.43654">
        <ele>68.089485168457</ele>
        <time>2011-05-04T10:59:21Z</time>
      </trkpt>
      <trkpt lat="48.33706" lon="-4.43661">
        <ele>67.309112548828</ele>
        <time>2011-05-04T10:59:27Z</time>
      </trkpt>
      <trkpt lat="48.33709" lon="-4.43662">
        <ele>67.093307495117</ele>
        <time>2011-05-04T10:59:28Z</time>
      </trkpt>
      <trkpt lat="48.33723" lon="-4.43649">
        <ele>66.868186950684</ele>
        <time>2011-05-04T10:59:35Z</time>
      </trkpt>
      <trkpt lat="48.33725" lon="-4.4364">
        <ele>67.049835205078</ele>
        <time>2011-05-04T10:59:37Z</time>
      </trkpt>
      <trkpt lat="48.33747" lon="-4.43571">
        <ele>68.412452697754</ele>
        <time>2011-05-04T10:59:58Z</time>
      </trkpt>
      <trkpt lat="48.33752" lon="-4.43546">
        <ele>68.798156738281</ele>
        <time>2011-05-04T11:00:05Z</time>
      </trkpt>
      <trkpt lat="48.33753" lon="-4.43523">
        <ele>69.303077697754</ele>
        <time>2011-05-04T11:00:11Z</time>
      </trkpt>
      <trkpt lat="48.33747" lon="-4.4348">
        <ele>70.520812988281</ele>
        <time>2011-05-04T11:00:22Z</time>
      </trkpt>
      <trkpt lat="48.33746" lon="-4.4347">
        <ele>70.822151184082</ele>
        <time>2011-05-04T11:00:25Z</time>
      </trkpt>
      <trkpt lat="48.33737" lon="-4.4341">
        <ele>72.559463500977</ele>
        <time>2011-05-04T11:00:41Z</time>
      </trkpt>
      <trkpt lat="48.33733" lon="-4.43392">
        <ele>72.947792053223</ele>
        <time>2011-05-04T11:00:46Z</time>
      </trkpt>
      <trkpt lat="48.33727" lon="-4.43348">
        <ele>73.880737304688</ele>
        <time>2011-05-04T11:00:58Z</time>
      </trkpt>
      <trkpt lat="48.33727" lon="-4.43329">
        <ele>74.190719604492</ele>
        <time>2011-05-04T11:01:03Z</time>
      </trkpt>
      <trkpt lat="48.33736" lon="-4.43297">
        <ele>74.548919677734</ele>
        <time>2011-05-04T11:01:12Z</time>
      </trkpt>
      <trkpt lat="48.33755" lon="-4.43248">
        <ele>74.763786315918</ele>
        <time>2011-05-04T11:01:28Z</time>
      </trkpt>
      <trkpt lat="48.33785" lon="-4.43184">
        <ele>75.578735351562</ele>
        <time>2011-05-04T11:01:49Z</time>
      </trkpt>
      <trkpt lat="48.33794" lon="-4.43164">
        <ele>75.959396362305</ele>
        <time>2011-05-04T11:01:55Z</time>
      </trkpt>
      <trkpt lat="48.338" lon="-4.43151">
        <ele>76.108047485352</ele>
        <time>2011-05-04T11:01:59Z</time>
      </trkpt>
      <trkpt lat="48.33808" lon="-4.43121">
        <ele>76.695358276367</ele>
        <time>2011-05-04T11:02:08Z</time>
      </trkpt>
      <trkpt lat="48.33817" lon="-4.43101">
        <ele>76.970252990723</ele>
        <time>2011-05-04T11:02:14Z</time>
      </trkpt>
      <trkpt lat="48.33829" lon="-4.43072">
        <ele>77.568908691406</ele>
        <time>2011-05-04T11:02:23Z</time>
      </trkpt>
      <trkpt lat="48.33852" lon="-4.43014">
        <ele>77.291389465332</ele>
        <time>2011-05-04T11:02:41Z</time>
      </trkpt>
      <trkpt lat="48.33855" lon="-4.43001">
        <ele>77.352996826172</ele>
        <time>2011-05-04T11:02:45Z</time>
      </trkpt>
      <trkpt lat="48.33836" lon="-4.42982">
        <ele>79.861198425293</ele>
        <time>2011-05-04T11:02:54Z</time>
      </trkpt>
      <trkpt lat="48.33814" lon="-4.42973">
        <ele>81.022895812988</ele>
        <time>2011-05-04T11:03:03Z</time>
      </trkpt>
      <trkpt lat="48.33779" lon="-4.42969">
        <ele>82.328094482422</ele>
        <time>2011-05-04T11:03:17Z</time>
      </trkpt>
      <trkpt lat="48.33752" lon="-4.42968">
        <ele>83.32487487793</ele>
        <time>2011-05-04T11:03:28Z</time>
      </trkpt>
      <trkpt lat="48.33738" lon="-4.42954">
        <ele>83.234672546387</ele>
        <time>2011-05-04T11:03:35Z</time>
      </trkpt>
      <trkpt lat="48.33729" lon="-4.42939">
        <ele>83.103210449219</ele>
        <time>2011-05-04T11:03:40Z</time>
      </trkpt>
      <trkpt lat="48.33712" lon="-4.42904">
        <ele>82.464698791504</ele>
        <time>2011-05-04T11:03:52Z</time>
      </trkpt>
      <trkpt lat="48.33694" lon="-4.42872">
        <ele>81.439880371094</ele>
        <time>2011-05-04T11:04:03Z</time>
      </trkpt>
      <trkpt lat="48.33681" lon="-4.42845">
        <ele>80.661682128906</ele>
        <time>2011-05-04T11:04:12Z</time>
      </trkpt>
      <trkpt lat="48.33681" lon="-4.42841">
        <ele>80.603317260742</ele>
        <time>2011-05-04T11:04:13Z</time>
      </trkpt>
      <trkpt lat="48.33683" lon="-4.42815">
        <ele>80.602233886719</ele>
        <time>2011-05-04T11:04:20Z</time>
      </trkpt>
      <trkpt lat="48.33683" lon="-4.42812">
        <ele>80.574768066406</ele>
        <time>2011-05-04T11:04:21Z</time>
      </trkpt>
      <trkpt lat="48.33675" lon="-4.42801">
        <ele>80.313842773438</ele>
        <time>2011-05-04T11:04:25Z</time>
      </trkpt>
      <trkpt lat="48.3365" lon="-4.42783">
        <ele>79.472663879395</ele>
        <time>2011-05-04T11:04:36Z</time>
      </trkpt>
      <trkpt lat="48.33628" lon="-4.42769">
        <ele>78.719192504883</ele>
        <time>2011-05-04T11:04:46Z</time>
      </trkpt>
      <trkpt lat="48.33607" lon="-4.42756">
        <ele>77.917549133301</ele>
        <time>2011-05-04T11:04:55Z</time>
      </trkpt>
      <trkpt lat="48.33601" lon="-4.42747">
        <ele>77.640922546387</ele>
        <time>2011-05-04T11:04:58Z</time>
      </trkpt>
      <trkpt lat="48.33598" lon="-4.42729">
        <ele>77.468605041504</ele>
        <time>2011-05-04T11:05:03Z</time>
      </trkpt>
      <trkpt lat="48.33597" lon="-4.42721">
        <ele>77.429054260254</ele>
        <time>2011-05-04T11:05:05Z</time>
      </trkpt>
      <trkpt lat="48.33598" lon="-4.42709">
        <ele>77.427658081055</ele>
        <time>2011-05-04T11:05:08Z</time>
      </trkpt>
      <trkpt lat="48.33596" lon="-4.42697">
        <ele>77.350456237793</ele>
        <time>2011-05-04T11:05:12Z</time>
      </trkpt>
      <trkpt lat="48.33588" lon="-4.42685">
        <ele>77.125213623047</ele>
        <time>2011-05-04T11:05:16Z</time>
      </trkpt>
      <trkpt lat="48.33565" lon="-4.42663">
        <ele>75.131889343262</ele>
        <time>2011-05-04T11:05:27Z</time>
      </trkpt>
      <trkpt lat="48.33561" lon="-4.42657">
        <ele>74.577423095703</ele>
        <time>2011-05-04T11:05:29Z</time>
      </trkpt>
      <trkpt lat="48.33555" lon="-4.42638">
        <ele>73.456398010254</ele>
        <time>2011-05-04T11:05:35Z</time>
      </trkpt>
      <trkpt lat="48.33557" lon="-4.42594">
        <ele>72.429100036621</ele>
        <time>2011-05-04T11:05:46Z</time>
      </trkpt>
      <trkpt lat="48.33567" lon="-4.42536">
        <ele>71.350120544434</ele>
        <time>2011-05-04T11:06:03Z</time>
      </trkpt>
      <trkpt lat="48.33569" lon="-4.4253">
        <ele>71.34659576416</ele>
        <time>2011-05-04T11:06:04Z</time>
      </trkpt>
      <trkpt lat="48.33575" lon="-4.42513">
        <ele>71.50479888916</ele>
        <time>2011-05-04T11:06:10Z</time>
      </trkpt>
      <trkpt lat="48.3358" lon="-4.42501">
        <ele>71.625549316406</ele>
        <time>2011-05-04T11:06:13Z</time>
      </trkpt>
      <trkpt lat="48.33595" lon="-4.42461">
        <ele>71.74373626709</ele>
        <time>2011-05-04T11:06:25Z</time>
      </trkpt>
      <trkpt lat="48.33602" lon="-4.42444">
        <ele>71.719245910645</ele>
        <time>2011-05-04T11:06:31Z</time>
      </trkpt>
      <trkpt lat="48.33611" lon="-4.42424">
        <ele>71.592987060547</ele>
        <time>2011-05-04T11:06:37Z</time>
      </trkpt>
      <trkpt lat="48.33623" lon="-4.42395">
        <ele>70.750640869141</ele>
        <time>2011-05-04T11:06:46Z</time>
      </trkpt>
      <trkpt lat="48.33636" lon="-4.42362">
        <ele>69.700263977051</ele>
        <time>2011-05-04T11:06:57Z</time>
      </trkpt>
      <trkpt lat="48.33646" lon="-4.42341">
        <ele>69.165756225586</ele>
        <time>2011-05-04T11:07:03Z</time>
      </trkpt>
      <trkpt lat="48.33655" lon="-4.42323">
        <ele>68.746826171875</ele>
        <time>2011-05-04T11:07:09Z</time>
      </trkpt>
      <trkpt lat="48.33663" lon="-4.42302">
        <ele>68.235298156738</ele>
        <time>2011-05-04T11:07:16Z</time>
      </trkpt>
      <trkpt lat="48.3367" lon="-4.42285">
        <ele>67.883270263672</ele>
        <time>2011-05-04T11:07:21Z</time>
      </trkpt>
      <trkpt lat="48.33671" lon="-4.42268">
        <ele>67.134826660156</ele>
        <time>2011-05-04T11:07:25Z</time>
      </trkpt>
      <trkpt lat="48.33675" lon="-4.42237">
        <ele>65.446731567383</ele>
        <time>2011-05-04T11:07:34Z</time>
      </trkpt>
      <trkpt lat="48.33686" lon="-4.42209">
        <ele>63.721534729004</ele>
        <time>2011-05-04T11:07:42Z</time>
      </trkpt>
      <trkpt lat="48.33698" lon="-4.42182">
        <ele>62.213775634766</ele>
        <time>2011-05-04T11:07:51Z</time>
      </trkpt>
      <trkpt lat="48.33708" lon="-4.42155">
        <ele>60.708950042725</ele>
        <time>2011-05-04T11:07:59Z</time>
      </trkpt>
      <trkpt lat="48.33715" lon="-4.42139">
        <ele>60.070880889893</ele>
        <time>2011-05-04T11:08:05Z</time>
      </trkpt>
      <trkpt lat="48.33721" lon="-4.42121">
        <ele>59.357154846191</ele>
        <time>2011-05-04T11:08:10Z</time>
      </trkpt>
      <trkpt lat="48.33738" lon="-4.42087">
        <ele>58.369937896729</ele>
        <time>2011-05-04T11:08:21Z</time>
      </trkpt>
      <trkpt lat="48.33753" lon="-4.42046">
        <ele>57.466667175293</ele>
        <time>2011-05-04T11:08:34Z</time>
      </trkpt>
      <trkpt lat="48.33764" lon="-4.42016">
        <ele>56.621055603027</ele>
        <time>2011-05-04T11:08:43Z</time>
      </trkpt>
      <trkpt lat="48.33771" lon="-4.42">
        <ele>55.9885597229</ele>
        <time>2011-05-04T11:08:48Z</time>
      </trkpt>
      <trkpt lat="48.33791" lon="-4.4196">
        <ele>53.832736968994</ele>
        <time>2011-05-04T11:09:01Z</time>
      </trkpt>
      <trkpt lat="48.33815" lon="-4.41921">
        <ele>51.166625976562</ele>
        <time>2011-05-04T11:09:16Z</time>
      </trkpt>
      <trkpt lat="48.33827" lon="-4.41896">
        <ele>49.923522949219</ele>
        <time>2011-05-04T11:09:24Z</time>
      </trkpt>
      <trkpt lat="48.33833" lon="-4.41874">
        <ele>48.941619873047</ele>
        <time>2011-05-04T11:09:30Z</time>
      </trkpt>
      <trkpt lat="48.33838" lon="-4.41843">
        <ele>47.564659118652</ele>
        <time>2011-05-04T11:09:38Z</time>
      </trkpt>
      <trkpt lat="48.33842" lon="-4.4182">
        <ele>46.346839904785</ele>
        <time>2011-05-04T11:09:45Z</time>
      </trkpt>
      <trkpt lat="48.33855" lon="-4.41789">
        <ele>44.741367340088</ele>
        <time>2011-05-04T11:09:55Z</time>
      </trkpt>
      <trkpt lat="48.33867" lon="-4.41758">
        <ele>43.241970062256</ele>
        <time>2011-05-04T11:10:04Z</time>
      </trkpt>
      <trkpt lat="48.33887" lon="-4.41726">
        <ele>41.752712249756</ele>
        <time>2011-05-04T11:10:16Z</time>
      </trkpt>
      <trkpt lat="48.3391" lon="-4.41688">
        <ele>39.525959014893</ele>
        <time>2011-05-04T11:10:29Z</time>
      </trkpt>
      <trkpt lat="48.33931" lon="-4.41654">
        <ele>38.776390075684</ele>
        <time>2011-05-04T11:10:42Z</time>
      </trkpt>
      <trkpt lat="48.33935" lon="-4.41637">
        <ele>38.383274078369</ele>
        <time>2011-05-04T11:10:46Z</time>
      </trkpt>
      <trkpt lat="48.33939" lon="-4.41611">
        <ele>37.359996795654</ele>
        <time>2011-05-04T11:10:54Z</time>
      </trkpt>
      <trkpt lat="48.33938" lon="-4.41549">
        <ele>34.352264404297</ele>
        <time>2011-05-04T11:11:10Z</time>
      </trkpt>
      <trkpt lat="48.33937" lon="-4.41518">
        <ele>32.940425872803</ele>
        <time>2011-05-04T11:11:18Z</time>
      </trkpt>
      <trkpt lat="48.33936" lon="-4.41468">
        <ele>31.255187988281</ele>
        <time>2011-05-04T11:11:32Z</time>
      </trkpt>
      <trkpt lat="48.33939" lon="-4.41404">
        <ele>30.284524917602</ele>
        <time>2011-05-04T11:11:49Z</time>
      </trkpt>
      <trkpt lat="48.33943" lon="-4.41377">
        <ele>30.177675247192</ele>
        <time>2011-05-04T11:11:56Z</time>
      </trkpt>
      <trkpt lat="48.33947" lon="-4.41363">
        <ele>30.390823364258</ele>
        <time>2011-05-04T11:12:00Z</time>
      </trkpt>
      <trkpt lat="48.33949" lon="-4.41356">
        <ele>30.432819366455</ele>
        <time>2011-05-04T11:12:02Z</time>
      </trkpt>
      <trkpt lat="48.3396" lon="-4.41315">
        <ele>30.649055480957</ele>
        <time>2011-05-04T11:12:14Z</time>
      </trkpt>
      <trkpt lat="48.33973" lon="-4.41265">
        <ele>29.953826904297</ele>
        <time>2011-05-04T11:12:28Z</time>
      </trkpt>
      <trkpt lat="48.33989" lon="-4.41217">
        <ele>30.758178710938</ele>
        <time>2011-05-04T11:12:43Z</time>
      </trkpt>
      <trkpt lat="48.34002" lon="-4.41175">
        <ele>31.590232849121</ele>
        <time>2011-05-04T11:12:55Z</time>
      </trkpt>
      <trkpt lat="48.34013" lon="-4.41136">
        <ele>31.9140625</ele>
        <time>2011-05-04T11:13:06Z</time>
      </trkpt>
      <trkpt lat="48.34016" lon="-4.41125">
        <ele>31.98844909668</ele>
        <time>2011-05-04T11:13:09Z</time>
      </trkpt>
      <trkpt lat="48.34025" lon="-4.41113">
        <ele>32.921142578125</ele>
        <time>2011-05-04T11:13:14Z</time>
      </trkpt>
      <trkpt lat="48.34047" lon="-4.41132">
        <ele>37.136001586914</ele>
        <time>2011-05-04T11:13:25Z</time>
      </trkpt>
      <trkpt lat="48.34052" lon="-4.41136">
        <ele>38.040084838867</ele>
        <time>2011-05-04T11:13:27Z</time>
      </trkpt>
      <trkpt lat="48.34065" lon="-4.41144">
        <ele>40.30086517334</ele>
        <time>2011-05-04T11:13:32Z</time>
      </trkpt>
      <trkpt lat="48.34079" lon="-4.41129">
        <ele>41.980857849121</ele>
        <time>2011-05-04T11:13:39Z</time>
      </trkpt>
      <trkpt lat="48.34095" lon="-4.41135">
        <ele>43.822746276855</ele>
        <time>2011-05-04T11:13:46Z</time>
      </trkpt>
      <trkpt lat="48.34099" lon="-4.4114">
        <ele>44.291557312012</ele>
        <time>2011-05-04T11:13:48Z</time>
      </trkpt>
      <trkpt lat="48.34112" lon="-4.41143">
        <ele>45.391513824463</ele>
        <time>2011-05-04T11:13:53Z</time>
      </trkpt>
      <trkpt lat="48.34132" lon="-4.41143">
        <ele>46.987945556641</ele>
        <time>2011-05-04T11:14:01Z</time>
      </trkpt>
      <trkpt lat="48.34158" lon="-4.41174">
        <ele>49.568130493164</ele>
        <time>2011-05-04T11:14:14Z</time>
      </trkpt>
      <trkpt lat="48.34166" lon="-4.41185">
        <ele>50.413848876953</ele>
        <time>2011-05-04T11:14:19Z</time>
      </trkpt>
      <trkpt lat="48.34185" lon="-4.41208">
        <ele>52.814445495605</ele>
        <time>2011-05-04T11:14:28Z</time>
      </trkpt>
      <trkpt lat="48.34197" lon="-4.41219">
        <ele>54.433010101318</ele>
        <time>2011-05-04T11:14:34Z</time>
      </trkpt>
      <trkpt lat="48.34224" lon="-4.41231">
        <ele>57.571468353271</ele>
        <time>2011-05-04T11:14:45Z</time>
      </trkpt>
      <trkpt lat="48.34253" lon="-4.41225">
        <ele>60.492523193359</ele>
        <time>2011-05-04T11:14:57Z</time>
      </trkpt>
      <trkpt lat="48.34257" lon="-4.41221">
        <ele>61.00464630127</ele>
        <time>2011-05-04T11:14:59Z</time>
      </trkpt>
      <trkpt lat="48.34274" lon="-4.41197">
        <ele>62.887199401855</ele>
        <time>2011-05-04T11:15:08Z</time>
      </trkpt>
      <trkpt lat="48.34284" lon="-4.4118">
        <ele>63.739784240723</ele>
        <time>2011-05-04T11:15:14Z</time>
      </trkpt>
      <trkpt lat="48.34297" lon="-4.41164">
        <ele>65.276634216309</ele>
        <time>2011-05-04T11:15:21Z</time>
      </trkpt>
      <trkpt lat="48.34317" lon="-4.41149">
        <ele>67.617469787598</ele>
        <time>2011-05-04T11:15:30Z</time>
      </trkpt>
      <trkpt lat="48.34324" lon="-4.41145">
        <ele>68.559425354004</ele>
        <time>2011-05-04T11:15:33Z</time>
      </trkpt>
      <trkpt lat="48.3435" lon="-4.41132">
        <ele>70.441055297852</ele>
        <time>2011-05-04T11:15:44Z</time>
      </trkpt>
      <trkpt lat="48.34359" lon="-4.41122">
        <ele>70.728439331055</ele>
        <time>2011-05-04T11:15:48Z</time>
      </trkpt>
      <trkpt lat="48.34363" lon="-4.41118">
        <ele>70.93147277832</ele>
        <time>2011-05-04T11:15:50Z</time>
      </trkpt>
      <trkpt lat="48.3438" lon="-4.41102">
        <ele>71.880416870117</ele>
        <time>2011-05-04T11:15:58Z</time>
      </trkpt>
      <trkpt lat="48.34402" lon="-4.41076">
        <ele>73.136848449707</ele>
        <time>2011-05-04T11:16:09Z</time>
      </trkpt>
      <trkpt lat="48.34409" lon="-4.41063">
        <ele>72.988929748535</ele>
        <time>2011-05-04T11:16:14Z</time>
      </trkpt>
      <trkpt lat="48.3441" lon="-4.4105">
        <ele>72.37345123291</ele>
        <time>2011-05-04T11:16:17Z</time>
      </trkpt>
      <trkpt lat="48.34413" lon="-4.41031">
        <ele>71.472152709961</ele>
        <time>2011-05-04T11:16:23Z</time>
      </trkpt>
      <trkpt lat="48.34415" lon="-4.41005">
        <ele>70.178916931152</ele>
        <time>2011-05-04T11:16:30Z</time>
      </trkpt>
      <trkpt lat="48.34424" lon="-4.40985">
        <ele>69.114288330078</ele>
        <time>2011-05-04T11:16:36Z</time>
      </trkpt>
      <trkpt lat="48.34441" lon="-4.40966">
        <ele>67.670440673828</ele>
        <time>2011-05-04T11:16:44Z</time>
      </trkpt>
      <trkpt lat="48.34453" lon="-4.40951">
        <ele>66.500579833984</ele>
        <time>2011-05-04T11:16:51Z</time>
      </trkpt>
      <trkpt lat="48.34465" lon="-4.40936">
        <ele>65.313873291016</ele>
        <time>2011-05-04T11:16:57Z</time>
      </trkpt>
      <trkpt lat="48.34481" lon="-4.40928">
        <ele>64.343421936035</ele>
        <time>2011-05-04T11:17:03Z</time>
      </trkpt>
      <trkpt lat="48.34491" lon="-4.40923">
        <ele>63.734073638916</ele>
        <time>2011-05-04T11:17:08Z</time>
      </trkpt>
      <trkpt lat="48.34502" lon="-4.40912">
        <ele>62.837448120117</ele>
        <time>2011-05-04T11:17:13Z</time>
      </trkpt>
      <trkpt lat="48.34503" lon="-4.40901">
        <ele>62.444343566895</ele>
        <time>2011-05-04T11:17:16Z</time>
      </trkpt>
      <trkpt lat="48.34508" lon="-4.40892">
        <ele>62.119903564453</ele>
        <time>2011-05-04T11:17:19Z</time>
      </trkpt>
      <trkpt lat="48.34512" lon="-4.40893">
        <ele>62.149085998535</ele>
        <time>2011-05-04T11:17:21Z</time>
      </trkpt>
      <trkpt lat="48.34532" lon="-4.409">
        <ele>62.416877746582</ele>
        <time>2011-05-04T11:17:29Z</time>
      </trkpt>
      <trkpt lat="48.34547" lon="-4.40897">
        <ele>62.300148010254</ele>
        <time>2011-05-04T11:17:35Z</time>
      </trkpt>
      <trkpt lat="48.34561" lon="-4.40878">
        <ele>61.625518798828</ele>
        <time>2011-05-04T11:17:42Z</time>
      </trkpt>
      <trkpt lat="48.34566" lon="-4.40864">
        <ele>61.108818054199</ele>
        <time>2011-05-04T11:17:47Z</time>
      </trkpt>
      <trkpt lat="48.34572" lon="-4.40825">
        <ele>59.680740356445</ele>
        <time>2011-05-04T11:17:57Z</time>
      </trkpt>
      <trkpt lat="48.34573" lon="-4.40819">
        <ele>59.459209442139</ele>
        <time>2011-05-04T11:17:59Z</time>
      </trkpt>
      <trkpt lat="48.34576" lon="-4.40777">
        <ele>57.920894622803</ele>
        <time>2011-05-04T11:18:10Z</time>
      </trkpt>
      <trkpt lat="48.34587" lon="-4.40744">
        <ele>56.995761871338</ele>
        <time>2011-05-04T11:18:20Z</time>
      </trkpt>
      <trkpt lat="48.34595" lon="-4.40712">
        <ele>56.314350128174</ele>
        <time>2011-05-04T11:18:29Z</time>
      </trkpt>
      <trkpt lat="48.34594" lon="-4.40667">
        <ele>54.819751739502</ele>
        <time>2011-05-04T11:18:41Z</time>
      </trkpt>
      <trkpt lat="48.34594" lon="-4.40633">
        <ele>54.845989227295</ele>
        <time>2011-05-04T11:18:50Z</time>
      </trkpt>
      <trkpt lat="48.34599" lon="-4.40599">
        <ele>55.242816925049</ele>
        <time>2011-05-04T11:18:59Z</time>
      </trkpt>
      <trkpt lat="48.34607" lon="-4.40569">
        <ele>55.918567657471</ele>
        <time>2011-05-04T11:19:08Z</time>
      </trkpt>
      <trkpt lat="48.34613" lon="-4.40548">
        <ele>56.162197113037</ele>
        <time>2011-05-04T11:19:14Z</time>
      </trkpt>
      <trkpt lat="48.34615" lon="-4.40527">
        <ele>56.144302368164</ele>
        <time>2011-05-04T11:19:20Z</time>
      </trkpt>
      <trkpt lat="48.34617" lon="-4.40509">
        <ele>56.101989746094</ele>
        <time>2011-05-04T11:19:25Z</time>
      </trkpt>
      <trkpt lat="48.34618" lon="-4.405">
        <ele>56.082363128662</ele>
        <time>2011-05-04T11:19:27Z</time>
      </trkpt>
      <trkpt lat="48.34618" lon="-4.40499">
        <ele>56.044479370117</ele>
        <time>2011-05-04T11:19:27Z</time>
      </trkpt>
      <trkpt lat="48.34618" lon="-4.40496">
        <ele>55.972953796387</ele>
        <time>2011-05-04T11:19:28Z</time>
      </trkpt>
      <trkpt lat="48.34619" lon="-4.40493">
        <ele>55.896850585938</ele>
        <time>2011-05-04T11:19:29Z</time>
      </trkpt>
      <trkpt lat="48.3462" lon="-4.40489">
        <ele>55.814453125</ele>
        <time>2011-05-04T11:19:30Z</time>
      </trkpt>
      <trkpt lat="48.34623" lon="-4.40485">
        <ele>55.799003601074</ele>
        <time>2011-05-04T11:19:32Z</time>
      </trkpt>
      <trkpt lat="48.34623" lon="-4.40484">
        <ele>55.795570373535</ele>
        <time>2011-05-04T11:19:32Z</time>
      </trkpt>
      <trkpt lat="48.34621" lon="-4.40484">
        <ele>55.718322753906</ele>
        <time>2011-05-04T11:19:32Z</time>
      </trkpt>
      <trkpt lat="48.34622" lon="-4.40484">
        <ele>55.765815734863</ele>
        <time>2011-05-04T11:19:33Z</time>
      </trkpt>
      <trkpt lat="48.34622" lon="-4.40483">
        <ele>55.706878662109</ele>
        <time>2011-05-04T11:19:33Z</time>
      </trkpt>
      <trkpt lat="48.34622" lon="-4.40484">
        <ele>55.748649597168</ele>
        <time>2011-05-04T11:19:33Z</time>
      </trkpt>
      <trkpt lat="48.34622" lon="-4.40484">
        <ele>55.736061096191</ele>
        <time>2011-05-04T11:19:33Z</time>
      </trkpt>
      <trkpt lat="48.34622" lon="-4.40484">
        <ele>55.758949279785</ele>
        <time>2011-05-04T11:19:33Z</time>
      </trkpt>
      <trkpt lat="48.34624" lon="-4.40484">
        <ele>55.859085083008</ele>
        <time>2011-05-04T11:19:34Z</time>
      </trkpt>
      <trkpt lat="48.34623" lon="-4.40483">
        <ele>55.77897644043</ele>
        <time>2011-05-04T11:19:34Z</time>
      </trkpt>
      <trkpt lat="48.34623" lon="-4.40484">
        <ele>55.761238098145</ele>
        <time>2011-05-04T11:19:35Z</time>
      </trkpt>
      <trkpt lat="48.34623" lon="-4.40482">
        <ele>55.713745117188</ele>
        <time>2011-05-04T11:19:35Z</time>
      </trkpt>
      <trkpt lat="48.34625" lon="-4.40466">
        <ele>55.251403808594</ele>
        <time>2011-05-04T11:19:39Z</time>
      </trkpt>
      <trkpt lat="48.34627" lon="-4.40449">
        <ele>54.810234069824</ele>
        <time>2011-05-04T11:19:44Z</time>
      </trkpt>
      <trkpt lat="48.34628" lon="-4.4043">
        <ele>54.195686340332</ele>
        <time>2011-05-04T11:19:49Z</time>
      </trkpt>
      <trkpt lat="48.34626" lon="-4.40402">
        <ele>53.365913391113</ele>
        <time>2011-05-04T11:19:56Z</time>
      </trkpt>
      <trkpt lat="48.34627" lon="-4.40371">
        <ele>53.063789367676</ele>
        <time>2011-05-04T11:20:05Z</time>
      </trkpt>
      <trkpt lat="48.34629" lon="-4.40364">
        <ele>53.087249755859</ele>
        <time>2011-05-04T11:20:07Z</time>
      </trkpt>
      <trkpt lat="48.34631" lon="-4.40349">
        <ele>53.072944641113</ele>
        <time>2011-05-04T11:20:11Z</time>
      </trkpt>
      <trkpt lat="48.3462" lon="-4.40342">
        <ele>52.323928833008</ele>
        <time>2011-05-04T11:20:16Z</time>
      </trkpt>
      <trkpt lat="48.34609" lon="-4.40338">
        <ele>51.604095458984</ele>
        <time>2011-05-04T11:20:20Z</time>
      </trkpt>
      <trkpt lat="48.34589" lon="-4.40331">
        <ele>50.224838256836</ele>
        <time>2011-05-04T11:20:28Z</time>
      </trkpt>
      <trkpt lat="48.34584" lon="-4.40329">
        <ele>49.875564575195</ele>
        <time>2011-05-04T11:20:30Z</time>
      </trkpt>
      <trkpt lat="48.34574" lon="-4.40325">
        <ele>48.539978027344</ele>
        <time>2011-05-04T11:20:35Z</time>
      </trkpt>
      <trkpt lat="48.34572" lon="-4.40325">
        <ele>48.324520111084</ele>
        <time>2011-05-04T11:20:36Z</time>
      </trkpt>
      <trkpt lat="48.34562" lon="-4.40325">
        <ele>47.245742797852</ele>
        <time>2011-05-04T11:20:40Z</time>
      </trkpt>
      <trkpt lat="48.34546" lon="-4.40333">
        <ele>45.935882568359</ele>
        <time>2011-05-04T11:20:46Z</time>
      </trkpt>
      <trkpt lat="48.34544" lon="-4.40334">
        <ele>45.767627716064</ele>
        <time>2011-05-04T11:20:47Z</time>
      </trkpt>
      <trkpt lat="48.34533" lon="-4.4034">
        <ele>44.69006729126</ele>
        <time>2011-05-04T11:20:52Z</time>
      </trkpt>
      <trkpt lat="48.34517" lon="-4.40353">
        <ele>43.28324508667</ele>
        <time>2011-05-04T11:20:59Z</time>
      </trkpt>
      <trkpt lat="48.34504" lon="-4.40363">
        <ele>42.114250183105</ele>
        <time>2011-05-04T11:21:05Z</time>
      </trkpt>
      <trkpt lat="48.34496" lon="-4.40374">
        <ele>41.800487518311</ele>
        <time>2011-05-04T11:21:09Z</time>
      </trkpt>
      <trkpt lat="48.34493" lon="-4.40379">
        <ele>41.816680908203</ele>
        <time>2011-05-04T11:21:11Z</time>
      </trkpt>
      <trkpt lat="48.34487" lon="-4.40392">
        <ele>41.959957122803</ele>
        <time>2011-05-04T11:21:15Z</time>
      </trkpt>
      <trkpt lat="48.34481" lon="-4.40408">
        <ele>42.272075653076</ele>
        <time>2011-05-04T11:21:20Z</time>
      </trkpt>
      <trkpt lat="48.34475" lon="-4.40427">
        <ele>42.94771194458</ele>
        <time>2011-05-04T11:21:26Z</time>
      </trkpt>
      <trkpt lat="48.34468" lon="-4.40436">
        <ele>43.363010406494</ele>
        <time>2011-05-04T11:21:29Z</time>
      </trkpt>
      <trkpt lat="48.34466" lon="-4.40434">
        <ele>43.219955444336</ele>
        <time>2011-05-04T11:21:30Z</time>
      </trkpt>
      <trkpt lat="48.34452" lon="-4.40423">
        <ele>42.255645751953</ele>
        <time>2011-05-04T11:21:37Z</time>
      </trkpt>
      <trkpt lat="48.34448" lon="-4.4042">
        <ele>41.96981048584</ele>
        <time>2011-05-04T11:21:39Z</time>
      </trkpt>
      <trkpt lat="48.34445" lon="-4.40402">
        <ele>40.998138427734</ele>
        <time>2011-05-04T11:21:43Z</time>
      </trkpt>
      <trkpt lat="48.34442" lon="-4.40389">
        <ele>40.221611022949</ele>
        <time>2011-05-04T11:21:47Z</time>
      </trkpt>
      <trkpt lat="48.34435" lon="-4.40373">
        <ele>39.14436340332</ele>
        <time>2011-05-04T11:21:52Z</time>
      </trkpt>
      <trkpt lat="48.34427" lon="-4.40351">
        <ele>37.600666046143</ele>
        <time>2011-05-04T11:21:59Z</time>
      </trkpt>
      <trkpt lat="48.34423" lon="-4.40342">
        <ele>36.887645721436</ele>
        <time>2011-05-04T11:22:02Z</time>
      </trkpt>
      <trkpt lat="48.34422" lon="-4.40338">
        <ele>36.600692749023</ele>
        <time>2011-05-04T11:22:03Z</time>
      </trkpt>
      <trkpt lat="48.34422" lon="-4.40332">
        <ele>36.170097351074</ele>
        <time>2011-05-04T11:22:04Z</time>
      </trkpt>
      <trkpt lat="48.34421" lon="-4.40322">
        <ele>35.184860229492</ele>
        <time>2011-05-04T11:22:07Z</time>
      </trkpt>
      <trkpt lat="48.34421" lon="-4.40319">
        <ele>34.901802062988</ele>
        <time>2011-05-04T11:22:08Z</time>
      </trkpt>
      <trkpt lat="48.34423" lon="-4.40317">
        <ele>34.932029724121</ele>
        <time>2011-05-04T11:22:09Z</time>
      </trkpt>
      <trkpt lat="48.34429" lon="-4.40306">
        <ele>34.289264678955</ele>
        <time>2011-05-04T11:22:13Z</time>
      </trkpt>
      <trkpt lat="48.34428" lon="-4.40292">
        <ele>32.910564422607</ele>
        <time>2011-05-04T11:22:17Z</time>
      </trkpt>
      <trkpt lat="48.34426" lon="-4.40284">
        <ele>32.029014587402</ele>
        <time>2011-05-04T11:22:19Z</time>
      </trkpt>
      <trkpt lat="48.3442" lon="-4.40262">
        <ele>29.374603271484</ele>
        <time>2011-05-04T11:22:25Z</time>
      </trkpt>
      <trkpt lat="48.34408" lon="-4.4024">
        <ele>27.586587905884</ele>
        <time>2011-05-04T11:22:33Z</time>
      </trkpt>
      <trkpt lat="48.34392" lon="-4.40227">
        <ele>26.770708084106</ele>
        <time>2011-05-04T11:22:40Z</time>
      </trkpt>
      <trkpt lat="48.3438" lon="-4.40215">
        <ele>25.824451446533</ele>
        <time>2011-05-04T11:22:46Z</time>
      </trkpt>
      <trkpt lat="48.34368" lon="-4.40199">
        <ele>24.36611366272</ele>
        <time>2011-05-04T11:22:52Z</time>
      </trkpt>
      <trkpt lat="48.34355" lon="-4.40159">
        <ele>20.654676437378</ele>
        <time>2011-05-04T11:23:04Z</time>
      </trkpt>
      <trkpt lat="48.3435" lon="-4.40129">
        <ele>18.822198867798</ele>
        <time>2011-05-04T11:23:12Z</time>
      </trkpt>
      <trkpt lat="48.34357" lon="-4.40089">
        <ele>17.296873092651</ele>
        <time>2011-05-04T11:23:23Z</time>
      </trkpt>
      <trkpt lat="48.34357" lon="-4.40063">
        <ele>17.40657043457</ele>
        <time>2011-05-04T11:23:30Z</time>
      </trkpt>
      <trkpt lat="48.34353" lon="-4.40048">
        <ele>17.383419036865</ele>
        <time>2011-05-04T11:23:35Z</time>
      </trkpt>
      <trkpt lat="48.34348" lon="-4.40044">
        <ele>17.114688873291</ele>
        <time>2011-05-04T11:23:37Z</time>
      </trkpt>
      <trkpt lat="48.34329" lon="-4.40046">
        <ele>15.598476409912</ele>
        <time>2011-05-04T11:23:44Z</time>
      </trkpt>
      <trkpt lat="48.34314" lon="-4.40052">
        <ele>14.520334243774</ele>
        <time>2011-05-04T11:23:50Z</time>
      </trkpt>
      <trkpt lat="48.343" lon="-4.40069">
        <ele>13.291277885437</ele>
        <time>2011-05-04T11:23:58Z</time>
      </trkpt>
      <trkpt lat="48.34295" lon="-4.40077">
        <ele>12.833311080933</ele>
        <time>2011-05-04T11:24:01Z</time>
      </trkpt>
      <trkpt lat="48.34288" lon="-4.4009">
        <ele>12.578300476074</ele>
        <time>2011-05-04T11:24:05Z</time>
      </trkpt>
      <trkpt lat="48.34277" lon="-4.40104">
        <ele>12.558174133301</ele>
        <time>2011-05-04T11:24:11Z</time>
      </trkpt>
      <trkpt lat="48.34259" lon="-4.4011">
        <ele>11.562679290772</ele>
        <time>2011-05-04T11:24:18Z</time>
      </trkpt>
      <trkpt lat="48.34242" lon="-4.40106">
        <ele>10.322649002075</ele>
        <time>2011-05-04T11:24:25Z</time>
      </trkpt>
      <trkpt lat="48.34232" lon="-4.40099">
        <ele>9.4386463165283</ele>
        <time>2011-05-04T11:24:30Z</time>
      </trkpt>
      <trkpt lat="48.34222" lon="-4.40071">
        <ele>8.3702611923218</ele>
        <time>2011-05-04T11:24:38Z</time>
      </trkpt>
      <trkpt lat="48.34214" lon="-4.40041">
        <ele>7.9378571510315</ele>
        <time>2011-05-04T11:24:47Z</time>
      </trkpt>
      <trkpt lat="48.34208" lon="-4.40021">
        <ele>7.4972286224365</ele>
        <time>2011-05-04T11:24:52Z</time>
      </trkpt>
      <trkpt lat="48.34206" lon="-4.39997">
        <ele>7.3828148841858</ele>
        <time>2011-05-04T11:24:59Z</time>
      </trkpt>
      <trkpt lat="48.34207" lon="-4.39982">
        <ele>7.7014994621277</ele>
        <time>2011-05-04T11:25:03Z</time>
      </trkpt>
      <trkpt lat="48.34208" lon="-4.3993">
        <ele>8.7546148300171</ele>
        <time>2011-05-04T11:25:17Z</time>
      </trkpt>
      <trkpt lat="48.34216" lon="-4.39892">
        <ele>9.3340072631836</ele>
        <time>2011-05-04T11:25:27Z</time>
      </trkpt>
      <trkpt lat="48.34219" lon="-4.39885">
        <ele>9.4843864440918</ele>
        <time>2011-05-04T11:25:30Z</time>
      </trkpt>
      <trkpt lat="48.34236" lon="-4.39841">
        <ele>10.699880599976</ele>
        <time>2011-05-04T11:25:43Z</time>
      </trkpt>
      <trkpt lat="48.34241" lon="-4.39816">
        <ele>10.516777038574</ele>
        <time>2011-05-04T11:25:50Z</time>
      </trkpt>
      <trkpt lat="48.34241" lon="-4.39809">
        <ele>10.27473449707</ele>
        <time>2011-05-04T11:25:52Z</time>
      </trkpt>
      <trkpt lat="48.34245" lon="-4.39777">
        <ele>9.4976806640625</ele>
        <time>2011-05-04T11:26:00Z</time>
      </trkpt>
      <trkpt lat="48.34244" lon="-4.39754">
        <ele>8.5918807983398</ele>
        <time>2011-05-04T11:26:07Z</time>
      </trkpt>
      <trkpt lat="48.34237" lon="-4.39728">
        <ele>7.6760621070862</ele>
        <time>2011-05-04T11:26:14Z</time>
      </trkpt>
      <trkpt lat="48.34226" lon="-4.39681">
        <ele>6.8127799034119</ele>
        <time>2011-05-04T11:26:27Z</time>
      </trkpt>
      <trkpt lat="48.34224" lon="-4.39669">
        <ele>6.7605834007263</ele>
        <time>2011-05-04T11:26:31Z</time>
      </trkpt>
      <trkpt lat="48.34221" lon="-4.39645">
        <ele>6.7904214859009</ele>
        <time>2011-05-04T11:26:37Z</time>
      </trkpt>
      <trkpt lat="48.34216" lon="-4.39622">
        <ele>6.7026429176331</ele>
        <time>2011-05-04T11:26:44Z</time>
      </trkpt>
      <trkpt lat="48.34214" lon="-4.39609">
        <ele>6.688937664032</ele>
        <time>2011-05-04T11:26:47Z</time>
      </trkpt>
      <trkpt lat="48.3421" lon="-4.39557">
        <ele>6.9116315841675</ele>
        <time>2011-05-04T11:27:01Z</time>
      </trkpt>
      <trkpt lat="48.34209" lon="-4.39517">
        <ele>7.3893241882324</ele>
        <time>2011-05-04T11:27:12Z</time>
      </trkpt>
      <trkpt lat="48.34211" lon="-4.395">
        <ele>7.7598366737366</ele>
        <time>2011-05-04T11:27:16Z</time>
      </trkpt>
      <trkpt lat="48.3421" lon="-4.39472">
        <ele>8.1506214141846</ele>
        <time>2011-05-04T11:27:24Z</time>
      </trkpt>
      <trkpt lat="48.34202" lon="-4.39453">
        <ele>7.6618065834045</ele>
        <time>2011-05-04T11:27:30Z</time>
      </trkpt>
      <trkpt lat="48.34197" lon="-4.39441">
        <ele>7.3492202758789</ele>
        <time>2011-05-04T11:27:34Z</time>
      </trkpt>
      <trkpt lat="48.34187" lon="-4.394">
        <ele>6.4289078712463</ele>
        <time>2011-05-04T11:27:45Z</time>
      </trkpt>
      <trkpt lat="48.34185" lon="-4.39378">
        <ele>6.1443328857422</ele>
        <time>2011-05-04T11:27:51Z</time>
      </trkpt>
      <trkpt lat="48.34182" lon="-4.39313">
        <ele>5.4040832519531</ele>
        <time>2011-05-04T11:28:08Z</time>
      </trkpt>
      <trkpt lat="48.34183" lon="-4.39271">
        <ele>5.0270004272461</ele>
        <time>2011-05-04T11:28:20Z</time>
      </trkpt>
      <trkpt lat="48.34182" lon="-4.39263">
        <ele>4.855339050293</ele>
        <time>2011-05-04T11:28:22Z</time>
      </trkpt>
      <trkpt lat="48.34176" lon="-4.39203">
        <ele>4.473867893219</ele>
        <time>2011-05-04T11:28:38Z</time>
      </trkpt>
      <trkpt lat="48.34179" lon="-4.39164">
        <ele>5.0596404075623</ele>
        <time>2011-05-04T11:28:48Z</time>
      </trkpt>
      <trkpt lat="48.34187" lon="-4.39137">
        <ele>6.2736401557922</ele>
        <time>2011-05-04T11:28:56Z</time>
      </trkpt>
      <trkpt lat="48.34203" lon="-4.39108">
        <ele>7.3075380325317</ele>
        <time>2011-05-04T11:29:06Z</time>
      </trkpt>
      <trkpt lat="48.34206" lon="-4.39082">
        <ele>7.5113415718079</ele>
        <time>2011-05-04T11:29:13Z</time>
      </trkpt>
      <trkpt lat="48.34203" lon="-4.39069">
        <ele>8.0974206924438</ele>
        <time>2011-05-04T11:29:17Z</time>
      </trkpt>
      <trkpt lat="48.34192" lon="-4.3906">
        <ele>8.5610876083374</ele>
        <time>2011-05-04T11:29:22Z</time>
      </trkpt>
      <trkpt lat="48.34175" lon="-4.39078">
        <ele>7.4216470718384</ele>
        <time>2011-05-04T11:29:30Z</time>
      </trkpt>
      <trkpt lat="48.34154" lon="-4.3911">
        <ele>6.305643081665</ele>
        <time>2011-05-04T11:29:42Z</time>
      </trkpt>
      <trkpt lat="48.34137" lon="-4.39137">
        <ele>5.5405426025391</ele>
        <time>2011-05-04T11:29:52Z</time>
      </trkpt>
      <trkpt lat="48.34126" lon="-4.39152">
        <ele>5.0798692703247</ele>
        <time>2011-05-04T11:29:58Z</time>
      </trkpt>
      <trkpt lat="48.34111" lon="-4.39175">
        <ele>4.3681302070618</ele>
        <time>2011-05-04T11:30:06Z</time>
      </trkpt>
      <trkpt lat="48.34087" lon="-4.39204">
        <ele>3.2130692005158</ele>
        <time>2011-05-04T11:30:19Z</time>
      </trkpt>
      <trkpt lat="48.34079" lon="-4.39211">
        <ele>3.033935546875</ele>
        <time>2011-05-04T11:30:22Z</time>
      </trkpt>
      <trkpt lat="48.3404" lon="-4.39231">
        <ele>3.436767578125</ele>
        <time>2011-05-04T11:30:39Z</time>
      </trkpt>
      <trkpt lat="48.34006" lon="-4.39242">
        <ele>4.1897888183594</ele>
        <time>2011-05-04T11:30:53Z</time>
      </trkpt>
      <trkpt lat="48.3398" lon="-4.39239">
        <ele>5.5216979980469</ele>
        <time>2011-05-04T11:31:03Z</time>
      </trkpt>
      <trkpt lat="48.33975" lon="-4.39236">
        <ele>5.8970642089844</ele>
        <time>2011-05-04T11:31:05Z</time>
      </trkpt>
      <trkpt lat="48.33951" lon="-4.39221">
        <ele>7.725830078125</ele>
        <time>2011-05-04T11:31:16Z</time>
      </trkpt>
      <trkpt lat="48.33932" lon="-4.39214">
        <ele>9.0098571777344</ele>
        <time>2011-05-04T11:31:24Z</time>
      </trkpt>
      <trkpt lat="48.33916" lon="-4.39218">
        <ele>9.5243864059448</ele>
        <time>2011-05-04T11:31:30Z</time>
      </trkpt>
      <trkpt lat="48.33904" lon="-4.39224">
        <ele>9.2760677337647</ele>
        <time>2011-05-04T11:31:35Z</time>
      </trkpt>
      <trkpt lat="48.3389" lon="-4.39224">
        <ele>9.2615442276001</ele>
        <time>2011-05-04T11:31:41Z</time>
      </trkpt>
      <trkpt lat="48.3387" lon="-4.39217">
        <ele>9.4879865646362</ele>
        <time>2011-05-04T11:31:49Z</time>
      </trkpt>
      <trkpt lat="48.33846" lon="-4.39203">
        <ele>9.6639623641968</ele>
        <time>2011-05-04T11:31:59Z</time>
      </trkpt>
      <trkpt lat="48.33825" lon="-4.39191">
        <ele>10.275973320007</ele>
        <time>2011-05-04T11:32:08Z</time>
      </trkpt>
      <trkpt lat="48.33809" lon="-4.39187">
        <ele>11.379409790039</ele>
        <time>2011-05-04T11:32:15Z</time>
      </trkpt>
      <trkpt lat="48.33794" lon="-4.39187">
        <ele>12.375828742981</ele>
        <time>2011-05-04T11:32:21Z</time>
      </trkpt>
      <trkpt lat="48.33792" lon="-4.39187">
        <ele>12.501856803894</ele>
        <time>2011-05-04T11:32:22Z</time>
      </trkpt>
      <trkpt lat="48.33785" lon="-4.39177">
        <ele>13.213017463684</ele>
        <time>2011-05-04T11:32:26Z</time>
      </trkpt>
      <trkpt lat="48.33783" lon="-4.39167">
        <ele>13.64494228363</ele>
        <time>2011-05-04T11:32:28Z</time>
      </trkpt>
      <trkpt lat="48.33767" lon="-4.39113">
        <ele>17.227489471436</ele>
        <time>2011-05-04T11:32:44Z</time>
      </trkpt>
      <trkpt lat="48.33757" lon="-4.39095">
        <ele>18.361993789673</ele>
        <time>2011-05-04T11:32:50Z</time>
      </trkpt>
      <trkpt lat="48.33741" lon="-4.39058">
        <ele>21.30294418335</ele>
        <time>2011-05-04T11:33:02Z</time>
      </trkpt>
      <trkpt lat="48.33741" lon="-4.39051">
        <ele>21.640409469604</ele>
        <time>2011-05-04T11:33:04Z</time>
      </trkpt>
      <trkpt lat="48.33738" lon="-4.3902">
        <ele>23.296705245972</ele>
        <time>2011-05-04T11:33:12Z</time>
      </trkpt>
      <trkpt lat="48.3373" lon="-4.38993">
        <ele>24.929418563843</ele>
        <time>2011-05-04T11:33:20Z</time>
      </trkpt>
      <trkpt lat="48.33725" lon="-4.38976">
        <ele>25.375507354736</ele>
        <time>2011-05-04T11:33:25Z</time>
      </trkpt>
      <trkpt lat="48.33715" lon="-4.38948">
        <ele>25.956783294678</ele>
        <time>2011-05-04T11:33:34Z</time>
      </trkpt>
      <trkpt lat="48.33707" lon="-4.38927">
        <ele>26.19624710083</ele>
        <time>2011-05-04T11:33:40Z</time>
      </trkpt>
      <trkpt lat="48.337" lon="-4.38912">
        <ele>26.264898300171</ele>
        <time>2011-05-04T11:33:45Z</time>
      </trkpt>
      <trkpt lat="48.33691" lon="-4.38902">
        <ele>26.416658401489</ele>
        <time>2011-05-04T11:33:49Z</time>
      </trkpt>
      <trkpt lat="48.33678" lon="-4.38905">
        <ele>27.056180953979</ele>
        <time>2011-05-04T11:33:54Z</time>
      </trkpt>
      <trkpt lat="48.33662" lon="-4.38914">
        <ele>27.858438491821</ele>
        <time>2011-05-04T11:34:01Z</time>
      </trkpt>
      <trkpt lat="48.33658" lon="-4.38927">
        <ele>28.248104095459</ele>
        <time>2011-05-04T11:34:05Z</time>
      </trkpt>
      <trkpt lat="48.33668" lon="-4.38943">
        <ele>28.846927642822</ele>
        <time>2011-05-04T11:34:11Z</time>
      </trkpt>
      <trkpt lat="48.33681" lon="-4.3898">
        <ele>29.038564682007</ele>
        <time>2011-05-04T11:34:22Z</time>
      </trkpt>
      <trkpt lat="48.33685" lon="-4.39001">
        <ele>29.274099349976</ele>
        <time>2011-05-04T11:34:28Z</time>
      </trkpt>
      <trkpt lat="48.33684" lon="-4.39012">
        <ele>29.088863372803</ele>
        <time>2011-05-04T11:34:31Z</time>
      </trkpt>
      <trkpt lat="48.33678" lon="-4.3904">
        <ele>29.228450775146</ele>
        <time>2011-05-04T11:34:39Z</time>
      </trkpt>
      <trkpt lat="48.33675" lon="-4.39061">
        <ele>29.292890548706</ele>
        <time>2011-05-04T11:34:44Z</time>
      </trkpt>
      <trkpt lat="48.33667" lon="-4.39086">
        <ele>29.823266983032</ele>
        <time>2011-05-04T11:34:52Z</time>
      </trkpt>
      <trkpt lat="48.33657" lon="-4.39107">
        <ele>28.310245513916</ele>
        <time>2011-05-04T11:34:59Z</time>
      </trkpt>
      <trkpt lat="48.3365" lon="-4.39121">
        <ele>27.427484512329</ele>
        <time>2011-05-04T11:35:03Z</time>
      </trkpt>
      <trkpt lat="48.33647" lon="-4.39133">
        <ele>26.749738693237</ele>
        <time>2011-05-04T11:35:06Z</time>
      </trkpt>
      <trkpt lat="48.33644" lon="-4.39145">
        <ele>26.097553253174</ele>
        <time>2011-05-04T11:35:10Z</time>
      </trkpt>
      <trkpt lat="48.33643" lon="-4.39151">
        <ele>25.763038635254</ele>
        <time>2011-05-04T11:35:12Z</time>
      </trkpt>
      <trkpt lat="48.33638" lon="-4.39169">
        <ele>24.887817382812</ele>
        <time>2011-05-04T11:35:17Z</time>
      </trkpt>
      <trkpt lat="48.33648" lon="-4.39192">
        <ele>23.590259552002</ele>
        <time>2011-05-04T11:35:24Z</time>
      </trkpt>
      <trkpt lat="48.33656" lon="-4.39198">
        <ele>23.21591758728</ele>
        <time>2011-05-04T11:35:28Z</time>
      </trkpt>
      <trkpt lat="48.33656" lon="-4.392">
        <ele>23.074811935425</ele>
        <time>2011-05-04T11:35:28Z</time>
      </trkpt>
      <trkpt lat="48.33652" lon="-4.39214">
        <ele>22.337665557861</ele>
        <time>2011-05-04T11:35:32Z</time>
      </trkpt>
      <trkpt lat="48.33643" lon="-4.39247">
        <ele>20.740463256836</ele>
        <time>2011-05-04T11:35:42Z</time>
      </trkpt>
      <trkpt lat="48.33646" lon="-4.39265">
        <ele>20.153169631958</ele>
        <time>2011-05-04T11:35:47Z</time>
      </trkpt>
      <trkpt lat="48.33649" lon="-4.39284">
        <ele>19.526845932007</ele>
        <time>2011-05-04T11:35:52Z</time>
      </trkpt>
      <trkpt lat="48.3365" lon="-4.39305">
        <ele>18.948575973511</ele>
        <time>2011-05-04T11:35:58Z</time>
      </trkpt>
      <trkpt lat="48.33644" lon="-4.39336">
        <ele>18.58772277832</ele>
        <time>2011-05-04T11:36:06Z</time>
      </trkpt>
      <trkpt lat="48.33636" lon="-4.39376">
        <ele>19.014619827271</ele>
        <time>2011-05-04T11:36:17Z</time>
      </trkpt>
      <trkpt lat="48.33636" lon="-4.39405">
        <ele>18.861364364624</ele>
        <time>2011-05-04T11:36:25Z</time>
      </trkpt>
      <trkpt lat="48.33641" lon="-4.39422">
        <ele>18.781114578247</ele>
        <time>2011-05-04T11:36:30Z</time>
      </trkpt>
      <trkpt lat="48.33648" lon="-4.39465">
        <ele>20.183174133301</ele>
        <time>2011-05-04T11:36:42Z</time>
      </trkpt>
      <trkpt lat="48.33659" lon="-4.395">
        <ele>21.256286621094</ele>
        <time>2011-05-04T11:36:52Z</time>
      </trkpt>
      <trkpt lat="48.33667" lon="-4.39526">
        <ele>25.075000762939</ele>
        <time>2011-05-04T11:37:00Z</time>
      </trkpt>
      <trkpt lat="48.33674" lon="-4.39555">
        <ele>29.844491958618</ele>
        <time>2011-05-04T11:37:08Z</time>
      </trkpt>
      <trkpt lat="48.33675" lon="-4.39568">
        <ele>31.794984817505</ele>
        <time>2011-05-04T11:37:11Z</time>
      </trkpt>
      <trkpt lat="48.33683" lon="-4.39581">
        <ele>34.175361633301</ele>
        <time>2011-05-04T11:37:16Z</time>
      </trkpt>
      <trkpt lat="48.33689" lon="-4.39597">
        <ele>36.87865447998</ele>
        <time>2011-05-04T11:37:21Z</time>
      </trkpt>
      <trkpt lat="48.3369" lon="-4.39597">
        <ele>37.053749084473</ele>
        <time>2011-05-04T11:37:21Z</time>
      </trkpt>
      <trkpt lat="48.33693" lon="-4.39602">
        <ele>37.862846374512</ele>
        <time>2011-05-04T11:37:23Z</time>
      </trkpt>
      <trkpt lat="48.33693" lon="-4.39605">
        <ele>38.30916595459</ele>
        <time>2011-05-04T11:37:24Z</time>
      </trkpt>
      <trkpt lat="48.33674" lon="-4.39633">
        <ele>41.967842102051</ele>
        <time>2011-05-04T11:37:35Z</time>
      </trkpt>
      <trkpt lat="48.33665" lon="-4.3964">
        <ele>42.813999176025</ele>
        <time>2011-05-04T11:37:39Z</time>
      </trkpt>
      <trkpt lat="48.33643" lon="-4.39652">
        <ele>42.714340209961</ele>
        <time>2011-05-04T11:37:48Z</time>
      </trkpt>
      <trkpt lat="48.33622" lon="-4.39667">
        <ele>42.751270294189</ele>
        <time>2011-05-04T11:37:57Z</time>
      </trkpt>
      <trkpt lat="48.33596" lon="-4.39686">
        <ele>43.181694030762</ele>
        <time>2011-05-04T11:38:09Z</time>
      </trkpt>
      <trkpt lat="48.33579" lon="-4.39709">
        <ele>45.363296508789</ele>
        <time>2011-05-04T11:38:18Z</time>
      </trkpt>
      <trkpt lat="48.33554" lon="-4.39729">
        <ele>47.297828674316</ele>
        <time>2011-05-04T11:38:29Z</time>
      </trkpt>
      <trkpt lat="48.33538" lon="-4.3974">
        <ele>47.89807510376</ele>
        <time>2011-05-04T11:38:36Z</time>
      </trkpt>
      <trkpt lat="48.33524" lon="-4.39745">
        <ele>47.784362792969</ele>
        <time>2011-05-04T11:38:42Z</time>
      </trkpt>
      <trkpt lat="48.33512" lon="-4.3976">
        <ele>49.031749725342</ele>
        <time>2011-05-04T11:38:48Z</time>
      </trkpt>
      <trkpt lat="48.33516" lon="-4.39786">
        <ele>52.580219268799</ele>
        <time>2011-05-04T11:38:55Z</time>
      </trkpt>
      <trkpt lat="48.33524" lon="-4.39817">
        <ele>57.050231933594</ele>
        <time>2011-05-04T11:39:04Z</time>
      </trkpt>
      <trkpt lat="48.33531" lon="-4.39838">
        <ele>59.796947479248</ele>
        <time>2011-05-04T11:39:11Z</time>
      </trkpt>
      <trkpt lat="48.33543" lon="-4.39846">
        <ele>60.74437713623</ele>
        <time>2011-05-04T11:39:16Z</time>
      </trkpt>
      <trkpt lat="48.33552" lon="-4.39862">
        <ele>61.946300506592</ele>
        <time>2011-05-04T11:39:22Z</time>
      </trkpt>
      <trkpt lat="48.33552" lon="-4.39885">
        <ele>63.040676116943</ele>
        <time>2011-05-04T11:39:28Z</time>
      </trkpt>
      <trkpt lat="48.33547" lon="-4.39904">
        <ele>63.896785736084</ele>
        <time>2011-05-04T11:39:33Z</time>
      </trkpt>
      <trkpt lat="48.33538" lon="-4.39926">
        <ele>64.600036621094</ele>
        <time>2011-05-04T11:39:40Z</time>
      </trkpt>
      <trkpt lat="48.33512" lon="-4.39935">
        <ele>64.827308654785</ele>
        <time>2011-05-04T11:39:51Z</time>
      </trkpt>
      <trkpt lat="48.33496" lon="-4.39944">
        <ele>65.167930603027</ele>
        <time>2011-05-04T11:39:58Z</time>
      </trkpt>
      <trkpt lat="48.33492" lon="-4.39947">
        <ele>65.198745727539</ele>
        <time>2011-05-04T11:40:00Z</time>
      </trkpt>
      <trkpt lat="48.33456" lon="-4.39971">
        <ele>65.867416381836</ele>
        <time>2011-05-04T11:40:15Z</time>
      </trkpt>
      <trkpt lat="48.33447" lon="-4.39981">
        <ele>66.494651794434</ele>
        <time>2011-05-04T11:40:19Z</time>
      </trkpt>
      <trkpt lat="48.33448" lon="-4.39991">
        <ele>67.285522460938</ele>
        <time>2011-05-04T11:40:22Z</time>
      </trkpt>
      <trkpt lat="48.33456" lon="-4.40001">
        <ele>68.039291381836</ele>
        <time>2011-05-04T11:40:26Z</time>
      </trkpt>
      <trkpt lat="48.3346" lon="-4.40012">
        <ele>68.327003479004</ele>
        <time>2011-05-04T11:40:30Z</time>
      </trkpt>
      <trkpt lat="48.33457" lon="-4.40038">
        <ele>69.190040588379</ele>
        <time>2011-05-04T11:40:37Z</time>
      </trkpt>
      <trkpt lat="48.33443" lon="-4.40061">
        <ele>70.764266967773</ele>
        <time>2011-05-04T11:40:45Z</time>
      </trkpt>
      <trkpt lat="48.33428" lon="-4.40093">
        <ele>73.119941711426</ele>
        <time>2011-05-04T11:40:55Z</time>
      </trkpt>
      <trkpt lat="48.33423" lon="-4.4012">
        <ele>73.792503356934</ele>
        <time>2011-05-04T11:41:03Z</time>
      </trkpt>
      <trkpt lat="48.3342" lon="-4.40147">
        <ele>74.387565612793</ele>
        <time>2011-05-04T11:41:10Z</time>
      </trkpt>
      <trkpt lat="48.33417" lon="-4.40155">
        <ele>74.806274414062</ele>
        <time>2011-05-04T11:41:13Z</time>
      </trkpt>
      <trkpt lat="48.33419" lon="-4.40176">
        <ele>74.15210723877</ele>
        <time>2011-05-04T11:41:18Z</time>
      </trkpt>
      <trkpt lat="48.33417" lon="-4.40181">
        <ele>74.048286437988</ele>
        <time>2011-05-04T11:41:20Z</time>
      </trkpt>
      <trkpt lat="48.33416" lon="-4.40183">
        <ele>73.999557495117</ele>
        <time>2011-05-04T11:41:20Z</time>
      </trkpt>
      <trkpt lat="48.33416" lon="-4.40183">
        <ele>73.996726989746</ele>
        <time>2011-05-04T11:41:20Z</time>
      </trkpt>
      <trkpt lat="48.33416" lon="-4.40183">
        <ele>74.010833740234</ele>
        <time>2011-05-04T11:41:21Z</time>
      </trkpt>
      <trkpt lat="48.33416" lon="-4.40183">
        <ele>74.005210876465</ele>
        <time>2011-05-04T11:41:21Z</time>
      </trkpt>
      <trkpt lat="48.33416" lon="-4.40183">
        <ele>74.027839660645</ele>
        <time>2011-05-04T11:41:21Z</time>
      </trkpt>
      <trkpt lat="48.33416" lon="-4.40182">
        <ele>74.061408996582</ele>
        <time>2011-05-04T11:41:21Z</time>
      </trkpt>
      <trkpt lat="48.33415" lon="-4.40182">
        <ele>74.058212280273</ele>
        <time>2011-05-04T11:41:21Z</time>
      </trkpt>
      <trkpt lat="48.33414" lon="-4.40181">
        <ele>74.088912963867</ele>
        <time>2011-05-04T11:41:22Z</time>
      </trkpt>
      <trkpt lat="48.3341" lon="-4.40179">
        <ele>74.156211853027</ele>
        <time>2011-05-04T11:41:24Z</time>
      </trkpt>
      <trkpt lat="48.33395" lon="-4.40175">
        <ele>74.180549621582</ele>
        <time>2011-05-04T11:41:29Z</time>
      </trkpt>
      <trkpt lat="48.33377" lon="-4.40167">
        <ele>74.030364990234</ele>
        <time>2011-05-04T11:41:37Z</time>
      </trkpt>
      <trkpt lat="48.33358" lon="-4.40159">
        <ele>73.107643127441</ele>
        <time>2011-05-04T11:41:45Z</time>
      </trkpt>
      <trkpt lat="48.33352" lon="-4.40145">
        <ele>71.938331604004</ele>
        <time>2011-05-04T11:41:49Z</time>
      </trkpt>
      <trkpt lat="48.33346" lon="-4.40135">
        <ele>71.006713867188</ele>
        <time>2011-05-04T11:41:53Z</time>
      </trkpt>
      <trkpt lat="48.33344" lon="-4.40135">
        <ele>70.878639221191</ele>
        <time>2011-05-04T11:41:54Z</time>
      </trkpt>
      <trkpt lat="48.33333" lon="-4.40141">
        <ele>70.79411315918</ele>
        <time>2011-05-04T11:41:58Z</time>
      </trkpt>
      <trkpt lat="48.33319" lon="-4.40149">
        <ele>70.779495239258</ele>
        <time>2011-05-04T11:42:04Z</time>
      </trkpt>
      <trkpt lat="48.33308" lon="-4.40164">
        <ele>71.291976928711</ele>
        <time>2011-05-04T11:42:10Z</time>
      </trkpt>
      <trkpt lat="48.33284" lon="-4.40204">
        <ele>71.458457946777</ele>
        <time>2011-05-04T11:42:25Z</time>
      </trkpt>
      <trkpt lat="48.33258" lon="-4.40254">
        <ele>72.267265319824</ele>
        <time>2011-05-04T11:42:41Z</time>
      </trkpt>
      <trkpt lat="48.33247" lon="-4.40292">
        <ele>71.878402709961</ele>
        <time>2011-05-04T11:42:53Z</time>
      </trkpt>
      <trkpt lat="48.33239" lon="-4.4032">
        <ele>71.693641662598</ele>
        <time>2011-05-04T11:43:01Z</time>
      </trkpt>
      <trkpt lat="48.33235" lon="-4.40328">
        <ele>71.623001098633</ele>
        <time>2011-05-04T11:43:03Z</time>
      </trkpt>
      <trkpt lat="48.33222" lon="-4.40326">
        <ele>71.271560668945</ele>
        <time>2011-05-04T11:43:09Z</time>
      </trkpt>
      <trkpt lat="48.33207" lon="-4.40315">
        <ele>70.754570007324</ele>
        <time>2011-05-04T11:43:15Z</time>
      </trkpt>
      <trkpt lat="48.33176" lon="-4.40299">
        <ele>69.496200561523</ele>
        <time>2011-05-04T11:43:28Z</time>
      </trkpt>
      <trkpt lat="48.33156" lon="-4.40284">
        <ele>68.811752319336</ele>
        <time>2011-05-04T11:43:37Z</time>
      </trkpt>
      <trkpt lat="48.33123" lon="-4.4026">
        <ele>68.229248046875</ele>
        <time>2011-05-04T11:43:52Z</time>
      </trkpt>
      <trkpt lat="48.33097" lon="-4.40243">
        <ele>67.902610778809</ele>
        <time>2011-05-04T11:44:03Z</time>
      </trkpt>
      <trkpt lat="48.33064" lon="-4.40223">
        <ele>68.284332275391</ele>
        <time>2011-05-04T11:44:17Z</time>
      </trkpt>
      <trkpt lat="48.33061" lon="-4.40221">
        <ele>68.366111755371</ele>
        <time>2011-05-04T11:44:19Z</time>
      </trkpt>
      <trkpt lat="48.3305" lon="-4.40235">
        <ele>68.947448730469</ele>
        <time>2011-05-04T11:44:25Z</time>
      </trkpt>
      <trkpt lat="48.33043" lon="-4.40296">
        <ele>70.294654846191</ele>
        <time>2011-05-04T11:44:41Z</time>
      </trkpt>
      <trkpt lat="48.33037" lon="-4.40332">
        <ele>71.087432861328</ele>
        <time>2011-05-04T11:44:51Z</time>
      </trkpt>
      <trkpt lat="48.33029" lon="-4.40372">
        <ele>71.621406555176</ele>
        <time>2011-05-04T11:45:02Z</time>
      </trkpt>
      <trkpt lat="48.33018" lon="-4.40412">
        <ele>71.975379943848</ele>
        <time>2011-05-04T11:45:14Z</time>
      </trkpt>
      <trkpt lat="48.33016" lon="-4.4042">
        <ele>72.076522827148</ele>
        <time>2011-05-04T11:45:16Z</time>
      </trkpt>
      <trkpt lat="48.32998" lon="-4.40457">
        <ele>73.003341674805</ele>
        <time>2011-05-04T11:45:28Z</time>
      </trkpt>
      <trkpt lat="48.32994" lon="-4.40462">
        <ele>73.18074798584</ele>
        <time>2011-05-04T11:45:30Z</time>
      </trkpt>
      <trkpt lat="48.32973" lon="-4.40497">
        <ele>74.26277923584</ele>
        <time>2011-05-04T11:45:43Z</time>
      </trkpt>
      <trkpt lat="48.32964" lon="-4.40515">
        <ele>74.53800201416</ele>
        <time>2011-05-04T11:45:49Z</time>
      </trkpt>
      <trkpt lat="48.32949" lon="-4.40553">
        <ele>74.854774475098</ele>
        <time>2011-05-04T11:46:00Z</time>
      </trkpt>
      <trkpt lat="48.3294" lon="-4.40569">
        <ele>74.951446533203</ele>
        <time>2011-05-04T11:46:06Z</time>
      </trkpt>
      <trkpt lat="48.32925" lon="-4.40601">
        <ele>74.978088378906</ele>
        <time>2011-05-04T11:46:16Z</time>
      </trkpt>
      <trkpt lat="48.32914" lon="-4.40631">
        <ele>75.04630279541</ele>
        <time>2011-05-04T11:46:25Z</time>
      </trkpt>
      <trkpt lat="48.32898" lon="-4.40674">
        <ele>75.047012329102</ele>
        <time>2011-05-04T11:46:39Z</time>
      </trkpt>
      <trkpt lat="48.32888" lon="-4.40697">
        <ele>74.61442565918</ele>
        <time>2011-05-04T11:46:46Z</time>
      </trkpt>
      <trkpt lat="48.32877" lon="-4.40726">
        <ele>74.050231933594</ele>
        <time>2011-05-04T11:46:55Z</time>
      </trkpt>
      <trkpt lat="48.32866" lon="-4.40749">
        <ele>73.631378173828</ele>
        <time>2011-05-04T11:47:03Z</time>
      </trkpt>
      <trkpt lat="48.32853" lon="-4.4078">
        <ele>73.602111816406</ele>
        <time>2011-05-04T11:47:12Z</time>
      </trkpt>
      <trkpt lat="48.32841" lon="-4.40804">
        <ele>73.776329040527</ele>
        <time>2011-05-04T11:47:20Z</time>
      </trkpt>
      <trkpt lat="48.32828" lon="-4.40832">
        <ele>73.934143066406</ele>
        <time>2011-05-04T11:47:29Z</time>
      </trkpt>
      <trkpt lat="48.32819" lon="-4.40863">
        <ele>72.509323120117</ele>
        <time>2011-05-04T11:47:38Z</time>
      </trkpt>
      <trkpt lat="48.3281" lon="-4.40887">
        <ele>71.520050048828</ele>
        <time>2011-05-04T11:47:46Z</time>
      </trkpt>
      <trkpt lat="48.32799" lon="-4.40903">
        <ele>70.943962097168</ele>
        <time>2011-05-04T11:47:52Z</time>
      </trkpt>
      <trkpt lat="48.32798" lon="-4.40904">
        <ele>70.901359558105</ele>
        <time>2011-05-04T11:47:52Z</time>
      </trkpt>
      <trkpt lat="48.32798" lon="-4.40905">
        <ele>70.847526550293</ele>
        <time>2011-05-04T11:47:53Z</time>
      </trkpt>
      <trkpt lat="48.32798" lon="-4.40906">
        <ele>70.811347961426</ele>
        <time>2011-05-04T11:47:53Z</time>
      </trkpt>
      <trkpt lat="48.32798" lon="-4.40906">
        <ele>70.80591583252</ele>
        <time>2011-05-04T11:47:53Z</time>
      </trkpt>
      <trkpt lat="48.32798" lon="-4.40908">
        <ele>70.771469116211</ele>
        <time>2011-05-04T11:47:53Z</time>
      </trkpt>
      <trkpt lat="48.32797" lon="-4.40907">
        <ele>70.791191101074</ele>
        <time>2011-05-04T11:47:53Z</time>
      </trkpt>
      <trkpt lat="48.32795" lon="-4.40907">
        <ele>70.828285217285</ele>
        <time>2011-05-04T11:47:54Z</time>
      </trkpt>
      <trkpt lat="48.32794" lon="-4.40909">
        <ele>70.765151977539</ele>
        <time>2011-05-04T11:47:55Z</time>
      </trkpt>
      <trkpt lat="48.32785" lon="-4.40921">
        <ele>70.437530517578</ele>
        <time>2011-05-04T11:48:00Z</time>
      </trkpt>
      <trkpt lat="48.32769" lon="-4.4095">
        <ele>69.672218322754</ele>
        <time>2011-05-04T11:48:10Z</time>
      </trkpt>
      <trkpt lat="48.32755" lon="-4.40984">
        <ele>68.556785583496</ele>
        <time>2011-05-04T11:48:21Z</time>
      </trkpt>
      <trkpt lat="48.32742" lon="-4.41018">
        <ele>67.371932983398</ele>
        <time>2011-05-04T11:48:31Z</time>
      </trkpt>
      <trkpt lat="48.3273" lon="-4.41025">
        <ele>67.164886474609</ele>
        <time>2011-05-04T11:48:36Z</time>
      </trkpt>
      <trkpt lat="48.32723" lon="-4.41021">
        <ele>67.333312988281</ele>
        <time>2011-05-04T11:48:39Z</time>
      </trkpt>
      <trkpt lat="48.3271" lon="-4.41013">
        <ele>67.610641479492</ele>
        <time>2011-05-04T11:48:45Z</time>
      </trkpt>
      <trkpt lat="48.32685" lon="-4.40997">
        <ele>68.054725646973</ele>
        <time>2011-05-04T11:48:56Z</time>
      </trkpt>
      <trkpt lat="48.32669" lon="-4.40984">
        <ele>68.198577880859</ele>
        <time>2011-05-04T11:49:03Z</time>
      </trkpt>
      <trkpt lat="48.32648" lon="-4.40969">
        <ele>66.222671508789</ele>
        <time>2011-05-04T11:49:12Z</time>
      </trkpt>
      <trkpt lat="48.32626" lon="-4.40961">
        <ele>63.814029693604</ele>
        <time>2011-05-04T11:49:21Z</time>
      </trkpt>
      <trkpt lat="48.32621" lon="-4.40958">
        <ele>63.260986328125</ele>
        <time>2011-05-04T11:49:24Z</time>
      </trkpt>
      <trkpt lat="48.32613" lon="-4.40937">
        <ele>62.845264434814</ele>
        <time>2011-05-04T11:49:30Z</time>
      </trkpt>
      <trkpt lat="48.32611" lon="-4.40904">
        <ele>63.107902526855</ele>
        <time>2011-05-04T11:49:39Z</time>
      </trkpt>
      <trkpt lat="48.32614" lon="-4.40868">
        <ele>63.874084472656</ele>
        <time>2011-05-04T11:49:48Z</time>
      </trkpt>
      <trkpt lat="48.32625" lon="-4.40833">
        <ele>65.480201721191</ele>
        <time>2011-05-04T11:49:59Z</time>
      </trkpt>
      <trkpt lat="48.32631" lon="-4.40796">
        <ele>65.903953552246</ele>
        <time>2011-05-04T11:50:09Z</time>
      </trkpt>
      <trkpt lat="48.3263" lon="-4.40776">
        <ele>65.709289550781</ele>
        <time>2011-05-04T11:50:14Z</time>
      </trkpt>
      <trkpt lat="48.32632" lon="-4.40748">
        <ele>65.781135559082</ele>
        <time>2011-05-04T11:50:22Z</time>
      </trkpt>
      <trkpt lat="48.32639" lon="-4.40723">
        <ele>66.452194213867</ele>
        <time>2011-05-04T11:50:29Z</time>
      </trkpt>
      <trkpt lat="48.32644" lon="-4.40704">
        <ele>66.96768951416</ele>
        <time>2011-05-04T11:50:34Z</time>
      </trkpt>
      <trkpt lat="48.32647" lon="-4.40686">
        <ele>67.26725769043</ele>
        <time>2011-05-04T11:50:39Z</time>
      </trkpt>
      <trkpt lat="48.32652" lon="-4.40662">
        <ele>67.805870056152</ele>
        <time>2011-05-04T11:50:46Z</time>
      </trkpt>
      <trkpt lat="48.32654" lon="-4.4065">
        <ele>67.918045043945</ele>
        <time>2011-05-04T11:50:49Z</time>
      </trkpt>
      <trkpt lat="48.32658" lon="-4.40627">
        <ele>68.229141235352</ele>
        <time>2011-05-04T11:50:55Z</time>
      </trkpt>
      <trkpt lat="48.32663" lon="-4.4061">
        <ele>68.75154876709</ele>
        <time>2011-05-04T11:51:01Z</time>
      </trkpt>
      <trkpt lat="48.32678" lon="-4.40563">
        <ele>69.126068115234</ele>
        <time>2011-05-04T11:51:14Z</time>
      </trkpt>
      <trkpt lat="48.3268" lon="-4.40557">
        <ele>69.035469055176</ele>
        <time>2011-05-04T11:51:16Z</time>
      </trkpt>
      <trkpt lat="48.32685" lon="-4.40534">
        <ele>68.699409484863</ele>
        <time>2011-05-04T11:51:23Z</time>
      </trkpt>
      <trkpt lat="48.32697" lon="-4.40492">
        <ele>68.222526550293</ele>
        <time>2011-05-04T11:51:35Z</time>
      </trkpt>
      <trkpt lat="48.32704" lon="-4.40468">
        <ele>67.743545532227</ele>
        <time>2011-05-04T11:51:42Z</time>
      </trkpt>
      <trkpt lat="48.32708" lon="-4.40454">
        <ele>67.57657623291</ele>
        <time>2011-05-04T11:51:46Z</time>
      </trkpt>
      <trkpt lat="48.3271" lon="-4.40449">
        <ele>67.448875427246</ele>
        <time>2011-05-04T11:51:47Z</time>
      </trkpt>
      <trkpt lat="48.3271" lon="-4.40446">
        <ele>67.337173461914</ele>
        <time>2011-05-04T11:51:48Z</time>
      </trkpt>
      <trkpt lat="48.3271" lon="-4.40445">
        <ele>67.340309143066</ele>
        <time>2011-05-04T11:51:48Z</time>
      </trkpt>
      <trkpt lat="48.3271" lon="-4.40448">
        <ele>67.437927246094</ele>
        <time>2011-05-04T11:51:49Z</time>
      </trkpt>
      <trkpt lat="48.3271" lon="-4.40449">
        <ele>67.448875427246</ele>
        <time>2011-05-04T11:51:49Z</time>
      </trkpt>
      <trkpt lat="48.3271" lon="-4.4045">
        <ele>67.539520263672</ele>
        <time>2011-05-04T11:51:50Z</time>
      </trkpt>
      <trkpt lat="48.32709" lon="-4.40451">
        <ele>67.515869140625</ele>
        <time>2011-05-04T11:51:50Z</time>
      </trkpt>
      <trkpt lat="48.3271" lon="-4.40448">
        <ele>67.512641906738</ele>
        <time>2011-05-04T11:51:51Z</time>
      </trkpt>
      <trkpt lat="48.32711" lon="-4.40447">
        <ele>67.481948852539</ele>
        <time>2011-05-04T11:51:51Z</time>
      </trkpt>
      <trkpt lat="48.32711" lon="-4.40446">
        <ele>67.426315307617</ele>
        <time>2011-05-04T11:51:52Z</time>
      </trkpt>
      <trkpt lat="48.3271" lon="-4.40442">
        <ele>67.177597045898</ele>
        <time>2011-05-04T11:51:53Z</time>
      </trkpt>
      <trkpt lat="48.32708" lon="-4.40445">
        <ele>67.196090698242</ele>
        <time>2011-05-04T11:51:54Z</time>
      </trkpt>
      <trkpt lat="48.32707" lon="-4.40445">
        <ele>67.069938659668</ele>
        <time>2011-05-04T11:51:54Z</time>
      </trkpt>
      <trkpt lat="48.32708" lon="-4.40445">
        <ele>67.208106994629</ele>
        <time>2011-05-04T11:51:55Z</time>
      </trkpt>
      <trkpt lat="48.3271" lon="-4.40445">
        <ele>67.346290588379</ele>
        <time>2011-05-04T11:51:55Z</time>
      </trkpt>
      <trkpt lat="48.3271" lon="-4.40447">
        <ele>67.431945800781</ele>
        <time>2011-05-04T11:51:56Z</time>
      </trkpt>
      <trkpt lat="48.3271" lon="-4.40447">
        <ele>67.450965881348</ele>
        <time>2011-05-04T11:51:56Z</time>
      </trkpt>
      <trkpt lat="48.32711" lon="-4.40443">
        <ele>67.313064575195</ele>
        <time>2011-05-04T11:51:57Z</time>
      </trkpt>
      <trkpt lat="48.32711" lon="-4.40443">
        <ele>67.344284057617</ele>
        <time>2011-05-04T11:51:57Z</time>
      </trkpt>
      <trkpt lat="48.32711" lon="-4.40441">
        <ele>67.239555358887</ele>
        <time>2011-05-04T11:51:58Z</time>
      </trkpt>
      <trkpt lat="48.32711" lon="-4.40439">
        <ele>67.164054870605</ele>
        <time>2011-05-04T11:51:58Z</time>
      </trkpt>
      <trkpt lat="48.32711" lon="-4.40438">
        <ele>67.14387512207</ele>
        <time>2011-05-04T11:51:59Z</time>
      </trkpt>
      <trkpt lat="48.32713" lon="-4.40434">
        <ele>67.145713806152</ele>
        <time>2011-05-04T11:52:00Z</time>
      </trkpt>
      <trkpt lat="48.3272" lon="-4.40415">
        <ele>66.97681427002</ele>
        <time>2011-05-04T11:52:06Z</time>
      </trkpt>
      <trkpt lat="48.32728" lon="-4.40395">
        <ele>66.404609680176</ele>
        <time>2011-05-04T11:52:12Z</time>
      </trkpt>
      <trkpt lat="48.32734" lon="-4.4038">
        <ele>66.105400085449</ele>
        <time>2011-05-04T11:52:17Z</time>
      </trkpt>
      <trkpt lat="48.32739" lon="-4.40365">
        <ele>65.692642211914</ele>
        <time>2011-05-04T11:52:21Z</time>
      </trkpt>
      <trkpt lat="48.32745" lon="-4.40348">
        <ele>65.290321350098</ele>
        <time>2011-05-04T11:52:26Z</time>
      </trkpt>
      <trkpt lat="48.32754" lon="-4.40328">
        <ele>64.714469909668</ele>
        <time>2011-05-04T11:52:33Z</time>
      </trkpt>
      <trkpt lat="48.32762" lon="-4.40312">
        <ele>63.838554382324</ele>
        <time>2011-05-04T11:52:38Z</time>
      </trkpt>
      <trkpt lat="48.32767" lon="-4.40296">
        <ele>62.928546905518</ele>
        <time>2011-05-04T11:52:43Z</time>
      </trkpt>
      <trkpt lat="48.3277" lon="-4.4028">
        <ele>61.857769012451</ele>
        <time>2011-05-04T11:52:47Z</time>
      </trkpt>
      <trkpt lat="48.32773" lon="-4.40266">
        <ele>60.99626159668</ele>
        <time>2011-05-04T11:52:51Z</time>
      </trkpt>
      <trkpt lat="48.32776" lon="-4.40252">
        <ele>60.336223602295</ele>
        <time>2011-05-04T11:52:55Z</time>
      </trkpt>
      <trkpt lat="48.32783" lon="-4.40234">
        <ele>59.70272064209</ele>
        <time>2011-05-04T11:53:01Z</time>
      </trkpt>
      <trkpt lat="48.32796" lon="-4.40204">
        <ele>59.10676574707</ele>
        <time>2011-05-04T11:53:10Z</time>
      </trkpt>
      <trkpt lat="48.32806" lon="-4.40187">
        <ele>59.147384643555</ele>
        <time>2011-05-04T11:53:16Z</time>
      </trkpt>
      <trkpt lat="48.32811" lon="-4.40172">
        <ele>58.791881561279</ele>
        <time>2011-05-04T11:53:21Z</time>
      </trkpt>
      <trkpt lat="48.32816" lon="-4.40156">
        <ele>58.383834838867</ele>
        <time>2011-05-04T11:53:25Z</time>
      </trkpt>
      <trkpt lat="48.32821" lon="-4.40138">
        <ele>57.729625701904</ele>
        <time>2011-05-04T11:53:31Z</time>
      </trkpt>
      <trkpt lat="48.32829" lon="-4.40119">
        <ele>57.316509246826</ele>
        <time>2011-05-04T11:53:36Z</time>
      </trkpt>
      <trkpt lat="48.32834" lon="-4.40105">
        <ele>56.91381072998</ele>
        <time>2011-05-04T11:53:41Z</time>
      </trkpt>
      <trkpt lat="48.3284" lon="-4.40092">
        <ele>56.577087402344</ele>
        <time>2011-05-04T11:53:45Z</time>
      </trkpt>
      <trkpt lat="48.32846" lon="-4.40079">
        <ele>56.401000976562</ele>
        <time>2011-05-04T11:53:49Z</time>
      </trkpt>
      <trkpt lat="48.32844" lon="-4.40073">
        <ele>55.743915557861</ele>
        <time>2011-05-04T11:53:51Z</time>
      </trkpt>
      <trkpt lat="48.3284" lon="-4.40066">
        <ele>54.515949249268</ele>
        <time>2011-05-04T11:53:53Z</time>
      </trkpt>
      <trkpt lat="48.32833" lon="-4.40059">
        <ele>52.95325088501</ele>
        <time>2011-05-04T11:53:56Z</time>
      </trkpt>
      <trkpt lat="48.32828" lon="-4.40052">
        <ele>51.606632232666</ele>
        <time>2011-05-04T11:53:59Z</time>
      </trkpt>
      <trkpt lat="48.32824" lon="-4.40047">
        <ele>50.692245483398</ele>
        <time>2011-05-04T11:54:01Z</time>
      </trkpt>
      <trkpt lat="48.32822" lon="-4.40045">
        <ele>50.231063842773</ele>
        <time>2011-05-04T11:54:02Z</time>
      </trkpt>
      <trkpt lat="48.3282" lon="-4.40041">
        <ele>49.61107635498</ele>
        <time>2011-05-04T11:54:04Z</time>
      </trkpt>
      <trkpt lat="48.32812" lon="-4.40033">
        <ele>47.838493347168</ele>
        <time>2011-05-04T11:54:08Z</time>
      </trkpt>
      <trkpt lat="48.32802" lon="-4.40025">
        <ele>45.799777984619</ele>
        <time>2011-05-04T11:54:12Z</time>
      </trkpt>
      <trkpt lat="48.3279" lon="-4.40017">
        <ele>43.596138000488</ele>
        <time>2011-05-04T11:54:17Z</time>
      </trkpt>
      <trkpt lat="48.32782" lon="-4.40019">
        <ele>42.716667175293</ele>
        <time>2011-05-04T11:54:20Z</time>
      </trkpt>
      <trkpt lat="48.32774" lon="-4.40011">
        <ele>41.014053344727</ele>
        <time>2011-05-04T11:54:24Z</time>
      </trkpt>
      <trkpt lat="48.32764" lon="-4.39989">
        <ele>38.329196929932</ele>
        <time>2011-05-04T11:54:31Z</time>
      </trkpt>
      <trkpt lat="48.32762" lon="-4.39988">
        <ele>37.943634033203</ele>
        <time>2011-05-04T11:54:32Z</time>
      </trkpt>
      <trkpt lat="48.3275" lon="-4.39988">
        <ele>36.369697570801</ele>
        <time>2011-05-04T11:54:37Z</time>
      </trkpt>
      <trkpt lat="48.32738" lon="-4.3998">
        <ele>35.015899658203</ele>
        <time>2011-05-04T11:54:42Z</time>
      </trkpt>
      <trkpt lat="48.32737" lon="-4.39975">
        <ele>34.709690093994</ele>
        <time>2011-05-04T11:54:44Z</time>
      </trkpt>
      <trkpt lat="48.32741" lon="-4.39932">
        <ele>32.900932312012</ele>
        <time>2011-05-04T11:54:55Z</time>
      </trkpt>
      <trkpt lat="48.32743" lon="-4.39922">
        <ele>32.620891571045</ele>
        <time>2011-05-04T11:54:58Z</time>
      </trkpt>
      <trkpt lat="48.32748" lon="-4.39904">
        <ele>31.941255569458</ele>
        <time>2011-05-04T11:55:03Z</time>
      </trkpt>
      <trkpt lat="48.32762" lon="-4.39871">
        <ele>30.903854370117</ele>
        <time>2011-05-04T11:55:14Z</time>
      </trkpt>
      <trkpt lat="48.32781" lon="-4.39832">
        <ele>29.882171630859</ele>
        <time>2011-05-04T11:55:26Z</time>
      </trkpt>
      <trkpt lat="48.32797" lon="-4.39796">
        <ele>29.498746871948</ele>
        <time>2011-05-04T11:55:38Z</time>
      </trkpt>
      <trkpt lat="48.32809" lon="-4.39775">
        <ele>29.670970916748</ele>
        <time>2011-05-04T11:55:45Z</time>
      </trkpt>
      <trkpt lat="48.32821" lon="-4.39752">
        <ele>29.787881851196</ele>
        <time>2011-05-04T11:55:53Z</time>
      </trkpt>
      <trkpt lat="48.32833" lon="-4.3973">
        <ele>29.753904342651</ele>
        <time>2011-05-04T11:56:01Z</time>
      </trkpt>
      <trkpt lat="48.32847" lon="-4.39699">
        <ele>29.215158462524</ele>
        <time>2011-05-04T11:56:11Z</time>
      </trkpt>
      <trkpt lat="48.32863" lon="-4.39666">
        <ele>28.814027786255</ele>
        <time>2011-05-04T11:56:22Z</time>
      </trkpt>
      <trkpt lat="48.32886" lon="-4.39629">
        <ele>28.222892761231</ele>
        <time>2011-05-04T11:56:35Z</time>
      </trkpt>
      <trkpt lat="48.32909" lon="-4.396">
        <ele>27.747009277344</ele>
        <time>2011-05-04T11:56:47Z</time>
      </trkpt>
      <trkpt lat="48.32948" lon="-4.39557">
        <ele>28.250633239746</ele>
        <time>2011-05-04T11:57:06Z</time>
      </trkpt>
      <trkpt lat="48.32973" lon="-4.39534">
        <ele>29.257019042969</ele>
        <time>2011-05-04T11:57:18Z</time>
      </trkpt>
      <trkpt lat="48.3299" lon="-4.39516">
        <ele>29.961534500122</ele>
        <time>2011-05-04T11:57:26Z</time>
      </trkpt>
      <trkpt lat="48.32998" lon="-4.39506">
        <ele>30.126152038574</ele>
        <time>2011-05-04T11:57:31Z</time>
      </trkpt>
      <trkpt lat="48.32998" lon="-4.39479">
        <ele>28.755025863648</ele>
        <time>2011-05-04T11:57:38Z</time>
      </trkpt>
      <trkpt lat="48.32996" lon="-4.39455">
        <ele>27.448945999146</ele>
        <time>2011-05-04T11:57:44Z</time>
      </trkpt>
      <trkpt lat="48.32992" lon="-4.39432">
        <ele>26.005870819092</ele>
        <time>2011-05-04T11:57:51Z</time>
      </trkpt>
      <trkpt lat="48.32983" lon="-4.39401">
        <ele>24.315656661987</ele>
        <time>2011-05-04T11:57:59Z</time>
      </trkpt>
      <trkpt lat="48.32969" lon="-4.39369">
        <ele>22.860099792481</ele>
        <time>2011-05-04T11:58:10Z</time>
      </trkpt>
      <trkpt lat="48.32957" lon="-4.39347">
        <ele>22.033931732178</ele>
        <time>2011-05-04T11:58:17Z</time>
      </trkpt>
      <trkpt lat="48.32954" lon="-4.39319">
        <ele>21.717849731445</ele>
        <time>2011-05-04T11:58:25Z</time>
      </trkpt>
      <trkpt lat="48.32953" lon="-4.39314">
        <ele>21.639863967896</ele>
        <time>2011-05-04T11:58:26Z</time>
      </trkpt>
      <trkpt lat="48.32951" lon="-4.3929">
        <ele>21.447149276733</ele>
        <time>2011-05-04T11:58:33Z</time>
      </trkpt>
      <trkpt lat="48.32961" lon="-4.39262">
        <ele>21.683277130127</ele>
        <time>2011-05-04T11:58:41Z</time>
      </trkpt>
      <trkpt lat="48.32983" lon="-4.39241">
        <ele>22.336887359619</ele>
        <time>2011-05-04T11:58:51Z</time>
      </trkpt>
      <trkpt lat="48.32998" lon="-4.3923">
        <ele>22.701358795166</ele>
        <time>2011-05-04T11:58:58Z</time>
      </trkpt>
      <trkpt lat="48.3304" lon="-4.39199">
        <ele>23.825897216797</ele>
        <time>2011-05-04T11:59:17Z</time>
      </trkpt>
      <trkpt lat="48.33048" lon="-4.39192">
        <ele>24.024452209473</ele>
        <time>2011-05-04T11:59:20Z</time>
      </trkpt>
      <trkpt lat="48.33046" lon="-4.39167">
        <ele>23.670829772949</ele>
        <time>2011-05-04T11:59:27Z</time>
      </trkpt>
      <trkpt lat="48.33033" lon="-4.39137">
        <ele>23.757202148438</ele>
        <time>2011-05-04T11:59:37Z</time>
      </trkpt>
      <trkpt lat="48.3301" lon="-4.39091">
        <ele>24.075609207153</ele>
        <time>2011-05-04T11:59:52Z</time>
      </trkpt>
      <trkpt lat="48.33" lon="-4.39059">
        <ele>24.566656112671</ele>
        <time>2011-05-04T12:00:01Z</time>
      </trkpt>
      <trkpt lat="48.32997" lon="-4.39048">
        <ele>24.771207809448</ele>
        <time>2011-05-04T12:00:05Z</time>
      </trkpt>
      <trkpt lat="48.32988" lon="-4.39009">
        <ele>25.383178710938</ele>
        <time>2011-05-04T12:00:16Z</time>
      </trkpt>
      <trkpt lat="48.32978" lon="-4.38974">
        <ele>25.535255432129</ele>
        <time>2011-05-04T12:00:26Z</time>
      </trkpt>
      <trkpt lat="48.32959" lon="-4.38939">
        <ele>25.268035888672</ele>
        <time>2011-05-04T12:00:38Z</time>
      </trkpt>
      <trkpt lat="48.32935" lon="-4.389">
        <ele>24.297943115234</ele>
        <time>2011-05-04T12:00:52Z</time>
      </trkpt>
      <trkpt lat="48.32927" lon="-4.38885">
        <ele>23.652906417847</ele>
        <time>2011-05-04T12:00:57Z</time>
      </trkpt>
      <trkpt lat="48.32926" lon="-4.38858">
        <ele>22.994207382202</ele>
        <time>2011-05-04T12:01:04Z</time>
      </trkpt>
      <trkpt lat="48.3295" lon="-4.38803">
        <ele>23.17658996582</ele>
        <time>2011-05-04T12:01:22Z</time>
      </trkpt>
      <trkpt lat="48.32957" lon="-4.3879">
        <ele>23.386739730835</ele>
        <time>2011-05-04T12:01:26Z</time>
      </trkpt>
      <trkpt lat="48.32976" lon="-4.38791">
        <ele>24.541080474854</ele>
        <time>2011-05-04T12:01:34Z</time>
      </trkpt>
      <trkpt lat="48.33001" lon="-4.38819">
        <ele>26</ele>
        <time>2011-05-04T12:01:46Z</time>
      </trkpt>
      <trkpt lat="48.3303" lon="-4.38827">
        <ele>26</ele>
        <time>2011-05-04T12:01:58Z</time>
      </trkpt>
      <trkpt lat="48.33035" lon="-4.38825">
        <ele>26</ele>
        <time>2011-05-04T12:02:00Z</time>
      </trkpt>
      <trkpt lat="48.33054" lon="-4.38799">
        <ele>26</ele>
        <time>2011-05-04T12:02:10Z</time>
      </trkpt>
      <trkpt lat="48.33065" lon="-4.38771">
        <ele>26</ele>
        <time>2011-05-04T12:02:19Z</time>
      </trkpt>
      <trkpt lat="48.33084" lon="-4.38729">
        <ele>25.783805847168</ele>
        <time>2011-05-04T12:02:33Z</time>
      </trkpt>
      <trkpt lat="48.33112" lon="-4.38675">
        <ele>26.389255523682</ele>
        <time>2011-05-04T12:02:51Z</time>
      </trkpt>
      <trkpt lat="48.3312" lon="-4.38657">
        <ele>26.878154754639</ele>
        <time>2011-05-04T12:02:57Z</time>
      </trkpt>
      <trkpt lat="48.33144" lon="-4.38613">
        <ele>28.878974914551</ele>
        <time>2011-05-04T12:03:12Z</time>
      </trkpt>
      <trkpt lat="48.3317" lon="-4.38575">
        <ele>30.793434143066</ele>
        <time>2011-05-04T12:03:26Z</time>
      </trkpt>
      <trkpt lat="48.33195" lon="-4.38524">
        <ele>30.236576080322</ele>
        <time>2011-05-04T12:03:43Z</time>
      </trkpt>
      <trkpt lat="48.33217" lon="-4.38485">
        <ele>30.534097671509</ele>
        <time>2011-05-04T12:03:57Z</time>
      </trkpt>
      <trkpt lat="48.33227" lon="-4.38476">
        <ele>30.647071838379</ele>
        <time>2011-05-04T12:04:01Z</time>
      </trkpt>
      <trkpt lat="48.33251" lon="-4.38469">
        <ele>30.972980499268</ele>
        <time>2011-05-04T12:04:11Z</time>
      </trkpt>
      <trkpt lat="48.33267" lon="-4.38473">
        <ele>30.58052444458</ele>
        <time>2011-05-04T12:04:18Z</time>
      </trkpt>
      <trkpt lat="48.33278" lon="-4.38468">
        <ele>30.390148162842</ele>
        <time>2011-05-04T12:04:22Z</time>
      </trkpt>
      <trkpt lat="48.33287" lon="-4.38448">
        <ele>30.497976303101</ele>
        <time>2011-05-04T12:04:29Z</time>
      </trkpt>
      <trkpt lat="48.33292" lon="-4.38431">
        <ele>30.729219436646</ele>
        <time>2011-05-04T12:04:34Z</time>
      </trkpt>
      <trkpt lat="48.33283" lon="-4.38412">
        <ele>30.964603424072</ele>
        <time>2011-05-04T12:04:40Z</time>
      </trkpt>
      <trkpt lat="48.3328" lon="-4.38408">
        <ele>30.933139801025</ele>
        <time>2011-05-04T12:04:42Z</time>
      </trkpt>
      <trkpt lat="48.33249" lon="-4.38371">
        <ele>30.414817810059</ele>
        <time>2011-05-04T12:04:57Z</time>
      </trkpt>
      <trkpt lat="48.33221" lon="-4.3833">
        <ele>28.904006958008</ele>
        <time>2011-05-04T12:05:13Z</time>
      </trkpt>
      <trkpt lat="48.33215" lon="-4.38322">
        <ele>28.599021911621</ele>
        <time>2011-05-04T12:05:16Z</time>
      </trkpt>
      <trkpt lat="48.33192" lon="-4.38294">
        <ele>27.439163208008</ele>
        <time>2011-05-04T12:05:28Z</time>
      </trkpt>
      <trkpt lat="48.33155" lon="-4.38257">
        <ele>25.924026489258</ele>
        <time>2011-05-04T12:05:46Z</time>
      </trkpt>
      <trkpt lat="48.33131" lon="-4.38236">
        <ele>25.498754501343</ele>
        <time>2011-05-04T12:05:57Z</time>
      </trkpt>
      <trkpt lat="48.3312" lon="-4.38225">
        <ele>25.262149810791</ele>
        <time>2011-05-04T12:06:02Z</time>
      </trkpt>
      <trkpt lat="48.33081" lon="-4.38186">
        <ele>24.091011047363</ele>
        <time>2011-05-04T12:06:21Z</time>
      </trkpt>
      <trkpt lat="48.33054" lon="-4.38152">
        <ele>21.959707260132</ele>
        <time>2011-05-04T12:06:35Z</time>
      </trkpt>
      <trkpt lat="48.33028" lon="-4.38108">
        <ele>20.426809310913</ele>
        <time>2011-05-04T12:06:51Z</time>
      </trkpt>
      <trkpt lat="48.33012" lon="-4.38068">
        <ele>19.797496795654</ele>
        <time>2011-05-04T12:07:03Z</time>
      </trkpt>
      <trkpt lat="48.32991" lon="-4.3803">
        <ele>18.821704864502</ele>
        <time>2011-05-04T12:07:16Z</time>
      </trkpt>
      <trkpt lat="48.32953" lon="-4.37989">
        <ele>19.013608932495</ele>
        <time>2011-05-04T12:07:35Z</time>
      </trkpt>
      <trkpt lat="48.32941" lon="-4.37983">
        <ele>19.297529220581</ele>
        <time>2011-05-04T12:07:40Z</time>
      </trkpt>
      <trkpt lat="48.32922" lon="-4.37999">
        <ele>19.862283706665</ele>
        <time>2011-05-04T12:07:49Z</time>
      </trkpt>
      <trkpt lat="48.3291" lon="-4.38005">
        <ele>20.024200439453</ele>
        <time>2011-05-04T12:07:54Z</time>
      </trkpt>
      <trkpt lat="48.32894" lon="-4.38011">
        <ele>20.140357971191</ele>
        <time>2011-05-04T12:08:00Z</time>
      </trkpt>
      <trkpt lat="48.32867" lon="-4.38026">
        <ele>20.285125732422</ele>
        <time>2011-05-04T12:08:12Z</time>
      </trkpt>
      <trkpt lat="48.32847" lon="-4.38048">
        <ele>20.259376525879</ele>
        <time>2011-05-04T12:08:22Z</time>
      </trkpt>
      <trkpt lat="48.32835" lon="-4.38074">
        <ele>20.096298217773</ele>
        <time>2011-05-04T12:08:30Z</time>
      </trkpt>
      <trkpt lat="48.32834" lon="-4.38076">
        <ele>20.079704284668</ele>
        <time>2011-05-04T12:08:31Z</time>
      </trkpt>
      <trkpt lat="48.32833" lon="-4.38079">
        <ele>20.045372009277</ele>
        <time>2011-05-04T12:08:32Z</time>
      </trkpt>
      <trkpt lat="48.32833" lon="-4.38082">
        <ele>20.019575119019</ele>
        <time>2011-05-04T12:08:33Z</time>
      </trkpt>
      <trkpt lat="48.32834" lon="-4.38081">
        <ele>20.017906188965</ele>
        <time>2011-05-04T12:08:33Z</time>
      </trkpt>
      <trkpt lat="48.32833" lon="-4.38082">
        <ele>20.02014541626</ele>
        <time>2011-05-04T12:08:33Z</time>
      </trkpt>
      <trkpt lat="48.32833" lon="-4.38081">
        <ele>20.029922485352</ele>
        <time>2011-05-04T12:08:34Z</time>
      </trkpt>
      <trkpt lat="48.32835" lon="-4.38079">
        <ele>20.031066894531</ele>
        <time>2011-05-04T12:08:34Z</time>
      </trkpt>
      <trkpt lat="48.32835" lon="-4.38079">
        <ele>20.039077758789</ele>
        <time>2011-05-04T12:08:34Z</time>
      </trkpt>
      <trkpt lat="48.32835" lon="-4.38079">
        <ele>20.029922485352</ele>
        <time>2011-05-04T12:08:35Z</time>
      </trkpt>
      <trkpt lat="48.32834" lon="-4.3808">
        <ele>20.026489257812</ele>
        <time>2011-05-04T12:08:35Z</time>
      </trkpt>
      <trkpt lat="48.32833" lon="-4.3808">
        <ele>20.041366577148</ele>
        <time>2011-05-04T12:08:35Z</time>
      </trkpt>
      <trkpt lat="48.32835" lon="-4.3808">
        <ele>20.021911621094</ele>
        <time>2011-05-04T12:08:36Z</time>
      </trkpt>
      <trkpt lat="48.32836" lon="-4.38079">
        <ele>20.017333984375</ele>
        <time>2011-05-04T12:08:36Z</time>
      </trkpt>
      <trkpt lat="48.32836" lon="-4.38079">
        <ele>20.023628234863</ele>
        <time>2011-05-04T12:08:36Z</time>
      </trkpt>
      <trkpt lat="48.32836" lon="-4.38079">
        <ele>20.023056030273</ele>
        <time>2011-05-04T12:08:36Z</time>
      </trkpt>
      <trkpt lat="48.32836" lon="-4.3807">
        <ele>20.128341674805</ele>
        <time>2011-05-04T12:08:39Z</time>
      </trkpt>
      <trkpt lat="48.32838" lon="-4.38067">
        <ele>20.142074584961</ele>
        <time>2011-05-04T12:08:40Z</time>
      </trkpt>
      <trkpt lat="48.32857" lon="-4.38039">
        <ele>20.242782592773</ele>
        <time>2011-05-04T12:08:51Z</time>
      </trkpt>
      <trkpt lat="48.32875" lon="-4.3802">
        <ele>20.249649047852</ele>
        <time>2011-05-04T12:08:59Z</time>
      </trkpt>
      <trkpt lat="48.32894" lon="-4.38013">
        <ele>20.10888671875</ele>
        <time>2011-05-04T12:09:07Z</time>
      </trkpt>
      <trkpt lat="48.32904" lon="-4.38009">
        <ele>20.049949645996</ele>
        <time>2011-05-04T12:09:11Z</time>
      </trkpt>
      <trkpt lat="48.32904" lon="-4.38004">
        <ele>20.106597900391</ele>
        <time>2011-05-04T12:09:12Z</time>
      </trkpt>
      <trkpt lat="48.32904" lon="-4.38011">
        <ele>20.028778076172</ele>
        <time>2011-05-04T12:09:14Z</time>
      </trkpt>
      <trkpt lat="48.32906" lon="-4.38005">
        <ele>20.058532714844</ele>
        <time>2011-05-04T12:09:16Z</time>
      </trkpt>
      <trkpt lat="48.32903" lon="-4.38001">
        <ele>20.158668518066</ele>
        <time>2011-05-04T12:09:18Z</time>
      </trkpt>
      <trkpt lat="48.32892" lon="-4.3798">
        <ele>20.293273925781</ele>
        <time>2011-05-04T12:09:25Z</time>
      </trkpt>
      <trkpt lat="48.32883" lon="-4.37957">
        <ele>20.40771484375</ele>
        <time>2011-05-04T12:09:32Z</time>
      </trkpt>
      <trkpt lat="48.32873" lon="-4.37929">
        <ele>20.522155761719</ele>
        <time>2011-05-04T12:09:40Z</time>
      </trkpt>
      <trkpt lat="48.32866" lon="-4.37916">
        <ele>20.598531723023</ele>
        <time>2011-05-04T12:09:45Z</time>
      </trkpt>
      <trkpt lat="48.3286" lon="-4.37905">
        <ele>20.486282348633</ele>
        <time>2011-05-04T12:09:49Z</time>
      </trkpt>
      <trkpt lat="48.32859" lon="-4.37899">
        <ele>20.412906646729</ele>
        <time>2011-05-04T12:09:50Z</time>
      </trkpt>
      <trkpt lat="48.32853" lon="-4.37877">
        <ele>20.170566558838</ele>
        <time>2011-05-04T12:09:56Z</time>
      </trkpt>
      <trkpt lat="48.3284" lon="-4.37842">
        <ele>19.959156036377</ele>
        <time>2011-05-04T12:10:07Z</time>
      </trkpt>
      <trkpt lat="48.32807" lon="-4.37783">
        <ele>20.593069076538</ele>
        <time>2011-05-04T12:10:28Z</time>
      </trkpt>
      <trkpt lat="48.32803" lon="-4.37773">
        <ele>20.796886444092</ele>
        <time>2011-05-04T12:10:31Z</time>
      </trkpt>
      <trkpt lat="48.32784" lon="-4.37712">
        <ele>21.862691879273</ele>
        <time>2011-05-04T12:10:49Z</time>
      </trkpt>
      <trkpt lat="48.32777" lon="-4.37696">
        <ele>22.152793884277</ele>
        <time>2011-05-04T12:10:54Z</time>
      </trkpt>
      <trkpt lat="48.32771" lon="-4.37675">
        <ele>22.309001922607</ele>
        <time>2011-05-04T12:11:00Z</time>
      </trkpt>
      <trkpt lat="48.32764" lon="-4.37637">
        <ele>22.255838394165</ele>
        <time>2011-05-04T12:11:11Z</time>
      </trkpt>
      <trkpt lat="48.32758" lon="-4.37621">
        <ele>22.273347854614</ele>
        <time>2011-05-04T12:11:15Z</time>
      </trkpt>
      <trkpt lat="48.32755" lon="-4.37596">
        <ele>22.076231002808</ele>
        <time>2011-05-04T12:11:22Z</time>
      </trkpt>
      <trkpt lat="48.3277" lon="-4.3756">
        <ele>21.245281219482</ele>
        <time>2011-05-04T12:11:34Z</time>
      </trkpt>
      <trkpt lat="48.32778" lon="-4.37537">
        <ele>20.927705764771</ele>
        <time>2011-05-04T12:11:40Z</time>
      </trkpt>
      <trkpt lat="48.32784" lon="-4.37505">
        <ele>20.66841506958</ele>
        <time>2011-05-04T12:11:49Z</time>
      </trkpt>
      <trkpt lat="48.32785" lon="-4.37498">
        <ele>20.658752441406</ele>
        <time>2011-05-04T12:11:51Z</time>
      </trkpt>
      <trkpt lat="48.32793" lon="-4.37489">
        <ele>20.789215087891</ele>
        <time>2011-05-04T12:11:55Z</time>
      </trkpt>
      <trkpt lat="48.32798" lon="-4.37488">
        <ele>21.000930786133</ele>
        <time>2011-05-04T12:11:57Z</time>
      </trkpt>
      <trkpt lat="48.32814" lon="-4.37474">
        <ele>21.431228637695</ele>
        <time>2011-05-04T12:12:04Z</time>
      </trkpt>
      <trkpt lat="48.32817" lon="-4.37469">
        <ele>21.489593505859</ele>
        <time>2011-05-04T12:12:06Z</time>
      </trkpt>
      <trkpt lat="48.32834" lon="-4.37448">
        <ele>21.722135543823</ele>
        <time>2011-05-04T12:12:15Z</time>
      </trkpt>
      <trkpt lat="48.32854" lon="-4.37411">
        <ele>20.501798629761</ele>
        <time>2011-05-04T12:12:28Z</time>
      </trkpt>
      <trkpt lat="48.32866" lon="-4.37394">
        <ele>20.369276046753</ele>
        <time>2011-05-04T12:12:34Z</time>
      </trkpt>
      <trkpt lat="48.32872" lon="-4.37382">
        <ele>20.432647705078</ele>
        <time>2011-05-04T12:12:38Z</time>
      </trkpt>
      <trkpt lat="48.32883" lon="-4.37354">
        <ele>20.842014312744</ele>
        <time>2011-05-04T12:12:47Z</time>
      </trkpt>
      <trkpt lat="48.32894" lon="-4.37327">
        <ele>21.442888259888</ele>
        <time>2011-05-04T12:12:55Z</time>
      </trkpt>
      <trkpt lat="48.32902" lon="-4.37292">
        <ele>21.78221321106</ele>
        <time>2011-05-04T12:13:05Z</time>
      </trkpt>
      <trkpt lat="48.32906" lon="-4.37269">
        <ele>22.09623336792</ele>
        <time>2011-05-04T12:13:12Z</time>
      </trkpt>
      <trkpt lat="48.32913" lon="-4.37243">
        <ele>22.154880523682</ele>
        <time>2011-05-04T12:13:19Z</time>
      </trkpt>
      <trkpt lat="48.32922" lon="-4.37221">
        <ele>19.869228363037</ele>
        <time>2011-05-04T12:13:26Z</time>
      </trkpt>
      <trkpt lat="48.32923" lon="-4.37218">
        <ele>19.487245559692</ele>
        <time>2011-05-04T12:13:27Z</time>
      </trkpt>
      <trkpt lat="48.3293" lon="-4.37213">
        <ele>18.041507720947</ele>
        <time>2011-05-04T12:13:30Z</time>
      </trkpt>
      <trkpt lat="48.32939" lon="-4.37224">
        <ele>17.676080703735</ele>
        <time>2011-05-04T12:13:35Z</time>
      </trkpt>
      <trkpt lat="48.32948" lon="-4.37233">
        <ele>16.922632217407</ele>
        <time>2011-05-04T12:13:39Z</time>
      </trkpt>
      <trkpt lat="48.32958" lon="-4.37239">
        <ele>15.849778175354</ele>
        <time>2011-05-04T12:13:43Z</time>
      </trkpt>
      <trkpt lat="48.32968" lon="-4.37246">
        <ele>14.831647872925</ele>
        <time>2011-05-04T12:13:48Z</time>
      </trkpt>
      <trkpt lat="48.32984" lon="-4.3726">
        <ele>12.145699501038</ele>
        <time>2011-05-04T12:13:55Z</time>
      </trkpt>
      <trkpt lat="48.33004" lon="-4.37277">
        <ele>8.7224225997925</ele>
        <time>2011-05-04T12:14:04Z</time>
      </trkpt>
      <trkpt lat="48.33026" lon="-4.37292">
        <ele>6.922559261322</ele>
        <time>2011-05-04T12:14:14Z</time>
      </trkpt>
      <trkpt lat="48.33033" lon="-4.37297">
        <ele>6.4556155204773</ele>
        <time>2011-05-04T12:14:17Z</time>
      </trkpt>
      <trkpt lat="48.33046" lon="-4.37284">
        <ele>5.8155436515808</ele>
        <time>2011-05-04T12:14:23Z</time>
      </trkpt>
      <trkpt lat="48.33062" lon="-4.37271">
        <ele>4.7598762512207</ele>
        <time>2011-05-04T12:14:31Z</time>
      </trkpt>
      <trkpt lat="48.33073" lon="-4.37275">
        <ele>4.0160317420959</ele>
        <time>2011-05-04T12:14:35Z</time>
      </trkpt>
      <trkpt lat="48.33116" lon="-4.37291">
        <ele>5.2633748054504</ele>
        <time>2011-05-04T12:14:53Z</time>
      </trkpt>
      <trkpt lat="48.33138" lon="-4.37283">
        <ele>6.2730498313904</ele>
        <time>2011-05-04T12:15:02Z</time>
      </trkpt>
      <trkpt lat="48.33159" lon="-4.37238">
        <ele>6.3340148925781</ele>
        <time>2011-05-04T12:15:16Z</time>
      </trkpt>
      <trkpt lat="48.33188" lon="-4.3721">
        <ele>7.5661220550537</ele>
        <time>2011-05-04T12:15:30Z</time>
      </trkpt>
      <trkpt lat="48.33208" lon="-4.37202">
        <ele>8.7666959762573</ele>
        <time>2011-05-04T12:15:39Z</time>
      </trkpt>
      <trkpt lat="48.33232" lon="-4.37188">
        <ele>9.8344697952271</ele>
        <time>2011-05-04T12:15:49Z</time>
      </trkpt>
      <trkpt lat="48.33241" lon="-4.37177">
        <ele>9.9372358322144</ele>
        <time>2011-05-04T12:15:54Z</time>
      </trkpt>
      <trkpt lat="48.33257" lon="-4.37165">
        <ele>10.433341026306</ele>
        <time>2011-05-04T12:16:01Z</time>
      </trkpt>
      <trkpt lat="48.33276" lon="-4.37179">
        <ele>12.015842437744</ele>
        <time>2011-05-04T12:16:09Z</time>
      </trkpt>
      <trkpt lat="48.33294" lon="-4.37206">
        <ele>13.769249916077</ele>
        <time>2011-05-04T12:16:19Z</time>
      </trkpt>
      <trkpt lat="48.33318" lon="-4.37235">
        <ele>15.360418319702</ele>
        <time>2011-05-04T12:16:32Z</time>
      </trkpt>
      <trkpt lat="48.33329" lon="-4.37244">
        <ele>15.812180519104</ele>
        <time>2011-05-04T12:16:37Z</time>
      </trkpt>
      <trkpt lat="48.33331" lon="-4.37243">
        <ele>15.863280296326</ele>
        <time>2011-05-04T12:16:38Z</time>
      </trkpt>
      <trkpt lat="48.33352" lon="-4.37228">
        <ele>15.572592735291</ele>
        <time>2011-05-04T12:16:47Z</time>
      </trkpt>
      <trkpt lat="48.33353" lon="-4.37215">
        <ele>15.436643600464</ele>
        <time>2011-05-04T12:16:50Z</time>
      </trkpt>
      <trkpt lat="48.33345" lon="-4.37194">
        <ele>15.287553787231</ele>
        <time>2011-05-04T12:16:57Z</time>
      </trkpt>
      <trkpt lat="48.33339" lon="-4.3718">
        <ele>15.147783279419</ele>
        <time>2011-05-04T12:17:01Z</time>
      </trkpt>
      <trkpt lat="48.33328" lon="-4.37158">
        <ele>14.366388320923</ele>
        <time>2011-05-04T12:17:09Z</time>
      </trkpt>
      <trkpt lat="48.33322" lon="-4.37141">
        <ele>13.51349067688</ele>
        <time>2011-05-04T12:17:14Z</time>
      </trkpt>
      <trkpt lat="48.33331" lon="-4.37119">
        <ele>13.219146728516</ele>
        <time>2011-05-04T12:17:20Z</time>
      </trkpt>
      <trkpt lat="48.33339" lon="-4.37112">
        <ele>13.031913757324</ele>
        <time>2011-05-04T12:17:24Z</time>
      </trkpt>
      <trkpt lat="48.33368" lon="-4.37088">
        <ele>12.151290893555</ele>
        <time>2011-05-04T12:17:37Z</time>
      </trkpt>
      <trkpt lat="48.33395" lon="-4.37061">
        <ele>11.584403038025</ele>
        <time>2011-05-04T12:17:50Z</time>
      </trkpt>
      <trkpt lat="48.33399" lon="-4.37057">
        <ele>11.550591468811</ele>
        <time>2011-05-04T12:17:52Z</time>
      </trkpt>
      <trkpt lat="48.33435" lon="-4.37022">
        <ele>10.874144554138</ele>
        <time>2011-05-04T12:18:10Z</time>
      </trkpt>
      <trkpt lat="48.33461" lon="-4.36988">
        <ele>9.7419157028198</ele>
        <time>2011-05-04T12:18:23Z</time>
      </trkpt>
      <trkpt lat="48.33479" lon="-4.36983">
        <ele>9.2571325302124</ele>
        <time>2011-05-04T12:18:30Z</time>
      </trkpt>
      <trkpt lat="48.33491" lon="-4.36983">
        <ele>8.992919921875</ele>
        <time>2011-05-04T12:18:35Z</time>
      </trkpt>
      <trkpt lat="48.33501" lon="-4.36971">
        <ele>8.6284494400024</ele>
        <time>2011-05-04T12:18:40Z</time>
      </trkpt>
      <trkpt lat="48.33527" lon="-4.36927">
        <ele>6.8735723495483</ele>
        <time>2011-05-04T12:18:56Z</time>
      </trkpt>
      <trkpt lat="48.33546" lon="-4.36907">
        <ele>5.5352020263672</ele>
        <time>2011-05-04T12:19:05Z</time>
      </trkpt>
      <trkpt lat="48.33562" lon="-4.36908">
        <ele>5.1506805419922</ele>
        <time>2011-05-04T12:19:11Z</time>
      </trkpt>
      <trkpt lat="48.33569" lon="-4.36902">
        <ele>4.3610382080078</ele>
        <time>2011-05-03T16:14:45Z</time>
      </trkpt>
      <trkpt lat="48.33572" lon="-4.36907">
        <ele>4.3198394775391</ele>
        <time>2011-05-03T16:14:46Z</time>
      </trkpt>
      <trkpt lat="48.33591" lon="-4.3692">
        <ele>3.6784267425537</ele>
        <time>2011-05-03T16:14:52Z</time>
      </trkpt>
      <trkpt lat="48.33625" lon="-4.36928">
        <ele>2.1486303806305</ele>
        <time>2011-05-03T16:15:00Z</time>
      </trkpt>
      <trkpt lat="48.33669" lon="-4.36939">
        <ele>0.017634345218539</ele>
        <time>2011-05-03T16:15:10Z</time>
      </trkpt>
      <trkpt lat="48.33718" lon="-4.36951">
        <ele>0.77291798591614</ele>
        <time>2011-05-03T16:15:21Z</time>
      </trkpt>
      <trkpt lat="48.33768" lon="-4.36962">
        <ele>2.3718149662018</ele>
        <time>2011-05-03T16:15:32Z</time>
      </trkpt>
      <trkpt lat="48.33809" lon="-4.36964">
        <ele>4.1463661193848</ele>
        <time>2011-05-03T16:15:41Z</time>
      </trkpt>
      <trkpt lat="48.33814" lon="-4.36964">
        <ele>4.3259215354919</ele>
        <time>2011-05-03T16:15:42Z</time>
      </trkpt>
      <trkpt lat="48.33844" lon="-4.36952">
        <ele>5.421745300293</ele>
        <time>2011-05-03T16:15:49Z</time>
      </trkpt>
      <trkpt lat="48.33855" lon="-4.36946">
        <ele>5.8265948295593</ele>
        <time>2011-05-03T16:15:52Z</time>
      </trkpt>
      <trkpt lat="48.33866" lon="-4.36944">
        <ele>6.3699588775635</ele>
        <time>2011-05-03T16:15:55Z</time>
      </trkpt>
      <trkpt lat="48.33885" lon="-4.3696">
        <ele>7.8166236877441</ele>
        <time>2011-05-03T16:16:01Z</time>
      </trkpt>
      <trkpt lat="48.33904" lon="-4.37001">
        <ele>10.248977661133</ele>
        <time>2011-05-03T16:16:10Z</time>
      </trkpt>
      <trkpt lat="48.33917" lon="-4.37019">
        <ele>11.237147331238</ele>
        <time>2011-05-03T16:16:15Z</time>
      </trkpt>
      <trkpt lat="48.33937" lon="-4.37025">
        <ele>12.334315299988</ele>
        <time>2011-05-03T16:16:21Z</time>
      </trkpt>
      <trkpt lat="48.33962" lon="-4.37021">
        <ele>13.578148841858</ele>
        <time>2011-05-03T16:16:28Z</time>
      </trkpt>
      <trkpt lat="48.33982" lon="-4.37027">
        <ele>14.727199554443</ele>
        <time>2011-05-03T16:16:34Z</time>
      </trkpt>
      <trkpt lat="48.34004" lon="-4.37039">
        <ele>15.821309089661</ele>
        <time>2011-05-03T16:16:41Z</time>
      </trkpt>
      <trkpt lat="48.34024" lon="-4.37046">
        <ele>15.361804962158</ele>
        <time>2011-05-03T16:16:46Z</time>
      </trkpt>
      <trkpt lat="48.34042" lon="-4.37058">
        <ele>15.022826194763</ele>
        <time>2011-05-03T16:16:51Z</time>
      </trkpt>
      <trkpt lat="48.34061" lon="-4.37053">
        <ele>14.353843688965</ele>
        <time>2011-05-03T16:16:57Z</time>
      </trkpt>
      <trkpt lat="48.34073" lon="-4.37059">
        <ele>14.04939365387</ele>
        <time>2011-05-03T16:17:01Z</time>
      </trkpt>
      <trkpt lat="48.34092" lon="-4.37086">
        <ele>14.043395996094</ele>
        <time>2011-05-03T16:17:08Z</time>
      </trkpt>
      <trkpt lat="48.34095" lon="-4.37094">
        <ele>14.375274658203</ele>
        <time>2011-05-03T16:17:11Z</time>
      </trkpt>
      <trkpt lat="48.34097" lon="-4.37098">
        <ele>14.558380126953</ele>
        <time>2011-05-03T16:17:22Z</time>
      </trkpt>
      <trkpt lat="48.34098" lon="-4.37101">
        <ele>14.652221679688</ele>
        <time>2011-05-03T16:17:24Z</time>
      </trkpt>
      <trkpt lat="48.34105" lon="-4.3711">
        <ele>15.036743164062</ele>
        <time>2011-05-03T16:17:29Z</time>
      </trkpt>
      <trkpt lat="48.34121" lon="-4.3712">
        <ele>15.332000732422</ele>
        <time>2011-05-03T16:17:37Z</time>
      </trkpt>
      <trkpt lat="48.34135" lon="-4.37121">
        <ele>15.185516357422</ele>
        <time>2011-05-03T16:17:42Z</time>
      </trkpt>
      <trkpt lat="48.34156" lon="-4.37124">
        <ele>15.057342529297</ele>
        <time>2011-05-03T16:17:47Z</time>
      </trkpt>
      <trkpt lat="48.34183" lon="-4.37123">
        <ele>15.756102561951</ele>
        <time>2011-05-03T16:17:54Z</time>
      </trkpt>
      <trkpt lat="48.34197" lon="-4.37109">
        <ele>15.664691925049</ele>
        <time>2011-05-03T16:17:58Z</time>
      </trkpt>
      <trkpt lat="48.34208" lon="-4.37089">
        <ele>14.82750415802</ele>
        <time>2011-05-03T16:18:02Z</time>
      </trkpt>
      <trkpt lat="48.34224" lon="-4.37065">
        <ele>14.230762481689</ele>
        <time>2011-05-03T16:18:08Z</time>
      </trkpt>
      <trkpt lat="48.34245" lon="-4.3704">
        <ele>13.791096687317</ele>
        <time>2011-05-03T16:18:15Z</time>
      </trkpt>
      <trkpt lat="48.34263" lon="-4.37013">
        <ele>14.124840736389</ele>
        <time>2011-05-03T16:18:22Z</time>
      </trkpt>
      <trkpt lat="48.34271" lon="-4.36997">
        <ele>14.176894187927</ele>
        <time>2011-05-03T16:18:27Z</time>
      </trkpt>
      <trkpt lat="48.3428" lon="-4.36979">
        <ele>14.594264984131</ele>
        <time>2011-05-03T16:18:32Z</time>
      </trkpt>
      <trkpt lat="48.3429" lon="-4.36946">
        <ele>14.400299072266</ele>
        <time>2011-05-03T16:18:39Z</time>
      </trkpt>
      <trkpt lat="48.34296" lon="-4.36923">
        <ele>14.012940406799</ele>
        <time>2011-05-03T16:18:44Z</time>
      </trkpt>
      <trkpt lat="48.34301" lon="-4.36904">
        <ele>13.369301795959</ele>
        <time>2011-05-03T16:18:48Z</time>
      </trkpt>
      <trkpt lat="48.34306" lon="-4.36878">
        <ele>12.183036804199</ele>
        <time>2011-05-03T16:18:53Z</time>
      </trkpt>
      <trkpt lat="48.34312" lon="-4.36853">
        <ele>11.122173309326</ele>
        <time>2011-05-03T16:18:58Z</time>
      </trkpt>
      <trkpt lat="48.34326" lon="-4.36826">
        <ele>10.206391334534</ele>
        <time>2011-05-03T16:19:04Z</time>
      </trkpt>
      <trkpt lat="48.34342" lon="-4.36806">
        <ele>9.8922882080078</ele>
        <time>2011-05-03T16:19:09Z</time>
      </trkpt>
      <trkpt lat="48.3436" lon="-4.36789">
        <ele>9.9065933227539</ele>
        <time>2011-05-03T16:19:15Z</time>
      </trkpt>
      <trkpt lat="48.34379" lon="-4.36774">
        <ele>10.172668457031</ele>
        <time>2011-05-03T16:19:20Z</time>
      </trkpt>
      <trkpt lat="48.34399" lon="-4.36757">
        <ele>10.318580627441</ele>
        <time>2011-05-03T16:19:26Z</time>
      </trkpt>
      <trkpt lat="48.34431" lon="-4.36736">
        <ele>10.348817825317</ele>
        <time>2011-05-03T16:19:35Z</time>
      </trkpt>
      <trkpt lat="48.34451" lon="-4.36731">
        <ele>10.373149871826</ele>
        <time>2011-05-03T16:19:41Z</time>
      </trkpt>
      <trkpt lat="48.34463" lon="-4.36733">
        <ele>10.638836860657</ele>
        <time>2011-05-03T16:19:45Z</time>
      </trkpt>
      <trkpt lat="48.34475" lon="-4.36727">
        <ele>10.500955581665</ele>
        <time>2011-05-03T16:19:50Z</time>
      </trkpt>
      <trkpt lat="48.34493" lon="-4.36707">
        <ele>9.816611289978</ele>
        <time>2011-05-03T16:19:56Z</time>
      </trkpt>
      <trkpt lat="48.34498" lon="-4.36701">
        <ele>9.5842370986938</ele>
        <time>2011-05-03T16:19:58Z</time>
      </trkpt>
      <trkpt lat="48.34501" lon="-4.36694">
        <ele>9.3300886154175</ele>
        <time>2011-05-03T16:20:03Z</time>
      </trkpt>
      <trkpt lat="48.34502" lon="-4.36694">
        <ele>9.4200143814087</ele>
        <time>2011-05-03T16:20:15Z</time>
      </trkpt>
      <trkpt lat="48.34505" lon="-4.36695">
        <ele>9.7400636672974</ele>
        <time>2011-05-03T16:20:25Z</time>
      </trkpt>
      <trkpt lat="48.34509" lon="-4.36695">
        <ele>10.015814781189</ele>
        <time>2011-05-03T16:20:56Z</time>
      </trkpt>
      <trkpt lat="48.3451" lon="-4.36696">
        <ele>10.135366439819</ele>
        <time>2011-05-03T16:21:19Z</time>
      </trkpt>
      <trkpt lat="48.34509" lon="-4.36697">
        <ele>10.142294883728</ele>
        <time>2011-05-03T16:21:30Z</time>
      </trkpt>
      <trkpt lat="48.34508" lon="-4.36697">
        <ele>10.061409950256</ele>
        <time>2011-05-03T16:21:51Z</time>
      </trkpt>
      <trkpt lat="48.34507" lon="-4.36696">
        <ele>9.9235668182373</ele>
        <time>2011-05-03T16:22:01Z</time>
      </trkpt>
      <trkpt lat="48.34507" lon="-4.36695">
        <ele>9.9051065444946</ele>
        <time>2011-05-03T16:22:13Z</time>
      </trkpt>
      <trkpt lat="48.34508" lon="-4.36692">
        <ele>9.8644695281982</ele>
        <time>2011-05-03T16:22:33Z</time>
      </trkpt>
      <trkpt lat="48.34501" lon="-4.36693">
        <ele>9.3548707962036</ele>
        <time>2011-05-03T16:23:14Z</time>
      </trkpt>
      <trkpt lat="48.34501" lon="-4.36692">
        <ele>9.2983417510986</ele>
        <time>2011-05-03T16:23:24Z</time>
      </trkpt>
      <trkpt lat="48.345" lon="-4.36694">
        <ele>9.3145656585693</ele>
        <time>2011-05-03T16:23:32Z</time>
      </trkpt>
      <trkpt lat="48.34497" lon="-4.36694">
        <ele>9.2840394973755</ele>
        <time>2011-05-03T16:23:45Z</time>
      </trkpt>
      <trkpt lat="48.34497" lon="-4.36703">
        <ele>9.6899509429932</ele>
        <time>2011-05-03T16:24:24Z</time>
      </trkpt>
      <trkpt lat="48.34498" lon="-4.36702">
        <ele>9.6763849258423</ele>
        <time>2011-05-03T16:24:25Z</time>
      </trkpt>
      <trkpt lat="48.345" lon="-4.36695">
        <ele>9.3876733779907</ele>
        <time>2011-05-03T16:24:32Z</time>
      </trkpt>
      <trkpt lat="48.34504" lon="-4.36694">
        <ele>9.5661039352417</ele>
        <time>2011-05-03T16:24:40Z</time>
      </trkpt>
      <trkpt lat="48.34509" lon="-4.36699">
        <ele>10.191346168518</ele>
        <time>2011-05-03T16:25:27Z</time>
      </trkpt>
      <trkpt lat="48.34509" lon="-4.36699">
        <ele>10.195313453674</ele>
        <time>2011-05-03T16:25:39Z</time>
      </trkpt>
      <trkpt lat="48.34507" lon="-4.36699">
        <ele>10.022541999817</ele>
        <time>2011-05-03T16:25:50Z</time>
      </trkpt>
      <trkpt lat="48.34504" lon="-4.36701">
        <ele>9.9713115692139</ele>
        <time>2011-05-03T16:25:59Z</time>
      </trkpt>
      <trkpt lat="48.34505" lon="-4.36702">
        <ele>10.096726417542</ele>
        <time>2011-05-03T16:26:05Z</time>
      </trkpt>
      <trkpt lat="48.34504" lon="-4.36699">
        <ele>9.8578615188599</ele>
        <time>2011-05-03T16:26:12Z</time>
      </trkpt>
      <trkpt lat="48.34504" lon="-4.36698">
        <ele>9.7999200820923</ele>
        <time>2011-05-03T16:26:16Z</time>
      </trkpt>
      <trkpt lat="48.345" lon="-4.36695">
        <ele>9.3779077529907</ele>
        <time>2011-05-03T16:26:25Z</time>
      </trkpt>
      <trkpt lat="48.34497" lon="-4.36693">
        <ele>9.2209978103638</ele>
        <time>2011-05-03T16:26:31Z</time>
      </trkpt>
      <trkpt lat="48.34498" lon="-4.36691">
        <ele>9.1073713302612</ele>
        <time>2011-05-03T16:26:40Z</time>
      </trkpt>
      <trkpt lat="48.34497" lon="-4.36683">
        <ele>8.7166862487793</ele>
        <time>2011-05-03T16:26:46Z</time>
      </trkpt>
      <trkpt lat="48.34499" lon="-4.36674">
        <ele>8.3112688064575</ele>
        <time>2011-05-03T16:26:53Z</time>
      </trkpt>
      <trkpt lat="48.34502" lon="-4.36665">
        <ele>8.0908222198486</ele>
        <time>2011-05-03T16:27:01Z</time>
      </trkpt>
      <trkpt lat="48.34507" lon="-4.36664">
        <ele>8.524959564209</ele>
        <time>2011-05-03T16:27:08Z</time>
      </trkpt>
      <trkpt lat="48.34509" lon="-4.36668">
        <ele>8.9120512008667</ele>
        <time>2011-05-03T16:27:13Z</time>
      </trkpt>
      <trkpt lat="48.34512" lon="-4.3667">
        <ele>9.2546272277832</ele>
        <time>2011-05-03T16:27:18Z</time>
      </trkpt>
      <trkpt lat="48.34512" lon="-4.36672">
        <ele>9.4004926681519</ele>
        <time>2011-05-03T16:27:26Z</time>
      </trkpt>
      <trkpt lat="48.34513" lon="-4.36674">
        <ele>9.5022792816162</ele>
        <time>2011-05-03T16:27:27Z</time>
      </trkpt>
      <trkpt lat="48.34522" lon="-4.36691">
        <ele>10.887045860291</ele>
        <time>2011-05-03T16:27:35Z</time>
      </trkpt>
      <trkpt lat="48.34529" lon="-4.36704">
        <ele>11.77580165863</ele>
        <time>2011-05-03T16:27:40Z</time>
      </trkpt>
      <trkpt lat="48.34539" lon="-4.36715">
        <ele>12.735511779785</ele>
        <time>2011-05-03T16:27:46Z</time>
      </trkpt>
      <trkpt lat="48.3455" lon="-4.36724">
        <ele>13.493688583374</ele>
        <time>2011-05-03T16:27:52Z</time>
      </trkpt>
      <trkpt lat="48.34558" lon="-4.36731">
        <ele>13.974708557129</ele>
        <time>2011-05-03T16:27:57Z</time>
      </trkpt>
      <trkpt lat="48.34565" lon="-4.36738">
        <ele>14.30698299408</ele>
        <time>2011-05-03T16:28:02Z</time>
      </trkpt>
      <trkpt lat="48.34576" lon="-4.36741">
        <ele>14.783783912659</ele>
        <time>2011-05-03T16:28:07Z</time>
      </trkpt>
      <trkpt lat="48.34589" lon="-4.36743">
        <ele>15.200562477112</ele>
        <time>2011-05-03T16:28:13Z</time>
      </trkpt>
      <trkpt lat="48.34603" lon="-4.36747">
        <ele>15.492632865906</ele>
        <time>2011-05-03T16:28:19Z</time>
      </trkpt>
      <trkpt lat="48.34618" lon="-4.36745">
        <ele>15.876994132996</ele>
        <time>2011-05-03T16:28:25Z</time>
      </trkpt>
      <trkpt lat="48.34631" lon="-4.36737">
        <ele>16.203989028931</ele>
        <time>2011-05-03T16:28:31Z</time>
      </trkpt>
      <trkpt lat="48.34636" lon="-4.36728">
        <ele>16.350791931152</ele>
        <time>2011-05-03T16:28:36Z</time>
      </trkpt>
      <trkpt lat="48.34642" lon="-4.36712">
        <ele>16.544937133789</ele>
        <time>2011-05-03T16:28:44Z</time>
      </trkpt>
      <trkpt lat="48.3465" lon="-4.36696">
        <ele>16.736755371094</ele>
        <time>2011-05-03T16:28:50Z</time>
      </trkpt>
      <trkpt lat="48.34661" lon="-4.36678">
        <ele>16.923780441284</ele>
        <time>2011-05-03T16:28:56Z</time>
      </trkpt>
      <trkpt lat="48.34668" lon="-4.36671">
        <ele>16.987638473511</ele>
        <time>2011-05-03T16:29:00Z</time>
      </trkpt>
      <trkpt lat="48.34666" lon="-4.36656">
        <ele>16.859201431274</ele>
        <time>2011-05-03T16:29:05Z</time>
      </trkpt>
      <trkpt lat="48.34652" lon="-4.36634">
        <ele>16.367380142212</ele>
        <time>2011-05-03T16:29:13Z</time>
      </trkpt>
      <trkpt lat="48.34642" lon="-4.36614">
        <ele>15.890574455261</ele>
        <time>2011-05-03T16:29:19Z</time>
      </trkpt>
      <trkpt lat="48.34628" lon="-4.36587">
        <ele>15.140016555786</ele>
        <time>2011-05-03T16:29:26Z</time>
      </trkpt>
      <trkpt lat="48.34612" lon="-4.36545">
        <ele>13.144869804382</ele>
        <time>2011-05-03T16:29:33Z</time>
      </trkpt>
      <trkpt lat="48.34604" lon="-4.36522">
        <ele>12.094856262207</ele>
        <time>2011-05-03T16:29:36Z</time>
      </trkpt>
      <trkpt lat="48.34582" lon="-4.36472">
        <ele>9.1852836608887</ele>
        <time>2011-05-03T16:29:43Z</time>
      </trkpt>
      <trkpt lat="48.34578" lon="-4.36441">
        <ele>7.0866317749023</ele>
        <time>2011-05-03T16:29:48Z</time>
      </trkpt>
      <trkpt lat="48.34579" lon="-4.36436">
        <ele>6.8444819450378</ele>
        <time>2011-05-03T16:29:49Z</time>
      </trkpt>
      <trkpt lat="48.34601" lon="-4.36397">
        <ele>4.941342830658</ele>
        <time>2011-05-03T16:29:57Z</time>
      </trkpt>
      <trkpt lat="48.34605" lon="-4.36393">
        <ele>4.7470870018005</ele>
        <time>2011-05-03T16:29:58Z</time>
      </trkpt>
      <trkpt lat="48.34623" lon="-4.36379">
        <ele>4.4136204719544</ele>
        <time>2011-05-03T16:30:03Z</time>
      </trkpt>
      <trkpt lat="48.34652" lon="-4.36378">
        <ele>5.2086000442505</ele>
        <time>2011-05-03T16:30:10Z</time>
      </trkpt>
      <trkpt lat="48.34668" lon="-4.36372">
        <ele>5.5208244323731</ele>
        <time>2011-05-03T16:30:17Z</time>
      </trkpt>
      <trkpt lat="48.34677" lon="-4.3636">
        <ele>6.2281785011292</ele>
        <time>2011-05-03T16:30:25Z</time>
      </trkpt>
      <trkpt lat="48.34686" lon="-4.36349">
        <ele>7.1174898147583</ele>
        <time>2011-05-03T16:30:33Z</time>
      </trkpt>
      <trkpt lat="48.34692" lon="-4.36339">
        <ele>7.7267651557922</ele>
        <time>2011-05-03T16:30:38Z</time>
      </trkpt>
      <trkpt lat="48.34693" lon="-4.36321">
        <ele>7.6220498085022</ele>
        <time>2011-05-03T16:30:43Z</time>
      </trkpt>
      <trkpt lat="48.34701" lon="-4.36296">
        <ele>8.2792139053345</ele>
        <time>2011-05-03T16:30:50Z</time>
      </trkpt>
      <trkpt lat="48.34708" lon="-4.3627">
        <ele>8.8687200546265</ele>
        <time>2011-05-03T16:30:58Z</time>
      </trkpt>
      <trkpt lat="48.34713" lon="-4.36258">
        <ele>9.2653427124023</ele>
        <time>2011-05-03T16:31:03Z</time>
      </trkpt>
      <trkpt lat="48.34722" lon="-4.36246">
        <ele>10.179375648498</ele>
        <time>2011-05-03T16:31:10Z</time>
      </trkpt>
      <trkpt lat="48.34731" lon="-4.36238">
        <ele>11.095633506775</ele>
        <time>2011-05-03T16:31:16Z</time>
      </trkpt>
      <trkpt lat="48.34739" lon="-4.36233">
        <ele>11.903280258179</ele>
        <time>2011-05-03T16:31:21Z</time>
      </trkpt>
      <trkpt lat="48.34748" lon="-4.36226">
        <ele>12.844445228577</ele>
        <time>2011-05-03T16:31:27Z</time>
      </trkpt>
      <trkpt lat="48.34749" lon="-4.36226">
        <ele>12.984738349915</ele>
        <time>2011-05-03T16:31:28Z</time>
      </trkpt>
      <trkpt lat="48.34758" lon="-4.36218">
        <ele>14.264770507812</ele>
        <time>2011-05-03T16:31:34Z</time>
      </trkpt>
      <trkpt lat="48.34773" lon="-4.36206">
        <ele>16.322990417481</ele>
        <time>2011-05-03T16:31:43Z</time>
      </trkpt>
      <trkpt lat="48.34781" lon="-4.36198">
        <ele>17.389007568359</ele>
        <time>2011-05-03T16:31:48Z</time>
      </trkpt>
      <trkpt lat="48.34791" lon="-4.3619">
        <ele>18.747993469238</ele>
        <time>2011-05-03T16:31:54Z</time>
      </trkpt>
      <trkpt lat="48.34793" lon="-4.36188">
        <ele>18.954559326172</ele>
        <time>2011-05-03T16:31:55Z</time>
      </trkpt>
      <trkpt lat="48.34805" lon="-4.36181">
        <ele>20.678611755371</ele>
        <time>2011-05-03T16:32:02Z</time>
      </trkpt>
      <trkpt lat="48.34819" lon="-4.36167">
        <ele>22.529935836792</ele>
        <time>2011-05-03T16:32:09Z</time>
      </trkpt>
      <trkpt lat="48.34833" lon="-4.36154">
        <ele>24.04220199585</ele>
        <time>2011-05-03T16:32:16Z</time>
      </trkpt>
      <trkpt lat="48.34842" lon="-4.36146">
        <ele>24.392496109009</ele>
        <time>2011-05-03T16:32:21Z</time>
      </trkpt>
      <trkpt lat="48.3485" lon="-4.36134">
        <ele>24.411691665649</ele>
        <time>2011-05-03T16:32:26Z</time>
      </trkpt>
      <trkpt lat="48.34862" lon="-4.36121">
        <ele>24.838380813599</ele>
        <time>2011-05-03T16:32:31Z</time>
      </trkpt>
      <trkpt lat="48.34869" lon="-4.36108">
        <ele>25.02099609375</ele>
        <time>2011-05-03T16:32:35Z</time>
      </trkpt>
      <trkpt lat="48.34879" lon="-4.36087">
        <ele>25.167379379273</ele>
        <time>2011-05-03T16:32:40Z</time>
      </trkpt>
      <trkpt lat="48.34893" lon="-4.3605">
        <ele>25.130598068237</ele>
        <time>2011-05-03T16:32:48Z</time>
      </trkpt>
      <trkpt lat="48.34901" lon="-4.36023">
        <ele>24.830078125</ele>
        <time>2011-05-03T16:32:54Z</time>
      </trkpt>
      <trkpt lat="48.34907" lon="-4.36006">
        <ele>24.796781539917</ele>
        <time>2011-05-03T16:32:58Z</time>
      </trkpt>
      <trkpt lat="48.34915" lon="-4.35982">
        <ele>24.908960342407</ele>
        <time>2011-05-03T16:33:03Z</time>
      </trkpt>
      <trkpt lat="48.34924" lon="-4.35955">
        <ele>24.797206878662</ele>
        <time>2011-05-03T16:33:09Z</time>
      </trkpt>
      <trkpt lat="48.34933" lon="-4.35936">
        <ele>24.935991287231</ele>
        <time>2011-05-03T16:33:14Z</time>
      </trkpt>
      <trkpt lat="48.34943" lon="-4.35919">
        <ele>25.266786575317</ele>
        <time>2011-05-03T16:33:19Z</time>
      </trkpt>
      <trkpt lat="48.34956" lon="-4.35899">
        <ele>25.568836212158</ele>
        <time>2011-05-03T16:33:24Z</time>
      </trkpt>
      <trkpt lat="48.34968" lon="-4.35882">
        <ele>25.946264266968</ele>
        <time>2011-05-03T16:33:29Z</time>
      </trkpt>
      <trkpt lat="48.34981" lon="-4.35862">
        <ele>26.326301574707</ele>
        <time>2011-05-03T16:33:34Z</time>
      </trkpt>
      <trkpt lat="48.34993" lon="-4.3584">
        <ele>26.467782974243</ele>
        <time>2011-05-03T16:33:39Z</time>
      </trkpt>
      <trkpt lat="48.35008" lon="-4.3581">
        <ele>26.939653396606</ele>
        <time>2011-05-03T16:33:46Z</time>
      </trkpt>
      <trkpt lat="48.35022" lon="-4.35793">
        <ele>27.811506271362</ele>
        <time>2011-05-03T16:33:52Z</time>
      </trkpt>
      <trkpt lat="48.35027" lon="-4.35791">
        <ele>28.342311859131</ele>
        <time>2011-05-03T16:33:54Z</time>
      </trkpt>
      <trkpt lat="48.35036" lon="-4.35791">
        <ele>29.519943237305</ele>
        <time>2011-05-03T16:33:59Z</time>
      </trkpt>
      <trkpt lat="48.35041" lon="-4.35786">
        <ele>29.89139175415</ele>
        <time>2011-05-03T16:34:12Z</time>
      </trkpt>
      <trkpt lat="48.35044" lon="-4.35782">
        <ele>30.094236373901</ele>
        <time>2011-05-03T16:34:15Z</time>
      </trkpt>
      <trkpt lat="48.35057" lon="-4.35766">
        <ele>30.678520202637</ele>
        <time>2011-05-03T16:34:23Z</time>
      </trkpt>
      <trkpt lat="48.35071" lon="-4.35752">
        <ele>31.650640487671</ele>
        <time>2011-05-03T16:34:29Z</time>
      </trkpt>
      <trkpt lat="48.35084" lon="-4.35737">
        <ele>32.29861831665</ele>
        <time>2011-05-03T16:34:35Z</time>
      </trkpt>
      <trkpt lat="48.35087" lon="-4.35733">
        <ele>32.225341796875</ele>
        <time>2011-05-03T16:34:37Z</time>
      </trkpt>
      <trkpt lat="48.35088" lon="-4.35732">
        <ele>32.2385597229</ele>
        <time>2011-05-03T16:34:39Z</time>
      </trkpt>
      <trkpt lat="48.35089" lon="-4.35732">
        <ele>32.298900604248</ele>
        <time>2011-05-03T16:34:48Z</time>
      </trkpt>
      <trkpt lat="48.35087" lon="-4.35738">
        <ele>32.504238128662</ele>
        <time>2011-05-03T16:34:53Z</time>
      </trkpt>
      <trkpt lat="48.35073" lon="-4.35756">
        <ele>32.177310943604</ele>
        <time>2011-05-03T16:35:01Z</time>
      </trkpt>
      <trkpt lat="48.35057" lon="-4.35776">
        <ele>31.298816680908</ele>
        <time>2011-05-03T16:35:07Z</time>
      </trkpt>
      <trkpt lat="48.35048" lon="-4.35787">
        <ele>30.725694656372</ele>
        <time>2011-05-03T16:35:11Z</time>
      </trkpt>
      <trkpt lat="48.35048" lon="-4.35795">
        <ele>31.228994369507</ele>
        <time>2011-05-03T16:35:16Z</time>
      </trkpt>
      <trkpt lat="48.35059" lon="-4.35806">
        <ele>33.183017730713</ele>
        <time>2011-05-03T16:35:24Z</time>
      </trkpt>
      <trkpt lat="48.35065" lon="-4.35816">
        <ele>34.59606552124</ele>
        <time>2011-05-03T16:35:30Z</time>
      </trkpt>
      <trkpt lat="48.3507" lon="-4.35823">
        <ele>35.6233253479</ele>
        <time>2011-05-03T16:35:34Z</time>
      </trkpt>
      <trkpt lat="48.35072" lon="-4.35828">
        <ele>36.150413513184</ele>
        <time>2011-05-03T16:35:36Z</time>
      </trkpt>
      <trkpt lat="48.35078" lon="-4.35831">
        <ele>37.115295410156</ele>
        <time>2011-05-03T16:35:41Z</time>
      </trkpt>
      <trkpt lat="48.35084" lon="-4.35826">
        <ele>37.58810043335</ele>
        <time>2011-05-03T16:35:44Z</time>
      </trkpt>
      <trkpt lat="48.35099" lon="-4.35816">
        <ele>37.741691589355</ele>
        <time>2011-05-03T16:35:51Z</time>
      </trkpt>
      <trkpt lat="48.35119" lon="-4.35805">
        <ele>38.193222045898</ele>
        <time>2011-05-03T16:35:59Z</time>
      </trkpt>
      <trkpt lat="48.35133" lon="-4.35796">
        <ele>38.370601654053</ele>
        <time>2011-05-03T16:36:05Z</time>
      </trkpt>
      <trkpt lat="48.35147" lon="-4.35779">
        <ele>38.294536590576</ele>
        <time>2011-05-03T16:36:11Z</time>
      </trkpt>
      <trkpt lat="48.3516" lon="-4.35761">
        <ele>38.151737213135</ele>
        <time>2011-05-03T16:36:17Z</time>
      </trkpt>
      <trkpt lat="48.35173" lon="-4.35745">
        <ele>37.901290893555</ele>
        <time>2011-05-03T16:36:22Z</time>
      </trkpt>
      <trkpt lat="48.35195" lon="-4.35725">
        <ele>37.36962890625</ele>
        <time>2011-05-03T16:36:29Z</time>
      </trkpt>
      <trkpt lat="48.35219" lon="-4.35704">
        <ele>36.681781768799</ele>
        <time>2011-05-03T16:36:36Z</time>
      </trkpt>
      <trkpt lat="48.35238" lon="-4.35687">
        <ele>36.051265716553</ele>
        <time>2011-05-03T16:36:43Z</time>
      </trkpt>
      <trkpt lat="48.35241" lon="-4.35686">
        <ele>35.993343353271</ele>
        <time>2011-05-03T16:36:48Z</time>
      </trkpt>
      <trkpt lat="48.3525" lon="-4.35688">
        <ele>36.288795471191</ele>
        <time>2011-05-03T16:38:03Z</time>
      </trkpt>
      <trkpt lat="48.35255" lon="-4.35702">
        <ele>37.273433685303</ele>
        <time>2011-05-03T16:38:08Z</time>
      </trkpt>
      <trkpt lat="48.35257" lon="-4.35733">
        <ele>39.247295379639</ele>
        <time>2011-05-03T16:38:15Z</time>
      </trkpt>
      <trkpt lat="48.3526" lon="-4.35766">
        <ele>41.806907653809</ele>
        <time>2011-05-03T16:38:23Z</time>
      </trkpt>
      <trkpt lat="48.35259" lon="-4.35793">
        <ele>44.041366577148</ele>
        <time>2011-05-03T16:38:32Z</time>
      </trkpt>
      <trkpt lat="48.35258" lon="-4.3581">
        <ele>45.446701049805</ele>
        <time>2011-05-03T16:38:38Z</time>
      </trkpt>
      <trkpt lat="48.35259" lon="-4.35827">
        <ele>46.918983459473</ele>
        <time>2011-05-03T16:38:44Z</time>
      </trkpt>
      <trkpt lat="48.35258" lon="-4.35845">
        <ele>48.097034454346</ele>
        <time>2011-05-03T16:38:50Z</time>
      </trkpt>
      <trkpt lat="48.35258" lon="-4.35857">
        <ele>48.879230499268</ele>
        <time>2011-05-03T16:38:55Z</time>
      </trkpt>
      <trkpt lat="48.35259" lon="-4.35872">
        <ele>49.919902801514</ele>
        <time>2011-05-03T16:39:02Z</time>
      </trkpt>
      <trkpt lat="48.35257" lon="-4.35882">
        <ele>50.385005950928</ele>
        <time>2011-05-03T16:39:06Z</time>
      </trkpt>
      <trkpt lat="48.35262" lon="-4.3589">
        <ele>51.313659667969</ele>
        <time>2011-05-03T16:39:12Z</time>
      </trkpt>
      <trkpt lat="48.35265" lon="-4.35889">
        <ele>51.474933624268</ele>
        <time>2011-05-03T16:39:14Z</time>
      </trkpt>
      <trkpt lat="48.35276" lon="-4.35883">
        <ele>51.821170806885</ele>
        <time>2011-05-03T16:39:21Z</time>
      </trkpt>
      <trkpt lat="48.35283" lon="-4.3588">
        <ele>52.034759521484</ele>
        <time>2011-05-03T16:39:26Z</time>
      </trkpt>
      <trkpt lat="48.35294" lon="-4.35878">
        <ele>52.671535491943</ele>
        <time>2011-05-03T16:39:32Z</time>
      </trkpt>
      <trkpt lat="48.35306" lon="-4.3588">
        <ele>53.647922515869</ele>
        <time>2011-05-03T16:39:39Z</time>
      </trkpt>
      <trkpt lat="48.35318" lon="-4.35884">
        <ele>54.769397735596</ele>
        <time>2011-05-03T16:39:45Z</time>
      </trkpt>
      <trkpt lat="48.35329" lon="-4.35889">
        <ele>56.022876739502</ele>
        <time>2011-05-03T16:39:51Z</time>
      </trkpt>
      <trkpt lat="48.35349" lon="-4.359">
        <ele>57.397655487061</ele>
        <time>2011-05-03T16:40:01Z</time>
      </trkpt>
      <trkpt lat="48.35363" lon="-4.35898">
        <ele>57.165313720703</ele>
        <time>2011-05-03T16:40:07Z</time>
      </trkpt>
      <trkpt lat="48.3538" lon="-4.35898">
        <ele>57.128147125244</ele>
        <time>2011-05-03T16:40:12Z</time>
      </trkpt>
      <trkpt lat="48.35402" lon="-4.35893">
        <ele>56.868007659912</ele>
        <time>2011-05-03T16:40:17Z</time>
      </trkpt>
      <trkpt lat="48.35411" lon="-4.3589">
        <ele>56.713771820068</ele>
        <time>2011-05-03T16:40:19Z</time>
      </trkpt>
      <trkpt lat="48.35429" lon="-4.35883">
        <ele>56.248973846436</ele>
        <time>2011-05-03T16:40:24Z</time>
      </trkpt>
      <trkpt lat="48.35442" lon="-4.35875">
        <ele>55.856296539307</ele>
        <time>2011-05-03T16:40:29Z</time>
      </trkpt>
      <trkpt lat="48.35452" lon="-4.35863">
        <ele>55.521858215332</ele>
        <time>2011-05-03T16:40:33Z</time>
      </trkpt>
      <trkpt lat="48.35466" lon="-4.35848">
        <ele>55.37043762207</ele>
        <time>2011-05-03T16:40:40Z</time>
      </trkpt>
      <trkpt lat="48.35476" lon="-4.35835">
        <ele>55.438159942627</ele>
        <time>2011-05-03T16:40:44Z</time>
      </trkpt>
      <trkpt lat="48.35488" lon="-4.35822">
        <ele>54.939140319824</ele>
        <time>2011-05-03T16:40:48Z</time>
      </trkpt>
      <trkpt lat="48.35501" lon="-4.3581">
        <ele>54.478404998779</ele>
        <time>2011-05-03T16:40:53Z</time>
      </trkpt>
      <trkpt lat="48.35513" lon="-4.3579">
        <ele>52.73766708374</ele>
        <time>2011-05-03T16:40:59Z</time>
      </trkpt>
      <trkpt lat="48.35515" lon="-4.35786">
        <ele>52.429176330566</ele>
        <time>2011-05-03T16:41:00Z</time>
      </trkpt>
      <trkpt lat="48.35529" lon="-4.35768">
        <ele>51.219955444336</ele>
        <time>2011-05-03T16:41:06Z</time>
      </trkpt>
      <trkpt lat="48.35543" lon="-4.3575">
        <ele>50.47297668457</ele>
        <time>2011-05-03T16:41:11Z</time>
      </trkpt>
      <trkpt lat="48.35551" lon="-4.35738">
        <ele>49.661380767822</ele>
        <time>2011-05-03T16:41:14Z</time>
      </trkpt>
      <trkpt lat="48.35567" lon="-4.35718">
        <ele>48.455387115479</ele>
        <time>2011-05-03T16:41:18Z</time>
      </trkpt>
      <trkpt lat="48.35574" lon="-4.35709">
        <ele>47.98836517334</ele>
        <time>2011-05-03T16:41:20Z</time>
      </trkpt>
      <trkpt lat="48.35589" lon="-4.3569">
        <ele>46.858684539795</ele>
        <time>2011-05-03T16:41:25Z</time>
      </trkpt>
      <trkpt lat="48.35611" lon="-4.35669">
        <ele>45.061458587646</ele>
        <time>2011-05-03T16:41:30Z</time>
      </trkpt>
      <trkpt lat="48.35615" lon="-4.35664">
        <ele>44.736949920654</ele>
        <time>2011-05-03T16:41:31Z</time>
      </trkpt>
      <trkpt lat="48.35627" lon="-4.35654">
        <ele>43.910079956055</ele>
        <time>2011-05-03T16:41:35Z</time>
      </trkpt>
      <trkpt lat="48.35629" lon="-4.35656">
        <ele>43.919246673584</ele>
        <time>2011-05-03T16:41:36Z</time>
      </trkpt>
      <trkpt lat="48.35643" lon="-4.35664">
        <ele>43.743537902832</ele>
        <time>2011-05-03T16:41:43Z</time>
      </trkpt>
      <trkpt lat="48.35666" lon="-4.35679">
        <ele>43.193416595459</ele>
        <time>2011-05-03T16:41:49Z</time>
      </trkpt>
      <trkpt lat="48.35683" lon="-4.35684">
        <ele>42.630027770996</ele>
        <time>2011-05-03T16:41:53Z</time>
      </trkpt>
      <trkpt lat="48.35698" lon="-4.35688">
        <ele>42.117332458496</ele>
        <time>2011-05-03T16:41:57Z</time>
      </trkpt>
      <trkpt lat="48.35706" lon="-4.35689">
        <ele>41.855262756348</ele>
        <time>2011-05-03T16:41:59Z</time>
      </trkpt>
      <trkpt lat="48.35724" lon="-4.35689">
        <ele>41.197227478027</ele>
        <time>2011-05-03T16:42:04Z</time>
      </trkpt>
      <trkpt lat="48.35746" lon="-4.35693">
        <ele>40.475105285645</ele>
        <time>2011-05-03T16:42:10Z</time>
      </trkpt>
      <trkpt lat="48.35748" lon="-4.35694">
        <ele>40.392135620117</ele>
        <time>2011-05-03T16:42:11Z</time>
      </trkpt>
      <trkpt lat="48.35756" lon="-4.35683">
        <ele>39.857307434082</ele>
        <time>2011-05-03T16:42:15Z</time>
      </trkpt>
      <trkpt lat="48.35759" lon="-4.35652">
        <ele>38.996776580811</ele>
        <time>2011-05-03T16:42:21Z</time>
      </trkpt>
      <trkpt lat="48.35759" lon="-4.35628">
        <ele>38.266094207764</ele>
        <time>2011-05-03T16:42:26Z</time>
      </trkpt>
      <trkpt lat="48.3576" lon="-4.35598">
        <ele>37.32377243042</ele>
        <time>2011-05-03T16:42:32Z</time>
      </trkpt>
      <trkpt lat="48.35761" lon="-4.35591">
        <ele>37.100471496582</ele>
        <time>2011-05-03T16:42:34Z</time>
      </trkpt>
      <trkpt lat="48.35761" lon="-4.35571">
        <ele>36.088298797607</ele>
        <time>2011-05-03T16:42:39Z</time>
      </trkpt>
      <trkpt lat="48.35763" lon="-4.35548">
        <ele>34.560966491699</ele>
        <time>2011-05-03T16:42:44Z</time>
      </trkpt>
      <trkpt lat="48.35761" lon="-4.35529">
        <ele>33.269302368164</ele>
        <time>2011-05-03T16:42:48Z</time>
      </trkpt>
      <trkpt lat="48.35764" lon="-4.355">
        <ele>31.542741775513</ele>
        <time>2011-05-03T16:42:53Z</time>
      </trkpt>
      <trkpt lat="48.35766" lon="-4.35486">
        <ele>30.858207702637</ele>
        <time>2011-05-03T16:42:57Z</time>
      </trkpt>
      <trkpt lat="48.35775" lon="-4.3548">
        <ele>30.901294708252</ele>
        <time>2011-05-03T16:43:02Z</time>
      </trkpt>
      <trkpt lat="48.3578" lon="-4.35474">
        <ele>30.701622009277</ele>
        <time>2011-05-03T16:43:06Z</time>
      </trkpt>
      <trkpt lat="48.35783" lon="-4.35454">
        <ele>29.746892929077</ele>
        <time>2011-05-03T16:43:10Z</time>
      </trkpt>
      <trkpt lat="48.35785" lon="-4.35447">
        <ele>29.445896148682</ele>
        <time>2011-05-03T16:43:11Z</time>
      </trkpt>
      <trkpt lat="48.35799" lon="-4.35402">
        <ele>27.708675384521</ele>
        <time>2011-05-03T16:43:18Z</time>
      </trkpt>
      <trkpt lat="48.35803" lon="-4.35387">
        <ele>27.333196640015</ele>
        <time>2011-05-03T16:43:21Z</time>
      </trkpt>
      <trkpt lat="48.35817" lon="-4.35354">
        <ele>26.51710319519</ele>
        <time>2011-05-03T16:43:28Z</time>
      </trkpt>
      <trkpt lat="48.35829" lon="-4.35334">
        <ele>25.965637207031</ele>
        <time>2011-05-03T16:43:33Z</time>
      </trkpt>
      <trkpt lat="48.35838" lon="-4.35316">
        <ele>26.2392578125</ele>
        <time>2011-05-03T16:43:37Z</time>
      </trkpt>
      <trkpt lat="48.3585" lon="-4.35295">
        <ele>26.78857421875</ele>
        <time>2011-05-03T16:43:42Z</time>
      </trkpt>
      <trkpt lat="48.35863" lon="-4.35273">
        <ele>27.4111328125</ele>
        <time>2011-05-03T16:43:48Z</time>
      </trkpt>
      <trkpt lat="48.35874" lon="-4.35251">
        <ele>27.96044921875</ele>
        <time>2011-05-03T16:43:53Z</time>
      </trkpt>
      <trkpt lat="48.35884" lon="-4.35227">
        <ele>28.359455108643</ele>
        <time>2011-05-03T16:43:59Z</time>
      </trkpt>
      <trkpt lat="48.35884" lon="-4.35225">
        <ele>28.385595321655</ele>
        <time>2011-05-03T16:44:00Z</time>
      </trkpt>
      <trkpt lat="48.35892" lon="-4.35223">
        <ele>28.70125579834</ele>
        <time>2011-05-03T16:44:06Z</time>
      </trkpt>
      <trkpt lat="48.3591" lon="-4.35229">
        <ele>29.484941482544</ele>
        <time>2011-05-03T16:44:15Z</time>
      </trkpt>
      <trkpt lat="48.35915" lon="-4.35229">
        <ele>29.688436508179</ele>
        <time>2011-05-03T16:44:17Z</time>
      </trkpt>
      <trkpt lat="48.35919" lon="-4.35219">
        <ele>29.676717758179</ele>
        <time>2011-05-03T16:44:22Z</time>
      </trkpt>
      <trkpt lat="48.35913" lon="-4.35187">
        <ele>29.146965026856</ele>
        <time>2011-05-03T16:44:29Z</time>
      </trkpt>
      <trkpt lat="48.35913" lon="-4.35147">
        <ele>28.231409072876</ele>
        <time>2011-05-03T16:44:34Z</time>
      </trkpt>
      <trkpt lat="48.35912" lon="-4.35125">
        <ele>27.410367965698</ele>
        <time>2011-05-03T16:44:37Z</time>
      </trkpt>
      <trkpt lat="48.3591" lon="-4.35106">
        <ele>26.718647003174</ele>
        <time>2011-05-03T16:44:39Z</time>
      </trkpt>
      <trkpt lat="48.35917" lon="-4.3507">
        <ele>25.669130325317</ele>
        <time>2011-05-03T16:44:44Z</time>
      </trkpt>
      <trkpt lat="48.35925" lon="-4.35053">
        <ele>25.548551559448</ele>
        <time>2011-05-03T16:44:47Z</time>
      </trkpt>
      <trkpt lat="48.35934" lon="-4.35012">
        <ele>25.058671951294</ele>
        <time>2011-05-03T16:44:53Z</time>
      </trkpt>
      <trkpt lat="48.35927" lon="-4.34987">
        <ele>24.750812530518</ele>
        <time>2011-05-03T16:44:57Z</time>
      </trkpt>
      <trkpt lat="48.3592" lon="-4.3498">
        <ele>24.591375350952</ele>
        <time>2011-05-03T16:44:59Z</time>
      </trkpt>
      <trkpt lat="48.35907" lon="-4.34973">
        <ele>24.606002807617</ele>
        <time>2011-05-03T16:45:02Z</time>
      </trkpt>
      <trkpt lat="48.35895" lon="-4.34964">
        <ele>24.750740051269</ele>
        <time>2011-05-03T16:45:05Z</time>
      </trkpt>
      <trkpt lat="48.35883" lon="-4.34935">
        <ele>25.235328674316</ele>
        <time>2011-05-03T16:45:10Z</time>
      </trkpt>
      <trkpt lat="48.35879" lon="-4.34862">
        <ele>26.137329101562</ele>
        <time>2011-05-03T16:45:21Z</time>
      </trkpt>
      <trkpt lat="48.35876" lon="-4.34804">
        <ele>27.02458190918</ele>
        <time>2011-05-03T16:45:30Z</time>
      </trkpt>
      <trkpt lat="48.35874" lon="-4.3474">
        <ele>27.935731887817</ele>
        <time>2011-05-03T16:45:40Z</time>
      </trkpt>
      <trkpt lat="48.3587" lon="-4.3469">
        <ele>27.595014572144</ele>
        <time>2011-05-03T16:45:48Z</time>
      </trkpt>
      <trkpt lat="48.35861" lon="-4.34646">
        <ele>26.670333862305</ele>
        <time>2011-05-03T16:45:54Z</time>
      </trkpt>
      <trkpt lat="48.35842" lon="-4.3459">
        <ele>24.44907951355</ele>
        <time>2011-05-03T16:46:01Z</time>
      </trkpt>
      <trkpt lat="48.35835" lon="-4.34566">
        <ele>23.209688186646</ele>
        <time>2011-05-03T16:46:04Z</time>
      </trkpt>
      <trkpt lat="48.35833" lon="-4.34518">
        <ele>20.866149902344</ele>
        <time>2011-05-03T16:46:10Z</time>
      </trkpt>
      <trkpt lat="48.35846" lon="-4.34482">
        <ele>19.271715164185</ele>
        <time>2011-05-03T16:46:14Z</time>
      </trkpt>
      <trkpt lat="48.35851" lon="-4.34476">
        <ele>18.996671676636</ele>
        <time>2011-05-03T16:46:15Z</time>
      </trkpt>
      <trkpt lat="48.35886" lon="-4.34435">
        <ele>16.663579940796</ele>
        <time>2011-05-03T16:46:22Z</time>
      </trkpt>
      <trkpt lat="48.35896" lon="-4.34411">
        <ele>15.419067382812</ele>
        <time>2011-05-03T16:46:26Z</time>
      </trkpt>
      <trkpt lat="48.35898" lon="-4.34384">
        <ele>15.048851013184</ele>
        <time>2011-05-03T16:46:29Z</time>
      </trkpt>
      <trkpt lat="48.35897" lon="-4.34301">
        <ele>14.292671203613</ele>
        <time>2011-05-03T16:46:38Z</time>
      </trkpt>
      <trkpt lat="48.35891" lon="-4.34226">
        <ele>13.627281188965</ele>
        <time>2011-05-03T16:46:46Z</time>
      </trkpt>
      <trkpt lat="48.35884" lon="-4.34152">
        <ele>12.00933265686</ele>
        <time>2011-05-03T16:46:54Z</time>
      </trkpt>
      <trkpt lat="48.35878" lon="-4.34118">
        <ele>10.278606414795</ele>
        <time>2011-05-03T16:46:58Z</time>
      </trkpt>
      <trkpt lat="48.35859" lon="-4.34064">
        <ele>7.4822807312012</ele>
        <time>2011-05-03T16:47:05Z</time>
      </trkpt>
      <trkpt lat="48.35847" lon="-4.34038">
        <ele>6.996823310852</ele>
        <time>2011-05-03T16:47:10Z</time>
      </trkpt>
      <trkpt lat="48.35841" lon="-4.34026">
        <ele>6.8879079818726</ele>
        <time>2011-05-03T16:47:13Z</time>
      </trkpt>
      <trkpt lat="48.3583" lon="-4.34004">
        <ele>6.9534683227539</ele>
        <time>2011-05-03T16:47:19Z</time>
      </trkpt>
      <trkpt lat="48.35825" lon="-4.33998">
        <ele>7.0632667541504</ele>
        <time>2011-05-03T16:47:22Z</time>
      </trkpt>
      <trkpt lat="48.35821" lon="-4.33997">
        <ele>7.1292252540588</ele>
        <time>2011-05-03T16:47:34Z</time>
      </trkpt>
      <trkpt lat="48.35817" lon="-4.33997">
        <ele>7.1308240890503</ele>
        <time>2011-05-03T16:47:40Z</time>
      </trkpt>
      <trkpt lat="48.35817" lon="-4.33998">
        <ele>7.0733184814453</ele>
        <time>2011-05-03T16:47:47Z</time>
      </trkpt>
      <trkpt lat="48.35819" lon="-4.34002">
        <ele>6.9763565063477</ele>
        <time>2011-05-03T16:48:13Z</time>
      </trkpt>
      <trkpt lat="48.3582" lon="-4.33993">
        <ele>7.3237609863281</ele>
        <time>2011-05-03T16:48:39Z</time>
      </trkpt>
      <trkpt lat="48.35819" lon="-4.33993">
        <ele>7.3122038841248</ele>
        <time>2011-05-03T16:48:52Z</time>
      </trkpt>
      <trkpt lat="48.35817" lon="-4.33995">
        <ele>7.2149066925049</ele>
        <time>2011-05-03T16:49:06Z</time>
      </trkpt>
      <trkpt lat="48.35817" lon="-4.33995">
        <ele>7.2181172370911</ele>
        <time>2011-05-03T16:49:23Z</time>
      </trkpt>
      <trkpt lat="48.35814" lon="-4.33992">
        <ele>7.3890056610107</ele>
        <time>2011-05-03T16:51:18Z</time>
      </trkpt>
      <trkpt lat="48.35813" lon="-4.33987">
        <ele>7.6306715011597</ele>
        <time>2011-05-03T16:51:25Z</time>
      </trkpt>
      <trkpt lat="48.35809" lon="-4.33982">
        <ele>7.9139957427978</ele>
        <time>2011-05-03T16:51:31Z</time>
      </trkpt>
      <trkpt lat="48.35807" lon="-4.33976">
        <ele>8.2483758926392</ele>
        <time>2011-05-03T16:51:35Z</time>
      </trkpt>
      <trkpt lat="48.35804" lon="-4.3397">
        <ele>8.5793676376343</ele>
        <time>2011-05-03T16:51:41Z</time>
      </trkpt>
      <trkpt lat="48.35804" lon="-4.33968">
        <ele>8.6893835067749</ele>
        <time>2011-05-03T16:51:42Z</time>
      </trkpt>
      <trkpt lat="48.358" lon="-4.33954">
        <ele>9.5658569335938</ele>
        <time>2011-05-03T16:51:49Z</time>
      </trkpt>
      <trkpt lat="48.358" lon="-4.33943">
        <ele>10.149468421936</ele>
        <time>2011-05-03T16:51:54Z</time>
      </trkpt>
      <trkpt lat="48.35804" lon="-4.33928">
        <ele>10.816647529602</ele>
        <time>2011-05-03T16:52:00Z</time>
      </trkpt>
      <trkpt lat="48.35807" lon="-4.33917">
        <ele>11.284326553345</ele>
        <time>2011-05-03T16:52:05Z</time>
      </trkpt>
      <trkpt lat="48.35808" lon="-4.33912">
        <ele>11.561373710632</ele>
        <time>2011-05-03T16:52:07Z</time>
      </trkpt>
      <trkpt lat="48.35815" lon="-4.33886">
        <ele>13.175482749939</ele>
        <time>2011-05-03T16:52:15Z</time>
      </trkpt>
      <trkpt lat="48.35817" lon="-4.33874">
        <ele>13.991621017456</ele>
        <time>2011-05-03T16:52:19Z</time>
      </trkpt>
      <trkpt lat="48.35818" lon="-4.33859">
        <ele>15.022497177124</ele>
        <time>2011-05-03T16:52:24Z</time>
      </trkpt>
      <trkpt lat="48.35819" lon="-4.33853">
        <ele>15.442566871643</ele>
        <time>2011-05-03T16:52:26Z</time>
      </trkpt>
      <trkpt lat="48.35821" lon="-4.33841">
        <ele>16.131011962891</ele>
        <time>2011-05-03T16:52:31Z</time>
      </trkpt>
      <trkpt lat="48.35822" lon="-4.33837">
        <ele>16.372480392456</ele>
        <time>2011-05-03T16:52:33Z</time>
      </trkpt>
      <trkpt lat="48.35823" lon="-4.33829">
        <ele>16.945341110229</ele>
        <time>2011-05-03T16:52:37Z</time>
      </trkpt>
      <trkpt lat="48.35825" lon="-4.33818">
        <ele>17.922395706177</ele>
        <time>2011-05-03T16:52:41Z</time>
      </trkpt>
      <trkpt lat="48.35828" lon="-4.33802">
        <ele>19.202857971191</ele>
        <time>2011-05-03T16:52:47Z</time>
      </trkpt>
      <trkpt lat="48.3583" lon="-4.3379">
        <ele>20.341892242432</ele>
        <time>2011-05-03T16:52:53Z</time>
      </trkpt>
      <trkpt lat="48.3583" lon="-4.33786">
        <ele>20.728855133057</ele>
        <time>2011-05-03T16:52:55Z</time>
      </trkpt>
      <trkpt lat="48.35832" lon="-4.33776">
        <ele>21.534400939941</ele>
        <time>2011-05-03T16:52:59Z</time>
      </trkpt>
      <trkpt lat="48.35834" lon="-4.33764">
        <ele>22.589328765869</ele>
        <time>2011-05-03T16:53:04Z</time>
      </trkpt>
      <trkpt lat="48.35835" lon="-4.33754">
        <ele>23.363470077515</ele>
        <time>2011-05-03T16:53:08Z</time>
      </trkpt>
      <trkpt lat="48.35836" lon="-4.3375">
        <ele>23.582481384277</ele>
        <time>2011-05-03T16:53:10Z</time>
      </trkpt>
      <trkpt lat="48.35837" lon="-4.3374">
        <ele>23.536933898926</ele>
        <time>2011-05-03T16:53:14Z</time>
      </trkpt>
      <trkpt lat="48.35839" lon="-4.3372">
        <ele>23.480978012085</ele>
        <time>2011-05-03T16:53:22Z</time>
      </trkpt>
      <trkpt lat="48.35841" lon="-4.33705">
        <ele>23.438934326172</ele>
        <time>2011-05-03T16:53:27Z</time>
      </trkpt>
      <trkpt lat="48.35843" lon="-4.33693">
        <ele>23.485811233521</ele>
        <time>2011-05-03T16:53:32Z</time>
      </trkpt>
      <trkpt lat="48.35842" lon="-4.33688">
        <ele>23.660440444946</ele>
        <time>2011-05-03T16:53:34Z</time>
      </trkpt>
      <trkpt lat="48.35843" lon="-4.33677">
        <ele>23.740854263306</ele>
        <time>2011-05-03T16:53:39Z</time>
      </trkpt>
      <trkpt lat="48.35843" lon="-4.33668">
        <ele>23.823444366455</ele>
        <time>2011-05-03T16:53:42Z</time>
      </trkpt>
      <trkpt lat="48.35852" lon="-4.3365">
        <ele>23.724502563477</ele>
        <time>2011-05-03T16:53:49Z</time>
      </trkpt>
      <trkpt lat="48.3586" lon="-4.33638">
        <ele>23.777305603027</ele>
        <time>2011-05-03T16:53:55Z</time>
      </trkpt>
      <trkpt lat="48.35871" lon="-4.33622">
        <ele>23.818868637085</ele>
        <time>2011-05-03T16:54:01Z</time>
      </trkpt>
      <trkpt lat="48.35879" lon="-4.33605">
        <ele>24.529800415039</ele>
        <time>2011-05-03T16:54:06Z</time>
      </trkpt>
      <trkpt lat="48.35881" lon="-4.33587">
        <ele>25.837642669678</ele>
        <time>2011-05-03T16:54:11Z</time>
      </trkpt>
      <trkpt lat="48.35888" lon="-4.33565">
        <ele>26.965219497681</ele>
        <time>2011-05-03T16:54:18Z</time>
      </trkpt>
      <trkpt lat="48.35893" lon="-4.33547">
        <ele>27.975633621216</ele>
        <time>2011-05-03T16:54:24Z</time>
      </trkpt>
      <trkpt lat="48.35898" lon="-4.33532">
        <ele>28.871402740479</ele>
        <time>2011-05-03T16:54:29Z</time>
      </trkpt>
      <trkpt lat="48.359" lon="-4.33524">
        <ele>29.370344161987</ele>
        <time>2011-05-03T16:54:32Z</time>
      </trkpt>
      <trkpt lat="48.35904" lon="-4.33503">
        <ele>30.889333724976</ele>
        <time>2011-05-03T16:54:39Z</time>
      </trkpt>
      <trkpt lat="48.35909" lon="-4.33477">
        <ele>31.91487121582</ele>
        <time>2011-05-03T16:54:46Z</time>
      </trkpt>
      <trkpt lat="48.35912" lon="-4.3345">
        <ele>32.875602722168</ele>
        <time>2011-05-03T16:54:53Z</time>
      </trkpt>
      <trkpt lat="48.35915" lon="-4.33422">
        <ele>33.843772888184</ele>
        <time>2011-05-03T16:55:00Z</time>
      </trkpt>
      <trkpt lat="48.35919" lon="-4.334">
        <ele>33.84228515625</ele>
        <time>2011-05-03T16:55:06Z</time>
      </trkpt>
      <trkpt lat="48.35922" lon="-4.33381">
        <ele>33.731830596924</ele>
        <time>2011-05-03T16:55:11Z</time>
      </trkpt>
      <trkpt lat="48.35921" lon="-4.33356">
        <ele>33.85075378418</ele>
        <time>2011-05-03T16:55:18Z</time>
      </trkpt>
      <trkpt lat="48.35917" lon="-4.33321">
        <ele>33.695747375488</ele>
        <time>2011-05-03T16:55:24Z</time>
      </trkpt>
      <trkpt lat="48.35911" lon="-4.33284">
        <ele>32.769836425781</ele>
        <time>2011-05-03T16:55:29Z</time>
      </trkpt>
      <trkpt lat="48.35903" lon="-4.33238">
        <ele>31.609777450561</ele>
        <time>2011-05-03T16:55:35Z</time>
      </trkpt>
      <trkpt lat="48.35902" lon="-4.33232">
        <ele>31.454944610596</ele>
        <time>2011-05-03T16:55:36Z</time>
      </trkpt>
      <trkpt lat="48.35899" lon="-4.33221">
        <ele>31.157264709473</ele>
        <time>2011-05-03T16:55:38Z</time>
      </trkpt>
      <trkpt lat="48.35896" lon="-4.33204">
        <ele>30.668144226074</ele>
        <time>2011-05-03T16:55:43Z</time>
      </trkpt>
      <trkpt lat="48.35895" lon="-4.33175">
        <ele>29.899608612061</ele>
        <time>2011-05-03T16:55:48Z</time>
      </trkpt>
      <trkpt lat="48.35896" lon="-4.33128">
        <ele>28.563972473144</ele>
        <time>2011-05-03T16:55:55Z</time>
      </trkpt>
      <trkpt lat="48.35902" lon="-4.33068">
        <ele>27.256458282471</ele>
        <time>2011-05-03T16:56:03Z</time>
      </trkpt>
      <trkpt lat="48.35908" lon="-4.33038">
        <ele>26.738151550293</ele>
        <time>2011-05-03T16:56:07Z</time>
      </trkpt>
      <trkpt lat="48.35927" lon="-4.32965">
        <ele>25.723300933838</ele>
        <time>2011-05-03T16:56:16Z</time>
      </trkpt>
      <trkpt lat="48.35949" lon="-4.32886">
        <ele>24.817220687866</ele>
        <time>2011-05-03T16:56:25Z</time>
      </trkpt>
      <trkpt lat="48.35968" lon="-4.32811">
        <ele>23.846935272217</ele>
        <time>2011-05-03T16:56:34Z</time>
      </trkpt>
      <trkpt lat="48.35983" lon="-4.32741">
        <ele>23.373828887939</ele>
        <time>2011-05-03T16:56:42Z</time>
      </trkpt>
      <trkpt lat="48.35984" lon="-4.32684">
        <ele>23.276042938232</ele>
        <time>2011-05-03T16:56:49Z</time>
      </trkpt>
      <trkpt lat="48.35985" lon="-4.32631">
        <ele>23.437498092651</ele>
        <time>2011-05-03T16:56:56Z</time>
      </trkpt>
      <trkpt lat="48.35992" lon="-4.3259">
        <ele>24.191730499268</ele>
        <time>2011-05-03T16:57:02Z</time>
      </trkpt>
      <trkpt lat="48.35995" lon="-4.32578">
        <ele>24.400499343872</ele>
        <time>2011-05-03T16:57:04Z</time>
      </trkpt>
      <trkpt lat="48.36008" lon="-4.3251">
        <ele>23.904058456421</ele>
        <time>2011-05-03T16:57:14Z</time>
      </trkpt>
      <trkpt lat="48.36008" lon="-4.32456">
        <ele>20.391153335571</ele>
        <time>2011-05-03T16:57:21Z</time>
      </trkpt>
      <trkpt lat="48.36016" lon="-4.32397">
        <ele>16.66904258728</ele>
        <time>2011-05-03T16:57:28Z</time>
      </trkpt>
      <trkpt lat="48.36027" lon="-4.32366">
        <ele>15.217788696289</ele>
        <time>2011-05-03T16:57:33Z</time>
      </trkpt>
      <trkpt lat="48.36041" lon="-4.32335">
        <ele>13.556676864624</ele>
        <time>2011-05-03T16:57:39Z</time>
      </trkpt>
      <trkpt lat="48.36042" lon="-4.32322">
        <ele>12.86576461792</ele>
        <time>2011-05-03T16:57:41Z</time>
      </trkpt>
      <trkpt lat="48.36046" lon="-4.323">
        <ele>11.640362739563</ele>
        <time>2011-05-03T16:57:45Z</time>
      </trkpt>
      <trkpt lat="48.36048" lon="-4.32277">
        <ele>10.220321655273</ele>
        <time>2011-05-03T16:57:50Z</time>
      </trkpt>
      <trkpt lat="48.36052" lon="-4.32258">
        <ele>9.1206312179565</ele>
        <time>2011-05-03T16:57:56Z</time>
      </trkpt>
      <trkpt lat="48.36052" lon="-4.32254">
        <ele>8.8488492965698</ele>
        <time>2011-05-03T16:58:01Z</time>
      </trkpt>
      <trkpt lat="48.36053" lon="-4.32245">
        <ele>8.5296678543091</ele>
        <time>2011-05-03T16:58:07Z</time>
      </trkpt>
      <trkpt lat="48.36056" lon="-4.32224">
        <ele>8.1672096252441</ele>
        <time>2011-05-03T16:58:13Z</time>
      </trkpt>
      <trkpt lat="48.36061" lon="-4.32208">
        <ele>7.9600605964661</ele>
        <time>2011-05-03T16:58:18Z</time>
      </trkpt>
      <trkpt lat="48.36067" lon="-4.32186">
        <ele>7.7383680343628</ele>
        <time>2011-05-03T16:58:24Z</time>
      </trkpt>
      <trkpt lat="48.36073" lon="-4.32163">
        <ele>7.5138635635376</ele>
        <time>2011-05-03T16:58:30Z</time>
      </trkpt>
      <trkpt lat="48.36082" lon="-4.32139">
        <ele>6.9486975669861</ele>
        <time>2011-05-03T16:58:36Z</time>
      </trkpt>
      <trkpt lat="48.36086" lon="-4.32125">
        <ele>6.5544104576111</ele>
        <time>2011-05-03T16:58:40Z</time>
      </trkpt>
      <trkpt lat="48.36092" lon="-4.32112">
        <ele>6.2007808685303</ele>
        <time>2011-05-03T16:58:45Z</time>
      </trkpt>
      <trkpt lat="48.36098" lon="-4.32099">
        <ele>5.8901948928833</ele>
        <time>2011-05-03T16:58:49Z</time>
      </trkpt>
      <trkpt lat="48.361" lon="-4.32097">
        <ele>5.8350791931152</ele>
        <time>2011-05-03T16:58:50Z</time>
      </trkpt>
      <trkpt lat="48.36104" lon="-4.32087">
        <ele>5.6220817565918</ele>
        <time>2011-05-03T16:58:55Z</time>
      </trkpt>
      <trkpt lat="48.36109" lon="-4.32081">
        <ele>5.4981074333191</ele>
        <time>2011-05-03T16:59:07Z</time>
      </trkpt>
      <trkpt lat="48.36113" lon="-4.32075">
        <ele>5.3618083000183</ele>
        <time>2011-05-03T16:59:14Z</time>
      </trkpt>
      <trkpt lat="48.36115" lon="-4.3207">
        <ele>5.1872973442078</ele>
        <time>2011-05-03T16:59:20Z</time>
      </trkpt>
      <trkpt lat="48.36117" lon="-4.32064">
        <ele>4.9643821716309</ele>
        <time>2011-05-03T16:59:27Z</time>
      </trkpt>
      <trkpt lat="48.36121" lon="-4.32059">
        <ele>4.8592476844788</ele>
        <time>2011-05-03T16:59:33Z</time>
      </trkpt>
      <trkpt lat="48.36124" lon="-4.32051">
        <ele>4.6091799736023</ele>
        <time>2011-05-03T16:59:41Z</time>
      </trkpt>
      <trkpt lat="48.36126" lon="-4.32048">
        <ele>4.558943271637</ele>
        <time>2011-05-03T16:59:46Z</time>
      </trkpt>
      <trkpt lat="48.36129" lon="-4.32042">
        <ele>4.3986678123474</ele>
        <time>2011-05-03T16:59:53Z</time>
      </trkpt>
      <trkpt lat="48.36134" lon="-4.32036">
        <ele>4.3102111816406</ele>
        <time>2011-05-03T16:59:59Z</time>
      </trkpt>
      <trkpt lat="48.36137" lon="-4.32028">
        <ele>4.0422325134277</ele>
        <time>2011-05-03T17:00:05Z</time>
      </trkpt>
      <trkpt lat="48.36142" lon="-4.32018">
        <ele>3.8263914585113</ele>
        <time>2011-05-03T17:00:14Z</time>
      </trkpt>
      <trkpt lat="48.36147" lon="-4.32012">
        <ele>3.7567777633667</ele>
        <time>2011-05-03T17:00:22Z</time>
      </trkpt>
      <trkpt lat="48.36153" lon="-4.32003">
        <ele>3.635550737381</ele>
        <time>2011-05-03T17:00:31Z</time>
      </trkpt>
      <trkpt lat="48.36155" lon="-4.31999">
        <ele>3.5720760822296</ele>
        <time>2011-05-03T17:00:37Z</time>
      </trkpt>
      <trkpt lat="48.36158" lon="-4.31994">
        <ele>3.556759595871</ele>
        <time>2011-05-03T17:00:44Z</time>
      </trkpt>
      <trkpt lat="48.36164" lon="-4.31979">
        <ele>3.4389889240265</ele>
        <time>2011-05-03T17:00:50Z</time>
      </trkpt>
      <trkpt lat="48.36168" lon="-4.3197">
        <ele>3.3479523658752</ele>
        <time>2011-05-03T17:00:54Z</time>
      </trkpt>
      <trkpt lat="48.3617" lon="-4.31969">
        <ele>3.3736426830292</ele>
        <time>2011-05-03T17:01:02Z</time>
      </trkpt>
      <trkpt lat="48.36172" lon="-4.31964">
        <ele>3.3422403335571</ele>
        <time>2011-05-03T17:01:08Z</time>
      </trkpt>
      <trkpt lat="48.36172" lon="-4.31961">
        <ele>3.2709007263184</ele>
        <time>2011-05-03T17:01:14Z</time>
      </trkpt>
      <trkpt lat="48.36174" lon="-4.31959">
        <ele>3.2781670093536</ele>
        <time>2011-05-03T17:01:20Z</time>
      </trkpt>
      <trkpt lat="48.36174" lon="-4.31958">
        <ele>3.2335257530212</ele>
        <time>2011-05-03T17:01:37Z</time>
      </trkpt>
      <trkpt lat="48.36175" lon="-4.31956">
        <ele>3.2217657566071</ele>
        <time>2011-05-03T17:01:42Z</time>
      </trkpt>
      <trkpt lat="48.36176" lon="-4.31953">
        <ele>3.1985139846802</ele>
        <time>2011-05-03T17:01:48Z</time>
      </trkpt>
      <trkpt lat="48.36179" lon="-4.31944">
        <ele>3.0465207099915</ele>
        <time>2011-05-03T17:01:57Z</time>
      </trkpt>
      <trkpt lat="48.36181" lon="-4.31941">
        <ele>3.026905298233</ele>
        <time>2011-05-03T17:02:04Z</time>
      </trkpt>
      <trkpt lat="48.36185" lon="-4.31937">
        <ele>3.0355610847473</ele>
        <time>2011-05-03T17:02:10Z</time>
      </trkpt>
      <trkpt lat="48.3619" lon="-4.31933">
        <ele>3.0465757846832</ele>
        <time>2011-05-03T17:02:18Z</time>
      </trkpt>
      <trkpt lat="48.36193" lon="-4.31929">
        <ele>3.0033535957336</ele>
        <time>2011-05-03T17:02:24Z</time>
      </trkpt>
      <trkpt lat="48.36195" lon="-4.31928">
        <ele>3.0386044979095</ele>
        <time>2011-05-03T17:02:26Z</time>
      </trkpt>
      <trkpt lat="48.36211" lon="-4.3191">
        <ele>3.0643310546875</ele>
        <time>2011-05-03T17:02:33Z</time>
      </trkpt>
      <trkpt lat="48.36218" lon="-4.31891">
        <ele>3.2291259765625</ele>
        <time>2011-05-03T17:02:37Z</time>
      </trkpt>
      <trkpt lat="48.36225" lon="-4.31875">
        <ele>3.3939208984375</ele>
        <time>2011-05-03T17:02:42Z</time>
      </trkpt>
      <trkpt lat="48.36225" lon="-4.31871">
        <ele>3.3939208984375</ele>
        <time>2011-05-03T17:02:47Z</time>
      </trkpt>
      <trkpt lat="48.36226" lon="-4.31868">
        <ele>3.42138671875</ele>
        <time>2011-05-03T17:02:52Z</time>
      </trkpt>
      <trkpt lat="48.36229" lon="-4.31864">
        <ele>3.49462890625</ele>
        <time>2011-05-03T17:02:57Z</time>
      </trkpt>
      <trkpt lat="48.36233" lon="-4.31858">
        <ele>3.5953369140625</ele>
        <time>2011-05-03T17:03:04Z</time>
      </trkpt>
      <trkpt lat="48.36235" lon="-4.31852">
        <ele>3.64111328125</ele>
        <time>2011-05-03T17:03:07Z</time>
      </trkpt>
      <trkpt lat="48.36239" lon="-4.31836">
        <ele>3.732666015625</ele>
        <time>2011-05-03T17:03:14Z</time>
      </trkpt>
      <trkpt lat="48.36242" lon="-4.31817">
        <ele>4.0220918655395</ele>
        <time>2011-05-03T17:03:19Z</time>
      </trkpt>
      <trkpt lat="48.36245" lon="-4.31792">
        <ele>4.4117422103882</ele>
        <time>2011-05-03T17:03:25Z</time>
      </trkpt>
      <trkpt lat="48.3625" lon="-4.31781">
        <ele>4.6232695579529</ele>
        <time>2011-05-03T17:03:28Z</time>
      </trkpt>
      <trkpt lat="48.36245" lon="-4.31764">
        <ele>4.759822845459</ele>
        <time>2011-05-03T17:03:32Z</time>
      </trkpt>
      <trkpt lat="48.36228" lon="-4.31742">
        <ele>5.0643105506897</ele>
        <time>2011-05-03T17:03:39Z</time>
      </trkpt>
      <trkpt lat="48.36215" lon="-4.31724">
        <ele>5.7691535949707</ele>
        <time>2011-05-03T17:03:44Z</time>
      </trkpt>
      <trkpt lat="48.36197" lon="-4.31694">
        <ele>7.2409586906433</ele>
        <time>2011-05-03T17:03:51Z</time>
      </trkpt>
      <trkpt lat="48.36177" lon="-4.31677">
        <ele>8.257887840271</ele>
        <time>2011-05-03T17:03:57Z</time>
      </trkpt>
      <trkpt lat="48.36162" lon="-4.31674">
        <ele>8.5700588226318</ele>
        <time>2011-05-03T17:04:02Z</time>
      </trkpt>
      <trkpt lat="48.36153" lon="-4.31684">
        <ele>8.0130043029785</ele>
        <time>2011-05-03T17:04:07Z</time>
      </trkpt>
      <trkpt lat="48.36145" lon="-4.31696">
        <ele>7.4101419448853</ele>
        <time>2011-05-03T17:04:10Z</time>
      </trkpt>
      <trkpt lat="48.36126" lon="-4.31715">
        <ele>6.6731767654419</ele>
        <time>2011-05-03T17:04:16Z</time>
      </trkpt>
      <trkpt lat="48.36111" lon="-4.31733">
        <ele>6.1087718009949</ele>
        <time>2011-05-03T17:04:21Z</time>
      </trkpt>
      <trkpt lat="48.36093" lon="-4.3176">
        <ele>5.4149451255798</ele>
        <time>2011-05-03T17:04:27Z</time>
      </trkpt>
      <trkpt lat="48.36082" lon="-4.3178">
        <ele>4.9312782287598</ele>
        <time>2011-05-03T17:04:31Z</time>
      </trkpt>
      <trkpt lat="48.36077" lon="-4.31789">
        <ele>4.5903635025024</ele>
        <time>2011-05-03T17:04:33Z</time>
      </trkpt>
      <trkpt lat="48.36053" lon="-4.31828">
        <ele>3.5157220363617</ele>
        <time>2011-05-03T17:04:41Z</time>
      </trkpt>
      <trkpt lat="48.36047" lon="-4.31838">
        <ele>3.3377583026886</ele>
        <time>2011-05-03T17:04:43Z</time>
      </trkpt>
      <trkpt lat="48.3602" lon="-4.31881">
        <ele>3.0462954044342</ele>
        <time>2011-05-03T17:04:52Z</time>
      </trkpt>
      <trkpt lat="48.36015" lon="-4.3189">
        <ele>3.0210032463074</ele>
        <time>2011-05-03T17:04:54Z</time>
      </trkpt>
      <trkpt lat="48.36" lon="-4.31914">
        <ele>3.0373439788818</ele>
        <time>2011-05-03T17:05:00Z</time>
      </trkpt>
      <trkpt lat="48.3599" lon="-4.31914">
        <ele>3.040486574173</ele>
        <time>2011-05-03T17:05:03Z</time>
      </trkpt>
      <trkpt lat="48.35963" lon="-4.31911">
        <ele>3.1065471172333</ele>
        <time>2011-05-03T17:05:11Z</time>
      </trkpt>
      <trkpt lat="48.35946" lon="-4.31914">
        <ele>3.046383857727</ele>
        <time>2011-05-03T17:05:16Z</time>
      </trkpt>
      <trkpt lat="48.35933" lon="-4.31933">
        <ele>2.6177825927734</ele>
        <time>2011-05-03T17:05:21Z</time>
      </trkpt>
      <trkpt lat="48.3592" lon="-4.3195">
        <ele>2.2103729248047</ele>
        <time>2011-05-03T17:05:26Z</time>
      </trkpt>
      <trkpt lat="48.35905" lon="-4.31959">
        <ele>2.2448120117188</ele>
        <time>2011-05-03T17:05:31Z</time>
      </trkpt>
      <trkpt lat="48.35889" lon="-4.31962">
        <ele>2.5755462646484</ele>
        <time>2011-05-03T17:05:36Z</time>
      </trkpt>
      <trkpt lat="48.35864" lon="-4.31967">
        <ele>3.0516204833984</ele>
        <time>2011-05-03T17:05:43Z</time>
      </trkpt>
      <trkpt lat="48.35845" lon="-4.3198">
        <ele>3.1900939941406</ele>
        <time>2011-05-03T17:05:49Z</time>
      </trkpt>
      <trkpt lat="48.35834" lon="-4.31993">
        <ele>3.1454620361328</ele>
        <time>2011-05-03T17:05:53Z</time>
      </trkpt>
      <trkpt lat="48.35822" lon="-4.32017">
        <ele>3.4214062690735</ele>
        <time>2011-05-03T17:05:59Z</time>
      </trkpt>
      <trkpt lat="48.3582" lon="-4.32023">
        <ele>3.3802461624145</ele>
        <time>2011-05-03T17:06:01Z</time>
      </trkpt>
      <trkpt lat="48.35815" lon="-4.32023">
        <ele>3.6999688148498</ele>
        <time>2011-05-03T17:06:06Z</time>
      </trkpt>
      <trkpt lat="48.35808" lon="-4.32008">
        <ele>4.8110957145691</ele>
        <time>2011-05-03T17:06:12Z</time>
      </trkpt>
      <trkpt lat="48.35798" lon="-4.31989">
        <ele>6.4159059524536</ele>
        <time>2011-05-03T17:06:20Z</time>
      </trkpt>
      <trkpt lat="48.3579" lon="-4.31973">
        <ele>7.7984352111816</ele>
        <time>2011-05-03T17:06:27Z</time>
      </trkpt>
      <trkpt lat="48.35783" lon="-4.31961">
        <ele>9.0022678375244</ele>
        <time>2011-05-03T17:06:34Z</time>
      </trkpt>
      <trkpt lat="48.35776" lon="-4.31951">
        <ele>10.174911499023</ele>
        <time>2011-05-03T17:06:40Z</time>
      </trkpt>
      <trkpt lat="48.35772" lon="-4.31942">
        <ele>11.14630317688</ele>
        <time>2011-05-03T17:06:46Z</time>
      </trkpt>
      <trkpt lat="48.35771" lon="-4.3194">
        <ele>11.305031776428</ele>
        <time>2011-05-03T17:06:47Z</time>
      </trkpt>
      <trkpt lat="48.3577" lon="-4.31939">
        <ele>11.509336471558</ele>
        <time>2011-05-03T17:06:49Z</time>
      </trkpt>
      <trkpt lat="48.35766" lon="-4.31928">
        <ele>12.464855194092</ele>
        <time>2011-05-03T17:06:55Z</time>
      </trkpt>
      <trkpt lat="48.35763" lon="-4.3191">
        <ele>13.579229354858</ele>
        <time>2011-05-03T17:07:02Z</time>
      </trkpt>
      <trkpt lat="48.35762" lon="-4.31908">
        <ele>13.663669586182</ele>
        <time>2011-05-03T17:07:03Z</time>
      </trkpt>
      <trkpt lat="48.35763" lon="-4.31888">
        <ele>13.919984817505</ele>
        <time>2011-05-03T17:07:10Z</time>
      </trkpt>
      <trkpt lat="48.35766" lon="-4.31867">
        <ele>14.00433921814</ele>
        <time>2011-05-03T17:07:17Z</time>
      </trkpt>
      <trkpt lat="48.35765" lon="-4.31853">
        <ele>14.376468658447</ele>
        <time>2011-05-03T17:07:22Z</time>
      </trkpt>
      <trkpt lat="48.35754" lon="-4.31838">
        <ele>15.602252960205</ele>
        <time>2011-05-03T17:07:31Z</time>
      </trkpt>
      <trkpt lat="48.35744" lon="-4.31828">
        <ele>17.031352996826</ele>
        <time>2011-05-03T17:07:39Z</time>
      </trkpt>
      <trkpt lat="48.3574" lon="-4.3182">
        <ele>17.737344741821</ele>
        <time>2011-05-03T17:07:44Z</time>
      </trkpt>
      <trkpt lat="48.3573" lon="-4.31806">
        <ele>19.216121673584</ele>
        <time>2011-05-03T17:07:51Z</time>
      </trkpt>
      <trkpt lat="48.35724" lon="-4.31799">
        <ele>20.099716186523</ele>
        <time>2011-05-03T17:07:56Z</time>
      </trkpt>
      <trkpt lat="48.35714" lon="-4.31789">
        <ele>21.516262054443</ele>
        <time>2011-05-03T17:08:04Z</time>
      </trkpt>
      <trkpt lat="48.35706" lon="-4.3178">
        <ele>22.493848800659</ele>
        <time>2011-05-03T17:08:11Z</time>
      </trkpt>
      <trkpt lat="48.35694" lon="-4.3177">
        <ele>23.947996139526</ele>
        <time>2011-05-03T17:08:19Z</time>
      </trkpt>
      <trkpt lat="48.35683" lon="-4.31759">
        <ele>25.191148757935</ele>
        <time>2011-05-03T17:08:27Z</time>
      </trkpt>
      <trkpt lat="48.35672" lon="-4.31751">
        <ele>26.419929504394</ele>
        <time>2011-05-03T17:08:33Z</time>
      </trkpt>
      <trkpt lat="48.35657" lon="-4.31743">
        <ele>26.809610366821</ele>
        <time>2011-05-03T17:08:39Z</time>
      </trkpt>
      <trkpt lat="48.35647" lon="-4.3174">
        <ele>26.828771591186</ele>
        <time>2011-05-03T17:08:44Z</time>
      </trkpt>
      <trkpt lat="48.35637" lon="-4.31735">
        <ele>26.836791992188</ele>
        <time>2011-05-03T17:08:50Z</time>
      </trkpt>
      <trkpt lat="48.35628" lon="-4.31724">
        <ele>26.65704536438</ele>
        <time>2011-05-03T17:08:55Z</time>
      </trkpt>
      <trkpt lat="48.35617" lon="-4.31691">
        <ele>26.018964767456</ele>
        <time>2011-05-03T17:09:03Z</time>
      </trkpt>
      <trkpt lat="48.35616" lon="-4.31646">
        <ele>25.114442825317</ele>
        <time>2011-05-03T17:09:11Z</time>
      </trkpt>
      <trkpt lat="48.3561" lon="-4.31616">
        <ele>24.911298751831</ele>
        <time>2011-05-03T17:09:17Z</time>
      </trkpt>
      <trkpt lat="48.35597" lon="-4.31596">
        <ele>25.339502334595</ele>
        <time>2011-05-03T17:09:23Z</time>
      </trkpt>
      <trkpt lat="48.35583" lon="-4.31577">
        <ele>25.91979598999</ele>
        <time>2011-05-03T17:09:30Z</time>
      </trkpt>
      <trkpt lat="48.35582" lon="-4.31574">
        <ele>25.874578475952</ele>
        <time>2011-05-03T17:09:31Z</time>
      </trkpt>
      <trkpt lat="48.35586" lon="-4.31552">
        <ele>25.516910552979</ele>
        <time>2011-05-03T17:09:36Z</time>
      </trkpt>
      <trkpt lat="48.35603" lon="-4.31501">
        <ele>24.769653320312</ele>
        <time>2011-05-03T17:09:45Z</time>
      </trkpt>
      <trkpt lat="48.35609" lon="-4.31481">
        <ele>24.832988739014</ele>
        <time>2011-05-03T17:09:49Z</time>
      </trkpt>
      <trkpt lat="48.35604" lon="-4.31466">
        <ele>24.954116821289</ele>
        <time>2011-05-03T17:09:53Z</time>
      </trkpt>
      <trkpt lat="48.35597" lon="-4.31468">
        <ele>24.961038589477</ele>
        <time>2011-05-03T17:09:55Z</time>
      </trkpt>
      <trkpt lat="48.35572" lon="-4.31486">
        <ele>24.95645904541</ele>
        <time>2011-05-03T17:10:01Z</time>
      </trkpt>
      <trkpt lat="48.35543" lon="-4.31503">
        <ele>25.02054977417</ele>
        <time>2011-05-03T17:10:08Z</time>
      </trkpt>
      <trkpt lat="48.35539" lon="-4.31505">
        <ele>25.029405593872</ele>
        <time>2011-05-03T17:10:09Z</time>
      </trkpt>
      <trkpt lat="48.3553" lon="-4.3151">
        <ele>25.04217338562</ele>
        <time>2011-05-03T17:10:12Z</time>
      </trkpt>
      <trkpt lat="48.35512" lon="-4.31518">
        <ele>25.030179977417</ele>
        <time>2011-05-03T17:10:18Z</time>
      </trkpt>
      <trkpt lat="48.35483" lon="-4.31529">
        <ele>25.33353805542</ele>
        <time>2011-05-03T17:10:25Z</time>
      </trkpt>
      <trkpt lat="48.35448" lon="-4.31538">
        <ele>25.951400756836</ele>
        <time>2011-05-03T17:10:33Z</time>
      </trkpt>
      <trkpt lat="48.35411" lon="-4.31549">
        <ele>26.482309341431</ele>
        <time>2011-05-03T17:10:42Z</time>
      </trkpt>
      <trkpt lat="48.35375" lon="-4.31562">
        <ele>27.00298500061</ele>
        <time>2011-05-03T17:10:51Z</time>
      </trkpt>
      <trkpt lat="48.35371" lon="-4.31563">
        <ele>27.07911491394</ele>
        <time>2011-05-03T17:10:52Z</time>
      </trkpt>
      <trkpt lat="48.35358" lon="-4.31564">
        <ele>27.321151733398</ele>
        <time>2011-05-03T17:10:55Z</time>
      </trkpt>
      <trkpt lat="48.35312" lon="-4.31556">
        <ele>28.701133728027</ele>
        <time>2011-05-03T17:11:05Z</time>
      </trkpt>
      <trkpt lat="48.3527" lon="-4.31549">
        <ele>30.654640197754</ele>
        <time>2011-05-03T17:11:14Z</time>
      </trkpt>
      <trkpt lat="48.35236" lon="-4.31547">
        <ele>31.873695373535</ele>
        <time>2011-05-03T17:11:22Z</time>
      </trkpt>
      <trkpt lat="48.35202" lon="-4.31545">
        <ele>32.644844055176</ele>
        <time>2011-05-03T17:11:31Z</time>
      </trkpt>
      <trkpt lat="48.35174" lon="-4.31539">
        <ele>33.351951599121</ele>
        <time>2011-05-03T17:11:39Z</time>
      </trkpt>
      <trkpt lat="48.35149" lon="-4.31529">
        <ele>34.690734863281</ele>
        <time>2011-05-03T17:11:46Z</time>
      </trkpt>
      <trkpt lat="48.35125" lon="-4.3151">
        <ele>36.356994628906</ele>
        <time>2011-05-03T17:11:54Z</time>
      </trkpt>
      <trkpt lat="48.35108" lon="-4.31497">
        <ele>37.518604278564</ele>
        <time>2011-05-03T17:12:00Z</time>
      </trkpt>
      <trkpt lat="48.35089" lon="-4.31488">
        <ele>38.504684448242</ele>
        <time>2011-05-03T17:12:06Z</time>
      </trkpt>
      <trkpt lat="48.35071" lon="-4.31479">
        <ele>38.599052429199</ele>
        <time>2011-05-03T17:12:12Z</time>
      </trkpt>
      <trkpt lat="48.35044" lon="-4.31461">
        <ele>38.052024841309</ele>
        <time>2011-05-03T17:12:19Z</time>
      </trkpt>
      <trkpt lat="48.35022" lon="-4.31426">
        <ele>37.376251220703</ele>
        <time>2011-05-03T17:12:25Z</time>
      </trkpt>
      <trkpt lat="48.34992" lon="-4.31379">
        <ele>36.429397583008</ele>
        <time>2011-05-03T17:12:33Z</time>
      </trkpt>
      <trkpt lat="48.3498" lon="-4.31358">
        <ele>35.399532318115</ele>
        <time>2011-05-03T17:12:37Z</time>
      </trkpt>
      <trkpt lat="48.34968" lon="-4.31322">
        <ele>33.842418670654</ele>
        <time>2011-05-03T17:12:43Z</time>
      </trkpt>
      <trkpt lat="48.34964" lon="-4.31268">
        <ele>32.908950805664</ele>
        <time>2011-05-03T17:12:50Z</time>
      </trkpt>
      <trkpt lat="48.34966" lon="-4.31255">
        <ele>32.910121917725</ele>
        <time>2011-05-03T17:12:52Z</time>
      </trkpt>
      <trkpt lat="48.34972" lon="-4.31235">
        <ele>33.569110870361</ele>
        <time>2011-05-03T17:12:56Z</time>
      </trkpt>
      <trkpt lat="48.34985" lon="-4.31215">
        <ele>34.896961212158</ele>
        <time>2011-05-03T17:13:03Z</time>
      </trkpt>
      <trkpt lat="48.35002" lon="-4.3121">
        <ele>36.621982574463</ele>
        <time>2011-05-03T17:13:09Z</time>
      </trkpt>
      <trkpt lat="48.3502" lon="-4.31204">
        <ele>37.41971206665</ele>
        <time>2011-05-03T17:13:15Z</time>
      </trkpt>
      <trkpt lat="48.35037" lon="-4.31186">
        <ele>38.237167358398</ele>
        <time>2011-05-03T17:13:22Z</time>
      </trkpt>
      <trkpt lat="48.35052" lon="-4.31155">
        <ele>39.098083496094</ele>
        <time>2011-05-03T17:13:30Z</time>
      </trkpt>
      <trkpt lat="48.35059" lon="-4.31133">
        <ele>39.396991729736</ele>
        <time>2011-05-03T17:13:35Z</time>
      </trkpt>
      <trkpt lat="48.35068" lon="-4.31102">
        <ele>39.919368743896</ele>
        <time>2011-05-03T17:13:42Z</time>
      </trkpt>
      <trkpt lat="48.3508" lon="-4.31053">
        <ele>39.633361816406</ele>
        <time>2011-05-03T17:13:52Z</time>
      </trkpt>
      <trkpt lat="48.3509" lon="-4.31025">
        <ele>39.180023193359</ele>
        <time>2011-05-03T17:13:58Z</time>
      </trkpt>
      <trkpt lat="48.35101" lon="-4.31">
        <ele>38.655078887939</ele>
        <time>2011-05-03T17:14:04Z</time>
      </trkpt>
      <trkpt lat="48.35119" lon="-4.30977">
        <ele>37.215835571289</ele>
        <time>2011-05-03T17:14:09Z</time>
      </trkpt>
      <trkpt lat="48.35146" lon="-4.30948">
        <ele>35.736896514893</ele>
        <time>2011-05-03T17:14:14Z</time>
      </trkpt>
      <trkpt lat="48.35174" lon="-4.30917">
        <ele>34.058731079102</ele>
        <time>2011-05-03T17:14:19Z</time>
      </trkpt>
      <trkpt lat="48.35187" lon="-4.30905">
        <ele>32.935382843018</ele>
        <time>2011-05-03T17:14:22Z</time>
      </trkpt>
      <trkpt lat="48.352" lon="-4.30878">
        <ele>30.699184417725</ele>
        <time>2011-05-03T17:14:27Z</time>
      </trkpt>
      <trkpt lat="48.35202" lon="-4.30871">
        <ele>30.069618225098</ele>
        <time>2011-05-03T17:14:28Z</time>
      </trkpt>
      <trkpt lat="48.35203" lon="-4.30859">
        <ele>29.045249938965</ele>
        <time>2011-05-03T17:14:30Z</time>
      </trkpt>
      <trkpt lat="48.35207" lon="-4.30849">
        <ele>28.279401779175</ele>
        <time>2011-05-03T17:14:34Z</time>
      </trkpt>
      <trkpt lat="48.3521" lon="-4.30849">
        <ele>28.312183380127</ele>
        <time>2011-05-03T17:14:35Z</time>
      </trkpt>
      <trkpt lat="48.35234" lon="-4.30845">
        <ele>28.537944793701</ele>
        <time>2011-05-03T17:14:42Z</time>
      </trkpt>
      <trkpt lat="48.35253" lon="-4.30843">
        <ele>28.592082977295</ele>
        <time>2011-05-03T17:14:47Z</time>
      </trkpt>
      <trkpt lat="48.35271" lon="-4.3084">
        <ele>27.834558486939</ele>
        <time>2011-05-03T17:14:52Z</time>
      </trkpt>
      <trkpt lat="48.35281" lon="-4.3083">
        <ele>26.549646377564</ele>
        <time>2011-05-03T17:14:56Z</time>
      </trkpt>
      <trkpt lat="48.35297" lon="-4.308">
        <ele>22.873872756958</ele>
        <time>2011-05-03T17:15:02Z</time>
      </trkpt>
      <trkpt lat="48.35307" lon="-4.30782">
        <ele>20.570226669311</ele>
        <time>2011-05-03T17:15:06Z</time>
      </trkpt>
      <trkpt lat="48.35313" lon="-4.30773">
        <ele>19.38117980957</ele>
        <time>2011-05-03T17:15:08Z</time>
      </trkpt>
      <trkpt lat="48.35326" lon="-4.30758">
        <ele>17.181802749634</ele>
        <time>2011-05-03T17:15:11Z</time>
      </trkpt>
      <trkpt lat="48.35342" lon="-4.30734">
        <ele>14.766415596008</ele>
        <time>2011-05-03T17:15:15Z</time>
      </trkpt>
      <trkpt lat="48.35349" lon="-4.30721">
        <ele>13.80438041687</ele>
        <time>2011-05-03T17:15:17Z</time>
      </trkpt>
      <trkpt lat="48.35363" lon="-4.3069">
        <ele>11.596247673035</ele>
        <time>2011-05-03T17:15:22Z</time>
      </trkpt>
      <trkpt lat="48.35367" lon="-4.30679">
        <ele>10.892577171326</ele>
        <time>2011-05-03T17:15:24Z</time>
      </trkpt>
      <trkpt lat="48.35373" lon="-4.30661">
        <ele>9.8052730560303</ele>
        <time>2011-05-03T17:15:29Z</time>
      </trkpt>
      <trkpt lat="48.35373" lon="-4.30637">
        <ele>8.781343460083</ele>
        <time>2011-05-03T17:15:35Z</time>
      </trkpt>
      <trkpt lat="48.35375" lon="-4.30619">
        <ele>8.006404876709</ele>
        <time>2011-05-03T17:15:40Z</time>
      </trkpt>
      <trkpt lat="48.35376" lon="-4.30607">
        <ele>7.4922003746033</ele>
        <time>2011-05-03T17:15:43Z</time>
      </trkpt>
      <trkpt lat="48.35376" lon="-4.30597">
        <ele>7.0677938461304</ele>
        <time>2011-05-03T17:15:46Z</time>
      </trkpt>
      <trkpt lat="48.35375" lon="-4.3058">
        <ele>6.3303833007812</ele>
        <time>2011-05-03T17:15:51Z</time>
      </trkpt>
      <trkpt lat="48.35374" lon="-4.30549">
        <ele>4.8563842773438</ele>
        <time>2011-05-03T17:15:58Z</time>
      </trkpt>
      <trkpt lat="48.35373" lon="-4.30523">
        <ele>3.6478881835938</ele>
        <time>2011-05-03T17:16:05Z</time>
      </trkpt>
      <trkpt lat="48.35373" lon="-4.30506">
        <ele>2.8330688476562</ele>
        <time>2011-05-03T17:16:11Z</time>
      </trkpt>
      <trkpt lat="48.35373" lon="-4.30503">
        <ele>2.6591186523438</ele>
        <time>2011-05-03T17:16:13Z</time>
      </trkpt>
      <trkpt lat="48.35381" lon="-4.30498">
        <ele>2.4148833751678</ele>
        <time>2011-05-03T17:16:19Z</time>
      </trkpt>
      <trkpt lat="48.35392" lon="-4.30507">
        <ele>2.6247863769531</ele>
        <time>2011-05-03T17:16:25Z</time>
      </trkpt>
      <trkpt lat="48.35393" lon="-4.30509">
        <ele>2.7163391113281</ele>
        <time>2011-05-03T17:16:26Z</time>
      </trkpt>
      <trkpt lat="48.35408" lon="-4.30519">
        <ele>3.0276184082031</ele>
        <time>2011-05-03T17:16:33Z</time>
      </trkpt>
      <trkpt lat="48.35418" lon="-4.30528">
        <ele>3.375287771225</ele>
        <time>2011-05-03T17:16:38Z</time>
      </trkpt>
      <trkpt lat="48.35432" lon="-4.30525">
        <ele>3.9825556278229</ele>
        <time>2011-05-03T17:16:44Z</time>
      </trkpt>
      <trkpt lat="48.35439" lon="-4.30511">
        <ele>3.794538974762</ele>
        <time>2011-05-03T17:16:50Z</time>
      </trkpt>
      <trkpt lat="48.35443" lon="-4.30491">
        <ele>3.6098022460938</ele>
        <time>2011-05-03T17:16:56Z</time>
      </trkpt>
      <trkpt lat="48.35447" lon="-4.30484">
        <ele>3.8157958984375</ele>
        <time>2011-05-03T17:17:00Z</time>
      </trkpt>
      <trkpt lat="48.35451" lon="-4.30476">
        <ele>4.044677734375</ele>
        <time>2011-05-03T17:17:06Z</time>
      </trkpt>
      <trkpt lat="48.35453" lon="-4.30474">
        <ele>4.1591186523438</ele>
        <time>2011-05-03T17:17:08Z</time>
      </trkpt>
      <trkpt lat="48.35455" lon="-4.30473">
        <ele>4.3193359375</ele>
        <time>2011-05-03T17:17:10Z</time>
      </trkpt>
      <trkpt lat="48.35468" lon="-4.3047">
        <ele>5.0746459960938</ele>
        <time>2011-05-03T17:17:17Z</time>
      </trkpt>
      <trkpt lat="48.35483" lon="-4.30464">
        <ele>5.9901733398438</ele>
        <time>2011-05-03T17:17:25Z</time>
      </trkpt>
      <trkpt lat="48.35498" lon="-4.30461">
        <ele>6.8599243164062</ele>
        <time>2011-05-03T17:17:33Z</time>
      </trkpt>
      <trkpt lat="48.35504" lon="-4.30459">
        <ele>7.3990902900696</ele>
        <time>2011-05-03T17:17:37Z</time>
      </trkpt>
      <trkpt lat="48.35515" lon="-4.30457">
        <ele>8.4561567306519</ele>
        <time>2011-05-03T17:17:44Z</time>
      </trkpt>
      <trkpt lat="48.35517" lon="-4.30456">
        <ele>8.597843170166</ele>
        <time>2011-05-03T17:17:49Z</time>
      </trkpt>
      <trkpt lat="48.35518" lon="-4.30454">
        <ele>8.7329635620117</ele>
        <time>2011-05-03T17:17:55Z</time>
      </trkpt>
      <trkpt lat="48.35518" lon="-4.30452">
        <ele>8.7211751937866</ele>
        <time>2011-05-03T17:18:01Z</time>
      </trkpt>
      <trkpt lat="48.3552" lon="-4.30447">
        <ele>8.8377876281738</ele>
        <time>2011-05-03T17:18:12Z</time>
      </trkpt>
      <trkpt lat="48.35522" lon="-4.30444">
        <ele>9.0291051864624</ele>
        <time>2011-05-03T17:18:18Z</time>
      </trkpt>
      <trkpt lat="48.35527" lon="-4.30438">
        <ele>9.4384326934814</ele>
        <time>2011-05-03T17:18:25Z</time>
      </trkpt>
      <trkpt lat="48.35532" lon="-4.30431">
        <ele>9.7835273742676</ele>
        <time>2011-05-03T17:18:33Z</time>
      </trkpt>
      <trkpt lat="48.35533" lon="-4.30428">
        <ele>9.8960208892822</ele>
        <time>2011-05-03T17:18:41Z</time>
      </trkpt>
      <trkpt lat="48.35534" lon="-4.30426">
        <ele>9.9734201431274</ele>
        <time>2011-05-03T17:18:43Z</time>
      </trkpt>
      <trkpt lat="48.35545" lon="-4.30411">
        <ele>10.586403846741</ele>
        <time>2011-05-03T17:18:50Z</time>
      </trkpt>
      <trkpt lat="48.35555" lon="-4.304">
        <ele>10.98233795166</ele>
        <time>2011-05-03T17:18:56Z</time>
      </trkpt>
      <trkpt lat="48.35577" lon="-4.30387">
        <ele>12.403066635132</ele>
        <time>2011-05-03T17:19:04Z</time>
      </trkpt>
      <trkpt lat="48.35598" lon="-4.3038">
        <ele>13.20809173584</ele>
        <time>2011-05-03T17:19:10Z</time>
      </trkpt>
      <trkpt lat="48.35614" lon="-4.30382">
        <ele>13.863838195801</ele>
        <time>2011-05-03T17:19:16Z</time>
      </trkpt>
      <trkpt lat="48.35624" lon="-4.30378">
        <ele>14.068115234375</ele>
        <time>2011-05-03T17:19:20Z</time>
      </trkpt>
      <trkpt lat="48.35638" lon="-4.30372">
        <ele>14.382255554199</ele>
        <time>2011-05-03T17:19:26Z</time>
      </trkpt>
      <trkpt lat="48.3566" lon="-4.30369">
        <ele>15.065467834473</ele>
        <time>2011-05-03T17:19:33Z</time>
      </trkpt>
      <trkpt lat="48.3569" lon="-4.30361">
        <ele>16.145668029785</ele>
        <time>2011-05-03T17:19:42Z</time>
      </trkpt>
      <trkpt lat="48.35707" lon="-4.30359">
        <ele>16.875228881836</ele>
        <time>2011-05-03T17:19:48Z</time>
      </trkpt>
      <trkpt lat="48.3572" lon="-4.30348">
        <ele>17.097816467285</ele>
        <time>2011-05-03T17:19:53Z</time>
      </trkpt>
      <trkpt lat="48.35735" lon="-4.30344">
        <ele>17.654571533203</ele>
        <time>2011-05-03T17:19:58Z</time>
      </trkpt>
      <trkpt lat="48.3575" lon="-4.30338">
        <ele>18.166122436523</ele>
        <time>2011-05-03T17:20:03Z</time>
      </trkpt>
      <trkpt lat="48.35764" lon="-4.3033">
        <ele>18.377746582031</ele>
        <time>2011-05-03T17:20:08Z</time>
      </trkpt>
      <trkpt lat="48.35777" lon="-4.30324">
        <ele>18.647254943848</ele>
        <time>2011-05-03T17:20:13Z</time>
      </trkpt>
      <trkpt lat="48.35798" lon="-4.30311">
        <ele>18.918479919434</ele>
        <time>2011-05-03T17:20:19Z</time>
      </trkpt>
      <trkpt lat="48.35822" lon="-4.30303">
        <ele>19.500411987305</ele>
        <time>2011-05-03T17:20:25Z</time>
      </trkpt>
      <trkpt lat="48.35833" lon="-4.30301">
        <ele>19.855327606201</ele>
        <time>2011-05-03T17:20:28Z</time>
      </trkpt>
      <trkpt lat="48.35846" lon="-4.30301">
        <ele>20.919975280762</ele>
        <time>2011-05-03T17:20:32Z</time>
      </trkpt>
      <trkpt lat="48.3587" lon="-4.30294">
        <ele>22.640844345093</ele>
        <time>2011-05-03T17:20:40Z</time>
      </trkpt>
      <trkpt lat="48.3588" lon="-4.30288">
        <ele>23.270412445068</ele>
        <time>2011-05-03T17:20:44Z</time>
      </trkpt>
      <trkpt lat="48.35883" lon="-4.3027">
        <ele>22.53915977478</ele>
        <time>2011-05-03T17:20:49Z</time>
      </trkpt>
      <trkpt lat="48.3588" lon="-4.30266">
        <ele>22.119613647461</ele>
        <time>2011-05-03T17:20:50Z</time>
      </trkpt>
      <trkpt lat="48.35859" lon="-4.30232">
        <ele>19.128177642822</ele>
        <time>2011-05-03T17:20:56Z</time>
      </trkpt>
      <trkpt lat="48.35837" lon="-4.30184">
        <ele>16.531854629517</ele>
        <time>2011-05-03T17:21:02Z</time>
      </trkpt>
      <trkpt lat="48.35813" lon="-4.30123">
        <ele>13.830732345581</ele>
        <time>2011-05-03T17:21:08Z</time>
      </trkpt>
      <trkpt lat="48.35793" lon="-4.30087">
        <ele>12.139903068543</ele>
        <time>2011-05-03T17:21:12Z</time>
      </trkpt>
      <trkpt lat="48.35759" lon="-4.30036">
        <ele>9.9548673629761</ele>
        <time>2011-05-03T17:21:18Z</time>
      </trkpt>
      <trkpt lat="48.35718" lon="-4.29983">
        <ele>7.345362663269</ele>
        <time>2011-05-03T17:21:25Z</time>
      </trkpt>
      <trkpt lat="48.3569" lon="-4.29938">
        <ele>5.925262928009</ele>
        <time>2011-05-03T17:21:31Z</time>
      </trkpt>
      <trkpt lat="48.35678" lon="-4.29916">
        <ele>5.4109973907471</ele>
        <time>2011-05-03T17:21:34Z</time>
      </trkpt>
      <trkpt lat="48.35651" lon="-4.29864">
        <ele>4.5055384635925</ele>
        <time>2011-05-03T17:21:41Z</time>
      </trkpt>
      <trkpt lat="48.35629" lon="-4.29796">
        <ele>2.9280545711517</ele>
        <time>2011-05-03T17:21:49Z</time>
      </trkpt>
      <trkpt lat="48.35614" lon="-4.29751">
        <ele>1.7476778030395</ele>
        <time>2011-05-03T17:21:55Z</time>
      </trkpt>
      <trkpt lat="48.35594" lon="-4.29694">
        <ele>1.83438372612</ele>
        <time>2011-05-03T17:22:03Z</time>
      </trkpt>
      <trkpt lat="48.35571" lon="-4.29631">
        <ele>3.8383767604828</ele>
        <time>2011-05-03T17:22:12Z</time>
      </trkpt>
      <trkpt lat="48.35571" lon="-4.29596">
        <ele>5.2242317199707</ele>
        <time>2011-05-03T17:22:17Z</time>
      </trkpt>
      <trkpt lat="48.35581" lon="-4.29584">
        <ele>5.8989953994751</ele>
        <time>2011-05-03T17:22:20Z</time>
      </trkpt>
      <trkpt lat="48.35588" lon="-4.29579">
        <ele>6.2277746200561</ele>
        <time>2011-05-03T17:22:22Z</time>
      </trkpt>
      <trkpt lat="48.35603" lon="-4.29572">
        <ele>6.62060546875</ele>
        <time>2011-05-03T17:22:26Z</time>
      </trkpt>
      <trkpt lat="48.35625" lon="-4.29551">
        <ele>7.5315861701965</ele>
        <time>2011-05-03T17:22:31Z</time>
      </trkpt>
      <trkpt lat="48.35629" lon="-4.29547">
        <ele>7.7200531959534</ele>
        <time>2011-05-03T17:22:32Z</time>
      </trkpt>
      <trkpt lat="48.3564" lon="-4.2952">
        <ele>8.7719764709473</ele>
        <time>2011-05-03T17:22:37Z</time>
      </trkpt>
      <trkpt lat="48.35649" lon="-4.29486">
        <ele>10.178119659424</ele>
        <time>2011-05-03T17:22:43Z</time>
      </trkpt>
      <trkpt lat="48.35651" lon="-4.29481">
        <ele>10.443326950073</ele>
        <time>2011-05-03T17:22:44Z</time>
      </trkpt>
      <trkpt lat="48.35654" lon="-4.2945">
        <ele>12.128768920898</ele>
        <time>2011-05-03T17:22:50Z</time>
      </trkpt>
      <trkpt lat="48.35658" lon="-4.2942">
        <ele>13.81697845459</ele>
        <time>2011-05-03T17:22:56Z</time>
      </trkpt>
      <trkpt lat="48.35662" lon="-4.29395">
        <ele>14.745242118835</ele>
        <time>2011-05-03T17:23:01Z</time>
      </trkpt>
      <trkpt lat="48.35672" lon="-4.2937">
        <ele>15.73677444458</ele>
        <time>2011-05-03T17:23:07Z</time>
      </trkpt>
      <trkpt lat="48.3568" lon="-4.29348">
        <ele>16.74755859375</ele>
        <time>2011-05-03T17:23:12Z</time>
      </trkpt>
      <trkpt lat="48.35682" lon="-4.29323">
        <ele>17.275627136231</ele>
        <time>2011-05-03T17:23:18Z</time>
      </trkpt>
      <trkpt lat="48.35674" lon="-4.29302">
        <ele>16.860429763794</ele>
        <time>2011-05-03T17:23:23Z</time>
      </trkpt>
      <trkpt lat="48.35658" lon="-4.29288">
        <ele>16.149574279785</ele>
        <time>2011-05-03T17:23:28Z</time>
      </trkpt>
      <trkpt lat="48.35632" lon="-4.29267">
        <ele>14.951950073242</ele>
        <time>2011-05-03T17:23:35Z</time>
      </trkpt>
      <trkpt lat="48.35608" lon="-4.29247">
        <ele>13.86123752594</ele>
        <time>2011-05-03T17:23:41Z</time>
      </trkpt>
      <trkpt lat="48.35584" lon="-4.29221">
        <ele>13.029435157776</ele>
        <time>2011-05-03T17:23:47Z</time>
      </trkpt>
      <trkpt lat="48.35566" lon="-4.29192">
        <ele>12.795959472656</ele>
        <time>2011-05-03T17:23:52Z</time>
      </trkpt>
      <trkpt lat="48.35559" lon="-4.29153">
        <ele>12.591606140137</ele>
        <time>2011-05-03T17:23:57Z</time>
      </trkpt>
      <trkpt lat="48.3556" lon="-4.29144">
        <ele>12.52986907959</ele>
        <time>2011-05-03T17:23:58Z</time>
      </trkpt>
      <trkpt lat="48.35575" lon="-4.29063">
        <ele>11.774166107178</ele>
        <time>2011-05-03T17:24:08Z</time>
      </trkpt>
      <trkpt lat="48.35585" lon="-4.29004">
        <ele>11.06852722168</ele>
        <time>2011-05-03T17:24:15Z</time>
      </trkpt>
      <trkpt lat="48.35596" lon="-4.28935">
        <ele>11.264042854309</ele>
        <time>2011-05-03T17:24:23Z</time>
      </trkpt>
      <trkpt lat="48.35609" lon="-4.28854">
        <ele>11.100884437561</ele>
        <time>2011-05-03T17:24:32Z</time>
      </trkpt>
      <trkpt lat="48.35612" lon="-4.28827">
        <ele>10.91356754303</ele>
        <time>2011-05-03T17:24:35Z</time>
      </trkpt>
      <trkpt lat="48.35627" lon="-4.2875">
        <ele>9.5104141235352</ele>
        <time>2011-05-03T17:24:43Z</time>
      </trkpt>
      <trkpt lat="48.35643" lon="-4.28683">
        <ele>7.6586837768555</ele>
        <time>2011-05-03T17:24:50Z</time>
      </trkpt>
      <trkpt lat="48.35658" lon="-4.28621">
        <ele>7.0078706741333</ele>
        <time>2011-05-03T17:24:57Z</time>
      </trkpt>
      <trkpt lat="48.35673" lon="-4.28561">
        <ele>7.0094389915466</ele>
        <time>2011-05-03T17:25:04Z</time>
      </trkpt>
      <trkpt lat="48.35688" lon="-4.28502">
        <ele>6.7979183197022</ele>
        <time>2011-05-03T17:25:11Z</time>
      </trkpt>
      <trkpt lat="48.35695" lon="-4.28478">
        <ele>6.9395966529846</ele>
        <time>2011-05-03T17:25:14Z</time>
      </trkpt>
      <trkpt lat="48.35699" lon="-4.28463">
        <ele>6.9932518005371</ele>
        <time>2011-05-03T17:25:16Z</time>
      </trkpt>
      <trkpt lat="48.3571" lon="-4.28419">
        <ele>7.0566840171814</ele>
        <time>2011-05-03T17:25:23Z</time>
      </trkpt>
      <trkpt lat="48.35712" lon="-4.28413">
        <ele>7.2544603347778</ele>
        <time>2011-05-03T17:25:24Z</time>
      </trkpt>
      <trkpt lat="48.35722" lon="-4.28383">
        <ele>9.0494203567505</ele>
        <time>2011-05-03T17:25:30Z</time>
      </trkpt>
      <trkpt lat="48.35735" lon="-4.2836">
        <ele>10.759654045105</ele>
        <time>2011-05-03T17:25:36Z</time>
      </trkpt>
      <trkpt lat="48.3575" lon="-4.28337">
        <ele>12.799880981445</ele>
        <time>2011-05-03T17:25:43Z</time>
      </trkpt>
      <trkpt lat="48.35758" lon="-4.28318">
        <ele>14.666748046875</ele>
        <time>2011-05-03T17:25:49Z</time>
      </trkpt>
      <trkpt lat="48.35763" lon="-4.28298">
        <ele>16.69921875</ele>
        <time>2011-05-03T17:25:55Z</time>
      </trkpt>
      <trkpt lat="48.35762" lon="-4.28281">
        <ele>18.287658691406</ele>
        <time>2011-05-03T17:26:00Z</time>
      </trkpt>
      <trkpt lat="48.35756" lon="-4.28265">
        <ele>19.7021484375</ele>
        <time>2011-05-03T17:26:05Z</time>
      </trkpt>
      <trkpt lat="48.35744" lon="-4.2825">
        <ele>20.587295532227</ele>
        <time>2011-05-03T17:26:11Z</time>
      </trkpt>
      <trkpt lat="48.3573" lon="-4.28233">
        <ele>21.321815490723</ele>
        <time>2011-05-03T17:26:18Z</time>
      </trkpt>
      <trkpt lat="48.35718" lon="-4.28219">
        <ele>21.895277023315</ele>
        <time>2011-05-03T17:26:24Z</time>
      </trkpt>
      <trkpt lat="48.35708" lon="-4.28206">
        <ele>22.415031433106</ele>
        <time>2011-05-03T17:26:29Z</time>
      </trkpt>
      <trkpt lat="48.35686" lon="-4.2818">
        <ele>23.341627120972</ele>
        <time>2011-05-03T17:26:38Z</time>
      </trkpt>
      <trkpt lat="48.35672" lon="-4.28157">
        <ele>24.309503555298</ele>
        <time>2011-05-03T17:26:45Z</time>
      </trkpt>
      <trkpt lat="48.35661" lon="-4.28135">
        <ele>25.268421173096</ele>
        <time>2011-05-03T17:26:51Z</time>
      </trkpt>
      <trkpt lat="48.35652" lon="-4.28109">
        <ele>26.244390487671</ele>
        <time>2011-05-03T17:26:57Z</time>
      </trkpt>
      <trkpt lat="48.35643" lon="-4.28079">
        <ele>27.27391242981</ele>
        <time>2011-05-03T17:27:04Z</time>
      </trkpt>
      <trkpt lat="48.35637" lon="-4.28045">
        <ele>28.044805526733</ele>
        <time>2011-05-03T17:27:12Z</time>
      </trkpt>
      <trkpt lat="48.35631" lon="-4.2801">
        <ele>28.624340057373</ele>
        <time>2011-05-03T17:27:20Z</time>
      </trkpt>
      <trkpt lat="48.35628" lon="-4.27976">
        <ele>28.371948242188</ele>
        <time>2011-05-03T17:27:27Z</time>
      </trkpt>
      <trkpt lat="48.35627" lon="-4.27946">
        <ele>27.968456268311</ele>
        <time>2011-05-03T17:27:33Z</time>
      </trkpt>
      <trkpt lat="48.35631" lon="-4.27907">
        <ele>28.429574966431</ele>
        <time>2011-05-03T17:27:41Z</time>
      </trkpt>
      <trkpt lat="48.35639" lon="-4.27874">
        <ele>29.135530471802</ele>
        <time>2011-05-03T17:27:48Z</time>
      </trkpt>
      <trkpt lat="48.35654" lon="-4.27837">
        <ele>30.90132522583</ele>
        <time>2011-05-03T17:27:56Z</time>
      </trkpt>
      <trkpt lat="48.35675" lon="-4.27805">
        <ele>32.479202270508</ele>
        <time>2011-05-03T17:28:05Z</time>
      </trkpt>
      <trkpt lat="48.35697" lon="-4.27785">
        <ele>33.28978729248</ele>
        <time>2011-05-03T17:28:12Z</time>
      </trkpt>
      <trkpt lat="48.35722" lon="-4.27764">
        <ele>34.343227386475</ele>
        <time>2011-05-03T17:28:19Z</time>
      </trkpt>
      <trkpt lat="48.35745" lon="-4.27742">
        <ele>35.338485717773</ele>
        <time>2011-05-03T17:28:26Z</time>
      </trkpt>
      <trkpt lat="48.35769" lon="-4.27721">
        <ele>36.02560043335</ele>
        <time>2011-05-03T17:28:33Z</time>
      </trkpt>
      <trkpt lat="48.35796" lon="-4.277">
        <ele>37.039455413818</ele>
        <time>2011-05-03T17:28:40Z</time>
      </trkpt>
      <trkpt lat="48.35824" lon="-4.27682">
        <ele>38.543563842773</ele>
        <time>2011-05-03T17:28:47Z</time>
      </trkpt>
      <trkpt lat="48.35862" lon="-4.27656">
        <ele>40.451301574707</ele>
        <time>2011-05-03T17:28:57Z</time>
      </trkpt>
      <trkpt lat="48.35885" lon="-4.27642">
        <ele>40.796894073486</ele>
        <time>2011-05-03T17:29:03Z</time>
      </trkpt>
      <trkpt lat="48.35904" lon="-4.2763">
        <ele>40.744915008545</ele>
        <time>2011-05-03T17:29:08Z</time>
      </trkpt>
      <trkpt lat="48.35918" lon="-4.27618">
        <ele>40.142276763916</ele>
        <time>2011-05-03T17:29:12Z</time>
      </trkpt>
      <trkpt lat="48.35946" lon="-4.27595">
        <ele>38.002716064453</ele>
        <time>2011-05-03T17:29:20Z</time>
      </trkpt>
      <trkpt lat="48.35972" lon="-4.27574">
        <ele>36.350399017334</ele>
        <time>2011-05-03T17:29:27Z</time>
      </trkpt>
      <trkpt lat="48.35979" lon="-4.27568">
        <ele>35.86205291748</ele>
        <time>2011-05-03T17:29:29Z</time>
      </trkpt>
      <trkpt lat="48.35999" lon="-4.27551">
        <ele>34.472736358643</ele>
        <time>2011-05-03T17:29:34Z</time>
      </trkpt>
      <trkpt lat="48.36027" lon="-4.27514">
        <ele>31.336988449097</ele>
        <time>2011-05-03T17:29:41Z</time>
      </trkpt>
      <trkpt lat="48.36055" lon="-4.27465">
        <ele>28.578475952148</ele>
        <time>2011-05-03T17:29:48Z</time>
      </trkpt>
      <trkpt lat="48.36076" lon="-4.27418">
        <ele>25.928544998169</ele>
        <time>2011-05-03T17:29:54Z</time>
      </trkpt>
      <trkpt lat="48.36084" lon="-4.27393">
        <ele>25.152276992798</ele>
        <time>2011-05-03T17:29:57Z</time>
      </trkpt>
      <trkpt lat="48.36103" lon="-4.27311">
        <ele>22.718351364136</ele>
        <time>2011-05-03T17:30:05Z</time>
      </trkpt>
      <trkpt lat="48.36114" lon="-4.2724">
        <ele>20.184883117676</ele>
        <time>2011-05-03T17:30:11Z</time>
      </trkpt>
      <trkpt lat="48.36113" lon="-4.2715">
        <ele>17.885581970215</ele>
        <time>2011-05-03T17:30:18Z</time>
      </trkpt>
      <trkpt lat="48.36109" lon="-4.27088">
        <ele>16.975776672363</ele>
        <time>2011-05-03T17:30:23Z</time>
      </trkpt>
      <trkpt lat="48.36105" lon="-4.27038">
        <ele>17.332450866699</ele>
        <time>2011-05-03T17:30:28Z</time>
      </trkpt>
      <trkpt lat="48.36105" lon="-4.2703">
        <ele>17.416564941406</ele>
        <time>2011-05-03T17:30:29Z</time>
      </trkpt>
      <trkpt lat="48.36108" lon="-4.26991">
        <ele>18.009368896484</ele>
        <time>2011-05-03T17:30:34Z</time>
      </trkpt>
      <trkpt lat="48.36123" lon="-4.26928">
        <ele>19.30712890625</ele>
        <time>2011-05-03T17:30:43Z</time>
      </trkpt>
      <trkpt lat="48.36125" lon="-4.2692">
        <ele>19.448463439941</ele>
        <time>2011-05-03T17:30:44Z</time>
      </trkpt>
      <trkpt lat="48.3613" lon="-4.26891">
        <ele>20.284118652344</ele>
        <time>2011-05-03T17:30:48Z</time>
      </trkpt>
      <trkpt lat="48.36137" lon="-4.26827">
        <ele>21.950113296509</ele>
        <time>2011-05-03T17:30:57Z</time>
      </trkpt>
      <trkpt lat="48.36143" lon="-4.2677">
        <ele>22.038970947266</ele>
        <time>2011-05-03T17:31:05Z</time>
      </trkpt>
      <trkpt lat="48.36148" lon="-4.26729">
        <ele>21.635734558106</ele>
        <time>2011-05-03T17:31:10Z</time>
      </trkpt>
      <trkpt lat="48.36152" lon="-4.26676">
        <ele>20.796010971069</ele>
        <time>2011-05-03T17:31:17Z</time>
      </trkpt>
      <trkpt lat="48.36155" lon="-4.2664">
        <ele>20.887351989746</ele>
        <time>2011-05-03T17:31:22Z</time>
      </trkpt>
      <trkpt lat="48.36158" lon="-4.26617">
        <ele>21.218088150024</ele>
        <time>2011-05-03T17:31:26Z</time>
      </trkpt>
      <trkpt lat="48.36171" lon="-4.26585">
        <ele>22.186143875122</ele>
        <time>2011-05-03T17:31:34Z</time>
      </trkpt>
      <trkpt lat="48.36178" lon="-4.26564">
        <ele>23.685878753662</ele>
        <time>2011-05-03T17:31:40Z</time>
      </trkpt>
      <trkpt lat="48.36185" lon="-4.26545">
        <ele>25.08994102478</ele>
        <time>2011-05-03T17:31:46Z</time>
      </trkpt>
      <trkpt lat="48.36189" lon="-4.26527">
        <ele>26.257978439331</ele>
        <time>2011-05-03T17:31:52Z</time>
      </trkpt>
      <trkpt lat="48.36187" lon="-4.26506">
        <ele>27.400058746338</ele>
        <time>2011-05-03T17:31:59Z</time>
      </trkpt>
      <trkpt lat="48.36188" lon="-4.26483">
        <ele>27.050090789795</ele>
        <time>2011-05-03T17:32:06Z</time>
      </trkpt>
      <trkpt lat="48.36199" lon="-4.26463">
        <ele>26.753606796265</ele>
        <time>2011-05-03T17:32:11Z</time>
      </trkpt>
      <trkpt lat="48.36211" lon="-4.26441">
        <ele>26.531547546387</ele>
        <time>2011-05-03T17:32:17Z</time>
      </trkpt>
      <trkpt lat="48.36215" lon="-4.26428">
        <ele>26.266206741333</ele>
        <time>2011-05-03T17:32:21Z</time>
      </trkpt>
      <trkpt lat="48.36217" lon="-4.26393">
        <ele>24.620519638061</ele>
        <time>2011-05-03T17:32:29Z</time>
      </trkpt>
      <trkpt lat="48.36217" lon="-4.26366">
        <ele>23.011684417725</ele>
        <time>2011-05-03T17:32:35Z</time>
      </trkpt>
      <trkpt lat="48.3622" lon="-4.26341">
        <ele>21.88614654541</ele>
        <time>2011-05-03T17:32:40Z</time>
      </trkpt>
      <trkpt lat="48.36221" lon="-4.2633">
        <ele>21.211078643799</ele>
        <time>2011-05-03T17:32:44Z</time>
      </trkpt>
      <trkpt lat="48.3622" lon="-4.26307">
        <ele>19.360261917114</ele>
        <time>2011-05-03T17:32:49Z</time>
      </trkpt>
      <trkpt lat="48.36223" lon="-4.26278">
        <ele>17.364858627319</ele>
        <time>2011-05-03T17:32:55Z</time>
      </trkpt>
      <trkpt lat="48.3623" lon="-4.26246">
        <ele>15.516214370727</ele>
        <time>2011-05-03T17:33:01Z</time>
      </trkpt>
      <trkpt lat="48.36238" lon="-4.26225">
        <ele>14.713145256043</ele>
        <time>2011-05-03T17:33:06Z</time>
      </trkpt>
      <trkpt lat="48.36252" lon="-4.26201">
        <ele>14.172337532043</ele>
        <time>2011-05-03T17:33:12Z</time>
      </trkpt>
      <trkpt lat="48.36267" lon="-4.26179">
        <ele>13.772704124451</ele>
        <time>2011-05-03T17:33:19Z</time>
      </trkpt>
      <trkpt lat="48.36275" lon="-4.26159">
        <ele>13.067955970764</ele>
        <time>2011-05-03T17:33:25Z</time>
      </trkpt>
      <trkpt lat="48.36282" lon="-4.26138">
        <ele>12.798641204834</ele>
        <time>2011-05-03T17:33:32Z</time>
      </trkpt>
      <trkpt lat="48.3628" lon="-4.26124">
        <ele>11.995247840881</ele>
        <time>2011-05-03T17:33:36Z</time>
      </trkpt>
      <trkpt lat="48.36268" lon="-4.26097">
        <ele>9.8285264968872</ele>
        <time>2011-05-03T17:33:42Z</time>
      </trkpt>
      <trkpt lat="48.36254" lon="-4.26079">
        <ele>8.2355470657349</ele>
        <time>2011-05-03T17:33:48Z</time>
      </trkpt>
      <trkpt lat="48.36244" lon="-4.26087">
        <ele>7.8605833053589</ele>
        <time>2011-05-03T17:33:53Z</time>
      </trkpt>
      <trkpt lat="48.36229" lon="-4.26099">
        <ele>7.4901704788208</ele>
        <time>2011-05-03T17:33:58Z</time>
      </trkpt>
      <trkpt lat="48.36217" lon="-4.26112">
        <ele>7.2095432281494</ele>
        <time>2011-05-03T17:34:03Z</time>
      </trkpt>
      <trkpt lat="48.36207" lon="-4.26127">
        <ele>6.9782729148865</ele>
        <time>2011-05-03T17:34:08Z</time>
      </trkpt>
      <trkpt lat="48.36192" lon="-4.26141">
        <ele>6.3299312591553</ele>
        <time>2011-05-03T17:34:15Z</time>
      </trkpt>
      <trkpt lat="48.3619" lon="-4.26142">
        <ele>6.2253127098083</ele>
        <time>2011-05-03T17:34:16Z</time>
      </trkpt>
      <trkpt lat="48.36184" lon="-4.26137">
        <ele>5.7195472717285</ele>
        <time>2011-05-03T17:34:20Z</time>
      </trkpt>
      <trkpt lat="48.36169" lon="-4.26107">
        <ele>4.4390444755554</ele>
        <time>2011-05-03T17:34:28Z</time>
      </trkpt>
      <trkpt lat="48.36161" lon="-4.26097">
        <ele>4.0755519866943</ele>
        <time>2011-05-03T17:34:33Z</time>
      </trkpt>
      <trkpt lat="48.36143" lon="-4.26086">
        <ele>3.7363629341126</ele>
        <time>2011-05-03T17:34:39Z</time>
      </trkpt>
      <trkpt lat="48.36123" lon="-4.26079">
        <ele>3.5516929626465</ele>
        <time>2011-05-03T17:34:45Z</time>
      </trkpt>
      <trkpt lat="48.36107" lon="-4.26079">
        <ele>3.3793270587921</ele>
        <time>2011-05-03T17:34:49Z</time>
      </trkpt>
      <trkpt lat="48.36073" lon="-4.26086">
        <ele>3.0943214893341</ele>
        <time>2011-05-03T17:34:58Z</time>
      </trkpt>
      <trkpt lat="48.36039" lon="-4.26094">
        <ele>3.2737889289856</ele>
        <time>2011-05-03T17:35:06Z</time>
      </trkpt>
      <trkpt lat="48.36031" lon="-4.26096">
        <ele>3.294184923172</ele>
        <time>2011-05-03T17:35:08Z</time>
      </trkpt>
      <trkpt lat="48.35997" lon="-4.26106">
        <ele>3.2429046630859</ele>
        <time>2011-05-03T17:35:16Z</time>
      </trkpt>
      <trkpt lat="48.35976" lon="-4.26112">
        <ele>3.5421676635742</ele>
        <time>2011-05-03T17:35:21Z</time>
      </trkpt>
      <trkpt lat="48.35941" lon="-4.26132">
        <ele>3.6812133789062</ele>
        <time>2011-05-03T17:35:30Z</time>
      </trkpt>
      <trkpt lat="48.35913" lon="-4.26149">
        <ele>3.7640836238861</ele>
        <time>2011-05-03T17:35:37Z</time>
      </trkpt>
      <trkpt lat="48.35886" lon="-4.26168">
        <ele>3.66872215271</ele>
        <time>2011-05-03T17:35:44Z</time>
      </trkpt>
      <trkpt lat="48.35863" lon="-4.26185">
        <ele>3.5554699897766</ele>
        <time>2011-05-03T17:35:50Z</time>
      </trkpt>
      <trkpt lat="48.3585" lon="-4.26201">
        <ele>3.1341798305512</ele>
        <time>2011-05-03T17:35:54Z</time>
      </trkpt>
      <trkpt lat="48.35835" lon="-4.26212">
        <ele>2.8084630966187</ele>
        <time>2011-05-03T17:35:58Z</time>
      </trkpt>
      <trkpt lat="48.35803" lon="-4.26242">
        <ele>3.6095287799835</ele>
        <time>2011-05-03T17:36:07Z</time>
      </trkpt>
      <trkpt lat="48.35779" lon="-4.26267">
        <ele>4.2563691139221</ele>
        <time>2011-05-03T17:36:14Z</time>
      </trkpt>
      <trkpt lat="48.35756" lon="-4.26292">
        <ele>4.2652635574341</ele>
        <time>2011-05-03T17:36:21Z</time>
      </trkpt>
      <trkpt lat="48.35735" lon="-4.26317">
        <ele>4.1944642066956</ele>
        <time>2011-05-03T17:36:28Z</time>
      </trkpt>
      <trkpt lat="48.35715" lon="-4.26344">
        <ele>4.5233306884766</ele>
        <time>2011-05-03T17:36:35Z</time>
      </trkpt>
      <trkpt lat="48.35698" lon="-4.26369">
        <ele>4.726212978363</ele>
        <time>2011-05-03T17:36:41Z</time>
      </trkpt>
      <trkpt lat="48.35675" lon="-4.26403">
        <ele>4.3369975090027</ele>
        <time>2011-05-03T17:36:49Z</time>
      </trkpt>
      <trkpt lat="48.3567" lon="-4.26413">
        <ele>4.0936932563782</ele>
        <time>2011-05-03T17:36:51Z</time>
      </trkpt>
      <trkpt lat="48.35664" lon="-4.26422">
        <ele>3.8702902793884</ele>
        <time>2011-05-03T17:36:53Z</time>
      </trkpt>
      <trkpt lat="48.35654" lon="-4.2644">
        <ele>3.559219121933</ele>
        <time>2011-05-03T17:36:57Z</time>
      </trkpt>
      <trkpt lat="48.35646" lon="-4.26453">
        <ele>3.2793650627136</ele>
        <time>2011-05-03T17:37:00Z</time>
      </trkpt>
      <trkpt lat="48.35625" lon="-4.26473">
        <ele>3.1058101654053</ele>
        <time>2011-05-03T17:37:06Z</time>
      </trkpt>
      <trkpt lat="48.3559" lon="-4.26503">
        <ele>2.6738901138306</ele>
        <time>2011-05-03T17:37:15Z</time>
      </trkpt>
      <trkpt lat="48.35579" lon="-4.26512">
        <ele>2.9765887260437</ele>
        <time>2011-05-03T17:37:18Z</time>
      </trkpt>
      <trkpt lat="48.35563" lon="-4.2652">
        <ele>3.8385739326477</ele>
        <time>2011-05-03T17:37:23Z</time>
      </trkpt>
      <trkpt lat="48.35541" lon="-4.26534">
        <ele>5.129159450531</ele>
        <time>2011-05-03T17:37:30Z</time>
      </trkpt>
      <trkpt lat="48.35525" lon="-4.26547">
        <ele>6.1543459892273</ele>
        <time>2011-05-03T17:37:35Z</time>
      </trkpt>
      <trkpt lat="48.35503" lon="-4.26563">
        <ele>7.7352204322815</ele>
        <time>2011-05-03T17:37:42Z</time>
      </trkpt>
      <trkpt lat="48.35477" lon="-4.26582">
        <ele>9.3915910720825</ele>
        <time>2011-05-03T17:37:51Z</time>
      </trkpt>
      <trkpt lat="48.35455" lon="-4.26599">
        <ele>10.390179634094</ele>
        <time>2011-05-03T17:37:59Z</time>
      </trkpt>
      <trkpt lat="48.35442" lon="-4.26608">
        <ele>11.099002838135</ele>
        <time>2011-05-03T17:38:04Z</time>
      </trkpt>
      <trkpt lat="48.35434" lon="-4.2661">
        <ele>11.670528411865</ele>
        <time>2011-05-03T17:38:08Z</time>
      </trkpt>
      <trkpt lat="48.35421" lon="-4.26612">
        <ele>12.66886806488</ele>
        <time>2011-05-03T17:38:14Z</time>
      </trkpt>
      <trkpt lat="48.35418" lon="-4.26611">
        <ele>12.874208450317</ele>
        <time>2011-05-03T17:38:15Z</time>
      </trkpt>
      <trkpt lat="48.35407" lon="-4.26592">
        <ele>13.281802177429</ele>
        <time>2011-05-03T17:38:21Z</time>
      </trkpt>
      <trkpt lat="48.35398" lon="-4.26568">
        <ele>13.155550003052</ele>
        <time>2011-05-03T17:38:26Z</time>
      </trkpt>
      <trkpt lat="48.35392" lon="-4.26549">
        <ele>13.014472007752</ele>
        <time>2011-05-03T17:38:30Z</time>
      </trkpt>
      <trkpt lat="48.35376" lon="-4.26506">
        <ele>13.01323223114</ele>
        <time>2011-05-03T17:38:38Z</time>
      </trkpt>
      <trkpt lat="48.35368" lon="-4.26481">
        <ele>13.791415214539</ele>
        <time>2011-05-03T17:38:43Z</time>
      </trkpt>
      <trkpt lat="48.35364" lon="-4.26471">
        <ele>14.291954994202</ele>
        <time>2011-05-03T17:38:46Z</time>
      </trkpt>
      <trkpt lat="48.35358" lon="-4.26465">
        <ele>14.887622833252</ele>
        <time>2011-05-03T17:38:51Z</time>
      </trkpt>
      <trkpt lat="48.35352" lon="-4.26466">
        <ele>15.260768890381</ele>
        <time>2011-05-03T17:38:55Z</time>
      </trkpt>
      <trkpt lat="48.35345" lon="-4.26456">
        <ele>16.190542221069</ele>
        <time>2011-05-03T17:39:03Z</time>
      </trkpt>
      <trkpt lat="48.35339" lon="-4.26448">
        <ele>17.046150207519</ele>
        <time>2011-05-03T17:39:08Z</time>
      </trkpt>
      <trkpt lat="48.35336" lon="-4.26445">
        <ele>17.466205596924</ele>
        <time>2011-05-03T17:39:10Z</time>
      </trkpt>
      <trkpt lat="48.35327" lon="-4.26435">
        <ele>18.739227294922</ele>
        <time>2011-05-03T17:39:16Z</time>
      </trkpt>
      <trkpt lat="48.35315" lon="-4.26426">
        <ele>20.311645507812</ele>
        <time>2011-05-03T17:39:24Z</time>
      </trkpt>
      <trkpt lat="48.35307" lon="-4.2642">
        <ele>21.410278320312</ele>
        <time>2011-05-03T17:39:30Z</time>
      </trkpt>
      <trkpt lat="48.35301" lon="-4.26417">
        <ele>22.099212646484</ele>
        <time>2011-05-03T17:39:34Z</time>
      </trkpt>
      <trkpt lat="48.35292" lon="-4.2641">
        <ele>23.111639022827</ele>
        <time>2011-05-03T17:39:42Z</time>
      </trkpt>
      <trkpt lat="48.35287" lon="-4.26408">
        <ele>23.609132766724</ele>
        <time>2011-05-03T17:39:45Z</time>
      </trkpt>
      <trkpt lat="48.35285" lon="-4.26406">
        <ele>23.872268676758</ele>
        <time>2011-05-03T17:39:47Z</time>
      </trkpt>
      <trkpt lat="48.35278" lon="-4.26403">
        <ele>24.600429534912</ele>
        <time>2011-05-03T17:39:52Z</time>
      </trkpt>
      <trkpt lat="48.35276" lon="-4.26402">
        <ele>24.913858413696</ele>
        <time>2011-05-03T17:39:54Z</time>
      </trkpt>
      <trkpt lat="48.35264" lon="-4.26397">
        <ele>26.222415924072</ele>
        <time>2011-05-03T17:40:01Z</time>
      </trkpt>
      <trkpt lat="48.35255" lon="-4.26392">
        <ele>27.400302886963</ele>
        <time>2011-05-03T17:40:07Z</time>
      </trkpt>
      <trkpt lat="48.35247" lon="-4.26384">
        <ele>28.47868347168</ele>
        <time>2011-05-03T17:40:14Z</time>
      </trkpt>
      <trkpt lat="48.35242" lon="-4.26378">
        <ele>29.142248153686</ele>
        <time>2011-05-03T17:40:19Z</time>
      </trkpt>
      <trkpt lat="48.35234" lon="-4.2637">
        <ele>30.10221862793</ele>
        <time>2011-05-03T17:40:26Z</time>
      </trkpt>
      <trkpt lat="48.35232" lon="-4.26368">
        <ele>30.384548187256</ele>
        <time>2011-05-03T17:40:28Z</time>
      </trkpt>
      <trkpt lat="48.35224" lon="-4.26363">
        <ele>31.217046737671</ele>
        <time>2011-05-03T17:40:34Z</time>
      </trkpt>
      <trkpt lat="48.35219" lon="-4.26359">
        <ele>31.81609916687</ele>
        <time>2011-05-03T17:40:38Z</time>
      </trkpt>
      <trkpt lat="48.35217" lon="-4.26356">
        <ele>32.059280395508</ele>
        <time>2011-05-03T17:40:40Z</time>
      </trkpt>
      <trkpt lat="48.35205" lon="-4.26349">
        <ele>33.313007354736</ele>
        <time>2011-05-03T17:40:48Z</time>
      </trkpt>
      <trkpt lat="48.35203" lon="-4.26347">
        <ele>33.557750701904</ele>
        <time>2011-05-03T17:40:50Z</time>
      </trkpt>
      <trkpt lat="48.35197" lon="-4.26344">
        <ele>34.167808532715</ele>
        <time>2011-05-03T17:40:54Z</time>
      </trkpt>
      <trkpt lat="48.35188" lon="-4.26339">
        <ele>35.085224151611</ele>
        <time>2011-05-03T17:41:00Z</time>
      </trkpt>
      <trkpt lat="48.35186" lon="-4.26338">
        <ele>35.28023147583</ele>
        <time>2011-05-03T17:41:01Z</time>
      </trkpt>
      <trkpt lat="48.3518" lon="-4.26335">
        <ele>35.817920684814</ele>
        <time>2011-05-03T17:41:05Z</time>
      </trkpt>
      <trkpt lat="48.35168" lon="-4.26329">
        <ele>37.014183044434</ele>
        <time>2011-05-03T17:41:13Z</time>
      </trkpt>
      <trkpt lat="48.35158" lon="-4.26323">
        <ele>38.157073974609</ele>
        <time>2011-05-03T17:41:19Z</time>
      </trkpt>
      <trkpt lat="48.35148" lon="-4.26318">
        <ele>39.397613525391</ele>
        <time>2011-05-03T17:41:25Z</time>
      </trkpt>
      <trkpt lat="48.35138" lon="-4.26312">
        <ele>40.575210571289</ele>
        <time>2011-05-03T17:41:31Z</time>
      </trkpt>
      <trkpt lat="48.35129" lon="-4.26308">
        <ele>41.702453613281</ele>
        <time>2011-05-03T17:41:37Z</time>
      </trkpt>
      <trkpt lat="48.35125" lon="-4.26306">
        <ele>42.151062011719</ele>
        <time>2011-05-03T17:41:39Z</time>
      </trkpt>
      <trkpt lat="48.35121" lon="-4.26307">
        <ele>42.581359863281</ele>
        <time>2011-05-03T17:41:45Z</time>
      </trkpt>
      <trkpt lat="48.35119" lon="-4.2631">
        <ele>42.724411010742</ele>
        <time>2011-05-03T17:41:53Z</time>
      </trkpt>
      <trkpt lat="48.3512" lon="-4.26313">
        <ele>42.494384765625</ele>
        <time>2011-05-03T17:42:11Z</time>
      </trkpt>
      <trkpt lat="48.3512" lon="-4.26308">
        <ele>42.600814819336</ele>
        <time>2011-05-03T17:43:57Z</time>
      </trkpt>
      <trkpt lat="48.3512" lon="-4.26307">
        <ele>42.631713867188</ele>
        <time>2011-05-03T17:44:17Z</time>
      </trkpt>
      <trkpt lat="48.35122" lon="-4.26303">
        <ele>42.590515136719</ele>
        <time>2011-05-03T17:45:20Z</time>
      </trkpt>
      <trkpt lat="48.3512" lon="-4.26307">
        <ele>42.62370300293</ele>
        <time>2011-05-03T17:45:30Z</time>
      </trkpt>
      <trkpt lat="48.35118" lon="-4.26309">
        <ele>42.787353515625</ele>
        <time>2011-05-03T17:45:32Z</time>
      </trkpt>
      <trkpt lat="48.35117" lon="-4.26311">
        <ele>42.873184204102</ele>
        <time>2011-05-03T17:45:43Z</time>
      </trkpt>
      <trkpt lat="48.35119" lon="-4.26312">
        <ele>42.674057006836</ele>
        <time>2011-05-03T17:45:52Z</time>
      </trkpt>
      <trkpt lat="48.3512" lon="-4.26314">
        <ele>42.551605224609</ele>
        <time>2011-05-03T17:46:03Z</time>
      </trkpt>
      <trkpt lat="48.35119" lon="-4.26311">
        <ele>42.691223144531</ele>
        <time>2011-05-03T17:46:09Z</time>
      </trkpt>
      <trkpt lat="48.35118" lon="-4.26307">
        <ele>42.846862792969</ele>
        <time>2011-05-03T17:46:17Z</time>
      </trkpt>
      <trkpt lat="48.35117" lon="-4.26306">
        <ele>42.975036621094</ele>
        <time>2011-05-03T17:46:23Z</time>
      </trkpt>
      <trkpt lat="48.35112" lon="-4.26304">
        <ele>43.558685302734</ele>
        <time>2011-05-03T17:46:29Z</time>
      </trkpt>
      <trkpt lat="48.35109" lon="-4.26304">
        <ele>43.945495605469</ele>
        <time>2011-05-03T17:46:32Z</time>
      </trkpt>
      <trkpt lat="48.35099" lon="-4.26303">
        <ele>45.022384643555</ele>
        <time>2011-05-03T17:46:39Z</time>
      </trkpt>
      <trkpt lat="48.3509" lon="-4.26304">
        <ele>46.006576538086</ele>
        <time>2011-05-03T17:46:44Z</time>
      </trkpt>
      <trkpt lat="48.35088" lon="-4.26304">
        <ele>46.206848144531</ele>
        <time>2011-05-03T17:46:45Z</time>
      </trkpt>
      <trkpt lat="48.35073" lon="-4.26304">
        <ele>47.095951080322</ele>
        <time>2011-05-03T17:46:53Z</time>
      </trkpt>
      <trkpt lat="48.3507" lon="-4.26303">
        <ele>47.226245880127</ele>
        <time>2011-05-03T17:46:55Z</time>
      </trkpt>
      <trkpt lat="48.35058" lon="-4.26303">
        <ele>47.713466644287</ele>
        <time>2011-05-03T17:47:02Z</time>
      </trkpt>
      <trkpt lat="48.35048" lon="-4.26298">
        <ele>48.1923828125</ele>
        <time>2011-05-03T17:47:08Z</time>
      </trkpt>
      <trkpt lat="48.35043" lon="-4.26294">
        <ele>48.444145202637</ele>
        <time>2011-05-03T17:47:11Z</time>
      </trkpt>
      <trkpt lat="48.3504" lon="-4.26283">
        <ele>48.674533843994</ele>
        <time>2011-05-03T17:47:16Z</time>
      </trkpt>
      <trkpt lat="48.35028" lon="-4.26267">
        <ele>49.185977935791</ele>
        <time>2011-05-03T17:47:25Z</time>
      </trkpt>
      <trkpt lat="48.35016" lon="-4.26248">
        <ele>49.526336669922</ele>
        <time>2011-05-03T17:47:32Z</time>
      </trkpt>
      <trkpt lat="48.35001" lon="-4.26223">
        <ele>48.704284667969</ele>
        <time>2011-05-03T17:47:39Z</time>
      </trkpt>
      <trkpt lat="48.3499" lon="-4.26192">
        <ele>46.903793334961</ele>
        <time>2011-05-03T17:47:45Z</time>
      </trkpt>
      <trkpt lat="48.34985" lon="-4.26156">
        <ele>45.004432678223</ele>
        <time>2011-05-03T17:47:50Z</time>
      </trkpt>
      <trkpt lat="48.3497" lon="-4.26118">
        <ele>42.825218200684</ele>
        <time>2011-05-03T17:47:55Z</time>
      </trkpt>
      <trkpt lat="48.34943" lon="-4.26065">
        <ele>41.621208190918</ele>
        <time>2011-05-03T17:48:02Z</time>
      </trkpt>
      <trkpt lat="48.34932" lon="-4.26046">
        <ele>41.739929199219</ele>
        <time>2011-05-03T17:48:06Z</time>
      </trkpt>
      <trkpt lat="48.34912" lon="-4.26016">
        <ele>42.818099975586</ele>
        <time>2011-05-03T17:48:15Z</time>
      </trkpt>
      <trkpt lat="48.34895" lon="-4.25993">
        <ele>44.732978820801</ele>
        <time>2011-05-03T17:48:22Z</time>
      </trkpt>
      <trkpt lat="48.34878" lon="-4.25965">
        <ele>46.273235321045</ele>
        <time>2011-05-03T17:48:30Z</time>
      </trkpt>
      <trkpt lat="48.34864" lon="-4.25936">
        <ele>47.203899383545</ele>
        <time>2011-05-03T17:48:38Z</time>
      </trkpt>
      <trkpt lat="48.34851" lon="-4.25898">
        <ele>47.820770263672</ele>
        <time>2011-05-03T17:48:48Z</time>
      </trkpt>
      <trkpt lat="48.34843" lon="-4.25879">
        <ele>48.232795715332</ele>
        <time>2011-05-03T17:48:53Z</time>
      </trkpt>
      <trkpt lat="48.34837" lon="-4.25869">
        <ele>48.536605834961</ele>
        <time>2011-05-03T17:48:58Z</time>
      </trkpt>
      <trkpt lat="48.34836" lon="-4.25867">
        <ele>48.554412841797</ele>
        <time>2011-05-03T17:49:09Z</time>
      </trkpt>
      <trkpt lat="48.34837" lon="-4.25868">
        <ele>48.510932922363</ele>
        <time>2011-05-03T17:49:31Z</time>
      </trkpt>
      <trkpt lat="48.34837" lon="-4.25872">
        <ele>48.610416412354</ele>
        <time>2011-05-03T17:49:55Z</time>
      </trkpt>
      <trkpt lat="48.34839" lon="-4.25875">
        <ele>48.512176513672</ele>
        <time>2011-05-03T17:50:27Z</time>
      </trkpt>
      <trkpt lat="48.34838" lon="-4.25873">
        <ele>48.493633270264</ele>
        <time>2011-05-03T17:50:50Z</time>
      </trkpt>
      <trkpt lat="48.34837" lon="-4.25869">
        <ele>48.500095367432</ele>
        <time>2011-05-03T17:51:12Z</time>
      </trkpt>
      <trkpt lat="48.34836" lon="-4.25865">
        <ele>48.542560577393</ele>
        <time>2011-05-03T17:51:32Z</time>
      </trkpt>
      <trkpt lat="48.34826" lon="-4.25853">
        <ele>48.758842468262</ele>
        <time>2011-05-03T17:51:43Z</time>
      </trkpt>
      <trkpt lat="48.34824" lon="-4.2585">
        <ele>48.787841796875</ele>
        <time>2011-05-03T17:51:48Z</time>
      </trkpt>
      <trkpt lat="48.34813" lon="-4.25838">
        <ele>48.855350494385</ele>
        <time>2011-05-03T17:51:59Z</time>
      </trkpt>
      <trkpt lat="48.34802" lon="-4.25826">
        <ele>48.887886047363</ele>
        <time>2011-05-03T17:52:10Z</time>
      </trkpt>
      <trkpt lat="48.34789" lon="-4.25812">
        <ele>48.947925567627</ele>
        <time>2011-05-03T17:52:22Z</time>
      </trkpt>
      <trkpt lat="48.34776" lon="-4.25794">
        <ele>48.971393585205</ele>
        <time>2011-05-03T17:52:36Z</time>
      </trkpt>
      <trkpt lat="48.34767" lon="-4.25778">
        <ele>48.931102752686</ele>
        <time>2011-05-03T17:52:47Z</time>
      </trkpt>
      <trkpt lat="48.34757" lon="-4.25761">
        <ele>48.920734405518</ele>
        <time>2011-05-03T17:52:59Z</time>
      </trkpt>
      <trkpt lat="48.3475" lon="-4.25754">
        <ele>49.131450653076</ele>
        <time>2011-05-03T17:53:07Z</time>
      </trkpt>
      <trkpt lat="48.34745" lon="-4.25755">
        <ele>49.523456573486</ele>
        <time>2011-05-03T17:53:12Z</time>
      </trkpt>
      <trkpt lat="48.34731" lon="-4.25769">
        <ele>50.895938873291</ele>
        <time>2011-05-02T17:48:47Z</time>
      </trkpt>
      <trkpt lat="48.3471" lon="-4.25776">
        <ele>52.542366027832</ele>
        <time>2011-05-02T17:48:55Z</time>
      </trkpt>
      <trkpt lat="48.34705" lon="-4.25777">
        <ele>52.931770324707</ele>
        <time>2011-05-02T17:48:57Z</time>
      </trkpt>
      <trkpt lat="48.34698" lon="-4.25766">
        <ele>53.355072021484</ele>
        <time>2011-05-02T17:49:02Z</time>
      </trkpt>
      <trkpt lat="48.34697" lon="-4.25764">
        <ele>53.440250396729</ele>
        <time>2011-05-02T17:49:03Z</time>
      </trkpt>
      <trkpt lat="48.3469" lon="-4.25749">
        <ele>54.064880371094</ele>
        <time>2011-05-02T17:49:10Z</time>
      </trkpt>
      <trkpt lat="48.34683" lon="-4.25734">
        <ele>55.03076171875</ele>
        <time>2011-05-02T17:49:18Z</time>
      </trkpt>
      <trkpt lat="48.34679" lon="-4.2573">
        <ele>55.435882568359</ele>
        <time>2011-05-02T17:49:24Z</time>
      </trkpt>
      <trkpt lat="48.34678" lon="-4.25722">
        <ele>55.758605957031</ele>
        <time>2011-05-02T17:49:39Z</time>
      </trkpt>
      <trkpt lat="48.34674" lon="-4.2572">
        <ele>56.107650756836</ele>
        <time>2011-05-02T17:50:59Z</time>
      </trkpt>
      <trkpt lat="48.34671" lon="-4.25715">
        <ele>56.472717285156</ele>
        <time>2011-05-02T17:51:06Z</time>
      </trkpt>
      <trkpt lat="48.34668" lon="-4.25705">
        <ele>56.993423461914</ele>
        <time>2011-05-02T17:51:12Z</time>
      </trkpt>
      <trkpt lat="48.34663" lon="-4.25692">
        <ele>57.479274749756</ele>
        <time>2011-05-02T17:51:18Z</time>
      </trkpt>
      <trkpt lat="48.34658" lon="-4.2568">
        <ele>57.918022155762</ele>
        <time>2011-05-02T17:51:23Z</time>
      </trkpt>
      <trkpt lat="48.34657" lon="-4.25673">
        <ele>58.194610595703</ele>
        <time>2011-05-02T17:51:26Z</time>
      </trkpt>
      <trkpt lat="48.34656" lon="-4.2566">
        <ele>58.639827728271</ele>
        <time>2011-05-02T17:51:31Z</time>
      </trkpt>
      <trkpt lat="48.34653" lon="-4.25643">
        <ele>59.396003723145</ele>
        <time>2011-05-02T17:51:36Z</time>
      </trkpt>
      <trkpt lat="48.34653" lon="-4.25638">
        <ele>59.585487365723</ele>
        <time>2011-05-02T17:51:38Z</time>
      </trkpt>
      <trkpt lat="48.34653" lon="-4.25633">
        <ele>59.757423400879</ele>
        <time>2011-05-02T17:51:40Z</time>
      </trkpt>
      <trkpt lat="48.34653" lon="-4.25615">
        <ele>60.436107635498</ele>
        <time>2011-05-02T17:51:47Z</time>
      </trkpt>
      <trkpt lat="48.34655" lon="-4.25598">
        <ele>61.025325775146</ele>
        <time>2011-05-02T17:51:53Z</time>
      </trkpt>
      <trkpt lat="48.34654" lon="-4.2558">
        <ele>61.714706420898</ele>
        <time>2011-05-02T17:51:59Z</time>
      </trkpt>
      <trkpt lat="48.34654" lon="-4.25576">
        <ele>61.91153717041</ele>
        <time>2011-05-02T17:52:01Z</time>
      </trkpt>
      <trkpt lat="48.34654" lon="-4.25563">
        <ele>62.421844482422</ele>
        <time>2011-05-02T17:52:06Z</time>
      </trkpt>
      <trkpt lat="48.34653" lon="-4.25557">
        <ele>62.66576385498</ele>
        <time>2011-05-02T17:52:08Z</time>
      </trkpt>
      <trkpt lat="48.34652" lon="-4.25539">
        <ele>63.374095916748</ele>
        <time>2011-05-02T17:52:15Z</time>
      </trkpt>
      <trkpt lat="48.34649" lon="-4.25522">
        <ele>64.008934020996</ele>
        <time>2011-05-02T17:52:21Z</time>
      </trkpt>
      <trkpt lat="48.34646" lon="-4.25505">
        <ele>64.579750061035</ele>
        <time>2011-05-02T17:52:27Z</time>
      </trkpt>
      <trkpt lat="48.34645" lon="-4.25491">
        <ele>64.730224609375</ele>
        <time>2011-05-02T17:52:32Z</time>
      </trkpt>
      <trkpt lat="48.34645" lon="-4.25466">
        <ele>64.73836517334</ele>
        <time>2011-05-02T17:52:37Z</time>
      </trkpt>
      <trkpt lat="48.3465" lon="-4.25435">
        <ele>64.956993103027</ele>
        <time>2011-05-02T17:52:44Z</time>
      </trkpt>
      <trkpt lat="48.34653" lon="-4.25418">
        <ele>65.179130554199</ele>
        <time>2011-05-02T17:52:48Z</time>
      </trkpt>
      <trkpt lat="48.34659" lon="-4.25397">
        <ele>65.727020263672</ele>
        <time>2011-05-02T17:52:53Z</time>
      </trkpt>
      <trkpt lat="48.34667" lon="-4.25378">
        <ele>66.461013793945</ele>
        <time>2011-05-02T17:52:57Z</time>
      </trkpt>
      <trkpt lat="48.34673" lon="-4.25365">
        <ele>66.75456237793</ele>
        <time>2011-05-02T17:53:01Z</time>
      </trkpt>
      <trkpt lat="48.3468" lon="-4.25347">
        <ele>67.238418579102</ele>
        <time>2011-05-02T17:53:06Z</time>
      </trkpt>
      <trkpt lat="48.34688" lon="-4.25329">
        <ele>67.690246582031</ele>
        <time>2011-05-02T17:53:11Z</time>
      </trkpt>
      <trkpt lat="48.34699" lon="-4.25307">
        <ele>67.775489807129</ele>
        <time>2011-05-02T17:53:16Z</time>
      </trkpt>
      <trkpt lat="48.3471" lon="-4.25283">
        <ele>67.976676940918</ele>
        <time>2011-05-02T17:53:22Z</time>
      </trkpt>
      <trkpt lat="48.34719" lon="-4.25263">
        <ele>68.237915039062</ele>
        <time>2011-05-02T17:53:28Z</time>
      </trkpt>
      <trkpt lat="48.34726" lon="-4.25245">
        <ele>68.539482116699</ele>
        <time>2011-05-02T17:53:33Z</time>
      </trkpt>
      <trkpt lat="48.34733" lon="-4.25228">
        <ele>68.938034057617</ele>
        <time>2011-05-02T17:53:38Z</time>
      </trkpt>
      <trkpt lat="48.34743" lon="-4.252">
        <ele>69.537864685059</ele>
        <time>2011-05-02T17:53:45Z</time>
      </trkpt>
      <trkpt lat="48.34753" lon="-4.25173">
        <ele>70.14005279541</ele>
        <time>2011-05-02T17:53:50Z</time>
      </trkpt>
      <trkpt lat="48.3476" lon="-4.2515">
        <ele>70.136268615723</ele>
        <time>2011-05-02T17:53:55Z</time>
      </trkpt>
      <trkpt lat="48.34764" lon="-4.25133">
        <ele>69.988983154297</ele>
        <time>2011-05-02T17:54:00Z</time>
      </trkpt>
      <trkpt lat="48.34771" lon="-4.2511">
        <ele>69.972702026367</ele>
        <time>2011-05-02T17:54:06Z</time>
      </trkpt>
      <trkpt lat="48.34777" lon="-4.25092">
        <ele>70.091438293457</ele>
        <time>2011-05-02T17:54:10Z</time>
      </trkpt>
      <trkpt lat="48.34783" lon="-4.25075">
        <ele>70.243225097656</ele>
        <time>2011-05-02T17:54:14Z</time>
      </trkpt>
      <trkpt lat="48.3479" lon="-4.25056">
        <ele>70.541168212891</ele>
        <time>2011-05-02T17:54:18Z</time>
      </trkpt>
      <trkpt lat="48.34805" lon="-4.2502">
        <ele>71.433532714844</ele>
        <time>2011-05-02T17:54:26Z</time>
      </trkpt>
      <trkpt lat="48.34814" lon="-4.24999">
        <ele>72.149024963379</ele>
        <time>2011-05-02T17:54:32Z</time>
      </trkpt>
      <trkpt lat="48.34826" lon="-4.24973">
        <ele>73.295143127441</ele>
        <time>2011-05-02T17:54:39Z</time>
      </trkpt>
      <trkpt lat="48.34839" lon="-4.24942">
        <ele>74.311897277832</ele>
        <time>2011-05-02T17:54:47Z</time>
      </trkpt>
      <trkpt lat="48.3485" lon="-4.24914">
        <ele>75.095733642578</ele>
        <time>2011-05-02T17:54:54Z</time>
      </trkpt>
      <trkpt lat="48.34859" lon="-4.24888">
        <ele>76.271873474121</ele>
        <time>2011-05-02T17:55:01Z</time>
      </trkpt>
      <trkpt lat="48.34871" lon="-4.24858">
        <ele>77.40299987793</ele>
        <time>2011-05-02T17:55:10Z</time>
      </trkpt>
      <trkpt lat="48.3488" lon="-4.24833">
        <ele>78.119125366211</ele>
        <time>2011-05-02T17:55:18Z</time>
      </trkpt>
      <trkpt lat="48.34881" lon="-4.24829">
        <ele>78.149047851562</ele>
        <time>2011-05-02T17:55:20Z</time>
      </trkpt>
      <trkpt lat="48.34875" lon="-4.24821">
        <ele>78.01171875</ele>
        <time>2011-05-02T17:55:24Z</time>
      </trkpt>
      <trkpt lat="48.34866" lon="-4.24816">
        <ele>77.782836914062</ele>
        <time>2011-05-02T17:55:28Z</time>
      </trkpt>
      <trkpt lat="48.34844" lon="-4.24809">
        <ele>77.251831054688</ele>
        <time>2011-05-02T17:55:34Z</time>
      </trkpt>
      <trkpt lat="48.3483" lon="-4.24806">
        <ele>76.521095275879</ele>
        <time>2011-05-02T17:55:38Z</time>
      </trkpt>
      <trkpt lat="48.34801" lon="-4.24797">
        <ele>72.914009094238</ele>
        <time>2011-05-02T17:55:44Z</time>
      </trkpt>
      <trkpt lat="48.34772" lon="-4.24778">
        <ele>69.608261108398</ele>
        <time>2011-05-02T17:55:49Z</time>
      </trkpt>
      <trkpt lat="48.34735" lon="-4.2475">
        <ele>66.390274047852</ele>
        <time>2011-05-02T17:55:55Z</time>
      </trkpt>
      <trkpt lat="48.34698" lon="-4.24717">
        <ele>63.282043457031</ele>
        <time>2011-05-02T17:56:01Z</time>
      </trkpt>
      <trkpt lat="48.34692" lon="-4.24712">
        <ele>62.835372924805</ele>
        <time>2011-05-02T17:56:02Z</time>
      </trkpt>
      <trkpt lat="48.34657" lon="-4.24675">
        <ele>62.062660217285</ele>
        <time>2011-05-02T17:56:09Z</time>
      </trkpt>
      <trkpt lat="48.34634" lon="-4.24658">
        <ele>63.392211914062</ele>
        <time>2011-05-02T17:56:15Z</time>
      </trkpt>
      <trkpt lat="48.34608" lon="-4.24644">
        <ele>64.64762878418</ele>
        <time>2011-05-02T17:56:22Z</time>
      </trkpt>
      <trkpt lat="48.34588" lon="-4.24635">
        <ele>65.596343994141</ele>
        <time>2011-05-02T17:56:29Z</time>
      </trkpt>
      <trkpt lat="48.34573" lon="-4.24631">
        <ele>66.71215057373</ele>
        <time>2011-05-02T17:56:35Z</time>
      </trkpt>
      <trkpt lat="48.34557" lon="-4.24627">
        <ele>68.06761932373</ele>
        <time>2011-05-02T17:56:42Z</time>
      </trkpt>
      <trkpt lat="48.34545" lon="-4.24626">
        <ele>68.974311828613</ele>
        <time>2011-05-02T17:56:47Z</time>
      </trkpt>
      <trkpt lat="48.34531" lon="-4.24623">
        <ele>70.083671569824</ele>
        <time>2011-05-02T17:56:54Z</time>
      </trkpt>
      <trkpt lat="48.34524" lon="-4.24622">
        <ele>70.639694213867</ele>
        <time>2011-05-02T17:56:59Z</time>
      </trkpt>
      <trkpt lat="48.34513" lon="-4.24618">
        <ele>71.434753417969</ele>
        <time>2011-05-02T17:57:04Z</time>
      </trkpt>
      <trkpt lat="48.34508" lon="-4.24614">
        <ele>71.801872253418</ele>
        <time>2011-05-02T17:57:07Z</time>
      </trkpt>
      <trkpt lat="48.34498" lon="-4.24622">
        <ele>72.334060668945</ele>
        <time>2011-05-02T17:57:12Z</time>
      </trkpt>
      <trkpt lat="48.34486" lon="-4.24639">
        <ele>71.686210632324</ele>
        <time>2011-05-02T17:57:19Z</time>
      </trkpt>
      <trkpt lat="48.34472" lon="-4.24659">
        <ele>71.168441772461</ele>
        <time>2011-05-02T17:57:26Z</time>
      </trkpt>
      <trkpt lat="48.3446" lon="-4.24685">
        <ele>71.240447998047</ele>
        <time>2011-05-02T17:57:33Z</time>
      </trkpt>
      <trkpt lat="48.34446" lon="-4.24721">
        <ele>72.298942565918</ele>
        <time>2011-05-02T17:57:42Z</time>
      </trkpt>
      <trkpt lat="48.34435" lon="-4.24758">
        <ele>73.891815185547</ele>
        <time>2011-05-02T17:57:50Z</time>
      </trkpt>
      <trkpt lat="48.34426" lon="-4.24797">
        <ele>74.775650024414</ele>
        <time>2011-05-02T17:57:58Z</time>
      </trkpt>
      <trkpt lat="48.34418" lon="-4.24833">
        <ele>75.902870178223</ele>
        <time>2011-05-02T17:58:05Z</time>
      </trkpt>
      <trkpt lat="48.34409" lon="-4.24859">
        <ele>75.423385620117</ele>
        <time>2011-05-02T17:58:11Z</time>
      </trkpt>
      <trkpt lat="48.34397" lon="-4.24886">
        <ele>74.87296295166</ele>
        <time>2011-05-02T17:58:17Z</time>
      </trkpt>
      <trkpt lat="48.34387" lon="-4.2491">
        <ele>74.635559082031</ele>
        <time>2011-05-02T17:58:22Z</time>
      </trkpt>
      <trkpt lat="48.34366" lon="-4.24946">
        <ele>74.542587280273</ele>
        <time>2011-05-02T17:58:29Z</time>
      </trkpt>
      <trkpt lat="48.34348" lon="-4.2498">
        <ele>75.158134460449</ele>
        <time>2011-05-02T17:58:35Z</time>
      </trkpt>
      <trkpt lat="48.34326" lon="-4.2503">
        <ele>75.854393005371</ele>
        <time>2011-05-02T17:58:44Z</time>
      </trkpt>
      <trkpt lat="48.34314" lon="-4.2506">
        <ele>75.523101806641</ele>
        <time>2011-05-02T17:58:49Z</time>
      </trkpt>
      <trkpt lat="48.34291" lon="-4.25119">
        <ele>72.990837097168</ele>
        <time>2011-05-02T17:58:58Z</time>
      </trkpt>
      <trkpt lat="48.34262" lon="-4.25176">
        <ele>69.996116638184</ele>
        <time>2011-05-02T17:59:07Z</time>
      </trkpt>
      <trkpt lat="48.34238" lon="-4.25222">
        <ele>68.259651184082</ele>
        <time>2011-05-02T17:59:14Z</time>
      </trkpt>
      <trkpt lat="48.34212" lon="-4.2527">
        <ele>66.478019714355</ele>
        <time>2011-05-02T17:59:21Z</time>
      </trkpt>
      <trkpt lat="48.34187" lon="-4.253">
        <ele>65.444030761719</ele>
        <time>2011-05-02T17:59:26Z</time>
      </trkpt>
      <trkpt lat="48.34145" lon="-4.25351">
        <ele>63.139881134033</ele>
        <time>2011-05-02T17:59:34Z</time>
      </trkpt>
      <trkpt lat="48.34114" lon="-4.25388">
        <ele>60.845233917236</ele>
        <time>2011-05-02T17:59:39Z</time>
      </trkpt>
      <trkpt lat="48.34092" lon="-4.25432">
        <ele>58.880260467529</ele>
        <time>2011-05-02T17:59:43Z</time>
      </trkpt>
      <trkpt lat="48.34059" lon="-4.25513">
        <ele>52.704853057861</ele>
        <time>2011-05-02T17:59:50Z</time>
      </trkpt>
      <trkpt lat="48.34036" lon="-4.25598">
        <ele>49.511215209961</ele>
        <time>2011-05-02T17:59:57Z</time>
      </trkpt>
      <trkpt lat="48.34012" lon="-4.25695">
        <ele>46.207252502441</ele>
        <time>2011-05-02T18:00:05Z</time>
      </trkpt>
      <trkpt lat="48.33994" lon="-4.25762">
        <ele>43.577777862549</ele>
        <time>2011-05-02T18:00:11Z</time>
      </trkpt>
      <trkpt lat="48.33978" lon="-4.25808">
        <ele>43.160266876221</ele>
        <time>2011-05-02T18:00:17Z</time>
      </trkpt>
      <trkpt lat="48.33965" lon="-4.25847">
        <ele>43.132595062256</ele>
        <time>2011-05-02T18:00:23Z</time>
      </trkpt>
      <trkpt lat="48.33964" lon="-4.25851">
        <ele>43.102607727051</ele>
        <time>2011-05-02T18:00:24Z</time>
      </trkpt>
      <trkpt lat="48.33961" lon="-4.25859">
        <ele>43.052051544189</ele>
        <time>2011-05-02T18:00:26Z</time>
      </trkpt>
      <trkpt lat="48.33957" lon="-4.25871">
        <ele>42.986255645752</ele>
        <time>2011-05-02T18:00:31Z</time>
      </trkpt>
      <trkpt lat="48.33956" lon="-4.25875">
        <ele>42.969528198242</ele>
        <time>2011-05-02T18:00:35Z</time>
      </trkpt>
      <trkpt lat="48.33952" lon="-4.25893">
        <ele>42.956005096436</ele>
        <time>2011-05-02T18:00:40Z</time>
      </trkpt>
      <trkpt lat="48.3395" lon="-4.25909">
        <ele>42.980480194092</ele>
        <time>2011-05-02T18:00:44Z</time>
      </trkpt>
      <trkpt lat="48.33949" lon="-4.25915">
        <ele>42.996509552002</ele>
        <time>2011-05-02T18:00:49Z</time>
      </trkpt>
      <trkpt lat="48.33943" lon="-4.25929">
        <ele>43.143112182617</ele>
        <time>2011-05-02T18:00:54Z</time>
      </trkpt>
      <trkpt lat="48.33936" lon="-4.25946">
        <ele>43.354827880859</ele>
        <time>2011-05-02T18:00:59Z</time>
      </trkpt>
      <trkpt lat="48.33934" lon="-4.25954">
        <ele>43.449813842773</ele>
        <time>2011-05-02T18:01:04Z</time>
      </trkpt>
      <trkpt lat="48.33931" lon="-4.2596">
        <ele>43.525344848633</ele>
        <time>2011-05-02T18:01:11Z</time>
      </trkpt>
      <trkpt lat="48.33925" lon="-4.25977">
        <ele>43.725616455078</ele>
        <time>2011-05-02T18:01:17Z</time>
      </trkpt>
      <trkpt lat="48.3392" lon="-4.25999">
        <ele>43.993980407715</ele>
        <time>2011-05-02T18:01:23Z</time>
      </trkpt>
      <trkpt lat="48.33915" lon="-4.26021">
        <ele>44.783576965332</ele>
        <time>2011-05-02T18:01:28Z</time>
      </trkpt>
      <trkpt lat="48.33906" lon="-4.26059">
        <ele>46.439571380615</ele>
        <time>2011-05-02T18:01:37Z</time>
      </trkpt>
      <trkpt lat="48.33901" lon="-4.26079">
        <ele>47.405330657959</ele>
        <time>2011-05-02T18:01:42Z</time>
      </trkpt>
      <trkpt lat="48.33895" lon="-4.26104">
        <ele>48.032264709473</ele>
        <time>2011-05-02T18:01:48Z</time>
      </trkpt>
      <trkpt lat="48.33886" lon="-4.26137">
        <ele>48.763542175293</ele>
        <time>2011-05-02T18:01:55Z</time>
      </trkpt>
      <trkpt lat="48.33874" lon="-4.26172">
        <ele>49.481258392334</ele>
        <time>2011-05-02T18:02:02Z</time>
      </trkpt>
      <trkpt lat="48.33862" lon="-4.26215">
        <ele>49.225028991699</ele>
        <time>2011-05-02T18:02:10Z</time>
      </trkpt>
      <trkpt lat="48.33844" lon="-4.26271">
        <ele>49.098163604736</ele>
        <time>2011-05-02T18:02:19Z</time>
      </trkpt>
      <trkpt lat="48.33828" lon="-4.26321">
        <ele>50.015701293945</ele>
        <time>2011-05-02T18:02:27Z</time>
      </trkpt>
      <trkpt lat="48.33815" lon="-4.26357">
        <ele>49.879211425781</ele>
        <time>2011-05-02T18:02:33Z</time>
      </trkpt>
      <trkpt lat="48.33807" lon="-4.26376">
        <ele>49.58967590332</ele>
        <time>2011-05-02T18:02:37Z</time>
      </trkpt>
      <trkpt lat="48.33796" lon="-4.26408">
        <ele>49.104446411133</ele>
        <time>2011-05-02T18:02:43Z</time>
      </trkpt>
      <trkpt lat="48.33784" lon="-4.2644">
        <ele>49.346935272217</ele>
        <time>2011-05-02T18:02:49Z</time>
      </trkpt>
      <trkpt lat="48.33776" lon="-4.26463">
        <ele>49.767654418945</ele>
        <time>2011-05-02T18:02:53Z</time>
      </trkpt>
      <trkpt lat="48.33773" lon="-4.26478">
        <ele>49.979564666748</ele>
        <time>2011-05-02T18:02:57Z</time>
      </trkpt>
      <trkpt lat="48.33774" lon="-4.26488">
        <ele>50.04076385498</ele>
        <time>2011-05-02T18:03:34Z</time>
      </trkpt>
      <trkpt lat="48.33774" lon="-4.26491">
        <ele>50.064880371094</ele>
        <time>2011-05-02T18:04:12Z</time>
      </trkpt>
      <trkpt lat="48.3377" lon="-4.26509">
        <ele>50.428230285645</ele>
        <time>2011-05-02T18:04:17Z</time>
      </trkpt>
      <trkpt lat="48.33764" lon="-4.26542">
        <ele>51.081371307373</ele>
        <time>2011-05-02T18:04:24Z</time>
      </trkpt>
      <trkpt lat="48.33759" lon="-4.26572">
        <ele>51.644832611084</ele>
        <time>2011-05-02T18:04:30Z</time>
      </trkpt>
      <trkpt lat="48.33752" lon="-4.26613">
        <ele>51.930961608887</ele>
        <time>2011-05-02T18:04:37Z</time>
      </trkpt>
      <trkpt lat="48.33746" lon="-4.26652">
        <ele>52.072525024414</ele>
        <time>2011-05-02T18:04:44Z</time>
      </trkpt>
      <trkpt lat="48.33741" lon="-4.26697">
        <ele>52.904121398926</ele>
        <time>2011-05-02T18:04:52Z</time>
      </trkpt>
      <trkpt lat="48.33736" lon="-4.26747">
        <ele>54.102363586426</ele>
        <time>2011-05-02T18:05:01Z</time>
      </trkpt>
      <trkpt lat="48.33732" lon="-4.26793">
        <ele>54.843601226807</ele>
        <time>2011-05-02T18:05:10Z</time>
      </trkpt>
      <trkpt lat="48.3373" lon="-4.26821">
        <ele>55.30345916748</ele>
        <time>2011-05-02T18:05:16Z</time>
      </trkpt>
      <trkpt lat="48.33722" lon="-4.26845">
        <ele>56.029819488525</ele>
        <time>2011-05-02T18:05:22Z</time>
      </trkpt>
      <trkpt lat="48.3371" lon="-4.26854">
        <ele>56.599269866943</ele>
        <time>2011-05-02T18:05:27Z</time>
      </trkpt>
      <trkpt lat="48.33691" lon="-4.26863">
        <ele>57.226642608643</ele>
        <time>2011-05-02T18:05:33Z</time>
      </trkpt>
      <trkpt lat="48.33674" lon="-4.26869">
        <ele>57.715801239014</ele>
        <time>2011-05-02T18:05:39Z</time>
      </trkpt>
      <trkpt lat="48.33655" lon="-4.26878">
        <ele>57.728889465332</ele>
        <time>2011-05-02T18:05:44Z</time>
      </trkpt>
      <trkpt lat="48.33636" lon="-4.2689">
        <ele>57.488479614258</ele>
        <time>2011-05-02T18:05:49Z</time>
      </trkpt>
      <trkpt lat="48.33612" lon="-4.26923">
        <ele>57.85929107666</ele>
        <time>2011-05-02T18:05:57Z</time>
      </trkpt>
      <trkpt lat="48.33597" lon="-4.26943">
        <ele>58.004940032959</ele>
        <time>2011-05-02T18:06:02Z</time>
      </trkpt>
      <trkpt lat="48.3357" lon="-4.26968">
        <ele>57.6256980896</ele>
        <time>2011-05-02T18:06:09Z</time>
      </trkpt>
      <trkpt lat="48.33546" lon="-4.26983">
        <ele>57.069454193115</ele>
        <time>2011-05-02T18:06:15Z</time>
      </trkpt>
      <trkpt lat="48.33511" lon="-4.27016">
        <ele>56.750919342041</ele>
        <time>2011-05-02T18:06:24Z</time>
      </trkpt>
      <trkpt lat="48.33474" lon="-4.27051">
        <ele>56.193603515625</ele>
        <time>2011-05-02T18:06:33Z</time>
      </trkpt>
      <trkpt lat="48.33454" lon="-4.27057">
        <ele>55.538730621338</ele>
        <time>2011-05-02T18:06:37Z</time>
      </trkpt>
      <trkpt lat="48.33411" lon="-4.27052">
        <ele>53.591739654541</ele>
        <time>2011-05-02T18:06:44Z</time>
      </trkpt>
      <trkpt lat="48.33362" lon="-4.27044">
        <ele>50.923416137695</ele>
        <time>2011-05-02T18:06:51Z</time>
      </trkpt>
      <trkpt lat="48.33322" lon="-4.27028">
        <ele>48.570091247559</ele>
        <time>2011-05-02T18:06:57Z</time>
      </trkpt>
      <trkpt lat="48.33279" lon="-4.27005">
        <ele>45.745800018311</ele>
        <time>2011-05-02T18:07:04Z</time>
      </trkpt>
      <trkpt lat="48.33237" lon="-4.26978">
        <ele>42.921157836914</ele>
        <time>2011-05-02T18:07:10Z</time>
      </trkpt>
      <trkpt lat="48.33198" lon="-4.26933">
        <ele>41.014266967773</ele>
        <time>2011-05-02T18:07:16Z</time>
      </trkpt>
      <trkpt lat="48.33161" lon="-4.26894">
        <ele>39.988876342773</ele>
        <time>2011-05-02T18:07:22Z</time>
      </trkpt>
      <trkpt lat="48.33131" lon="-4.26875">
        <ele>40.217067718506</ele>
        <time>2011-05-02T18:07:27Z</time>
      </trkpt>
      <trkpt lat="48.33097" lon="-4.26859">
        <ele>40.894905090332</ele>
        <time>2011-05-02T18:07:34Z</time>
      </trkpt>
      <trkpt lat="48.33065" lon="-4.26845">
        <ele>41.765758514404</ele>
        <time>2011-05-02T18:07:41Z</time>
      </trkpt>
      <trkpt lat="48.33037" lon="-4.26833">
        <ele>42.548625946045</ele>
        <time>2011-05-02T18:07:48Z</time>
      </trkpt>
      <trkpt lat="48.33012" lon="-4.26822">
        <ele>42.700225830078</ele>
        <time>2011-05-02T18:07:54Z</time>
      </trkpt>
      <trkpt lat="48.32981" lon="-4.26804">
        <ele>42.497291564941</ele>
        <time>2011-05-02T18:08:02Z</time>
      </trkpt>
      <trkpt lat="48.32973" lon="-4.26798">
        <ele>42.391605377197</ele>
        <time>2011-05-02T18:08:04Z</time>
      </trkpt>
      <trkpt lat="48.32946" lon="-4.26772">
        <ele>42.092643737793</ele>
        <time>2011-05-02T18:08:12Z</time>
      </trkpt>
      <trkpt lat="48.32926" lon="-4.2674">
        <ele>41.775375366211</ele>
        <time>2011-05-02T18:08:19Z</time>
      </trkpt>
      <trkpt lat="48.32907" lon="-4.26711">
        <ele>40.705051422119</ele>
        <time>2011-05-02T18:08:25Z</time>
      </trkpt>
      <trkpt lat="48.32878" lon="-4.26676">
        <ele>39.17924118042</ele>
        <time>2011-05-02T18:08:32Z</time>
      </trkpt>
      <trkpt lat="48.32841" lon="-4.26636">
        <ele>37.450180053711</ele>
        <time>2011-05-02T18:08:40Z</time>
      </trkpt>
      <trkpt lat="48.32817" lon="-4.26624">
        <ele>36.272644042969</ele>
        <time>2011-05-02T18:08:45Z</time>
      </trkpt>
      <trkpt lat="48.32813" lon="-4.26621">
        <ele>36.043731689453</ele>
        <time>2011-05-02T18:08:46Z</time>
      </trkpt>
      <trkpt lat="48.32806" lon="-4.26616">
        <ele>35.62707901001</ele>
        <time>2011-05-02T18:08:48Z</time>
      </trkpt>
      <trkpt lat="48.32801" lon="-4.26604">
        <ele>35.055965423584</ele>
        <time>2011-05-02T18:08:54Z</time>
      </trkpt>
      <trkpt lat="48.328" lon="-4.26602">
        <ele>34.942691802979</ele>
        <time>2011-05-02T18:08:55Z</time>
      </trkpt>
      <trkpt lat="48.32788" lon="-4.26584">
        <ele>33.853832244873</ele>
        <time>2011-05-02T18:09:01Z</time>
      </trkpt>
      <trkpt lat="48.32783" lon="-4.26573">
        <ele>33.637378692627</ele>
        <time>2011-05-02T18:09:03Z</time>
      </trkpt>
      <trkpt lat="48.32785" lon="-4.26548">
        <ele>33.839622497559</ele>
        <time>2011-05-02T18:09:08Z</time>
      </trkpt>
      <trkpt lat="48.32787" lon="-4.2654">
        <ele>34.022899627686</ele>
        <time>2011-05-02T18:09:10Z</time>
      </trkpt>
      <trkpt lat="48.32799" lon="-4.2651">
        <ele>34.857807159424</ele>
        <time>2011-05-02T18:09:17Z</time>
      </trkpt>
      <trkpt lat="48.32804" lon="-4.26502">
        <ele>35.208549499512</ele>
        <time>2011-05-02T18:09:21Z</time>
      </trkpt>
      <trkpt lat="48.32808" lon="-4.2649">
        <ele>35.498229980469</ele>
        <time>2011-05-02T18:09:26Z</time>
      </trkpt>
      <trkpt lat="48.32813" lon="-4.26474">
        <ele>35.772888183594</ele>
        <time>2011-05-02T18:09:32Z</time>
      </trkpt>
      <trkpt lat="48.32816" lon="-4.26469">
        <ele>35.978881835938</ele>
        <time>2011-05-02T18:09:35Z</time>
      </trkpt>
      <trkpt lat="48.3282" lon="-4.26472">
        <ele>36.184875488281</ele>
        <time>2011-05-02T18:09:38Z</time>
      </trkpt>
      <trkpt lat="48.32817" lon="-4.26479">
        <ele>36.001770019531</ele>
        <time>2011-05-02T18:09:43Z</time>
      </trkpt>
      <trkpt lat="48.32814" lon="-4.26488">
        <ele>35.818664550781</ele>
        <time>2011-05-02T18:09:48Z</time>
      </trkpt>
      <trkpt lat="48.32812" lon="-4.26488">
        <ele>35.727111816406</ele>
        <time>2011-05-02T18:09:55Z</time>
      </trkpt>
      <trkpt lat="48.32811" lon="-4.26487">
        <ele>35.681335449219</ele>
        <time>2011-05-02T18:09:59Z</time>
      </trkpt>
      <trkpt lat="48.32785" lon="-4.26555">
        <ele>33.807025909424</ele>
        <time>2011-04-17T14:08:43Z</time>
      </trkpt>
      <trkpt lat="48.32777" lon="-4.26547">
        <ele>33.439235687256</ele>
        <time>2011-04-17T14:08:47Z</time>
      </trkpt>
      <trkpt lat="48.32773" lon="-4.26525">
        <ele>33.310012817383</ele>
        <time>2011-04-17T14:08:51Z</time>
      </trkpt>
      <trkpt lat="48.32769" lon="-4.26489">
        <ele>33.117858886719</ele>
        <time>2011-04-17T14:08:56Z</time>
      </trkpt>
      <trkpt lat="48.32752" lon="-4.2645">
        <ele>32.110778808594</ele>
        <time>2011-04-17T14:09:01Z</time>
      </trkpt>
      <trkpt lat="48.32727" lon="-4.26432">
        <ele>31.075073242188</ele>
        <time>2011-04-17T14:09:05Z</time>
      </trkpt>
      <trkpt lat="48.32679" lon="-4.26412">
        <ele>29.34200668335</ele>
        <time>2011-04-17T14:09:12Z</time>
      </trkpt>
      <trkpt lat="48.32649" lon="-4.26386">
        <ele>28.642791748047</ele>
        <time>2011-04-17T14:09:17Z</time>
      </trkpt>
      <trkpt lat="48.3263" lon="-4.26375">
        <ele>28.871179580689</ele>
        <time>2011-04-17T14:09:20Z</time>
      </trkpt>
      <trkpt lat="48.32623" lon="-4.26367">
        <ele>28.963842391968</ele>
        <time>2011-04-17T14:09:22Z</time>
      </trkpt>
      <trkpt lat="48.32608" lon="-4.26354">
        <ele>29.26007270813</ele>
        <time>2011-04-17T14:09:26Z</time>
      </trkpt>
      <trkpt lat="48.32592" lon="-4.26336">
        <ele>29.693099975586</ele>
        <time>2011-04-17T14:09:31Z</time>
      </trkpt>
      <trkpt lat="48.32578" lon="-4.26318">
        <ele>29.701276779175</ele>
        <time>2011-04-17T14:09:36Z</time>
      </trkpt>
      <trkpt lat="48.32565" lon="-4.26292">
        <ele>29.161266326904</ele>
        <time>2011-04-17T14:09:42Z</time>
      </trkpt>
      <trkpt lat="48.32566" lon="-4.26262">
        <ele>28.903360366821</ele>
        <time>2011-04-17T14:09:47Z</time>
      </trkpt>
      <trkpt lat="48.32571" lon="-4.26225">
        <ele>28.602741241455</ele>
        <time>2011-04-17T14:09:53Z</time>
      </trkpt>
      <trkpt lat="48.32589" lon="-4.26178">
        <ele>28.449426651001</ele>
        <time>2011-04-17T14:10:01Z</time>
      </trkpt>
      <trkpt lat="48.32597" lon="-4.26157">
        <ele>28.879137039185</ele>
        <time>2011-04-17T14:10:05Z</time>
      </trkpt>
      <trkpt lat="48.32612" lon="-4.26122">
        <ele>30.07958984375</ele>
        <time>2011-04-17T14:10:12Z</time>
      </trkpt>
      <trkpt lat="48.32621" lon="-4.2609">
        <ele>31.091320037842</ele>
        <time>2011-04-17T14:10:18Z</time>
      </trkpt>
      <trkpt lat="48.32633" lon="-4.26042">
        <ele>31.696823120117</ele>
        <time>2011-04-17T14:10:28Z</time>
      </trkpt>
      <trkpt lat="48.32644" lon="-4.2601">
        <ele>32.238128662109</ele>
        <time>2011-04-17T14:10:35Z</time>
      </trkpt>
      <trkpt lat="48.32652" lon="-4.25973">
        <ele>33.198394775391</ele>
        <time>2011-04-17T14:10:43Z</time>
      </trkpt>
      <trkpt lat="48.32657" lon="-4.25947">
        <ele>34.216232299805</ele>
        <time>2011-04-17T14:10:49Z</time>
      </trkpt>
      <trkpt lat="48.32662" lon="-4.25923">
        <ele>35.280342102051</ele>
        <time>2011-04-17T14:10:55Z</time>
      </trkpt>
      <trkpt lat="48.32668" lon="-4.25902">
        <ele>35.666614532471</ele>
        <time>2011-04-17T14:11:01Z</time>
      </trkpt>
      <trkpt lat="48.32676" lon="-4.25875">
        <ele>35.149215698242</ele>
        <time>2011-04-17T14:11:07Z</time>
      </trkpt>
      <trkpt lat="48.32679" lon="-4.25845">
        <ele>34.340255737305</ele>
        <time>2011-04-17T14:11:12Z</time>
      </trkpt>
      <trkpt lat="48.32678" lon="-4.25828">
        <ele>33.582530975342</ele>
        <time>2011-04-17T14:11:14Z</time>
      </trkpt>
      <trkpt lat="48.32687" lon="-4.25799">
        <ele>30.9896068573</ele>
        <time>2011-04-17T14:11:18Z</time>
      </trkpt>
      <trkpt lat="48.32692" lon="-4.25795">
        <ele>30.643087387085</ele>
        <time>2011-04-17T14:11:19Z</time>
      </trkpt>
      <trkpt lat="48.32703" lon="-4.25789">
        <ele>30.024660110474</ele>
        <time>2011-04-17T14:11:21Z</time>
      </trkpt>
      <trkpt lat="48.32722" lon="-4.25792">
        <ele>30.215835571289</ele>
        <time>2011-04-17T14:11:25Z</time>
      </trkpt>
      <trkpt lat="48.32732" lon="-4.25806">
        <ele>31.457012176514</ele>
        <time>2011-04-17T14:11:29Z</time>
      </trkpt>
      <trkpt lat="48.32755" lon="-4.25828">
        <ele>33.205699920654</ele>
        <time>2011-04-17T14:11:39Z</time>
      </trkpt>
      <trkpt lat="48.32775" lon="-4.2584">
        <ele>33.326114654541</ele>
        <time>2011-04-17T14:11:46Z</time>
      </trkpt>
      <trkpt lat="48.328" lon="-4.2585">
        <ele>33.078117370605</ele>
        <time>2011-04-17T14:11:52Z</time>
      </trkpt>
      <trkpt lat="48.32836" lon="-4.25857">
        <ele>32.40510559082</ele>
        <time>2011-04-17T14:11:58Z</time>
      </trkpt>
      <trkpt lat="48.3288" lon="-4.25855">
        <ele>30.108276367188</ele>
        <time>2011-04-17T14:12:05Z</time>
      </trkpt>
      <trkpt lat="48.32928" lon="-4.25842">
        <ele>26.423831939697</ele>
        <time>2011-04-17T14:12:12Z</time>
      </trkpt>
      <trkpt lat="48.32938" lon="-4.25838">
        <ele>25.644420623779</ele>
        <time>2011-04-17T14:12:14Z</time>
      </trkpt>
      <trkpt lat="48.32948" lon="-4.2583">
        <ele>24.705137252808</ele>
        <time>2011-04-17T14:12:18Z</time>
      </trkpt>
      <trkpt lat="48.32948" lon="-4.25827">
        <ele>24.523145675659</ele>
        <time>2011-04-17T14:12:19Z</time>
      </trkpt>
      <trkpt lat="48.32948" lon="-4.25804">
        <ele>23.376180648804</ele>
        <time>2011-04-17T14:12:24Z</time>
      </trkpt>
      <trkpt lat="48.32949" lon="-4.25789">
        <ele>22.610176086426</ele>
        <time>2011-04-17T14:12:28Z</time>
      </trkpt>
      <trkpt lat="48.32949" lon="-4.25767">
        <ele>21.470579147339</ele>
        <time>2011-04-17T14:12:33Z</time>
      </trkpt>
      <trkpt lat="48.32947" lon="-4.25737">
        <ele>20.066595077515</ele>
        <time>2011-04-17T14:12:39Z</time>
      </trkpt>
      <trkpt lat="48.32947" lon="-4.25711">
        <ele>18.831464767456</ele>
        <time>2011-04-17T14:12:44Z</time>
      </trkpt>
      <trkpt lat="48.32952" lon="-4.25684">
        <ele>17.277252197266</ele>
        <time>2011-04-17T14:12:50Z</time>
      </trkpt>
      <trkpt lat="48.32962" lon="-4.25664">
        <ele>15.648422241211</ele>
        <time>2011-04-17T14:12:54Z</time>
      </trkpt>
      <trkpt lat="48.32977" lon="-4.25638">
        <ele>13.793527603149</ele>
        <time>2011-04-17T14:12:59Z</time>
      </trkpt>
      <trkpt lat="48.32981" lon="-4.2562">
        <ele>12.97319316864</ele>
        <time>2011-04-17T14:13:02Z</time>
      </trkpt>
      <trkpt lat="48.32987" lon="-4.25592">
        <ele>11.867462158203</ele>
        <time>2011-04-17T14:13:07Z</time>
      </trkpt>
      <trkpt lat="48.32988" lon="-4.25585">
        <ele>11.634261131287</ele>
        <time>2011-04-17T14:13:08Z</time>
      </trkpt>
      <trkpt lat="48.32991" lon="-4.25566">
        <ele>11.170261383057</ele>
        <time>2011-04-17T14:13:11Z</time>
      </trkpt>
      <trkpt lat="48.32995" lon="-4.25533">
        <ele>10.530179977417</ele>
        <time>2011-04-17T14:13:16Z</time>
      </trkpt>
      <trkpt lat="48.33" lon="-4.25504">
        <ele>10.053235054016</ele>
        <time>2011-04-17T14:13:21Z</time>
      </trkpt>
      <trkpt lat="48.33001" lon="-4.25462">
        <ele>10.005221366882</ele>
        <time>2011-04-17T14:13:27Z</time>
      </trkpt>
      <trkpt lat="48.32998" lon="-4.25404">
        <ele>10.57804107666</ele>
        <time>2011-04-17T14:13:35Z</time>
      </trkpt>
      <trkpt lat="48.32998" lon="-4.25337">
        <ele>12.961845397949</ele>
        <time>2011-04-17T14:13:44Z</time>
      </trkpt>
      <trkpt lat="48.32996" lon="-4.25275">
        <ele>13.798316001892</ele>
        <time>2011-04-17T14:13:53Z</time>
      </trkpt>
      <trkpt lat="48.32997" lon="-4.25226">
        <ele>14.336814880371</ele>
        <time>2011-04-17T14:14:01Z</time>
      </trkpt>
      <trkpt lat="48.32998" lon="-4.25201">
        <ele>14.615761756897</ele>
        <time>2011-04-17T14:14:05Z</time>
      </trkpt>
      <trkpt lat="48.32994" lon="-4.25184">
        <ele>14.921213150024</ele>
        <time>2011-04-17T14:14:09Z</time>
      </trkpt>
      <trkpt lat="48.32981" lon="-4.25175">
        <ele>15.340113639832</ele>
        <time>2011-04-17T14:14:15Z</time>
      </trkpt>
      <trkpt lat="48.32977" lon="-4.25171">
        <ele>15.487035751343</ele>
        <time>2011-04-17T14:14:17Z</time>
      </trkpt>
      <trkpt lat="48.32969" lon="-4.25157">
        <ele>15.910755157471</ele>
        <time>2011-04-17T14:14:22Z</time>
      </trkpt>
      <trkpt lat="48.32952" lon="-4.25149">
        <ele>16.48565864563</ele>
        <time>2011-04-17T14:14:29Z</time>
      </trkpt>
      <trkpt lat="48.32935" lon="-4.25137">
        <ele>17.205331802368</ele>
        <time>2011-04-17T14:14:37Z</time>
      </trkpt>
      <trkpt lat="48.32926" lon="-4.25128">
        <ele>17.657943725586</ele>
        <time>2011-04-17T14:14:43Z</time>
      </trkpt>
      <trkpt lat="48.32919" lon="-4.25121">
        <ele>18.028549194336</ele>
        <time>2011-04-17T14:14:48Z</time>
      </trkpt>
      <trkpt lat="48.32912" lon="-4.25113">
        <ele>18.425615310669</ele>
        <time>2011-04-17T14:14:52Z</time>
      </trkpt>
      <trkpt lat="48.32902" lon="-4.251">
        <ele>18.946025848389</ele>
        <time>2011-04-17T14:14:58Z</time>
      </trkpt>
      <trkpt lat="48.32898" lon="-4.25095">
        <ele>19.090600967407</ele>
        <time>2011-04-17T14:15:00Z</time>
      </trkpt>
      <trkpt lat="48.32886" lon="-4.2508">
        <ele>19.275390625</ele>
        <time>2011-04-17T14:15:05Z</time>
      </trkpt>
      <trkpt lat="48.32885" lon="-4.25076">
        <ele>19.217025756836</ele>
        <time>2011-04-17T14:15:06Z</time>
      </trkpt>
      <trkpt lat="48.32881" lon="-4.25059">
        <ele>18.845092773438</ele>
        <time>2011-04-17T14:15:10Z</time>
      </trkpt>
      <trkpt lat="48.3288" lon="-4.25033">
        <ele>18.240844726562</ele>
        <time>2011-04-17T14:15:17Z</time>
      </trkpt>
      <trkpt lat="48.32882" lon="-4.24997">
        <ele>17.221807479858</ele>
        <time>2011-04-17T14:15:24Z</time>
      </trkpt>
      <trkpt lat="48.32896" lon="-4.24957">
        <ele>14.942818641663</ele>
        <time>2011-04-17T14:15:31Z</time>
      </trkpt>
      <trkpt lat="48.32902" lon="-4.24933">
        <ele>13.688234329224</ele>
        <time>2011-04-17T14:15:36Z</time>
      </trkpt>
      <trkpt lat="48.3292" lon="-4.24914">
        <ele>13.271203994751</ele>
        <time>2011-04-17T14:15:42Z</time>
      </trkpt>
      <trkpt lat="48.3296" lon="-4.24881">
        <ele>15.907426834106</ele>
        <time>2011-04-17T14:15:51Z</time>
      </trkpt>
      <trkpt lat="48.32997" lon="-4.24851">
        <ele>18.008041381836</ele>
        <time>2011-04-17T14:16:00Z</time>
      </trkpt>
      <trkpt lat="48.33011" lon="-4.24838">
        <ele>18.066783905029</ele>
        <time>2011-04-17T14:16:04Z</time>
      </trkpt>
      <trkpt lat="48.33022" lon="-4.24816">
        <ele>17.484741210938</ele>
        <time>2011-04-17T14:16:09Z</time>
      </trkpt>
      <trkpt lat="48.33024" lon="-4.24811">
        <ele>17.304248809814</ele>
        <time>2011-04-17T14:16:10Z</time>
      </trkpt>
      <trkpt lat="48.33044" lon="-4.24766">
        <ele>15.538723945618</ele>
        <time>2011-04-17T14:16:17Z</time>
      </trkpt>
      <trkpt lat="48.33044" lon="-4.24736">
        <ele>14.761291503906</ele>
        <time>2011-04-17T14:16:21Z</time>
      </trkpt>
      <trkpt lat="48.33027" lon="-4.24693">
        <ele>14.661727905273</ele>
        <time>2011-04-17T14:16:27Z</time>
      </trkpt>
      <trkpt lat="48.33005" lon="-4.2467">
        <ele>14.919792175293</ele>
        <time>2011-04-17T14:16:32Z</time>
      </trkpt>
      <trkpt lat="48.32988" lon="-4.24656">
        <ele>14.094915390015</ele>
        <time>2011-04-17T14:16:36Z</time>
      </trkpt>
      <trkpt lat="48.32969" lon="-4.24627">
        <ele>12.312268257141</ele>
        <time>2011-04-17T14:16:41Z</time>
      </trkpt>
      <trkpt lat="48.32967" lon="-4.24619">
        <ele>11.96871471405</ele>
        <time>2011-04-17T14:16:42Z</time>
      </trkpt>
      <trkpt lat="48.3296" lon="-4.24593">
        <ele>10.879396438599</ele>
        <time>2011-04-17T14:16:45Z</time>
      </trkpt>
      <trkpt lat="48.32954" lon="-4.24556">
        <ele>9.3614177703857</ele>
        <time>2011-04-17T14:16:49Z</time>
      </trkpt>
      <trkpt lat="48.32948" lon="-4.24537">
        <ele>8.4496793746948</ele>
        <time>2011-04-17T14:16:51Z</time>
      </trkpt>
      <trkpt lat="48.32927" lon="-4.24497">
        <ele>6.4523348808289</ele>
        <time>2011-04-17T14:16:56Z</time>
      </trkpt>
      <trkpt lat="48.32911" lon="-4.24481">
        <ele>5.621527671814</ele>
        <time>2011-04-17T14:16:59Z</time>
      </trkpt>
      <trkpt lat="48.32902" lon="-4.24471">
        <ele>5.2259850502014</ele>
        <time>2011-04-17T14:17:03Z</time>
      </trkpt>
      <trkpt lat="48.32893" lon="-4.24477">
        <ele>5.0803623199463</ele>
        <time>2011-04-17T14:17:06Z</time>
      </trkpt>
      <trkpt lat="48.32886" lon="-4.24478">
        <ele>4.901620388031</ele>
        <time>2011-04-17T14:17:08Z</time>
      </trkpt>
      <trkpt lat="48.3288" lon="-4.24467">
        <ele>4.5334372520447</ele>
        <time>2011-04-17T14:17:12Z</time>
      </trkpt>
      <trkpt lat="48.32878" lon="-4.24455">
        <ele>4.2786898612976</ele>
        <time>2011-04-17T14:17:14Z</time>
      </trkpt>
      <trkpt lat="48.32864" lon="-4.24415">
        <ele>3.1248414516449</ele>
        <time>2011-04-17T14:17:21Z</time>
      </trkpt>
      <trkpt lat="48.32857" lon="-4.24384">
        <ele>2.9534201622009</ele>
        <time>2011-04-17T14:17:26Z</time>
      </trkpt>
      <trkpt lat="48.3285" lon="-4.24345">
        <ele>2.7499196529388</ele>
        <time>2011-04-17T14:17:32Z</time>
      </trkpt>
      <trkpt lat="48.32847" lon="-4.24297">
        <ele>2.666259765625</ele>
        <time>2011-04-17T14:17:39Z</time>
      </trkpt>
      <trkpt lat="48.32843" lon="-4.24272">
        <ele>2.46484375</ele>
        <time>2011-04-17T14:17:43Z</time>
      </trkpt>
      <trkpt lat="48.32831" lon="-4.2426">
        <ele>2.0997595787048</ele>
        <time>2011-04-17T14:17:47Z</time>
      </trkpt>
      <trkpt lat="48.32827" lon="-4.24258">
        <ele>2.2787463665009</ele>
        <time>2011-04-17T14:17:48Z</time>
      </trkpt>
      <trkpt lat="48.32814" lon="-4.24266">
        <ele>2.8996920585632</ele>
        <time>2011-04-17T14:17:52Z</time>
      </trkpt>
      <trkpt lat="48.32798" lon="-4.24292">
        <ele>3.5003802776337</ele>
        <time>2011-04-17T14:17:58Z</time>
      </trkpt>
      <trkpt lat="48.3279" lon="-4.24309">
        <ele>3.7137954235077</ele>
        <time>2011-04-17T14:18:04Z</time>
      </trkpt>
      <trkpt lat="48.32782" lon="-4.24335">
        <ele>3.8040924072266</ele>
        <time>2011-04-17T14:18:09Z</time>
      </trkpt>
      <trkpt lat="48.3277" lon="-4.24372">
        <ele>3.5629119873047</ele>
        <time>2011-04-17T14:18:16Z</time>
      </trkpt>
      <trkpt lat="48.32763" lon="-4.24404">
        <ele>3.0988924503326</ele>
        <time>2011-04-17T14:18:22Z</time>
      </trkpt>
      <trkpt lat="48.32752" lon="-4.24444">
        <ele>2.6756958961487</ele>
        <time>2011-04-17T14:18:29Z</time>
      </trkpt>
      <trkpt lat="48.32738" lon="-4.24482">
        <ele>2.5414135456085</ele>
        <time>2011-04-17T14:18:36Z</time>
      </trkpt>
      <trkpt lat="48.3272" lon="-4.24525">
        <ele>2.4147338867188</ele>
        <time>2011-04-17T14:18:44Z</time>
      </trkpt>
      <trkpt lat="48.327" lon="-4.24566">
        <ele>2.4095840454102</ele>
        <time>2011-04-17T14:18:52Z</time>
      </trkpt>
      <trkpt lat="48.32686" lon="-4.24578">
        <ele>2.5978393554688</ele>
        <time>2011-04-17T14:18:57Z</time>
      </trkpt>
      <trkpt lat="48.32674" lon="-4.24562">
        <ele>3.0670471191406</ele>
        <time>2011-04-17T14:19:01Z</time>
      </trkpt>
      <trkpt lat="48.32671" lon="-4.24558">
        <ele>3.1894989013672</ele>
        <time>2011-04-17T14:19:02Z</time>
      </trkpt>
      <trkpt lat="48.32656" lon="-4.24528">
        <ele>4.1021022796631</ele>
        <time>2011-04-17T14:19:09Z</time>
      </trkpt>
      <trkpt lat="48.32658" lon="-4.24502">
        <ele>4.2755441665649</ele>
        <time>2011-04-17T14:19:14Z</time>
      </trkpt>
      <trkpt lat="48.32673" lon="-4.24473">
        <ele>4.4831042289734</ele>
        <time>2011-04-17T14:19:20Z</time>
      </trkpt>
      <trkpt lat="48.32666" lon="-4.24455">
        <ele>5.1139998435974</ele>
        <time>2011-04-17T14:19:24Z</time>
      </trkpt>
      <trkpt lat="48.32656" lon="-4.24438">
        <ele>5.9701642990112</ele>
        <time>2011-04-17T14:19:28Z</time>
      </trkpt>
      <trkpt lat="48.32637" lon="-4.24402">
        <ele>7.8616943359375</ele>
        <time>2011-04-17T14:19:37Z</time>
      </trkpt>
      <trkpt lat="48.3262" lon="-4.24379">
        <ele>9.3610534667969</ele>
        <time>2011-04-17T14:19:44Z</time>
      </trkpt>
      <trkpt lat="48.32611" lon="-4.24353">
        <ele>10.453777313232</ele>
        <time>2011-04-17T14:19:50Z</time>
      </trkpt>
      <trkpt lat="48.32609" lon="-4.24322">
        <ele>11.4205493927</ele>
        <time>2011-04-17T14:19:56Z</time>
      </trkpt>
      <trkpt lat="48.32608" lon="-4.24298">
        <ele>12.257161140442</ele>
        <time>2011-04-17T14:20:02Z</time>
      </trkpt>
      <trkpt lat="48.3261" lon="-4.24277">
        <ele>12.85825252533</ele>
        <time>2011-04-17T14:20:08Z</time>
      </trkpt>
      <trkpt lat="48.32612" lon="-4.2427">
        <ele>12.996190071106</ele>
        <time>2011-04-17T14:20:10Z</time>
      </trkpt>
      <trkpt lat="48.32611" lon="-4.24262">
        <ele>13.281532287598</ele>
        <time>2011-04-17T14:20:12Z</time>
      </trkpt>
      <trkpt lat="48.32603" lon="-4.24241">
        <ele>14.174575805664</ele>
        <time>2011-04-17T14:20:17Z</time>
      </trkpt>
      <trkpt lat="48.32604" lon="-4.24226">
        <ele>14.307899475098</ele>
        <time>2011-04-17T14:20:21Z</time>
      </trkpt>
      <trkpt lat="48.32621" lon="-4.24197">
        <ele>13.827247619629</ele>
        <time>2011-04-17T14:20:29Z</time>
      </trkpt>
      <trkpt lat="48.32634" lon="-4.24164">
        <ele>13.63883972168</ele>
        <time>2011-04-17T14:20:36Z</time>
      </trkpt>
      <trkpt lat="48.32635" lon="-4.24131">
        <ele>14.360961914062</ele>
        <time>2011-04-17T14:20:42Z</time>
      </trkpt>
      <trkpt lat="48.3264" lon="-4.24105">
        <ele>14.766082763672</ele>
        <time>2011-04-17T14:20:47Z</time>
      </trkpt>
      <trkpt lat="48.32655" lon="-4.24075">
        <ele>14.852546691894</ele>
        <time>2011-04-17T14:20:54Z</time>
      </trkpt>
      <trkpt lat="48.32669" lon="-4.24044">
        <ele>15.308994293213</ele>
        <time>2011-04-17T14:21:02Z</time>
      </trkpt>
      <trkpt lat="48.32676" lon="-4.24019">
        <ele>15.800870895386</ele>
        <time>2011-04-17T14:21:07Z</time>
      </trkpt>
      <trkpt lat="48.32679" lon="-4.24014">
        <ele>15.828010559082</ele>
        <time>2011-04-17T14:21:08Z</time>
      </trkpt>
      <trkpt lat="48.32695" lon="-4.2401">
        <ele>15.031237602234</ele>
        <time>2011-04-17T14:21:12Z</time>
      </trkpt>
      <trkpt lat="48.32714" lon="-4.24016">
        <ele>13.787007331848</ele>
        <time>2011-04-17T14:21:16Z</time>
      </trkpt>
      <trkpt lat="48.32735" lon="-4.24013">
        <ele>12.708265304565</ele>
        <time>2011-04-17T14:21:20Z</time>
      </trkpt>
      <trkpt lat="48.32747" lon="-4.24001">
        <ele>12.194448471069</ele>
        <time>2011-04-17T14:21:25Z</time>
      </trkpt>
      <trkpt lat="48.32745" lon="-4.23992">
        <ele>12.341953277588</ele>
        <time>2011-04-17T14:21:27Z</time>
      </trkpt>
      <trkpt lat="48.32739" lon="-4.23952">
        <ele>12.869238853455</ele>
        <time>2011-04-17T14:21:35Z</time>
      </trkpt>
      <trkpt lat="48.3274" lon="-4.2392">
        <ele>12.906332015991</ele>
        <time>2011-04-17T14:21:41Z</time>
      </trkpt>
      <trkpt lat="48.32742" lon="-4.23915">
        <ele>12.848300933838</ele>
        <time>2011-04-17T14:21:42Z</time>
      </trkpt>
      <trkpt lat="48.32754" lon="-4.23892">
        <ele>12.444156646728</ele>
        <time>2011-04-17T14:21:47Z</time>
      </trkpt>
      <trkpt lat="48.32765" lon="-4.23877">
        <ele>12.327709197998</ele>
        <time>2011-04-17T14:21:50Z</time>
      </trkpt>
      <trkpt lat="48.32776" lon="-4.23864">
        <ele>12.123664855957</ele>
        <time>2011-04-17T14:21:53Z</time>
      </trkpt>
      <trkpt lat="48.32785" lon="-4.23856">
        <ele>11.88471698761</ele>
        <time>2011-04-17T14:21:55Z</time>
      </trkpt>
      <trkpt lat="48.32809" lon="-4.2382">
        <ele>11.472900390625</ele>
        <time>2011-04-17T14:22:02Z</time>
      </trkpt>
      <trkpt lat="48.32819" lon="-4.23795">
        <ele>11.619384765625</ele>
        <time>2011-04-17T14:22:06Z</time>
      </trkpt>
      <trkpt lat="48.32824" lon="-4.23768">
        <ele>12.046249389648</ele>
        <time>2011-04-17T14:22:10Z</time>
      </trkpt>
      <trkpt lat="48.32828" lon="-4.23737">
        <ele>12.438591003418</ele>
        <time>2011-04-17T14:22:15Z</time>
      </trkpt>
      <trkpt lat="48.3283" lon="-4.23688">
        <ele>12.936099052429</ele>
        <time>2011-04-17T14:22:23Z</time>
      </trkpt>
      <trkpt lat="48.32836" lon="-4.23635">
        <ele>14.400482177734</ele>
        <time>2011-04-17T14:22:32Z</time>
      </trkpt>
      <trkpt lat="48.32842" lon="-4.23583">
        <ele>16.602699279785</ele>
        <time>2011-04-17T14:22:41Z</time>
      </trkpt>
      <trkpt lat="48.32843" lon="-4.23546">
        <ele>17.883293151856</ele>
        <time>2011-04-17T14:22:48Z</time>
      </trkpt>
      <trkpt lat="48.32843" lon="-4.23509">
        <ele>19.213096618652</ele>
        <time>2011-04-17T14:22:55Z</time>
      </trkpt>
      <trkpt lat="48.32843" lon="-4.2348">
        <ele>20.727485656738</ele>
        <time>2011-04-17T14:23:01Z</time>
      </trkpt>
      <trkpt lat="48.32843" lon="-4.23453">
        <ele>22.252132415771</ele>
        <time>2011-04-17T14:23:08Z</time>
      </trkpt>
      <trkpt lat="48.32847" lon="-4.23422">
        <ele>23.888572692871</ele>
        <time>2011-04-17T14:23:15Z</time>
      </trkpt>
      <trkpt lat="48.32851" lon="-4.23388">
        <ele>26.292316436768</ele>
        <time>2011-04-17T14:23:22Z</time>
      </trkpt>
      <trkpt lat="48.32853" lon="-4.23347">
        <ele>29.506216049194</ele>
        <time>2011-04-17T14:23:31Z</time>
      </trkpt>
      <trkpt lat="48.32857" lon="-4.23311">
        <ele>31.571821212769</ele>
        <time>2011-04-17T14:23:39Z</time>
      </trkpt>
      <trkpt lat="48.32861" lon="-4.23285">
        <ele>32.762722015381</ele>
        <time>2011-04-17T14:23:45Z</time>
      </trkpt>
      <trkpt lat="48.3286" lon="-4.23267">
        <ele>33.767158508301</ele>
        <time>2011-04-17T14:23:49Z</time>
      </trkpt>
      <trkpt lat="48.32862" lon="-4.2324">
        <ele>35.616760253906</ele>
        <time>2011-04-17T14:23:56Z</time>
      </trkpt>
      <trkpt lat="48.32867" lon="-4.23217">
        <ele>37.581287384033</ele>
        <time>2011-04-17T14:24:02Z</time>
      </trkpt>
      <trkpt lat="48.3287" lon="-4.23194">
        <ele>39.857769012451</ele>
        <time>2011-04-17T14:24:08Z</time>
      </trkpt>
      <trkpt lat="48.3287" lon="-4.23178">
        <ele>41.655143737793</ele>
        <time>2011-04-17T14:24:13Z</time>
      </trkpt>
      <trkpt lat="48.3287" lon="-4.23157">
        <ele>43.672588348389</ele>
        <time>2011-04-17T14:24:20Z</time>
      </trkpt>
      <trkpt lat="48.32871" lon="-4.2314">
        <ele>45.05615234375</ele>
        <time>2011-04-17T14:24:25Z</time>
      </trkpt>
      <trkpt lat="48.32874" lon="-4.2312">
        <ele>46.759250640869</ele>
        <time>2011-04-17T14:24:31Z</time>
      </trkpt>
      <trkpt lat="48.32877" lon="-4.23097">
        <ele>48.743370056152</ele>
        <time>2011-04-17T14:24:37Z</time>
      </trkpt>
      <trkpt lat="48.32882" lon="-4.23078">
        <ele>50.203567504883</ele>
        <time>2011-04-17T14:24:42Z</time>
      </trkpt>
      <trkpt lat="48.32885" lon="-4.23052">
        <ele>51.113372802734</ele>
        <time>2011-04-17T14:24:49Z</time>
      </trkpt>
      <trkpt lat="48.32892" lon="-4.23031">
        <ele>51.877265930176</ele>
        <time>2011-04-17T14:24:55Z</time>
      </trkpt>
      <trkpt lat="48.32896" lon="-4.23012">
        <ele>52.579360961914</ele>
        <time>2011-04-17T14:25:01Z</time>
      </trkpt>
      <trkpt lat="48.32901" lon="-4.22989">
        <ele>53.17712020874</ele>
        <time>2011-04-17T14:25:07Z</time>
      </trkpt>
      <trkpt lat="48.32906" lon="-4.22969">
        <ele>53.462440490723</ele>
        <time>2011-04-17T14:25:13Z</time>
      </trkpt>
      <trkpt lat="48.32909" lon="-4.22945">
        <ele>53.778900146484</ele>
        <time>2011-04-17T14:25:20Z</time>
      </trkpt>
      <trkpt lat="48.32915" lon="-4.22924">
        <ele>53.93826675415</ele>
        <time>2011-04-17T14:25:26Z</time>
      </trkpt>
      <trkpt lat="48.32919" lon="-4.22906">
        <ele>54.148658752441</ele>
        <time>2011-04-17T14:25:32Z</time>
      </trkpt>
      <trkpt lat="48.32918" lon="-4.22883">
        <ele>54.423889160156</ele>
        <time>2011-04-17T14:25:38Z</time>
      </trkpt>
      <trkpt lat="48.3292" lon="-4.22869">
        <ele>54.609283447266</ele>
        <time>2011-04-17T14:25:42Z</time>
      </trkpt>
      <trkpt lat="48.32919" lon="-4.22841">
        <ele>54.935440063477</ele>
        <time>2011-04-17T14:25:49Z</time>
      </trkpt>
      <trkpt lat="48.32921" lon="-4.22809">
        <ele>55.379417419434</ele>
        <time>2011-04-17T14:25:57Z</time>
      </trkpt>
      <trkpt lat="48.32922" lon="-4.22791">
        <ele>55.64185333252</ele>
        <time>2011-04-17T14:26:02Z</time>
      </trkpt>
      <trkpt lat="48.32919" lon="-4.22775">
        <ele>55.751430511475</ele>
        <time>2011-04-17T14:26:07Z</time>
      </trkpt>
      <trkpt lat="48.32903" lon="-4.22763">
        <ele>55.572536468506</ele>
        <time>2011-04-17T14:26:13Z</time>
      </trkpt>
      <trkpt lat="48.32882" lon="-4.22752">
        <ele>55.17110824585</ele>
        <time>2011-04-17T14:26:20Z</time>
      </trkpt>
      <trkpt lat="48.32858" lon="-4.22737">
        <ele>54.925357818604</ele>
        <time>2011-04-17T14:26:26Z</time>
      </trkpt>
      <trkpt lat="48.32848" lon="-4.22729">
        <ele>54.781227111816</ele>
        <time>2011-04-17T14:26:28Z</time>
      </trkpt>
      <trkpt lat="48.32817" lon="-4.22709">
        <ele>53.096336364746</ele>
        <time>2011-04-17T14:26:34Z</time>
      </trkpt>
      <trkpt lat="48.32805" lon="-4.22689">
        <ele>52.374786376953</ele>
        <time>2011-04-17T14:26:38Z</time>
      </trkpt>
      <trkpt lat="48.32806" lon="-4.22683">
        <ele>52.543586730957</ele>
        <time>2011-04-17T14:26:39Z</time>
      </trkpt>
      <trkpt lat="48.32812" lon="-4.22654">
        <ele>53.40421295166</ele>
        <time>2011-04-17T14:26:44Z</time>
      </trkpt>
      <trkpt lat="48.32816" lon="-4.22639">
        <ele>53.975227355957</ele>
        <time>2011-04-17T14:26:50Z</time>
      </trkpt>
      <trkpt lat="48.32817" lon="-4.22635">
        <ele>54.055843353271</ele>
        <time>2011-04-17T14:26:51Z</time>
      </trkpt>
      <trkpt lat="48.32814" lon="-4.22622">
        <ele>54.014232635498</ele>
        <time>2011-04-17T14:26:55Z</time>
      </trkpt>
      <trkpt lat="48.32814" lon="-4.22621">
        <ele>54.027675628662</ele>
        <time>2011-04-17T14:27:08Z</time>
      </trkpt>
      <trkpt lat="48.32811" lon="-4.22625">
        <ele>53.759349822998</ele>
        <time>2011-04-17T14:27:39Z</time>
      </trkpt>
      <trkpt lat="48.32809" lon="-4.22618">
        <ele>53.717765808105</ele>
        <time>2011-04-17T14:27:42Z</time>
      </trkpt>
      <trkpt lat="48.32813" lon="-4.22606">
        <ele>54.22465133667</ele>
        <time>2011-04-17T14:27:47Z</time>
      </trkpt>
      <trkpt lat="48.32823" lon="-4.22584">
        <ele>55.229862213135</ele>
        <time>2011-04-17T14:27:55Z</time>
      </trkpt>
      <trkpt lat="48.32833" lon="-4.22562">
        <ele>57.458572387695</ele>
        <time>2011-04-17T14:28:02Z</time>
      </trkpt>
      <trkpt lat="48.32845" lon="-4.22537">
        <ele>60.822776794434</ele>
        <time>2011-04-17T14:28:10Z</time>
      </trkpt>
      <trkpt lat="48.32848" lon="-4.22526">
        <ele>61.934894561768</ele>
        <time>2011-04-17T14:28:13Z</time>
      </trkpt>
      <trkpt lat="48.32851" lon="-4.22505">
        <ele>63.829013824463</ele>
        <time>2011-04-17T14:28:19Z</time>
      </trkpt>
      <trkpt lat="48.32854" lon="-4.22487">
        <ele>65.765632629395</ele>
        <time>2011-04-17T14:28:25Z</time>
      </trkpt>
      <trkpt lat="48.32854" lon="-4.22483">
        <ele>66.209548950195</ele>
        <time>2011-04-17T14:28:27Z</time>
      </trkpt>
      <trkpt lat="48.32857" lon="-4.22465">
        <ele>68.318855285645</ele>
        <time>2011-04-17T14:28:34Z</time>
      </trkpt>
      <trkpt lat="48.32859" lon="-4.22449">
        <ele>69.982757568359</ele>
        <time>2011-04-17T14:28:40Z</time>
      </trkpt>
      <trkpt lat="48.32863" lon="-4.22434">
        <ele>71.88671875</ele>
        <time>2011-04-17T14:28:45Z</time>
      </trkpt>
      <trkpt lat="48.32865" lon="-4.22423">
        <ele>73.040840148926</ele>
        <time>2011-04-17T14:28:50Z</time>
      </trkpt>
      <trkpt lat="48.32867" lon="-4.22416">
        <ele>73.880813598633</ele>
        <time>2011-04-17T14:28:54Z</time>
      </trkpt>
      <trkpt lat="48.32867" lon="-4.22411">
        <ele>74.328323364258</ele>
        <time>2011-04-17T14:28:56Z</time>
      </trkpt>
      <trkpt lat="48.32872" lon="-4.22392">
        <ele>76.356307983398</ele>
        <time>2011-04-17T14:29:03Z</time>
      </trkpt>
      <trkpt lat="48.32875" lon="-4.22378">
        <ele>77.791191101074</ele>
        <time>2011-04-17T14:29:08Z</time>
      </trkpt>
      <trkpt lat="48.32883" lon="-4.22354">
        <ele>80.258804321289</ele>
        <time>2011-04-17T14:29:17Z</time>
      </trkpt>
      <trkpt lat="48.32889" lon="-4.22339">
        <ele>81.835166931152</ele>
        <time>2011-04-17T14:29:24Z</time>
      </trkpt>
      <trkpt lat="48.32893" lon="-4.22325">
        <ele>83.111404418945</ele>
        <time>2011-04-17T14:29:31Z</time>
      </trkpt>
      <trkpt lat="48.32899" lon="-4.2231">
        <ele>84.364532470703</ele>
        <time>2011-04-17T14:29:38Z</time>
      </trkpt>
      <trkpt lat="48.32907" lon="-4.22292">
        <ele>85.918067932129</ele>
        <time>2011-04-17T14:29:45Z</time>
      </trkpt>
      <trkpt lat="48.32912" lon="-4.22279">
        <ele>86.996673583984</ele>
        <time>2011-04-17T14:29:50Z</time>
      </trkpt>
      <trkpt lat="48.32919" lon="-4.22267">
        <ele>88.000381469727</ele>
        <time>2011-04-17T14:29:55Z</time>
      </trkpt>
      <trkpt lat="48.3292" lon="-4.22262">
        <ele>88.289993286133</ele>
        <time>2011-04-17T14:29:57Z</time>
      </trkpt>
      <trkpt lat="48.32923" lon="-4.22256">
        <ele>88.731338500977</ele>
        <time>2011-04-17T14:30:00Z</time>
      </trkpt>
      <trkpt lat="48.32925" lon="-4.22242">
        <ele>89.311332702637</ele>
        <time>2011-04-17T14:30:05Z</time>
      </trkpt>
      <trkpt lat="48.32928" lon="-4.22231">
        <ele>89.638298034668</ele>
        <time>2011-04-17T14:30:09Z</time>
      </trkpt>
      <trkpt lat="48.32932" lon="-4.22211">
        <ele>90.209106445312</ele>
        <time>2011-04-17T14:30:16Z</time>
      </trkpt>
      <trkpt lat="48.32937" lon="-4.22192">
        <ele>90.797790527344</ele>
        <time>2011-04-17T14:30:22Z</time>
      </trkpt>
      <trkpt lat="48.32941" lon="-4.22172">
        <ele>91.42618560791</ele>
        <time>2011-04-17T14:30:27Z</time>
      </trkpt>
      <trkpt lat="48.32944" lon="-4.22154">
        <ele>91.656745910645</ele>
        <time>2011-04-17T14:30:32Z</time>
      </trkpt>
      <trkpt lat="48.32946" lon="-4.22133">
        <ele>91.74186706543</ele>
        <time>2011-04-17T14:30:37Z</time>
      </trkpt>
      <trkpt lat="48.32951" lon="-4.22108">
        <ele>92.007286071777</ele>
        <time>2011-04-17T14:30:42Z</time>
      </trkpt>
      <trkpt lat="48.32961" lon="-4.22078">
        <ele>92.599143981934</ele>
        <time>2011-04-17T14:30:48Z</time>
      </trkpt>
      <trkpt lat="48.3297" lon="-4.22053">
        <ele>93.047027587891</ele>
        <time>2011-04-17T14:30:53Z</time>
      </trkpt>
      <trkpt lat="48.32981" lon="-4.22015">
        <ele>93.706062316895</ele>
        <time>2011-04-17T14:31:00Z</time>
      </trkpt>
      <trkpt lat="48.3299" lon="-4.21981">
        <ele>93.806159973145</ele>
        <time>2011-04-17T14:31:07Z</time>
      </trkpt>
      <trkpt lat="48.32996" lon="-4.21956">
        <ele>93.666923522949</ele>
        <time>2011-04-17T14:31:12Z</time>
      </trkpt>
      <trkpt lat="48.33006" lon="-4.21928">
        <ele>93.336471557617</ele>
        <time>2011-04-17T14:31:18Z</time>
      </trkpt>
      <trkpt lat="48.33011" lon="-4.21903">
        <ele>93.13037109375</ele>
        <time>2011-04-17T14:31:24Z</time>
      </trkpt>
      <trkpt lat="48.33015" lon="-4.21882">
        <ele>93.185302734375</ele>
        <time>2011-04-17T14:31:29Z</time>
      </trkpt>
      <trkpt lat="48.3302" lon="-4.21875">
        <ele>93.244812011719</ele>
        <time>2011-04-17T14:31:31Z</time>
      </trkpt>
      <trkpt lat="48.33035" lon="-4.21841">
        <ele>93.42333984375</ele>
        <time>2011-04-17T14:31:37Z</time>
      </trkpt>
      <trkpt lat="48.33041" lon="-4.21816">
        <ele>93.49658203125</ele>
        <time>2011-04-17T14:31:40Z</time>
      </trkpt>
      <trkpt lat="48.33055" lon="-4.21764">
        <ele>93.661376953125</ele>
        <time>2011-04-17T14:31:45Z</time>
      </trkpt>
      <trkpt lat="48.3306" lon="-4.21723">
        <ele>93.168739318848</ele>
        <time>2011-04-17T14:31:50Z</time>
      </trkpt>
      <trkpt lat="48.3306" lon="-4.21692">
        <ele>92.518020629883</ele>
        <time>2011-04-17T14:31:54Z</time>
      </trkpt>
      <trkpt lat="48.33043" lon="-4.21651">
        <ele>91.534538269043</ele>
        <time>2011-04-17T14:32:00Z</time>
      </trkpt>
      <trkpt lat="48.33041" lon="-4.21643">
        <ele>91.291305541992</ele>
        <time>2011-04-17T14:32:01Z</time>
      </trkpt>
      <trkpt lat="48.33033" lon="-4.21617">
        <ele>90.459617614746</ele>
        <time>2011-04-17T14:32:04Z</time>
      </trkpt>
      <trkpt lat="48.33026" lon="-4.21594">
        <ele>89.646583557129</ele>
        <time>2011-04-17T14:32:07Z</time>
      </trkpt>
      <trkpt lat="48.33012" lon="-4.21549">
        <ele>88.447891235352</ele>
        <time>2011-04-17T14:32:13Z</time>
      </trkpt>
      <trkpt lat="48.3301" lon="-4.21541">
        <ele>88.237915039062</ele>
        <time>2011-04-17T14:32:14Z</time>
      </trkpt>
      <trkpt lat="48.33002" lon="-4.21524">
        <ele>87.627883911133</ele>
        <time>2011-04-17T14:32:17Z</time>
      </trkpt>
      <trkpt lat="48.32991" lon="-4.21521">
        <ele>87.457817077637</ele>
        <time>2011-04-17T14:32:21Z</time>
      </trkpt>
      <trkpt lat="48.3299" lon="-4.21524">
        <ele>87.523880004883</ele>
        <time>2011-04-17T14:32:22Z</time>
      </trkpt>
      <trkpt lat="48.32987" lon="-4.21532">
        <ele>87.732971191406</ele>
        <time>2011-04-17T14:32:25Z</time>
      </trkpt>
      <trkpt lat="48.32983" lon="-4.2155">
        <ele>88.242706298828</ele>
        <time>2011-04-17T14:32:31Z</time>
      </trkpt>
      <trkpt lat="48.32974" lon="-4.21575">
        <ele>89.037460327148</ele>
        <time>2011-04-17T14:32:37Z</time>
      </trkpt>
      <trkpt lat="48.32969" lon="-4.21598">
        <ele>89.69457244873</ele>
        <time>2011-04-17T14:32:43Z</time>
      </trkpt>
      <trkpt lat="48.32956" lon="-4.21624">
        <ele>90.226600646973</ele>
        <time>2011-04-17T14:32:49Z</time>
      </trkpt>
      <trkpt lat="48.32946" lon="-4.21651">
        <ele>90.49772644043</ele>
        <time>2011-04-17T14:32:55Z</time>
      </trkpt>
      <trkpt lat="48.32935" lon="-4.21688">
        <ele>90.09790802002</ele>
        <time>2011-04-17T14:33:02Z</time>
      </trkpt>
      <trkpt lat="48.3293" lon="-4.21713">
        <ele>89.492736816406</ele>
        <time>2011-04-17T14:33:06Z</time>
      </trkpt>
      <trkpt lat="48.32919" lon="-4.21757">
        <ele>88.135803222656</ele>
        <time>2011-04-17T14:33:13Z</time>
      </trkpt>
      <trkpt lat="48.32906" lon="-4.21794">
        <ele>86.880813598633</ele>
        <time>2011-04-17T14:33:19Z</time>
      </trkpt>
      <trkpt lat="48.32902" lon="-4.21806">
        <ele>86.572204589844</ele>
        <time>2011-04-17T14:33:21Z</time>
      </trkpt>
      <trkpt lat="48.32893" lon="-4.21823">
        <ele>85.937072753906</ele>
        <time>2011-04-17T14:33:25Z</time>
      </trkpt>
      <trkpt lat="48.32882" lon="-4.2181">
        <ele>84.767730712891</ele>
        <time>2011-04-17T14:33:29Z</time>
      </trkpt>
      <trkpt lat="48.32879" lon="-4.21805">
        <ele>84.405113220215</ele>
        <time>2011-04-17T14:33:30Z</time>
      </trkpt>
      <trkpt lat="48.32861" lon="-4.21779">
        <ele>81.961723327637</ele>
        <time>2011-04-17T14:33:36Z</time>
      </trkpt>
      <trkpt lat="48.32838" lon="-4.21759">
        <ele>78.916450500488</ele>
        <time>2011-04-17T14:33:41Z</time>
      </trkpt>
      <trkpt lat="48.32819" lon="-4.21732">
        <ele>74.852668762207</ele>
        <time>2011-04-17T14:33:46Z</time>
      </trkpt>
      <trkpt lat="48.32813" lon="-4.21721">
        <ele>73.56901550293</ele>
        <time>2011-04-17T14:33:48Z</time>
      </trkpt>
      <trkpt lat="48.32802" lon="-4.21716">
        <ele>71.59188079834</ele>
        <time>2011-04-17T14:33:52Z</time>
      </trkpt>
      <trkpt lat="48.32799" lon="-4.21716">
        <ele>71.056488037109</ele>
        <time>2011-04-17T14:33:53Z</time>
      </trkpt>
      <trkpt lat="48.32788" lon="-4.217">
        <ele>69.023818969727</ele>
        <time>2011-04-17T14:33:57Z</time>
      </trkpt>
      <trkpt lat="48.32771" lon="-4.21671">
        <ele>66.249351501465</ele>
        <time>2011-04-17T14:34:02Z</time>
      </trkpt>
      <trkpt lat="48.32767" lon="-4.21666">
        <ele>65.669677734375</ele>
        <time>2011-04-17T14:34:03Z</time>
      </trkpt>
      <trkpt lat="48.32757" lon="-4.21657">
        <ele>64.131217956543</ele>
        <time>2011-04-17T14:34:06Z</time>
      </trkpt>
      <trkpt lat="48.32745" lon="-4.21647">
        <ele>62.277099609375</ele>
        <time>2011-04-17T14:34:10Z</time>
      </trkpt>
      <trkpt lat="48.32734" lon="-4.21635">
        <ele>60.739013671875</ele>
        <time>2011-04-17T14:34:14Z</time>
      </trkpt>
      <trkpt lat="48.32731" lon="-4.2163">
        <ele>60.24462890625</ele>
        <time>2011-04-17T14:34:21Z</time>
      </trkpt>
      <trkpt lat="48.3273" lon="-4.21627">
        <ele>60.079833984375</ele>
        <time>2011-04-17T14:34:29Z</time>
      </trkpt>
      <trkpt lat="48.32729" lon="-4.21628">
        <ele>59.9150390625</ele>
        <time>2011-04-17T14:34:36Z</time>
      </trkpt>
      <trkpt lat="48.32737" lon="-4.21624">
        <ele>61.12353515625</ele>
        <time>2011-04-17T14:34:52Z</time>
      </trkpt>
      <trkpt lat="48.32739" lon="-4.21622">
        <ele>61.398193359375</ele>
        <time>2011-04-17T14:35:08Z</time>
      </trkpt>
      <trkpt lat="48.32737" lon="-4.2162">
        <ele>61.178466796875</ele>
        <time>2011-04-17T14:35:16Z</time>
      </trkpt>
      <trkpt lat="48.32736" lon="-4.21621">
        <ele>61.013671875</ele>
        <time>2011-04-17T14:35:31Z</time>
      </trkpt>
      <trkpt lat="48.32737" lon="-4.21621">
        <ele>61.12353515625</ele>
        <time>2011-04-17T14:35:43Z</time>
      </trkpt>
      <trkpt lat="48.32738" lon="-4.21622">
        <ele>61.34326171875</ele>
        <time>2011-04-17T14:35:52Z</time>
      </trkpt>
      <trkpt lat="48.3273" lon="-4.2162">
        <ele>60.134765625</ele>
        <time>2011-04-17T14:35:57Z</time>
      </trkpt>
      <trkpt lat="48.32716" lon="-4.21614">
        <ele>58.04736328125</ele>
        <time>2011-04-17T14:36:01Z</time>
      </trkpt>
      <trkpt lat="48.32702" lon="-4.21605">
        <ele>56.06982421875</ele>
        <time>2011-04-17T14:36:05Z</time>
      </trkpt>
      <trkpt lat="48.32692" lon="-4.216">
        <ele>54.586669921875</ele>
        <time>2011-04-17T14:36:11Z</time>
      </trkpt>
      <trkpt lat="48.3268" lon="-4.21592">
        <ele>52.938720703125</ele>
        <time>2011-04-17T14:36:15Z</time>
      </trkpt>
      <trkpt lat="48.32674" lon="-4.21589">
        <ele>52.11474609375</ele>
        <time>2011-04-17T14:36:17Z</time>
      </trkpt>
      <trkpt lat="48.32662" lon="-4.21587">
        <ele>50.783416748047</ele>
        <time>2011-04-17T14:36:22Z</time>
      </trkpt>
      <trkpt lat="48.32649" lon="-4.21579">
        <ele>50.106979370117</ele>
        <time>2011-04-17T14:36:27Z</time>
      </trkpt>
      <trkpt lat="48.32642" lon="-4.21572">
        <ele>49.720794677734</ele>
        <time>2011-04-17T14:36:33Z</time>
      </trkpt>
      <trkpt lat="48.32638" lon="-4.21569">
        <ele>49.522743225098</ele>
        <time>2011-04-17T14:36:37Z</time>
      </trkpt>
      <trkpt lat="48.32637" lon="-4.21564">
        <ele>49.454296112061</ele>
        <time>2011-04-17T14:36:43Z</time>
      </trkpt>
      <trkpt lat="48.32635" lon="-4.21558">
        <ele>49.338798522949</ele>
        <time>2011-04-17T14:36:50Z</time>
      </trkpt>
      <trkpt lat="48.32634" lon="-4.21557">
        <ele>49.28014755249</ele>
        <time>2011-04-17T14:36:57Z</time>
      </trkpt>
      <trkpt lat="48.32633" lon="-4.21554">
        <ele>49.253730773926</ele>
        <time>2011-04-17T14:37:09Z</time>
      </trkpt>
      <trkpt lat="48.32633" lon="-4.21552">
        <ele>49.245162963867</ele>
        <time>2011-04-17T14:37:11Z</time>
      </trkpt>
      <trkpt lat="48.32634" lon="-4.21539">
        <ele>49.192138671875</ele>
        <time>2011-04-17T14:37:20Z</time>
      </trkpt>
      <trkpt lat="48.32634" lon="-4.21533">
        <ele>49.1640625</ele>
        <time>2011-04-17T14:37:24Z</time>
      </trkpt>
      <trkpt lat="48.32631" lon="-4.21528">
        <ele>49.100273132324</ele>
        <time>2011-04-17T14:37:27Z</time>
      </trkpt>
      <trkpt lat="48.32627" lon="-4.2152">
        <ele>49.019527435303</ele>
        <time>2011-04-17T14:37:35Z</time>
      </trkpt>
      <trkpt lat="48.32625" lon="-4.21515">
        <ele>48.998458862305</ele>
        <time>2011-04-17T14:37:41Z</time>
      </trkpt>
      <trkpt lat="48.32623" lon="-4.21507">
        <ele>48.990676879883</ele>
        <time>2011-04-17T14:37:48Z</time>
      </trkpt>
      <trkpt lat="48.32619" lon="-4.21502">
        <ele>48.992668151855</ele>
        <time>2011-04-17T14:37:55Z</time>
      </trkpt>
      <trkpt lat="48.32619" lon="-4.215">
        <ele>48.99942779541</ele>
        <time>2011-04-17T14:38:02Z</time>
      </trkpt>
      <trkpt lat="48.32617" lon="-4.215">
        <ele>48.998802185059</ele>
        <time>2011-04-17T14:38:10Z</time>
      </trkpt>
      <trkpt lat="48.32607" lon="-4.21505">
        <ele>48.945995330811</ele>
        <time>2011-04-17T14:38:16Z</time>
      </trkpt>
      <trkpt lat="48.32595" lon="-4.21504">
        <ele>48.939666748047</ele>
        <time>2011-04-17T14:38:20Z</time>
      </trkpt>
      <trkpt lat="48.32562" lon="-4.21494">
        <ele>49.891181945801</ele>
        <time>2011-04-17T14:38:31Z</time>
      </trkpt>
      <trkpt lat="48.32538" lon="-4.21484">
        <ele>51.034446716309</ele>
        <time>2011-04-17T14:38:39Z</time>
      </trkpt>
      <trkpt lat="48.32505" lon="-4.21474">
        <ele>52.45694732666</ele>
        <time>2011-04-17T14:38:48Z</time>
      </trkpt>
      <trkpt lat="48.32486" lon="-4.21466">
        <ele>52.507873535156</ele>
        <time>2011-04-17T14:38:53Z</time>
      </trkpt>
      <trkpt lat="48.32459" lon="-4.21454">
        <ele>52.305313110352</ele>
        <time>2011-04-17T14:39:00Z</time>
      </trkpt>
      <trkpt lat="48.32433" lon="-4.21443">
        <ele>51.987167358398</ele>
        <time>2011-04-17T14:39:06Z</time>
      </trkpt>
      <trkpt lat="48.32392" lon="-4.21425">
        <ele>52.283954620361</ele>
        <time>2011-04-17T14:39:14Z</time>
      </trkpt>
      <trkpt lat="48.32375" lon="-4.21425">
        <ele>52.135234832764</ele>
        <time>2011-04-17T14:39:17Z</time>
      </trkpt>
      <trkpt lat="48.32341" lon="-4.21436">
        <ele>51.562099456787</ele>
        <time>2011-04-17T14:39:24Z</time>
      </trkpt>
      <trkpt lat="48.32319" lon="-4.2144">
        <ele>51.455333709717</ele>
        <time>2011-04-17T14:39:29Z</time>
      </trkpt>
      <trkpt lat="48.32285" lon="-4.2143">
        <ele>51.972984313965</ele>
        <time>2011-04-17T14:39:37Z</time>
      </trkpt>
      <trkpt lat="48.32245" lon="-4.21407">
        <ele>53.244876861572</ele>
        <time>2011-04-17T14:39:45Z</time>
      </trkpt>
      <trkpt lat="48.32198" lon="-4.21384">
        <ele>54.029098510742</ele>
        <time>2011-04-17T14:39:55Z</time>
      </trkpt>
      <trkpt lat="48.32189" lon="-4.21383">
        <ele>54.117248535156</ele>
        <time>2011-04-17T14:39:57Z</time>
      </trkpt>
      <trkpt lat="48.32144" lon="-4.21379">
        <ele>55.301731109619</ele>
        <time>2011-04-17T14:40:07Z</time>
      </trkpt>
      <trkpt lat="48.32108" lon="-4.21377">
        <ele>56.906684875488</ele>
        <time>2011-04-17T14:40:15Z</time>
      </trkpt>
      <trkpt lat="48.32087" lon="-4.21372">
        <ele>57.905239105225</ele>
        <time>2011-04-17T14:40:21Z</time>
      </trkpt>
      <trkpt lat="48.32065" lon="-4.21371">
        <ele>58.861248016357</ele>
        <time>2011-04-17T14:40:28Z</time>
      </trkpt>
      <trkpt lat="48.32044" lon="-4.21368">
        <ele>59.776973724365</ele>
        <time>2011-04-17T14:40:35Z</time>
      </trkpt>
      <trkpt lat="48.32022" lon="-4.21363">
        <ele>60.737808227539</ele>
        <time>2011-04-17T14:40:43Z</time>
      </trkpt>
      <trkpt lat="48.32005" lon="-4.2135">
        <ele>61.593631744385</ele>
        <time>2011-04-17T14:40:50Z</time>
      </trkpt>
      <trkpt lat="48.32003" lon="-4.21331">
        <ele>61.969226837158</ele>
        <time>2011-04-17T14:40:54Z</time>
      </trkpt>
      <trkpt lat="48.32004" lon="-4.21292">
        <ele>62.898357391357</ele>
        <time>2011-04-17T14:41:02Z</time>
      </trkpt>
      <trkpt lat="48.32006" lon="-4.21262">
        <ele>63.630702972412</ele>
        <time>2011-04-17T14:41:08Z</time>
      </trkpt>
      <trkpt lat="48.32011" lon="-4.21219">
        <ele>64.016731262207</ele>
        <time>2011-04-17T14:41:16Z</time>
      </trkpt>
      <trkpt lat="48.32013" lon="-4.21181">
        <ele>64.229293823242</ele>
        <time>2011-04-17T14:41:22Z</time>
      </trkpt>
      <trkpt lat="48.32011" lon="-4.21168">
        <ele>64.265975952148</ele>
        <time>2011-04-17T14:41:24Z</time>
      </trkpt>
      <trkpt lat="48.31997" lon="-4.21142">
        <ele>63.406448364258</ele>
        <time>2011-04-17T14:41:29Z</time>
      </trkpt>
      <trkpt lat="48.31961" lon="-4.21117">
        <ele>60.530235290527</ele>
        <time>2011-04-17T14:41:36Z</time>
      </trkpt>
      <trkpt lat="48.31939" lon="-4.21105">
        <ele>59.054286956787</ele>
        <time>2011-04-17T14:41:39Z</time>
      </trkpt>
      <trkpt lat="48.31924" lon="-4.21072">
        <ele>58.676132202148</ele>
        <time>2011-04-17T14:41:43Z</time>
      </trkpt>
      <trkpt lat="48.31927" lon="-4.21025">
        <ele>59.753116607666</ele>
        <time>2011-04-17T14:41:49Z</time>
      </trkpt>
      <trkpt lat="48.31927" lon="-4.21019">
        <ele>59.877883911133</ele>
        <time>2011-04-17T14:41:50Z</time>
      </trkpt>
      <trkpt lat="48.31931" lon="-4.20997">
        <ele>60.351318359375</ele>
        <time>2011-04-17T14:41:54Z</time>
      </trkpt>
      <trkpt lat="48.31936" lon="-4.20955">
        <ele>60.470336914062</ele>
        <time>2011-04-17T14:42:01Z</time>
      </trkpt>
      <trkpt lat="48.31939" lon="-4.20943">
        <ele>60.543579101562</ele>
        <time>2011-04-17T14:42:03Z</time>
      </trkpt>
      <trkpt lat="48.31945" lon="-4.20907">
        <ele>60.650520324707</ele>
        <time>2011-04-17T14:42:10Z</time>
      </trkpt>
      <trkpt lat="48.31948" lon="-4.2088">
        <ele>60.580383300781</ele>
        <time>2011-04-17T14:42:15Z</time>
      </trkpt>
      <trkpt lat="48.31955" lon="-4.20853">
        <ele>60.574600219727</ele>
        <time>2011-04-17T14:42:20Z</time>
      </trkpt>
      <trkpt lat="48.31962" lon="-4.20823">
        <ele>60.47932434082</ele>
        <time>2011-04-17T14:42:25Z</time>
      </trkpt>
      <trkpt lat="48.31964" lon="-4.20817">
        <ele>60.454772949219</ele>
        <time>2011-04-17T14:42:26Z</time>
      </trkpt>
      <trkpt lat="48.31971" lon="-4.20791">
        <ele>60.315856933594</ele>
        <time>2011-04-17T14:42:30Z</time>
      </trkpt>
      <trkpt lat="48.31976" lon="-4.20767">
        <ele>60.143341064453</ele>
        <time>2011-04-17T14:42:34Z</time>
      </trkpt>
      <trkpt lat="48.3198" lon="-4.20743">
        <ele>60.06672668457</ele>
        <time>2011-04-17T14:42:38Z</time>
      </trkpt>
      <trkpt lat="48.31971" lon="-4.20737">
        <ele>60.102569580078</ele>
        <time>2011-04-17T14:42:41Z</time>
      </trkpt>
      <trkpt lat="48.31951" lon="-4.20739">
        <ele>60.053745269775</ele>
        <time>2011-04-17T14:42:46Z</time>
      </trkpt>
      <trkpt lat="48.31939" lon="-4.20722">
        <ele>60.092227935791</ele>
        <time>2011-04-17T14:42:50Z</time>
      </trkpt>
      <trkpt lat="48.31923" lon="-4.20677">
        <ele>60.061531066895</ele>
        <time>2011-04-17T14:42:57Z</time>
      </trkpt>
      <trkpt lat="48.3191" lon="-4.20639">
        <ele>58.058250427246</ele>
        <time>2011-04-17T14:43:03Z</time>
      </trkpt>
      <trkpt lat="48.31902" lon="-4.20622">
        <ele>56.341022491455</ele>
        <time>2011-04-17T14:43:08Z</time>
      </trkpt>
      <trkpt lat="48.31894" lon="-4.20619">
        <ele>54.996761322021</ele>
        <time>2011-04-17T14:43:12Z</time>
      </trkpt>
      <trkpt lat="48.31881" lon="-4.20631">
        <ele>53.509464263916</ele>
        <time>2011-04-17T14:43:16Z</time>
      </trkpt>
      <trkpt lat="48.31877" lon="-4.20643">
        <ele>53.257633209229</ele>
        <time>2011-04-17T14:43:19Z</time>
      </trkpt>
      <trkpt lat="48.31866" lon="-4.20646">
        <ele>51.613471984863</ele>
        <time>2011-04-17T14:43:24Z</time>
      </trkpt>
      <trkpt lat="48.31862" lon="-4.20634">
        <ele>50.78332901001</ele>
        <time>2011-04-17T14:43:28Z</time>
      </trkpt>
      <trkpt lat="48.31858" lon="-4.20611">
        <ele>49.845802307129</ele>
        <time>2011-04-17T14:43:32Z</time>
      </trkpt>
      <trkpt lat="48.31846" lon="-4.20602">
        <ele>47.938129425049</ele>
        <time>2011-04-17T14:43:35Z</time>
      </trkpt>
      <trkpt lat="48.31842" lon="-4.20599">
        <ele>47.331260681152</ele>
        <time>2011-04-17T14:43:36Z</time>
      </trkpt>
      <trkpt lat="48.31815" lon="-4.20586">
        <ele>43.235340118408</ele>
        <time>2011-04-17T14:43:42Z</time>
      </trkpt>
      <trkpt lat="48.31802" lon="-4.20583">
        <ele>41.031898498535</ele>
        <time>2011-04-17T14:43:45Z</time>
      </trkpt>
      <trkpt lat="48.31785" lon="-4.20597">
        <ele>38.682971954346</ele>
        <time>2011-04-17T14:43:50Z</time>
      </trkpt>
      <trkpt lat="48.31779" lon="-4.20614">
        <ele>38.083442687988</ele>
        <time>2011-04-17T14:43:55Z</time>
      </trkpt>
      <trkpt lat="48.31766" lon="-4.20613">
        <ele>36.150943756104</ele>
        <time>2011-04-17T14:44:00Z</time>
      </trkpt>
      <trkpt lat="48.31757" lon="-4.20584">
        <ele>34.159606933594</ele>
        <time>2011-04-17T14:44:06Z</time>
      </trkpt>
      <trkpt lat="48.31752" lon="-4.20564">
        <ele>32.609046936035</ele>
        <time>2011-04-17T14:44:11Z</time>
      </trkpt>
      <trkpt lat="48.31748" lon="-4.20535">
        <ele>31.187553405762</ele>
        <time>2011-04-17T14:44:16Z</time>
      </trkpt>
      <trkpt lat="48.3175" lon="-4.20507">
        <ele>30.314506530762</ele>
        <time>2011-04-17T14:44:21Z</time>
      </trkpt>
      <trkpt lat="48.31758" lon="-4.20484">
        <ele>30.98624420166</ele>
        <time>2011-04-17T14:44:25Z</time>
      </trkpt>
      <trkpt lat="48.31765" lon="-4.20458">
        <ele>31.59015083313</ele>
        <time>2011-04-17T14:44:30Z</time>
      </trkpt>
      <trkpt lat="48.31778" lon="-4.20406">
        <ele>32.277801513672</ele>
        <time>2011-04-17T14:44:39Z</time>
      </trkpt>
      <trkpt lat="48.31794" lon="-4.20369">
        <ele>32.427833557129</ele>
        <time>2011-04-17T14:44:47Z</time>
      </trkpt>
      <trkpt lat="48.3181" lon="-4.20338">
        <ele>32.366390228271</ele>
        <time>2011-04-17T14:44:55Z</time>
      </trkpt>
      <trkpt lat="48.31821" lon="-4.20318">
        <ele>33.048923492432</ele>
        <time>2011-04-17T14:45:01Z</time>
      </trkpt>
      <trkpt lat="48.31815" lon="-4.20305">
        <ele>32.678153991699</ele>
        <time>2011-04-17T14:45:05Z</time>
      </trkpt>
      <trkpt lat="48.31784" lon="-4.20273">
        <ele>31.128814697266</ele>
        <time>2011-04-17T14:45:12Z</time>
      </trkpt>
      <trkpt lat="48.31759" lon="-4.20246">
        <ele>30.464242935181</ele>
        <time>2011-04-17T14:45:17Z</time>
      </trkpt>
      <trkpt lat="48.31739" lon="-4.20217">
        <ele>30.607933044434</ele>
        <time>2011-04-17T14:45:22Z</time>
      </trkpt>
      <trkpt lat="48.3173" lon="-4.20202">
        <ele>31.109951019287</ele>
        <time>2011-04-17T14:45:25Z</time>
      </trkpt>
      <trkpt lat="48.31717" lon="-4.20176">
        <ele>32.285297393799</ele>
        <time>2011-04-17T14:45:30Z</time>
      </trkpt>
      <trkpt lat="48.31707" lon="-4.20162">
        <ele>33.133548736572</ele>
        <time>2011-04-17T14:45:35Z</time>
      </trkpt>
      <trkpt lat="48.31705" lon="-4.20162">
        <ele>33.279613494873</ele>
        <time>2011-04-17T14:45:36Z</time>
      </trkpt>
      <trkpt lat="48.31686" lon="-4.20161">
        <ele>34.26053237915</ele>
        <time>2011-04-17T14:45:44Z</time>
      </trkpt>
      <trkpt lat="48.31671" lon="-4.20157">
        <ele>35.243114471436</ele>
        <time>2011-04-17T14:45:51Z</time>
      </trkpt>
      <trkpt lat="48.31658" lon="-4.20152">
        <ele>35.974060058594</ele>
        <time>2011-04-17T14:45:57Z</time>
      </trkpt>
      <trkpt lat="48.31643" lon="-4.20148">
        <ele>36.635452270508</ele>
        <time>2011-04-17T14:46:03Z</time>
      </trkpt>
      <trkpt lat="48.31625" lon="-4.20147">
        <ele>37.225532531738</ele>
        <time>2011-04-17T14:46:10Z</time>
      </trkpt>
      <trkpt lat="48.31609" lon="-4.20145">
        <ele>37.773490905762</ele>
        <time>2011-04-17T14:46:16Z</time>
      </trkpt>
      <trkpt lat="48.31586" lon="-4.2014">
        <ele>38.567764282227</ele>
        <time>2011-04-17T14:46:24Z</time>
      </trkpt>
      <trkpt lat="48.31564" lon="-4.2014">
        <ele>38.188995361328</ele>
        <time>2011-04-17T14:46:32Z</time>
      </trkpt>
      <trkpt lat="48.31543" lon="-4.20144">
        <ele>37.567581176758</ele>
        <time>2011-04-17T14:46:39Z</time>
      </trkpt>
      <trkpt lat="48.31516" lon="-4.20159">
        <ele>36.579956054688</ele>
        <time>2011-04-17T14:46:46Z</time>
      </trkpt>
      <trkpt lat="48.31496" lon="-4.20191">
        <ele>34.699714660645</ele>
        <time>2011-04-17T14:46:51Z</time>
      </trkpt>
      <trkpt lat="48.31465" lon="-4.2023">
        <ele>30.018018722534</ele>
        <time>2011-04-17T14:46:56Z</time>
      </trkpt>
      <trkpt lat="48.31424" lon="-4.20276">
        <ele>24.109998703003</ele>
        <time>2011-04-17T14:47:01Z</time>
      </trkpt>
      <trkpt lat="48.3137" lon="-4.20342">
        <ele>23.068521499634</ele>
        <time>2011-04-17T14:47:07Z</time>
      </trkpt>
      <trkpt lat="48.31343" lon="-4.20387">
        <ele>23.703058242798</ele>
        <time>2011-04-17T14:47:11Z</time>
      </trkpt>
      <trkpt lat="48.31328" lon="-4.20423">
        <ele>24.390197753906</ele>
        <time>2011-04-17T14:47:15Z</time>
      </trkpt>
      <trkpt lat="48.31315" lon="-4.20457">
        <ele>25.072265625</ele>
        <time>2011-04-17T14:47:20Z</time>
      </trkpt>
      <trkpt lat="48.31313" lon="-4.20463">
        <ele>25.190711975098</ele>
        <time>2011-04-17T14:47:21Z</time>
      </trkpt>
      <trkpt lat="48.31308" lon="-4.20479">
        <ele>25.409866333008</ele>
        <time>2011-04-17T14:47:24Z</time>
      </trkpt>
      <trkpt lat="48.31311" lon="-4.2051">
        <ele>24.753776550293</ele>
        <time>2011-04-17T14:47:29Z</time>
      </trkpt>
      <trkpt lat="48.31334" lon="-4.20563">
        <ele>22.222969055176</ele>
        <time>2011-04-17T14:47:35Z</time>
      </trkpt>
      <trkpt lat="48.31342" lon="-4.20584">
        <ele>21.651502609253</ele>
        <time>2011-04-17T14:47:37Z</time>
      </trkpt>
      <trkpt lat="48.31348" lon="-4.20637">
        <ele>20.282638549805</ele>
        <time>2011-04-17T14:47:41Z</time>
      </trkpt>
      <trkpt lat="48.31337" lon="-4.20679">
        <ele>19.648397445679</ele>
        <time>2011-04-17T14:47:44Z</time>
      </trkpt>
      <trkpt lat="48.31327" lon="-4.20701">
        <ele>19.670333862305</ele>
        <time>2011-04-17T14:47:46Z</time>
      </trkpt>
      <trkpt lat="48.31305" lon="-4.20729">
        <ele>20.670993804932</ele>
        <time>2011-04-17T14:47:50Z</time>
      </trkpt>
      <trkpt lat="48.31301" lon="-4.20736">
        <ele>20.694253921509</ele>
        <time>2011-04-17T14:47:51Z</time>
      </trkpt>
      <trkpt lat="48.31276" lon="-4.20775">
        <ele>22.426414489746</ele>
        <time>2011-04-17T14:47:58Z</time>
      </trkpt>
      <trkpt lat="48.31256" lon="-4.20782">
        <ele>23.970794677734</ele>
        <time>2011-04-17T14:48:03Z</time>
      </trkpt>
      <trkpt lat="48.31251" lon="-4.20768">
        <ele>24.159049987793</ele>
        <time>2011-04-17T14:48:06Z</time>
      </trkpt>
      <trkpt lat="48.31248" lon="-4.20757">
        <ele>24.251319885254</ele>
        <time>2011-04-17T14:48:08Z</time>
      </trkpt>
      <trkpt lat="48.31248" lon="-4.2073">
        <ele>24.967910766602</ele>
        <time>2011-04-17T14:48:13Z</time>
      </trkpt>
      <trkpt lat="48.31255" lon="-4.20687">
        <ele>25.880819320679</ele>
        <time>2011-04-17T14:48:21Z</time>
      </trkpt>
      <trkpt lat="48.31257" lon="-4.20653">
        <ele>26.85524559021</ele>
        <time>2011-04-17T14:48:27Z</time>
      </trkpt>
      <trkpt lat="48.31258" lon="-4.20622">
        <ele>27.85849571228</ele>
        <time>2011-04-17T14:48:33Z</time>
      </trkpt>
      <trkpt lat="48.31252" lon="-4.20576">
        <ele>29.855031967163</ele>
        <time>2011-04-17T14:48:42Z</time>
      </trkpt>
      <trkpt lat="48.31241" lon="-4.20542">
        <ele>31.0986328125</ele>
        <time>2011-04-17T14:48:50Z</time>
      </trkpt>
      <trkpt lat="48.31229" lon="-4.20514">
        <ele>32.517700195312</ele>
        <time>2011-04-17T14:48:57Z</time>
      </trkpt>
      <trkpt lat="48.31215" lon="-4.20483">
        <ele>34.158042907715</ele>
        <time>2011-04-17T14:49:05Z</time>
      </trkpt>
      <trkpt lat="48.31211" lon="-4.20477">
        <ele>34.514419555664</ele>
        <time>2011-04-17T14:49:07Z</time>
      </trkpt>
      <trkpt lat="48.31203" lon="-4.20481">
        <ele>35.471118927002</ele>
        <time>2011-04-17T14:49:11Z</time>
      </trkpt>
      <trkpt lat="48.312" lon="-4.20494">
        <ele>35.893341064453</ele>
        <time>2011-04-17T14:49:15Z</time>
      </trkpt>
      <trkpt lat="48.31201" lon="-4.20497">
        <ele>35.833721160889</ele>
        <time>2011-04-17T14:49:16Z</time>
      </trkpt>
      <trkpt lat="48.3121" lon="-4.20522">
        <ele>34.852294921875</ele>
        <time>2011-04-17T14:49:23Z</time>
      </trkpt>
      <trkpt lat="48.31215" lon="-4.20553">
        <ele>34.21142578125</ele>
        <time>2011-04-17T14:49:30Z</time>
      </trkpt>
      <trkpt lat="48.31214" lon="-4.20587">
        <ele>34.204193115234</ele>
        <time>2011-04-17T14:49:37Z</time>
      </trkpt>
      <trkpt lat="48.3121" lon="-4.20619">
        <ele>33.484931945801</ele>
        <time>2011-04-17T14:49:43Z</time>
      </trkpt>
      <trkpt lat="48.31203" lon="-4.20659">
        <ele>32.877250671387</ele>
        <time>2011-04-17T14:49:49Z</time>
      </trkpt>
      <trkpt lat="48.31198" lon="-4.20703">
        <ele>31.67826461792</ele>
        <time>2011-04-17T14:49:55Z</time>
      </trkpt>
      <trkpt lat="48.31186" lon="-4.20735">
        <ele>31.585725784302</ele>
        <time>2011-04-17T14:50:01Z</time>
      </trkpt>
      <trkpt lat="48.31175" lon="-4.20752">
        <ele>32.097316741943</ele>
        <time>2011-04-17T14:50:04Z</time>
      </trkpt>
      <trkpt lat="48.31161" lon="-4.20763">
        <ele>33.910385131836</ele>
        <time>2011-04-17T14:50:07Z</time>
      </trkpt>
      <trkpt lat="48.31154" lon="-4.20779">
        <ele>35.034767150879</ele>
        <time>2011-04-17T14:50:11Z</time>
      </trkpt>
      <trkpt lat="48.31152" lon="-4.20805">
        <ele>35.164085388184</ele>
        <time>2011-04-17T14:50:16Z</time>
      </trkpt>
      <trkpt lat="48.31145" lon="-4.20834">
        <ele>36.1416015625</ele>
        <time>2011-04-17T14:50:22Z</time>
      </trkpt>
      <trkpt lat="48.3114" lon="-4.2086">
        <ele>37.09375</ele>
        <time>2011-04-17T14:50:27Z</time>
      </trkpt>
      <trkpt lat="48.31132" lon="-4.20895">
        <ele>38.705078125</ele>
        <time>2011-04-17T14:50:34Z</time>
      </trkpt>
      <trkpt lat="48.31128" lon="-4.2092">
        <ele>39.306022644043</ele>
        <time>2011-04-17T14:50:39Z</time>
      </trkpt>
      <trkpt lat="48.31126" lon="-4.20958">
        <ele>39.085597991943</ele>
        <time>2011-04-17T14:50:46Z</time>
      </trkpt>
      <trkpt lat="48.31124" lon="-4.20984">
        <ele>39.001731872559</ele>
        <time>2011-04-17T14:50:51Z</time>
      </trkpt>
      <trkpt lat="48.31121" lon="-4.21019">
        <ele>38.700489044189</ele>
        <time>2011-04-17T14:50:57Z</time>
      </trkpt>
      <trkpt lat="48.31123" lon="-4.2105">
        <ele>37.645500183105</ele>
        <time>2011-04-17T14:51:02Z</time>
      </trkpt>
      <trkpt lat="48.31125" lon="-4.21083">
        <ele>36.469806671143</ele>
        <time>2011-04-17T14:51:08Z</time>
      </trkpt>
      <trkpt lat="48.31123" lon="-4.21114">
        <ele>37.11759185791</ele>
        <time>2011-04-17T14:51:13Z</time>
      </trkpt>
      <trkpt lat="48.31117" lon="-4.21153">
        <ele>38.248413085938</ele>
        <time>2011-04-17T14:51:20Z</time>
      </trkpt>
      <trkpt lat="48.31114" lon="-4.21189">
        <ele>38.666748046875</ele>
        <time>2011-04-17T14:51:26Z</time>
      </trkpt>
      <trkpt lat="48.31111" lon="-4.21216">
        <ele>38.996337890625</ele>
        <time>2011-04-17T14:51:31Z</time>
      </trkpt>
      <trkpt lat="48.31109" lon="-4.21245">
        <ele>39.202331542969</ele>
        <time>2011-04-17T14:51:36Z</time>
      </trkpt>
      <trkpt lat="48.31108" lon="-4.21285">
        <ele>39.839294433594</ele>
        <time>2011-04-17T14:51:42Z</time>
      </trkpt>
      <trkpt lat="48.31105" lon="-4.21321">
        <ele>40.743919372559</ele>
        <time>2011-04-17T14:51:49Z</time>
      </trkpt>
      <trkpt lat="48.31103" lon="-4.21338">
        <ele>41.294178009033</ele>
        <time>2011-04-17T14:51:54Z</time>
      </trkpt>
      <trkpt lat="48.31099" lon="-4.21358">
        <ele>42.237640380859</ele>
        <time>2011-04-17T14:51:59Z</time>
      </trkpt>
      <trkpt lat="48.31099" lon="-4.21375">
        <ele>42.705875396729</ele>
        <time>2011-04-17T14:52:03Z</time>
      </trkpt>
      <trkpt lat="48.31092" lon="-4.21406">
        <ele>44.457145690918</ele>
        <time>2011-04-17T14:52:10Z</time>
      </trkpt>
      <trkpt lat="48.31084" lon="-4.21437">
        <ele>45.327110290527</ele>
        <time>2011-04-17T14:52:16Z</time>
      </trkpt>
      <trkpt lat="48.31076" lon="-4.21464">
        <ele>46.086578369141</ele>
        <time>2011-04-17T14:52:22Z</time>
      </trkpt>
      <trkpt lat="48.31068" lon="-4.21482">
        <ele>46.904243469238</ele>
        <time>2011-04-17T14:52:28Z</time>
      </trkpt>
      <trkpt lat="48.31064" lon="-4.21493">
        <ele>47.173305511475</ele>
        <time>2011-04-17T14:52:34Z</time>
      </trkpt>
      <trkpt lat="48.31063" lon="-4.21497">
        <ele>47.322826385498</ele>
        <time>2011-04-17T14:52:35Z</time>
      </trkpt>
      <trkpt lat="48.3106" lon="-4.21508">
        <ele>47.878601074219</ele>
        <time>2011-04-17T14:52:38Z</time>
      </trkpt>
      <trkpt lat="48.31051" lon="-4.21528">
        <ele>49.729110717773</ele>
        <time>2011-04-17T14:52:45Z</time>
      </trkpt>
      <trkpt lat="48.31039" lon="-4.21545">
        <ele>51.980163574219</ele>
        <time>2011-04-17T14:52:52Z</time>
      </trkpt>
      <trkpt lat="48.31036" lon="-4.21549">
        <ele>52.629043579102</ele>
        <time>2011-04-17T14:52:54Z</time>
      </trkpt>
      <trkpt lat="48.3103" lon="-4.2157">
        <ele>54.077865600586</ele>
        <time>2011-04-17T14:53:00Z</time>
      </trkpt>
      <trkpt lat="48.31027" lon="-4.21587">
        <ele>54.770217895508</ele>
        <time>2011-04-17T14:53:05Z</time>
      </trkpt>
      <trkpt lat="48.31023" lon="-4.216">
        <ele>55.560710906982</ele>
        <time>2011-04-17T14:53:09Z</time>
      </trkpt>
      <trkpt lat="48.31018" lon="-4.21611">
        <ele>56.435688018799</ele>
        <time>2011-04-17T14:53:13Z</time>
      </trkpt>
      <trkpt lat="48.31013" lon="-4.21621">
        <ele>57.202495574951</ele>
        <time>2011-04-17T14:53:17Z</time>
      </trkpt>
      <trkpt lat="48.31006" lon="-4.21645">
        <ele>58.659214019775</ele>
        <time>2011-04-17T14:53:24Z</time>
      </trkpt>
      <trkpt lat="48.31004" lon="-4.21657">
        <ele>59.255840301514</ele>
        <time>2011-04-17T14:53:28Z</time>
      </trkpt>
      <trkpt lat="48.30994" lon="-4.21678">
        <ele>60.297424316406</ele>
        <time>2011-04-17T14:53:35Z</time>
      </trkpt>
      <trkpt lat="48.30988" lon="-4.21695">
        <ele>60.631507873535</ele>
        <time>2011-04-17T14:53:41Z</time>
      </trkpt>
      <trkpt lat="48.3098" lon="-4.21711">
        <ele>61.447326660156</ele>
        <time>2011-04-17T14:53:47Z</time>
      </trkpt>
      <trkpt lat="48.30972" lon="-4.21726">
        <ele>62.363681793213</ele>
        <time>2011-04-17T14:53:53Z</time>
      </trkpt>
      <trkpt lat="48.30965" lon="-4.21739">
        <ele>63.269367218018</ele>
        <time>2011-04-17T14:53:58Z</time>
      </trkpt>
      <trkpt lat="48.3096" lon="-4.21753">
        <ele>63.957778930664</ele>
        <time>2011-04-17T14:54:03Z</time>
      </trkpt>
      <trkpt lat="48.3095" lon="-4.21766">
        <ele>65.169609069824</ele>
        <time>2011-04-17T14:54:09Z</time>
      </trkpt>
      <trkpt lat="48.30935" lon="-4.2178">
        <ele>67.401733398438</ele>
        <time>2011-04-17T14:54:16Z</time>
      </trkpt>
      <trkpt lat="48.30925" lon="-4.21789">
        <ele>68.835418701172</ele>
        <time>2011-04-17T14:54:21Z</time>
      </trkpt>
      <trkpt lat="48.30916" lon="-4.21796">
        <ele>70.133346557617</ele>
        <time>2011-04-17T14:54:25Z</time>
      </trkpt>
      <trkpt lat="48.30899" lon="-4.21809">
        <ele>70.244918823242</ele>
        <time>2011-04-17T14:54:31Z</time>
      </trkpt>
      <trkpt lat="48.30878" lon="-4.21827">
        <ele>70.631698608398</ele>
        <time>2011-04-17T14:54:38Z</time>
      </trkpt>
      <trkpt lat="48.30875" lon="-4.2183">
        <ele>70.7451171875</ele>
        <time>2011-04-17T14:54:39Z</time>
      </trkpt>
      <trkpt lat="48.30856" lon="-4.21854">
        <ele>70.033508300781</ele>
        <time>2011-04-17T14:54:46Z</time>
      </trkpt>
      <trkpt lat="48.30842" lon="-4.21869">
        <ele>69.753196716309</ele>
        <time>2011-04-17T14:54:51Z</time>
      </trkpt>
      <trkpt lat="48.30824" lon="-4.21885">
        <ele>69.432312011719</ele>
        <time>2011-04-17T14:54:56Z</time>
      </trkpt>
      <trkpt lat="48.30812" lon="-4.21897">
        <ele>68.869705200195</ele>
        <time>2011-04-17T14:54:59Z</time>
      </trkpt>
      <trkpt lat="48.30795" lon="-4.21915">
        <ele>68.409019470215</ele>
        <time>2011-04-17T14:55:04Z</time>
      </trkpt>
      <trkpt lat="48.30779" lon="-4.21935">
        <ele>68.469802856445</ele>
        <time>2011-04-17T14:55:10Z</time>
      </trkpt>
      <trkpt lat="48.30766" lon="-4.21951">
        <ele>68.632064819336</ele>
        <time>2011-04-17T14:55:14Z</time>
      </trkpt>
      <trkpt lat="48.3075" lon="-4.21977">
        <ele>68.805191040039</ele>
        <time>2011-04-17T14:55:19Z</time>
      </trkpt>
      <trkpt lat="48.30737" lon="-4.2199">
        <ele>68.92211151123</ele>
        <time>2011-04-17T14:55:23Z</time>
      </trkpt>
      <trkpt lat="48.30715" lon="-4.22004">
        <ele>69.712310791016</ele>
        <time>2011-04-17T14:55:30Z</time>
      </trkpt>
      <trkpt lat="48.30693" lon="-4.22019">
        <ele>70.885719299316</ele>
        <time>2011-04-17T14:55:36Z</time>
      </trkpt>
      <trkpt lat="48.30671" lon="-4.22034">
        <ele>72.201370239258</ele>
        <time>2011-04-17T14:55:42Z</time>
      </trkpt>
      <trkpt lat="48.30653" lon="-4.2205">
        <ele>72.539535522461</ele>
        <time>2011-04-17T14:55:48Z</time>
      </trkpt>
      <trkpt lat="48.30637" lon="-4.2206">
        <ele>72.622512817383</ele>
        <time>2011-04-17T14:55:53Z</time>
      </trkpt>
      <trkpt lat="48.30628" lon="-4.22071">
        <ele>72.783500671387</ele>
        <time>2011-04-17T14:55:57Z</time>
      </trkpt>
      <trkpt lat="48.30606" lon="-4.22085">
        <ele>73.064918518066</ele>
        <time>2011-04-17T14:56:03Z</time>
      </trkpt>
      <trkpt lat="48.30592" lon="-4.22102">
        <ele>73.841781616211</ele>
        <time>2011-04-17T14:56:08Z</time>
      </trkpt>
      <trkpt lat="48.30567" lon="-4.22132">
        <ele>75.072441101074</ele>
        <time>2011-04-17T14:56:17Z</time>
      </trkpt>
      <trkpt lat="48.30547" lon="-4.22149">
        <ele>75.620300292969</ele>
        <time>2011-04-17T14:56:23Z</time>
      </trkpt>
      <trkpt lat="48.30544" lon="-4.22153">
        <ele>75.780410766602</ele>
        <time>2011-04-17T14:56:26Z</time>
      </trkpt>
      <trkpt lat="48.30542" lon="-4.22149">
        <ele>75.57633972168</ele>
        <time>2011-04-17T14:57:01Z</time>
      </trkpt>
      <trkpt lat="48.30544" lon="-4.22154">
        <ele>75.867202758789</ele>
        <time>2011-04-17T14:57:21Z</time>
      </trkpt>
      <trkpt lat="48.3053" lon="-4.22157">
        <ele>75.845306396484</ele>
        <time>2011-04-17T14:57:27Z</time>
      </trkpt>
      <trkpt lat="48.30508" lon="-4.22164">
        <ele>75.964576721191</ele>
        <time>2011-04-17T14:57:33Z</time>
      </trkpt>
      <trkpt lat="48.30486" lon="-4.22168">
        <ele>75.199699401855</ele>
        <time>2011-04-17T14:57:39Z</time>
      </trkpt>
      <trkpt lat="48.30473" lon="-4.22172">
        <ele>74.599449157715</ele>
        <time>2011-04-17T14:57:42Z</time>
      </trkpt>
      <trkpt lat="48.30445" lon="-4.22193">
        <ele>74.075202941895</ele>
        <time>2011-04-17T14:57:49Z</time>
      </trkpt>
      <trkpt lat="48.3043" lon="-4.22195">
        <ele>73.396614074707</ele>
        <time>2011-04-17T14:57:53Z</time>
      </trkpt>
      <trkpt lat="48.30427" lon="-4.22191">
        <ele>73.000282287598</ele>
        <time>2011-04-17T14:57:54Z</time>
      </trkpt>
      <trkpt lat="48.3041" lon="-4.22154">
        <ele>70.304039001465</ele>
        <time>2011-04-17T14:58:00Z</time>
      </trkpt>
      <trkpt lat="48.30401" lon="-4.22137">
        <ele>69.365051269531</ele>
        <time>2011-04-17T14:58:03Z</time>
      </trkpt>
      <trkpt lat="48.30383" lon="-4.22121">
        <ele>68.134239196777</ele>
        <time>2011-04-17T14:58:07Z</time>
      </trkpt>
      <trkpt lat="48.3036" lon="-4.22096">
        <ele>66.397026062012</ele>
        <time>2011-04-17T14:58:12Z</time>
      </trkpt>
      <trkpt lat="48.30346" lon="-4.22082">
        <ele>65.372428894043</ele>
        <time>2011-04-17T14:58:15Z</time>
      </trkpt>
      <trkpt lat="48.30325" lon="-4.22066">
        <ele>63.472816467285</ele>
        <time>2011-04-17T14:58:19Z</time>
      </trkpt>
      <trkpt lat="48.30302" lon="-4.22055">
        <ele>61.671169281006</ele>
        <time>2011-04-17T14:58:23Z</time>
      </trkpt>
      <trkpt lat="48.30275" lon="-4.22042">
        <ele>59.708019256592</ele>
        <time>2011-04-17T14:58:28Z</time>
      </trkpt>
      <trkpt lat="48.30243" lon="-4.22027">
        <ele>57.542236328125</ele>
        <time>2011-04-17T14:58:34Z</time>
      </trkpt>
      <trkpt lat="48.30233" lon="-4.22023">
        <ele>56.826812744141</ele>
        <time>2011-04-17T14:58:36Z</time>
      </trkpt>
      <trkpt lat="48.30206" lon="-4.2201">
        <ele>55.059131622314</ele>
        <time>2011-04-17T14:58:41Z</time>
      </trkpt>
      <trkpt lat="48.30173" lon="-4.21995">
        <ele>53.056285858154</ele>
        <time>2011-04-17T14:58:47Z</time>
      </trkpt>
      <trkpt lat="48.30155" lon="-4.22011">
        <ele>52.391819000244</ele>
        <time>2011-04-17T14:58:51Z</time>
      </trkpt>
      <trkpt lat="48.30133" lon="-4.22021">
        <ele>51.084468841553</ele>
        <time>2011-04-17T14:58:55Z</time>
      </trkpt>
      <trkpt lat="48.30097" lon="-4.22008">
        <ele>49.413314819336</ele>
        <time>2011-04-17T14:59:01Z</time>
      </trkpt>
      <trkpt lat="48.3007" lon="-4.22">
        <ele>47.716262817383</ele>
        <time>2011-04-17T14:59:06Z</time>
      </trkpt>
      <trkpt lat="48.30055" lon="-4.21996">
        <ele>46.197982788086</ele>
        <time>2011-04-17T14:59:09Z</time>
      </trkpt>
      <trkpt lat="48.30028" lon="-4.21989">
        <ele>43.579277038574</ele>
        <time>2011-04-17T14:59:14Z</time>
      </trkpt>
      <trkpt lat="48.30022" lon="-4.21987">
        <ele>42.997226715088</ele>
        <time>2011-04-17T14:59:15Z</time>
      </trkpt>
      <trkpt lat="48.29999" lon="-4.21972">
        <ele>40.895854949951</ele>
        <time>2011-04-17T14:59:19Z</time>
      </trkpt>
      <trkpt lat="48.2999" lon="-4.21941">
        <ele>39.666721343994</ele>
        <time>2011-04-17T14:59:23Z</time>
      </trkpt>
      <trkpt lat="48.29993" lon="-4.21926">
        <ele>40.04296875</ele>
        <time>2011-04-17T14:59:25Z</time>
      </trkpt>
      <trkpt lat="48.29998" lon="-4.21913">
        <ele>40.452220916748</ele>
        <time>2011-04-17T14:59:28Z</time>
      </trkpt>
      <trkpt lat="48.30005" lon="-4.21902">
        <ele>40.489784240723</ele>
        <time>2011-04-17T14:59:31Z</time>
      </trkpt>
      <trkpt lat="48.30016" lon="-4.21887">
        <ele>40.394798278809</ele>
        <time>2011-04-17T14:59:36Z</time>
      </trkpt>
      <trkpt lat="48.30018" lon="-4.21885">
        <ele>40.42798614502</ele>
        <time>2011-04-17T14:59:39Z</time>
      </trkpt>
      <trkpt lat="48.30021" lon="-4.21879">
        <ele>40.254035949707</ele>
        <time>2011-04-17T14:59:48Z</time>
      </trkpt>
      <trkpt lat="48.30022" lon="-4.21877">
        <ele>40.20482635498</ele>
        <time>2011-04-17T14:59:49Z</time>
      </trkpt>
      <trkpt lat="48.30031" lon="-4.21864">
        <ele>40.05834197998</ele>
        <time>2011-04-17T14:59:54Z</time>
      </trkpt>
      <trkpt lat="48.30046" lon="-4.21844">
        <ele>40.011421203613</ele>
        <time>2011-04-17T14:59:59Z</time>
      </trkpt>
      <trkpt lat="48.30058" lon="-4.21827">
        <ele>39.916946411133</ele>
        <time>2011-04-17T15:00:03Z</time>
      </trkpt>
      <trkpt lat="48.30067" lon="-4.2181">
        <ele>40.064464569092</ele>
        <time>2011-04-17T15:00:07Z</time>
      </trkpt>
      <trkpt lat="48.30072" lon="-4.218">
        <ele>40.247211456299</ele>
        <time>2011-04-17T15:00:09Z</time>
      </trkpt>
      <trkpt lat="48.30088" lon="-4.21769">
        <ele>40.692352294922</ele>
        <time>2011-04-17T15:00:15Z</time>
      </trkpt>
      <trkpt lat="48.30093" lon="-4.21758">
        <ele>40.659164428711</ele>
        <time>2011-04-17T15:00:17Z</time>
      </trkpt>
      <trkpt lat="48.30098" lon="-4.21742">
        <ele>40.449779510498</ele>
        <time>2011-04-17T15:00:20Z</time>
      </trkpt>
      <trkpt lat="48.30107" lon="-4.2172">
        <ele>40.089569091797</ele>
        <time>2011-04-17T15:00:24Z</time>
      </trkpt>
      <trkpt lat="48.30112" lon="-4.21709">
        <ele>39.874870300293</ele>
        <time>2011-04-17T15:00:29Z</time>
      </trkpt>
      <trkpt lat="48.30108" lon="-4.21703">
        <ele>39.569198608398</ele>
        <time>2011-04-17T15:00:32Z</time>
      </trkpt>
      <trkpt lat="48.30092" lon="-4.2168">
        <ele>38.479904174805</ele>
        <time>2011-04-17T15:00:38Z</time>
      </trkpt>
      <trkpt lat="48.30074" lon="-4.2166">
        <ele>36.698932647705</ele>
        <time>2011-04-17T15:00:43Z</time>
      </trkpt>
      <trkpt lat="48.30065" lon="-4.21647">
        <ele>35.129318237305</ele>
        <time>2011-04-17T15:00:46Z</time>
      </trkpt>
      <trkpt lat="48.30053" lon="-4.21635">
        <ele>33.39962387085</ele>
        <time>2011-04-17T15:00:50Z</time>
      </trkpt>
      <trkpt lat="48.3004" lon="-4.21621">
        <ele>31.433879852295</ele>
        <time>2011-04-17T15:00:54Z</time>
      </trkpt>
      <trkpt lat="48.30027" lon="-4.21596">
        <ele>29.279514312744</ele>
        <time>2011-04-17T15:00:59Z</time>
      </trkpt>
      <trkpt lat="48.30016" lon="-4.21557">
        <ele>26.862979888916</ele>
        <time>2011-04-17T15:01:04Z</time>
      </trkpt>
      <trkpt lat="48.29999" lon="-4.21534">
        <ele>24.739004135132</ele>
        <time>2011-04-17T15:01:08Z</time>
      </trkpt>
      <trkpt lat="48.29985" lon="-4.21531">
        <ele>23.204746246338</ele>
        <time>2011-04-17T15:01:12Z</time>
      </trkpt>
      <trkpt lat="48.29977" lon="-4.21538">
        <ele>22.58543586731</ele>
        <time>2011-04-17T15:01:16Z</time>
      </trkpt>
      <trkpt lat="48.29977" lon="-4.21538">
        <ele>22.601030349731</ele>
        <time>2011-04-17T15:01:24Z</time>
      </trkpt>
      <trkpt lat="48.29976" lon="-4.21539">
        <ele>22.479990005493</ele>
        <time>2011-04-17T15:01:34Z</time>
      </trkpt>
      <trkpt lat="48.29976" lon="-4.2154">
        <ele>22.507497787476</ele>
        <time>2011-04-17T15:01:37Z</time>
      </trkpt>
      <trkpt lat="48.29972" lon="-4.21525">
        <ele>21.676803588867</ele>
        <time>2011-04-17T15:01:42Z</time>
      </trkpt>
      <trkpt lat="48.29976" lon="-4.21508">
        <ele>21.572034835815</ele>
        <time>2011-04-17T15:01:45Z</time>
      </trkpt>
      <trkpt lat="48.29982" lon="-4.2146">
        <ele>20.429481506348</ele>
        <time>2011-04-17T15:01:52Z</time>
      </trkpt>
      <trkpt lat="48.29983" lon="-4.21453">
        <ele>20.255617141724</ele>
        <time>2011-04-17T15:01:53Z</time>
      </trkpt>
      <trkpt lat="48.29993" lon="-4.21389">
        <ele>19.106595993042</ele>
        <time>2011-04-17T15:02:01Z</time>
      </trkpt>
      <trkpt lat="48.29994" lon="-4.21381">
        <ele>19.092199325561</ele>
        <time>2011-04-17T15:02:02Z</time>
      </trkpt>
      <trkpt lat="48.3" lon="-4.21311">
        <ele>19.265455245972</ele>
        <time>2011-04-17T15:02:10Z</time>
      </trkpt>
      <trkpt lat="48.29997" lon="-4.21236">
        <ele>19.637125015259</ele>
        <time>2011-04-17T15:02:18Z</time>
      </trkpt>
      <trkpt lat="48.29989" lon="-4.21182">
        <ele>18.88250541687</ele>
        <time>2011-04-17T15:02:24Z</time>
      </trkpt>
      <trkpt lat="48.29966" lon="-4.21111">
        <ele>16.301654815674</ele>
        <time>2011-04-17T15:02:32Z</time>
      </trkpt>
      <trkpt lat="48.29936" lon="-4.21026">
        <ele>13.453051567078</ele>
        <time>2011-04-17T15:02:41Z</time>
      </trkpt>
      <trkpt lat="48.29918" lon="-4.2096">
        <ele>13.551773071289</ele>
        <time>2011-04-17T15:02:48Z</time>
      </trkpt>
      <trkpt lat="48.29913" lon="-4.20921">
        <ele>14.547591209412</ele>
        <time>2011-04-17T15:02:53Z</time>
      </trkpt>
      <trkpt lat="48.2991" lon="-4.20907">
        <ele>15.199831962585</ele>
        <time>2011-04-17T15:02:55Z</time>
      </trkpt>
      <trkpt lat="48.29906" lon="-4.20851">
        <ele>18.392967224121</ele>
        <time>2011-04-17T15:03:03Z</time>
      </trkpt>
      <trkpt lat="48.29902" lon="-4.20797">
        <ele>19.432708740234</ele>
        <time>2011-04-17T15:03:11Z</time>
      </trkpt>
      <trkpt lat="48.29898" lon="-4.20749">
        <ele>19.555936813354</ele>
        <time>2011-04-17T15:03:18Z</time>
      </trkpt>
      <trkpt lat="48.29893" lon="-4.20689">
        <ele>19.872163772583</ele>
        <time>2011-04-17T15:03:26Z</time>
      </trkpt>
      <trkpt lat="48.29889" lon="-4.20617">
        <ele>20.503511428833</ele>
        <time>2011-04-17T15:03:35Z</time>
      </trkpt>
      <trkpt lat="48.29887" lon="-4.20548">
        <ele>19.943450927734</ele>
        <time>2011-04-17T15:03:44Z</time>
      </trkpt>
      <trkpt lat="48.29882" lon="-4.20482">
        <ele>18.263143539429</ele>
        <time>2011-04-17T15:03:52Z</time>
      </trkpt>
      <trkpt lat="48.29881" lon="-4.20407">
        <ele>17.963989257812</ele>
        <time>2011-04-17T15:04:01Z</time>
      </trkpt>
      <trkpt lat="48.29878" lon="-4.20338">
        <ele>17.771728515625</ele>
        <time>2011-04-17T15:04:09Z</time>
      </trkpt>
      <trkpt lat="48.29878" lon="-4.20264">
        <ele>16.181253433227</ele>
        <time>2011-04-17T15:04:17Z</time>
      </trkpt>
      <trkpt lat="48.29879" lon="-4.20199">
        <ele>16.223661422729</ele>
        <time>2011-04-17T15:04:24Z</time>
      </trkpt>
      <trkpt lat="48.29878" lon="-4.20138">
        <ele>16.503820419311</ele>
        <time>2011-04-17T15:04:31Z</time>
      </trkpt>
      <trkpt lat="48.29877" lon="-4.20071">
        <ele>16.733032226562</ele>
        <time>2011-04-17T15:04:39Z</time>
      </trkpt>
      <trkpt lat="48.29878" lon="-4.20024">
        <ele>16.904630661011</ele>
        <time>2011-04-17T15:04:45Z</time>
      </trkpt>
      <trkpt lat="48.29878" lon="-4.19953">
        <ele>17.44232749939</ele>
        <time>2011-04-17T15:04:53Z</time>
      </trkpt>
      <trkpt lat="48.29879" lon="-4.19882">
        <ele>17.437362670898</ele>
        <time>2011-04-17T15:05:01Z</time>
      </trkpt>
      <trkpt lat="48.2988" lon="-4.19818">
        <ele>16.283554077148</ele>
        <time>2011-04-17T15:05:08Z</time>
      </trkpt>
      <trkpt lat="48.29879" lon="-4.19723">
        <ele>13.605401992798</ele>
        <time>2011-04-17T15:05:18Z</time>
      </trkpt>
      <trkpt lat="48.29881" lon="-4.19624">
        <ele>12.661067008972</ele>
        <time>2011-04-17T15:05:28Z</time>
      </trkpt>
      <trkpt lat="48.29882" lon="-4.19538">
        <ele>9.5533981323242</ele>
        <time>2011-04-17T15:05:36Z</time>
      </trkpt>
      <trkpt lat="48.29878" lon="-4.19476">
        <ele>7.9447312355042</ele>
        <time>2011-04-17T15:05:42Z</time>
      </trkpt>
      <trkpt lat="48.29869" lon="-4.19424">
        <ele>7.3475933074951</ele>
        <time>2011-04-17T15:05:48Z</time>
      </trkpt>
      <trkpt lat="48.29864" lon="-4.19366">
        <ele>9.1297702789307</ele>
        <time>2011-04-17T15:05:55Z</time>
      </trkpt>
      <trkpt lat="48.29858" lon="-4.19321">
        <ele>10.24880027771</ele>
        <time>2011-04-17T15:06:01Z</time>
      </trkpt>
      <trkpt lat="48.29852" lon="-4.1927">
        <ele>10.084412574768</ele>
        <time>2011-04-17T15:06:09Z</time>
      </trkpt>
      <trkpt lat="48.2985" lon="-4.19256">
        <ele>10.009525299072</ele>
        <time>2011-04-17T15:06:11Z</time>
      </trkpt>
      <trkpt lat="48.29839" lon="-4.19203">
        <ele>9.4002990722656</ele>
        <time>2011-04-17T15:06:17Z</time>
      </trkpt>
      <trkpt lat="48.29823" lon="-4.19157">
        <ele>8.9044923782349</ele>
        <time>2011-04-17T15:06:22Z</time>
      </trkpt>
      <trkpt lat="48.29803" lon="-4.19111">
        <ele>9.7516241073608</ele>
        <time>2011-04-17T15:06:28Z</time>
      </trkpt>
      <trkpt lat="48.29792" lon="-4.19083">
        <ele>10.500004768372</ele>
        <time>2011-04-17T15:06:32Z</time>
      </trkpt>
      <trkpt lat="48.29773" lon="-4.19034">
        <ele>11.711190223694</ele>
        <time>2011-04-17T15:06:40Z</time>
      </trkpt>
      <trkpt lat="48.29755" lon="-4.18991">
        <ele>12.652098655701</ele>
        <time>2011-04-17T15:06:47Z</time>
      </trkpt>
      <trkpt lat="48.29745" lon="-4.18949">
        <ele>10.746970176697</ele>
        <time>2011-04-17T15:06:53Z</time>
      </trkpt>
      <trkpt lat="48.29729" lon="-4.18889">
        <ele>8.0225791931152</ele>
        <time>2011-04-17T15:07:00Z</time>
      </trkpt>
      <trkpt lat="48.29713" lon="-4.18834">
        <ele>6.247926235199</ele>
        <time>2011-04-17T15:07:06Z</time>
      </trkpt>
      <trkpt lat="48.29709" lon="-4.1882">
        <ele>5.7056555747986</ele>
        <time>2011-04-17T15:07:08Z</time>
      </trkpt>
      <trkpt lat="48.29703" lon="-4.18775">
        <ele>4.4236311912537</ele>
        <time>2011-04-17T15:07:15Z</time>
      </trkpt>
      <trkpt lat="48.29696" lon="-4.18767">
        <ele>4.0577383041382</ele>
        <time>2011-04-17T15:07:19Z</time>
      </trkpt>
      <trkpt lat="48.29692" lon="-4.18755">
        <ele>3.7246291637421</ele>
        <time>2011-04-17T15:07:22Z</time>
      </trkpt>
      <trkpt lat="48.29692" lon="-4.1875">
        <ele>3.601395368576</ele>
        <time>2011-04-17T15:07:23Z</time>
      </trkpt>
      <trkpt lat="48.29683" lon="-4.18691">
        <ele>3.6676216125488</ele>
        <time>2011-04-17T15:07:33Z</time>
      </trkpt>
      <trkpt lat="48.29677" lon="-4.18675">
        <ele>3.4639344215393</ele>
        <time>2011-04-17T15:07:36Z</time>
      </trkpt>
      <trkpt lat="48.29666" lon="-4.18657">
        <ele>3.1053063869476</ele>
        <time>2011-04-17T15:07:41Z</time>
      </trkpt>
      <trkpt lat="48.29665" lon="-4.18641">
        <ele>3.2860908508301</ele>
        <time>2011-04-17T15:07:44Z</time>
      </trkpt>
      <trkpt lat="48.2967" lon="-4.1858">
        <ele>4.290867805481</ele>
        <time>2011-04-17T15:07:54Z</time>
      </trkpt>
      <trkpt lat="48.2967" lon="-4.18541">
        <ele>5.1934571266174</ele>
        <time>2011-04-17T15:08:01Z</time>
      </trkpt>
      <trkpt lat="48.29665" lon="-4.1854">
        <ele>4.9948482513428</ele>
        <time>2011-04-17T15:08:05Z</time>
      </trkpt>
      <trkpt lat="48.29653" lon="-4.1853">
        <ele>4.6365766525269</ele>
        <time>2011-04-17T15:08:09Z</time>
      </trkpt>
      <trkpt lat="48.29651" lon="-4.18525">
        <ele>4.6440019607544</ele>
        <time>2011-04-17T15:08:10Z</time>
      </trkpt>
      <trkpt lat="48.29647" lon="-4.18485">
        <ele>4.7304902076721</ele>
        <time>2011-04-17T15:08:16Z</time>
      </trkpt>
      <trkpt lat="48.29645" lon="-4.18423">
        <ele>4.2481708526611</ele>
        <time>2011-04-17T15:08:25Z</time>
      </trkpt>
      <trkpt lat="48.29645" lon="-4.18358">
        <ele>4.910285949707</ele>
        <time>2011-04-17T15:08:35Z</time>
      </trkpt>
      <trkpt lat="48.29646" lon="-4.18301">
        <ele>5.3498225212097</ele>
        <time>2011-04-17T15:08:44Z</time>
      </trkpt>
      <trkpt lat="48.29647" lon="-4.18278">
        <ele>5.4519095420837</ele>
        <time>2011-04-17T15:08:48Z</time>
      </trkpt>
      <trkpt lat="48.29649" lon="-4.18231">
        <ele>5.2003116607666</ele>
        <time>2011-04-17T15:08:56Z</time>
      </trkpt>
      <trkpt lat="48.29651" lon="-4.1818">
        <ele>4.2587561607361</ele>
        <time>2011-04-17T15:09:04Z</time>
      </trkpt>
      <trkpt lat="48.29657" lon="-4.18132">
        <ele>4.0465416908264</ele>
        <time>2011-04-17T15:09:12Z</time>
      </trkpt>
      <trkpt lat="48.29658" lon="-4.18122">
        <ele>4.0548629760742</ele>
        <time>2011-04-17T15:09:16Z</time>
      </trkpt>
      <trkpt lat="48.29658" lon="-4.18122">
        <ele>4.0573749542236</ele>
        <time>2011-04-17T15:09:17Z</time>
      </trkpt>
    </trkseg>
  </trk>
</gpx>